<?xml version='1.0' encoding='UTF-8'?><gpx version="1.1" creator="JPX - https://github.com/jenetics/jpx" xmlns="http://www.topografix.com/GPX/1/1"><trk><trkseg><trkpt lat="43.32811653394809" lon="-0.4151796496057531"><ele>187.0</ele><time>2026-04-29T14:57:16.001Z</time></trkpt><trkpt lat="43.328108412833416" lon="-0.41527547627019107"><ele>187.0</ele><time>2026-04-29T14:57:18.001Z</time></trkpt><trkpt lat="43.32814759075242" lon="-0.41537395760673357"><ele>187.0</ele><time>2026-04-29T14:57:20Z</time></trkpt><trkpt lat="43.32823180894493" lon="-0.41540631224878066"><ele>187.0</ele><time>2026-04-29T14:57:22Z</time></trkpt><trkpt lat="43.32832448656903" lon="-0.4154168827861138"><ele>187.0</ele><time>2026-04-29T14:57:24Z</time></trkpt><trkpt lat="43.32842021385411" lon="-0.4154604171583312"><ele>187.0</ele><time>2026-04-29T14:57:26Z</time></trkpt><trkpt lat="43.32849162615612" lon="-0.4155446315834855"><ele>187.0</ele><time>2026-04-29T14:57:28Z</time></trkpt><trkpt lat="43.32857271298559" lon="-0.41560573929346456"><ele>187.0</ele><time>2026-04-29T14:57:30Z</time></trkpt><trkpt lat="43.32867338228326" lon="-0.41555842345354516"><ele>187.0</ele><time>2026-04-29T14:57:32Z</time></trkpt><trkpt lat="43.328764110020174" lon="-0.4154521851836143"><ele>187.0</ele><time>2026-04-29T14:57:34Z</time></trkpt><trkpt lat="43.32885796307054" lon="-0.4153365367633255"><ele>187.0</ele><time>2026-04-29T14:57:36Z</time></trkpt><trkpt lat="43.32896993166216" lon="-0.41525695332578405"><ele>187.0</ele><time>2026-04-29T14:57:37.999Z</time></trkpt><trkpt lat="43.32902781735951" lon="-0.41521461081687355"><ele>187.0</ele><time>2026-04-29T14:57:38.999Z</time></trkpt><trkpt lat="43.32909930591866" lon="-0.41520667608473033"><ele>187.0</ele><time>2026-04-29T14:57:39.999Z</time></trkpt><trkpt lat="43.329171835416204" lon="-0.41524151748700083"><ele>187.0</ele><time>2026-04-29T14:57:40.999Z</time></trkpt><trkpt lat="43.32924680242335" lon="-0.4152549968664791"><ele>187.0</ele><time>2026-04-29T14:57:41.999Z</time></trkpt><trkpt lat="43.3293216965741" lon="-0.4152752634972715"><ele>187.0</ele><time>2026-04-29T14:57:42.999Z</time></trkpt><trkpt lat="43.3293925552719" lon="-0.41530390490609226"><ele>187.0</ele><time>2026-04-29T14:57:43.999Z</time></trkpt><trkpt lat="43.32945883329046" lon="-0.4153173921917639"><ele>187.0</ele><time>2026-04-29T14:57:44.999Z</time></trkpt><trkpt lat="43.32956716396835" lon="-0.4153186239162389"><ele>187.0</ele><time>2026-04-29T14:57:46.999Z</time></trkpt><trkpt lat="43.32963961965314" lon="-0.41536886514687066"><ele>187.0</ele><time>2026-04-29T14:57:48.999Z</time></trkpt><trkpt lat="43.32971773364189" lon="-0.41535533757862847"><ele>187.0</ele><time>2026-04-29T14:57:51.999Z</time></trkpt><trkpt lat="43.32972832040389" lon="-0.41517048787388466"><ele>187.0</ele><time>2026-04-29T14:57:53.999Z</time></trkpt><trkpt lat="43.329751596701485" lon="-0.4150881714336593"><ele>187.25</ele><time>2026-04-29T14:57:55.999Z</time></trkpt><trkpt lat="43.32978760797602" lon="-0.4149476181830171"><ele>187.5</ele><time>2026-04-29T14:57:57.999Z</time></trkpt><trkpt lat="43.32980878371107" lon="-0.41480501980630513"><ele>187.75</ele><time>2026-04-29T14:57:59.999Z</time></trkpt><trkpt lat="43.32983876403217" lon="-0.41464204491882006"><ele>188.0</ele><time>2026-04-29T14:58:01.999Z</time></trkpt><trkpt lat="43.32987499022769" lon="-0.4144789717001078"><ele>188.0</ele><time>2026-04-29T14:58:03.999Z</time></trkpt><trkpt lat="43.32988873388548" lon="-0.41439227129496836"><ele>188.0</ele><time>2026-04-29T14:58:04.999Z</time></trkpt><trkpt lat="43.3299078345945" lon="-0.41430747388836947"><ele>188.0</ele><time>2026-04-29T14:58:05.999Z</time></trkpt><trkpt lat="43.32992612887425" lon="-0.4142115070875465"><ele>188.0</ele><time>2026-04-29T14:58:06.999Z</time></trkpt><trkpt lat="43.32994559624977" lon="-0.41411728177718476"><ele>188.0</ele><time>2026-04-29T14:58:07.999Z</time></trkpt><trkpt lat="43.32996059046763" lon="-0.41402483646595184"><ele>188.0</ele><time>2026-04-29T14:58:08.999Z</time></trkpt><trkpt lat="43.32997538343388" lon="-0.41393002222171654"><ele>188.0</ele><time>2026-04-29T14:58:09.999Z</time></trkpt><trkpt lat="43.32998583181706" lon="-0.4138352936672668"><ele>187.85714285714286</ele><time>2026-04-29T14:58:10.999Z</time></trkpt><trkpt lat="43.329989315286674" lon="-0.41373658742314107"><ele>187.71428571428572</ele><time>2026-04-29T14:58:11.999Z</time></trkpt><trkpt lat="43.32999058404624" lon="-0.41364257017882644"><ele>187.57142857142856</ele><time>2026-04-29T14:58:12.999Z</time></trkpt><trkpt lat="43.32998826132914" lon="-0.41354769583523127"><ele>187.42857142857144</ele><time>2026-04-29T14:58:13.999Z</time></trkpt><trkpt lat="43.329983705364015" lon="-0.4134536483790968"><ele>187.2857142857143</ele><time>2026-04-29T14:58:14.999Z</time></trkpt><trkpt lat="43.3299687268115" lon="-0.4133663462671032"><ele>187.14285714285714</ele><time>2026-04-29T14:58:15.999Z</time></trkpt><trkpt lat="43.329949068288265" lon="-0.4132805780304079"><ele>187.0</ele><time>2026-04-29T14:58:16.999Z</time></trkpt><trkpt lat="43.32993436721879" lon="-0.4131886141003352"><ele>187.0</ele><time>2026-04-29T14:58:17.999Z</time></trkpt><trkpt lat="43.329915260691855" lon="-0.41310042519630036"><ele>187.0</ele><time>2026-04-29T14:58:18.999Z</time></trkpt><trkpt lat="43.32990709245774" lon="-0.4130108847985441"><ele>187.0</ele><time>2026-04-29T14:58:19.999Z</time></trkpt><trkpt lat="43.329882533258726" lon="-0.41292261362744026"><ele>187.0</ele><time>2026-04-29T14:58:20.999Z</time></trkpt><trkpt lat="43.3298746045326" lon="-0.41283234044261585"><ele>187.0</ele><time>2026-04-29T14:58:21.999Z</time></trkpt><trkpt lat="43.32985749965676" lon="-0.4127459596577417"><ele>187.0</ele><time>2026-04-29T14:58:22.999Z</time></trkpt><trkpt lat="43.329832660626366" lon="-0.41265015121091225"><ele>187.0</ele><time>2026-04-29T14:58:23.999Z</time></trkpt><trkpt lat="43.32981768049874" lon="-0.4125571169257282"><ele>187.42857142857142</ele><time>2026-04-29T14:58:24.999Z</time></trkpt><trkpt lat="43.32980411564319" lon="-0.41246550263348836"><ele>187.85714285714286</ele><time>2026-04-29T14:58:25.999Z</time></trkpt><trkpt lat="43.32978552209092" lon="-0.41237655254860267"><ele>188.28571428571428</ele><time>2026-04-29T14:58:26.999Z</time></trkpt><trkpt lat="43.32977321949258" lon="-0.41228422802500186"><ele>188.71428571428572</ele><time>2026-04-29T14:58:27.999Z</time></trkpt><trkpt lat="43.3297556083181" lon="-0.41219225734210124"><ele>189.14285714285717</ele><time>2026-04-29T14:58:28.999Z</time></trkpt><trkpt lat="43.32972553220882" lon="-0.41211119751432945"><ele>189.57142857142858</ele><time>2026-04-29T14:58:29.999Z</time></trkpt><trkpt lat="43.32969850756283" lon="-0.4120255201252123"><ele>190.0</ele><time>2026-04-29T14:58:30.999Z</time></trkpt><trkpt lat="43.32967503060141" lon="-0.41194136214698096"><ele>190.0</ele><time>2026-04-29T14:58:31.999Z</time></trkpt><trkpt lat="43.32964638907389" lon="-0.41186122230358907"><ele>190.0</ele><time>2026-04-29T14:58:32.999Z</time></trkpt><trkpt lat="43.32960117443281" lon="-0.41169847172318275"><ele>190.0</ele><time>2026-04-29T14:58:34.999Z</time></trkpt><trkpt lat="43.32955140893201" lon="-0.4115523816631352"><ele>190.0</ele><time>2026-04-29T14:58:36.999Z</time></trkpt><trkpt lat="43.32953047694741" lon="-0.4114681328565821"><ele>190.0</ele><time>2026-04-29T14:58:37.999Z</time></trkpt><trkpt lat="43.32948349776462" lon="-0.4113065466725957"><ele>190.16666666666669</ele><time>2026-04-29T14:58:39.999Z</time></trkpt><trkpt lat="43.32946031425796" lon="-0.4112235937850338"><ele>190.33333333333334</ele><time>2026-04-29T14:58:40.999Z</time></trkpt><trkpt lat="43.32943348524875" lon="-0.4111443102373364"><ele>190.5</ele><time>2026-04-29T14:58:41.999Z</time></trkpt><trkpt lat="43.3293875453732" lon="-0.4109947277227261"><ele>190.66666666666666</ele><time>2026-04-29T14:58:43.999Z</time></trkpt><trkpt lat="43.329361206420614" lon="-0.41091220751480945"><ele>190.83333333333331</ele><time>2026-04-29T14:58:44.999Z</time></trkpt><trkpt lat="43.329343959224786" lon="-0.41082772685064206"><ele>191.0</ele><time>2026-04-29T14:58:45.999Z</time></trkpt><trkpt lat="43.32929755963194" lon="-0.410671458932101"><ele>191.0</ele><time>2026-04-29T14:58:47.999Z</time></trkpt><trkpt lat="43.32926173454566" lon="-0.4105223455258305"><ele>191.0</ele><time>2026-04-29T14:58:49.999Z</time></trkpt><trkpt lat="43.32924390823026" lon="-0.41038364302821934"><ele>191.0</ele><time>2026-04-29T14:58:52Z</time></trkpt><trkpt lat="43.32922924816593" lon="-0.4102288051751559"><ele>191.0</ele><time>2026-04-29T14:58:54Z</time></trkpt><trkpt lat="43.32921904388627" lon="-0.41006701074779683"><ele>191.0</ele><time>2026-04-29T14:58:56Z</time></trkpt><trkpt lat="43.32921852514401" lon="-0.40990418018471003"><ele>190.8</ele><time>2026-04-29T14:58:58Z</time></trkpt><trkpt lat="43.32922355103657" lon="-0.4097364327698272"><ele>190.60000000000002</ele><time>2026-04-29T14:59:00Z</time></trkpt><trkpt lat="43.32923322914591" lon="-0.40960090532361826"><ele>190.4</ele><time>2026-04-29T14:59:02Z</time></trkpt><trkpt lat="43.32928499911799" lon="-0.40972529802871616"><ele>190.2</ele><time>2026-04-29T14:59:08Z</time></trkpt><trkpt lat="43.32927802652944" lon="-0.40986136346814234"><ele>190.0</ele><time>2026-04-29T14:59:10Z</time></trkpt><trkpt lat="43.329273897033936" lon="-0.41001273374560226"><ele>190.0</ele><time>2026-04-29T14:59:12Z</time></trkpt><trkpt lat="43.32928502128474" lon="-0.41018327794234727"><ele>190.0</ele><time>2026-04-29T14:59:14Z</time></trkpt><trkpt lat="43.32930193048566" lon="-0.41034844709288265"><ele>190.0</ele><time>2026-04-29T14:59:16Z</time></trkpt><trkpt lat="43.329314178886236" lon="-0.4104378593800709"><ele>190.0</ele><time>2026-04-29T14:59:17Z</time></trkpt><trkpt lat="43.32932395963913" lon="-0.41052418155744486"><ele>190.0</ele><time>2026-04-29T14:59:18Z</time></trkpt><trkpt lat="43.329341829772474" lon="-0.4106141554046676"><ele>190.0</ele><time>2026-04-29T14:59:19Z</time></trkpt><trkpt lat="43.3293672642039" lon="-0.4107031343129164"><ele>190.0</ele><time>2026-04-29T14:59:20Z</time></trkpt><trkpt lat="43.32939087981602" lon="-0.4107914315371854"><ele>190.0</ele><time>2026-04-29T14:59:21Z</time></trkpt><trkpt lat="43.329412374238665" lon="-0.4108861242725848"><ele>190.0</ele><time>2026-04-29T14:59:22Z</time></trkpt><trkpt lat="43.3294401717794" lon="-0.4109788347864365"><ele>190.0</ele><time>2026-04-29T14:59:23Z</time></trkpt><trkpt lat="43.329470887862534" lon="-0.4110638094669167"><ele>190.0</ele><time>2026-04-29T14:59:24Z</time></trkpt><trkpt lat="43.3295008643952" lon="-0.4111468448446652"><ele>190.0</ele><time>2026-04-29T14:59:25Z</time></trkpt><trkpt lat="43.3295249868996" lon="-0.4112554286004468"><ele>190.0</ele><time>2026-04-29T14:59:26Z</time></trkpt><trkpt lat="43.329555054981455" lon="-0.41134108930552143"><ele>190.0</ele><time>2026-04-29T14:59:27Z</time></trkpt><trkpt lat="43.329583735447784" lon="-0.41144020748466625"><ele>190.0</ele><time>2026-04-29T14:59:28Z</time></trkpt><trkpt lat="43.32961434041054" lon="-0.41153270901883876"><ele>190.0</ele><time>2026-04-29T14:59:29Z</time></trkpt><trkpt lat="43.329650255167046" lon="-0.4116280046086161"><ele>190.0</ele><time>2026-04-29T14:59:30Z</time></trkpt><trkpt lat="43.329674278944054" lon="-0.4117347468036995"><ele>190.0</ele><time>2026-04-29T14:59:31Z</time></trkpt><trkpt lat="43.329706456409575" lon="-0.4118331013933607"><ele>190.0</ele><time>2026-04-29T14:59:32Z</time></trkpt><trkpt lat="43.32973835971755" lon="-0.41193720589937954"><ele>190.0</ele><time>2026-04-29T14:59:33Z</time></trkpt><trkpt lat="43.329768225411826" lon="-0.41204761611131924"><ele>190.0</ele><time>2026-04-29T14:59:34Z</time></trkpt><trkpt lat="43.32979698819306" lon="-0.41215229404310444"><ele>190.0</ele><time>2026-04-29T14:59:35Z</time></trkpt><trkpt lat="43.32982279160738" lon="-0.41225442832310927"><ele>190.0</ele><time>2026-04-29T14:59:36Z</time></trkpt><trkpt lat="43.32984725336246" lon="-0.4123613399993728"><ele>190.0</ele><time>2026-04-29T14:59:37Z</time></trkpt><trkpt lat="43.32986557999159" lon="-0.4124721020225438"><ele>190.0</ele><time>2026-04-29T14:59:38Z</time></trkpt><trkpt lat="43.32988330247242" lon="-0.41257805315117985"><ele>190.16666666666669</ele><time>2026-04-29T14:59:39Z</time></trkpt><trkpt lat="43.32990205857465" lon="-0.4126803502461493"><ele>190.33333333333334</ele><time>2026-04-29T14:59:40Z</time></trkpt><trkpt lat="43.32991857411559" lon="-0.41278345405735195"><ele>190.5</ele><time>2026-04-29T14:59:41Z</time></trkpt><trkpt lat="43.32993525195514" lon="-0.4128830550215071"><ele>190.66666666666666</ele><time>2026-04-29T14:59:42Z</time></trkpt><trkpt lat="43.329951854522925" lon="-0.4129907490557003"><ele>190.83333333333331</ele><time>2026-04-29T14:59:43Z</time></trkpt><trkpt lat="43.32997130527184" lon="-0.41307735363075465"><ele>191.0</ele><time>2026-04-29T14:59:44Z</time></trkpt><trkpt lat="43.330005304884764" lon="-0.4132352373663246"><ele>190.0</ele><time>2026-04-29T14:59:46Z</time></trkpt><trkpt lat="43.33002560061646" lon="-0.4133634353589841"><ele>189.0</ele><time>2026-04-29T14:59:48Z</time></trkpt><trkpt lat="43.330155582362956" lon="-0.41333664028551936"><ele>188.0</ele><time>2026-04-29T14:59:49Z</time></trkpt><trkpt lat="43.33026991760242" lon="-0.4132985555966552"><ele>187.0</ele><time>2026-04-29T14:59:51Z</time></trkpt><trkpt lat="43.330382254196515" lon="-0.41325807551470206"><ele>187.0</ele><time>2026-04-29T14:59:53Z</time></trkpt><trkpt lat="43.33048808801576" lon="-0.4132366312773753"><ele>187.0</ele><time>2026-04-29T14:59:55Z</time></trkpt><trkpt lat="43.33060001664335" lon="-0.41320236881964034"><ele>187.0</ele><time>2026-04-29T14:59:57Z</time></trkpt><trkpt lat="43.33070325137408" lon="-0.4131697949309768"><ele>187.0</ele><time>2026-04-29T14:59:59Z</time></trkpt><trkpt lat="43.33076746164933" lon="-0.4131683997790667"><ele>187.0</ele><time>2026-04-29T15:00:00Z</time></trkpt><trkpt lat="43.33087300323204" lon="-0.41314096893253"><ele>187.8</ele><time>2026-04-29T15:00:02Z</time></trkpt><trkpt lat="43.33097550493816" lon="-0.41312183532159413"><ele>188.6</ele><time>2026-04-29T15:00:04Z</time></trkpt><trkpt lat="43.33108207742155" lon="-0.41310206844710284"><ele>189.4</ele><time>2026-04-29T15:00:06Z</time></trkpt><trkpt lat="43.33119287121622" lon="-0.4130751540715084"><ele>190.20000000000002</ele><time>2026-04-29T15:00:08Z</time></trkpt><trkpt lat="43.331290497439" lon="-0.41303806516131386"><ele>191.0</ele><time>2026-04-29T15:00:10Z</time></trkpt><trkpt lat="43.33138495275715" lon="-0.41302053965949137"><ele>191.0</ele><time>2026-04-29T15:00:12Z</time></trkpt><trkpt lat="43.33144674902912" lon="-0.41299776534980254"><ele>191.0</ele><time>2026-04-29T15:00:14Z</time></trkpt><trkpt lat="43.33152375710878" lon="-0.4129844064397431"><ele>191.0</ele><time>2026-04-29T15:00:25.999Z</time></trkpt><trkpt lat="43.33155994255794" lon="-0.41310343738086763"><ele>191.0</ele><time>2026-04-29T15:00:27.999Z</time></trkpt><trkpt lat="43.33157579762605" lon="-0.4132337202449348"><ele>191.0</ele><time>2026-04-29T15:00:29.999Z</time></trkpt><trkpt lat="43.33160466901183" lon="-0.4133811430010358"><ele>191.0</ele><time>2026-04-29T15:00:31.999Z</time></trkpt><trkpt lat="43.33161935172689" lon="-0.413473862284072"><ele>191.0</ele><time>2026-04-29T15:00:32.999Z</time></trkpt><trkpt lat="43.33163996522679" lon="-0.41355771084313997"><ele>191.0</ele><time>2026-04-29T15:00:33.999Z</time></trkpt><trkpt lat="43.33165345644172" lon="-0.413655063780148"><ele>191.0</ele><time>2026-04-29T15:00:34.999Z</time></trkpt><trkpt lat="43.331670548748335" lon="-0.4137601072739278"><ele>191.0</ele><time>2026-04-29T15:00:35.999Z</time></trkpt><trkpt lat="43.3316877902054" lon="-0.4138573983553083"><ele>191.0</ele><time>2026-04-29T15:00:36.999Z</time></trkpt><trkpt lat="43.33170475233021" lon="-0.41395441736735944"><ele>191.0</ele><time>2026-04-29T15:00:37.999Z</time></trkpt><trkpt lat="43.331724485536085" lon="-0.4140522481390113"><ele>191.0</ele><time>2026-04-29T15:00:38.999Z</time></trkpt><trkpt lat="43.33174200993978" lon="-0.41415669969900726"><ele>191.0</ele><time>2026-04-29T15:00:39.999Z</time></trkpt><trkpt lat="43.33175384017085" lon="-0.41425519549754525"><ele>191.0</ele><time>2026-04-29T15:00:40.999Z</time></trkpt><trkpt lat="43.33176802473945" lon="-0.41435822701860237"><ele>191.0</ele><time>2026-04-29T15:00:41.999Z</time></trkpt><trkpt lat="43.331774298831995" lon="-0.41446471958102526"><ele>191.0</ele><time>2026-04-29T15:00:42.999Z</time></trkpt><trkpt lat="43.33178077913363" lon="-0.41457355360720244"><ele>191.0</ele><time>2026-04-29T15:00:43.999Z</time></trkpt><trkpt lat="43.331789767159066" lon="-0.4146768785624406"><ele>191.0</ele><time>2026-04-29T15:00:44.999Z</time></trkpt><trkpt lat="43.3317966415706" lon="-0.4147851693820519"><ele>191.16666666666666</ele><time>2026-04-29T15:00:45.999Z</time></trkpt><trkpt lat="43.33180260051187" lon="-0.41488904933594356"><ele>191.33333333333331</ele><time>2026-04-29T15:00:46.999Z</time></trkpt><trkpt lat="43.3318094274437" lon="-0.4149903936805332"><ele>191.5</ele><time>2026-04-29T15:00:47.999Z</time></trkpt><trkpt lat="43.33181522633945" lon="-0.41509323685212934"><ele>191.66666666666666</ele><time>2026-04-29T15:00:48.999Z</time></trkpt><trkpt lat="43.33182065450218" lon="-0.41519385779600226"><ele>191.83333333333334</ele><time>2026-04-29T15:00:49.999Z</time></trkpt><trkpt lat="43.33182665915102" lon="-0.41529595225605637"><ele>192.0</ele><time>2026-04-29T15:00:50.999Z</time></trkpt><trkpt lat="43.33184559197904" lon="-0.4154959507665106"><ele>191.66666666666666</ele><time>2026-04-29T15:00:52.999Z</time></trkpt><trkpt lat="43.331853107071026" lon="-0.4155934661882351"><ele>191.33333333333334</ele><time>2026-04-29T15:00:53.999Z</time></trkpt><trkpt lat="43.331857232191204" lon="-0.4156980241638815"><ele>191.0</ele><time>2026-04-29T15:00:54.999Z</time></trkpt><trkpt lat="43.331861585011076" lon="-0.41580169321932087"><ele>190.66666666666669</ele><time>2026-04-29T15:00:55.999Z</time></trkpt><trkpt lat="43.33186687098795" lon="-0.4159104846670565"><ele>190.33333333333334</ele><time>2026-04-29T15:00:56.999Z</time></trkpt><trkpt lat="43.33187524756786" lon="-0.41602320346170735"><ele>190.0</ele><time>2026-04-29T15:00:57.999Z</time></trkpt><trkpt lat="43.331884403700286" lon="-0.4161331569199559"><ele>190.0</ele><time>2026-04-29T15:00:58.999Z</time></trkpt><trkpt lat="43.33189296431516" lon="-0.4162415063300902"><ele>190.0</ele><time>2026-04-29T15:00:59.999Z</time></trkpt><trkpt lat="43.3319012421014" lon="-0.41635017825325044"><ele>190.0</ele><time>2026-04-29T15:01:00.999Z</time></trkpt><trkpt lat="43.33190859469878" lon="-0.41646414844202273"><ele>190.0</ele><time>2026-04-29T15:01:01.999Z</time></trkpt><trkpt lat="43.3319110406698" lon="-0.4165842483915893"><ele>190.0</ele><time>2026-04-29T15:01:02.999Z</time></trkpt><trkpt lat="43.331926219430656" lon="-0.41668971057463466"><ele>190.0</ele><time>2026-04-29T15:01:03.999Z</time></trkpt><trkpt lat="43.33193602154923" lon="-0.41679997240408895"><ele>190.0</ele><time>2026-04-29T15:01:04.999Z</time></trkpt><trkpt lat="43.33194287188132" lon="-0.4169143980397827"><ele>190.0</ele><time>2026-04-29T15:01:06Z</time></trkpt><trkpt lat="43.33194775081931" lon="-0.4170362349988325"><ele>190.0</ele><time>2026-04-29T15:01:07Z</time></trkpt><trkpt lat="43.33195509003093" lon="-0.4171550250676464"><ele>190.0</ele><time>2026-04-29T15:01:08Z</time></trkpt><trkpt lat="43.331952734380685" lon="-0.41724917878325685"><ele>190.0</ele><time>2026-04-29T15:01:09Z</time></trkpt><trkpt lat="43.33195681666122" lon="-0.4173663347419001"><ele>190.0</ele><time>2026-04-29T15:01:10Z</time></trkpt><trkpt lat="43.33196135632316" lon="-0.41747871411800785"><ele>189.83333333333334</ele><time>2026-04-29T15:01:11Z</time></trkpt><trkpt lat="43.33195037038007" lon="-0.41758337923979916"><ele>189.66666666666669</ele><time>2026-04-29T15:01:12Z</time></trkpt><trkpt lat="43.331946735171044" lon="-0.4176853830987406"><ele>189.5</ele><time>2026-04-29T15:01:13Z</time></trkpt><trkpt lat="43.33194172105886" lon="-0.4177944906890831"><ele>189.33333333333334</ele><time>2026-04-29T15:01:14Z</time></trkpt><trkpt lat="43.33193867422444" lon="-0.4179078945028535"><ele>189.16666666666666</ele><time>2026-04-29T15:01:15Z</time></trkpt><trkpt lat="43.33193272114958" lon="-0.41802196624893523"><ele>189.0</ele><time>2026-04-29T15:01:16Z</time></trkpt><trkpt lat="43.33192716467882" lon="-0.4181309564282676"><ele>188.83333333333334</ele><time>2026-04-29T15:01:17Z</time></trkpt><trkpt lat="43.331921311135375" lon="-0.41824228582303463"><ele>188.66666666666666</ele><time>2026-04-29T15:01:18Z</time></trkpt><trkpt lat="43.33191512862137" lon="-0.41835516039635845"><ele>188.5</ele><time>2026-04-29T15:01:19Z</time></trkpt><trkpt lat="43.33191191742039" lon="-0.4184682960648413"><ele>188.33333333333331</ele><time>2026-04-29T15:01:20Z</time></trkpt><trkpt lat="43.33190624295687" lon="-0.41857548129632"><ele>188.16666666666666</ele><time>2026-04-29T15:01:21Z</time></trkpt><trkpt lat="43.3319002739476" lon="-0.4186899092142544"><ele>188.0</ele><time>2026-04-29T15:01:22Z</time></trkpt><trkpt lat="43.331898647873224" lon="-0.41880309779651986"><ele>188.16666666666666</ele><time>2026-04-29T15:01:23Z</time></trkpt><trkpt lat="43.33189288602875" lon="-0.41891404433154034"><ele>188.33333333333331</ele><time>2026-04-29T15:01:24Z</time></trkpt><trkpt lat="43.33188969361526" lon="-0.41902969444413174"><ele>188.5</ele><time>2026-04-29T15:01:25Z</time></trkpt><trkpt lat="43.331884904351924" lon="-0.4191426573474248"><ele>188.66666666666666</ele><time>2026-04-29T15:01:26Z</time></trkpt><trkpt lat="43.33187822506399" lon="-0.4192537803331497"><ele>188.83333333333334</ele><time>2026-04-29T15:01:27Z</time></trkpt><trkpt lat="43.33187477698226" lon="-0.4193659746050917"><ele>189.0</ele><time>2026-04-29T15:01:28Z</time></trkpt><trkpt lat="43.33186942662732" lon="-0.41947816564151347"><ele>189.0</ele><time>2026-04-29T15:01:29Z</time></trkpt><trkpt lat="43.33186518065715" lon="-0.4195864055555949"><ele>189.0</ele><time>2026-04-29T15:01:30Z</time></trkpt><trkpt lat="43.3318641391216" lon="-0.41969588663523183"><ele>189.0</ele><time>2026-04-29T15:01:31Z</time></trkpt><trkpt lat="43.33185825058072" lon="-0.4197962746876034"><ele>189.0</ele><time>2026-04-29T15:01:32Z</time></trkpt><trkpt lat="43.331857412870946" lon="-0.4198892891893528"><ele>189.0</ele><time>2026-04-29T15:01:33Z</time></trkpt><trkpt lat="43.33186460754514" lon="-0.4199758733181549"><ele>189.0</ele><time>2026-04-29T15:01:34Z</time></trkpt><trkpt lat="43.3318663112609" lon="-0.4201196595247077"><ele>188.79999999999998</ele><time>2026-04-29T15:01:36Z</time></trkpt><trkpt lat="43.331920367323896" lon="-0.42018719033681107"><ele>188.6</ele><time>2026-04-29T15:01:38Z</time></trkpt><trkpt lat="43.33201096345697" lon="-0.420193982010138"><ele>188.4</ele><time>2026-04-29T15:01:40Z</time></trkpt><trkpt lat="43.33211492257693" lon="-0.42014608932551356"><ele>188.2</ele><time>2026-04-29T15:01:42Z</time></trkpt><trkpt lat="43.332235180998666" lon="-0.42011548988574177"><ele>188.0</ele><time>2026-04-29T15:01:44Z</time></trkpt><trkpt lat="43.332369207919236" lon="-0.4201083145425893"><ele>188.0</ele><time>2026-04-29T15:01:46Z</time></trkpt><trkpt lat="43.332438516911935" lon="-0.4201068674271483"><ele>188.0</ele><time>2026-04-29T15:01:47Z</time></trkpt><trkpt lat="43.33259621035662" lon="-0.4200732738249703"><ele>188.0</ele><time>2026-04-29T15:01:49Z</time></trkpt><trkpt lat="43.33267352247499" lon="-0.4200484702743471"><ele>188.0</ele><time>2026-04-29T15:01:50Z</time></trkpt><trkpt lat="43.33275862462428" lon="-0.4200259044814362"><ele>188.0</ele><time>2026-04-29T15:01:51Z</time></trkpt><trkpt lat="43.33283576428163" lon="-0.42000270168294407"><ele>188.0</ele><time>2026-04-29T15:01:52Z</time></trkpt><trkpt lat="43.3329087832153" lon="-0.4199667954937262"><ele>188.0</ele><time>2026-04-29T15:01:53Z</time></trkpt><trkpt lat="43.33298566098291" lon="-0.4199403856069504"><ele>188.0</ele><time>2026-04-29T15:01:54Z</time></trkpt><trkpt lat="43.33305969802631" lon="-0.4199236898783408"><ele>188.0</ele><time>2026-04-29T15:01:55Z</time></trkpt><trkpt lat="43.33313483580431" lon="-0.4199017803245072"><ele>188.0</ele><time>2026-04-29T15:01:56Z</time></trkpt><trkpt lat="43.33321551854136" lon="-0.4198857845511112"><ele>188.0</ele><time>2026-04-29T15:01:57Z</time></trkpt><trkpt lat="43.33329557229598" lon="-0.41987315893180205"><ele>187.83333333333331</ele><time>2026-04-29T15:01:58Z</time></trkpt><trkpt lat="43.3333744715439" lon="-0.4198621910537294"><ele>187.66666666666666</ele><time>2026-04-29T15:01:59Z</time></trkpt><trkpt lat="43.33345357423752" lon="-0.4198484896598014"><ele>187.5</ele><time>2026-04-29T15:02:00Z</time></trkpt><trkpt lat="43.33352817812935" lon="-0.41985097107758623"><ele>187.33333333333334</ele><time>2026-04-29T15:02:01Z</time></trkpt><trkpt lat="43.333614155911754" lon="-0.41986810283182874"><ele>187.16666666666669</ele><time>2026-04-29T15:02:02Z</time></trkpt><trkpt lat="43.33368958140171" lon="-0.41990242592039745"><ele>187.0</ele><time>2026-04-29T15:02:03Z</time></trkpt><trkpt lat="43.333759341119844" lon="-0.4199250388311222"><ele>187.0</ele><time>2026-04-29T15:02:04Z</time></trkpt><trkpt lat="43.33383586711531" lon="-0.4199464113620252"><ele>187.0</ele><time>2026-04-29T15:02:05Z</time></trkpt><trkpt lat="43.33391096038764" lon="-0.4199517851373599"><ele>187.0</ele><time>2026-04-29T15:02:06Z</time></trkpt><trkpt lat="43.33398446291398" lon="-0.4199563089970249"><ele>187.0</ele><time>2026-04-29T15:02:07Z</time></trkpt><trkpt lat="43.33405665696349" lon="-0.41996447570318096"><ele>187.0</ele><time>2026-04-29T15:02:08Z</time></trkpt><trkpt lat="43.334132016690525" lon="-0.4199659107085777"><ele>187.0</ele><time>2026-04-29T15:02:09Z</time></trkpt><trkpt lat="43.3341982381135" lon="-0.41995897740417626"><ele>187.0</ele><time>2026-04-29T15:02:10Z</time></trkpt><trkpt lat="43.33426999482155" lon="-0.41995171068164966"><ele>186.83333333333334</ele><time>2026-04-29T15:02:11Z</time></trkpt><trkpt lat="43.33439905324291" lon="-0.4199402718896088"><ele>186.66666666666669</ele><time>2026-04-29T15:02:13Z</time></trkpt><trkpt lat="43.334469379381524" lon="-0.41993182249017247"><ele>186.5</ele><time>2026-04-29T15:02:14Z</time></trkpt><trkpt lat="43.334537921157384" lon="-0.4199221526002558"><ele>186.33333333333334</ele><time>2026-04-29T15:02:15Z</time></trkpt><trkpt lat="43.33460580681718" lon="-0.41991264624920993"><ele>186.16666666666666</ele><time>2026-04-29T15:02:16Z</time></trkpt><trkpt lat="43.334672254448066" lon="-0.4199048855786232"><ele>186.0</ele><time>2026-04-29T15:02:17Z</time></trkpt><trkpt lat="43.334744501667316" lon="-0.4198998276361269"><ele>186.42857142857144</ele><time>2026-04-29T15:02:18Z</time></trkpt><trkpt lat="43.33481645599246" lon="-0.4198914537261553"><ele>186.85714285714286</ele><time>2026-04-29T15:02:19Z</time></trkpt><trkpt lat="43.334884110307904" lon="-0.41988188597019255"><ele>187.28571428571428</ele><time>2026-04-29T15:02:20Z</time></trkpt><trkpt lat="43.33495179648925" lon="-0.4198733588229892"><ele>187.71428571428572</ele><time>2026-04-29T15:02:21Z</time></trkpt><trkpt lat="43.335021552758135" lon="-0.4198643284940856"><ele>188.14285714285714</ele><time>2026-04-29T15:02:22Z</time></trkpt><trkpt lat="43.335085860871324" lon="-0.4198635637914702"><ele>188.57142857142858</ele><time>2026-04-29T15:02:23Z</time></trkpt><trkpt lat="43.33516374807301" lon="-0.41985546447964056"><ele>189.0</ele><time>2026-04-29T15:02:24Z</time></trkpt><trkpt lat="43.335233413427645" lon="-0.4198469321307248"><ele>189.0</ele><time>2026-04-29T15:02:25Z</time></trkpt><trkpt lat="43.33529882954176" lon="-0.4198391310552079"><ele>189.0</ele><time>2026-04-29T15:02:26Z</time></trkpt><trkpt lat="43.335370552195144" lon="-0.4198384953275037"><ele>189.0</ele><time>2026-04-29T15:02:27Z</time></trkpt><trkpt lat="43.33544280716382" lon="-0.41983767772281094"><ele>189.0</ele><time>2026-04-29T15:02:28Z</time></trkpt><trkpt lat="43.33551286004743" lon="-0.4198427055603223"><ele>189.0</ele><time>2026-04-29T15:02:29Z</time></trkpt><trkpt lat="43.33563898137761" lon="-0.41985430836957643"><ele>189.0</ele><time>2026-04-29T15:02:31Z</time></trkpt><trkpt lat="43.335705557890655" lon="-0.4198597588508966"><ele>189.0</ele><time>2026-04-29T15:02:32Z</time></trkpt><trkpt lat="43.33581328885372" lon="-0.41985631180555577"><ele>189.0</ele><time>2026-04-29T15:02:34Z</time></trkpt><trkpt lat="43.3359018721147" lon="-0.41983897541570575"><ele>189.0</ele><time>2026-04-29T15:02:37Z</time></trkpt><trkpt lat="43.335976812009584" lon="-0.4198107388962918"><ele>189.0</ele><time>2026-04-29T15:02:42Z</time></trkpt><trkpt lat="43.336030537512826" lon="-0.41974296928919036"><ele>189.0</ele><time>2026-04-29T15:02:45Z</time></trkpt><trkpt lat="43.33603138444261" lon="-0.4196347543562033"><ele>189.0</ele><time>2026-04-29T15:02:47Z</time></trkpt><trkpt lat="43.33605426917498" lon="-0.4195405544235833"><ele>189.0</ele><time>2026-04-29T15:02:49Z</time></trkpt><trkpt lat="43.33622330639229" lon="-0.41950572702856487"><ele>189.0</ele><time>2026-04-29T15:02:51Z</time></trkpt><trkpt lat="43.33629999226646" lon="-0.4194027899030281"><ele>189.0</ele><time>2026-04-29T15:02:53Z</time></trkpt><trkpt lat="43.336385906175494" lon="-0.4192842340216218"><ele>189.0</ele><time>2026-04-29T15:02:54.999Z</time></trkpt><trkpt lat="43.33642756771205" lon="-0.4192192371635698"><ele>188.57142857142858</ele><time>2026-04-29T15:02:55.999Z</time></trkpt><trkpt lat="43.336469371703544" lon="-0.41914441292643856"><ele>188.14285714285714</ele><time>2026-04-29T15:02:56.999Z</time></trkpt><trkpt lat="43.33651131917835" lon="-0.41906708241970275"><ele>187.71428571428572</ele><time>2026-04-29T15:02:57.999Z</time></trkpt><trkpt lat="43.33654048727196" lon="-0.41898237185082815"><ele>187.28571428571428</ele><time>2026-04-29T15:02:58.999Z</time></trkpt><trkpt lat="43.336570624354714" lon="-0.4188891959488699"><ele>186.85714285714286</ele><time>2026-04-29T15:02:59.999Z</time></trkpt><trkpt lat="43.33659980349923" lon="-0.4187893817623349"><ele>186.42857142857144</ele><time>2026-04-29T15:03:00.999Z</time></trkpt><trkpt lat="43.33662094803486" lon="-0.4186914747339317"><ele>186.0</ele><time>2026-04-29T15:03:01.999Z</time></trkpt><trkpt lat="43.336636168502984" lon="-0.4185512083566612"><ele>186.0</ele><time>2026-04-29T15:03:02.999Z</time></trkpt><trkpt lat="43.336703309513425" lon="-0.41846261401575013"><ele>186.0</ele><time>2026-04-29T15:03:03.999Z</time></trkpt><trkpt lat="43.33676474851524" lon="-0.418376367381971"><ele>186.0</ele><time>2026-04-29T15:03:04.999Z</time></trkpt><trkpt lat="43.33684847110697" lon="-0.4183013559820358"><ele>186.0</ele><time>2026-04-29T15:03:06Z</time></trkpt><trkpt lat="43.33694134759648" lon="-0.4182468622624398"><ele>186.0</ele><time>2026-04-29T15:03:07Z</time></trkpt><trkpt lat="43.337039111207915" lon="-0.41823898124989706"><ele>186.0</ele><time>2026-04-29T15:03:08Z</time></trkpt><trkpt lat="43.33713066834724" lon="-0.4182364703878048"><ele>186.0</ele><time>2026-04-29T15:03:09Z</time></trkpt><trkpt lat="43.33721525250158" lon="-0.4182238458365823"><ele>186.0</ele><time>2026-04-29T15:03:10Z</time></trkpt><trkpt lat="43.337300824742016" lon="-0.41819431753039177"><ele>186.0</ele><time>2026-04-29T15:03:11Z</time></trkpt><trkpt lat="43.337372652926476" lon="-0.41814144060878705"><ele>186.0</ele><time>2026-04-29T15:03:12Z</time></trkpt><trkpt lat="43.33744803095872" lon="-0.4180821185886695"><ele>186.0</ele><time>2026-04-29T15:03:13Z</time></trkpt><trkpt lat="43.33751608122329" lon="-0.4180359590532706"><ele>185.0</ele><time>2026-04-29T15:03:14Z</time></trkpt><trkpt lat="43.337576069211586" lon="-0.417977694564389"><ele>184.0</ele><time>2026-04-29T15:03:15Z</time></trkpt><trkpt lat="43.33764502964974" lon="-0.4179150945448104"><ele>183.0</ele><time>2026-04-29T15:03:16Z</time></trkpt><trkpt lat="43.33770477014923" lon="-0.41785962944571853"><ele>182.0</ele><time>2026-04-29T15:03:17Z</time></trkpt><trkpt lat="43.33775945649607" lon="-0.4178081372042755"><ele>181.0</ele><time>2026-04-29T15:03:18Z</time></trkpt><trkpt lat="43.337813727392806" lon="-0.4177583536387491"><ele>180.0</ele><time>2026-04-29T15:03:19Z</time></trkpt><trkpt lat="43.337906497320176" lon="-0.4176917730723992"><ele>180.0</ele><time>2026-04-29T15:03:21Z</time></trkpt><trkpt lat="43.33797129780541" lon="-0.41766637091587094"><ele>180.0</ele><time>2026-04-29T15:03:23Z</time></trkpt><trkpt lat="43.3378847503905" lon="-0.41769817038778845"><ele>180.0</ele><time>2026-04-29T15:03:28Z</time></trkpt><trkpt lat="43.337818736101326" lon="-0.41774946323479667"><ele>180.0</ele><time>2026-04-29T15:03:30Z</time></trkpt><trkpt lat="43.33773970734675" lon="-0.41783412174375895"><ele>180.0</ele><time>2026-04-29T15:03:32Z</time></trkpt><trkpt lat="43.33764279725412" lon="-0.4179439749163735"><ele>179.6</ele><time>2026-04-29T15:03:34Z</time></trkpt><trkpt lat="43.337547990438004" lon="-0.41803125491766363"><ele>179.2</ele><time>2026-04-29T15:03:36Z</time></trkpt><trkpt lat="43.33749421814694" lon="-0.4180772162865642"><ele>178.8</ele><time>2026-04-29T15:03:37Z</time></trkpt><trkpt lat="43.3373938990648" lon="-0.41816222982810586"><ele>178.4</ele><time>2026-04-29T15:03:39Z</time></trkpt><trkpt lat="43.337285615562024" lon="-0.4182184869413113"><ele>178.0</ele><time>2026-04-29T15:03:41Z</time></trkpt><trkpt lat="43.33716999757505" lon="-0.41825413324682803"><ele>179.60000000000002</ele><time>2026-04-29T15:03:43Z</time></trkpt><trkpt lat="43.337108583142005" lon="-0.41827341495115183"><ele>181.20000000000002</ele><time>2026-04-29T15:03:44Z</time></trkpt><trkpt lat="43.33698805768118" lon="-0.41828153301695326"><ele>182.8</ele><time>2026-04-29T15:03:46Z</time></trkpt><trkpt lat="43.33687594502305" lon="-0.41831077021714935"><ele>184.4</ele><time>2026-04-29T15:03:48Z</time></trkpt><trkpt lat="43.33679193774928" lon="-0.41840990832361735"><ele>186.0</ele><time>2026-04-29T15:03:50Z</time></trkpt><trkpt lat="43.33673598768618" lon="-0.41850266067950936"><ele>186.0</ele><time>2026-04-29T15:03:52Z</time></trkpt><trkpt lat="43.336680545517765" lon="-0.41862540988727837"><ele>186.0</ele><time>2026-04-29T15:03:54Z</time></trkpt><trkpt lat="43.33663799034483" lon="-0.4187380043171197"><ele>186.0</ele><time>2026-04-29T15:03:56Z</time></trkpt><trkpt lat="43.33661500780828" lon="-0.4188335040206595"><ele>186.0</ele><time>2026-04-29T15:03:58Z</time></trkpt><trkpt lat="43.336585760069234" lon="-0.4189152985373686"><ele>186.0</ele><time>2026-04-29T15:04:00Z</time></trkpt><trkpt lat="43.336548635144936" lon="-0.4190263333663544"><ele>186.0</ele><time>2026-04-29T15:04:03Z</time></trkpt><trkpt lat="43.33650673902338" lon="-0.41914501110017593"><ele>185.66666666666666</ele><time>2026-04-29T15:04:06Z</time></trkpt><trkpt lat="43.33646889376698" lon="-0.4192204583637783"><ele>185.33333333333334</ele><time>2026-04-29T15:04:08Z</time></trkpt><trkpt lat="43.336419472835075" lon="-0.4192959710780136"><ele>185.0</ele><time>2026-04-29T15:04:10Z</time></trkpt><trkpt lat="43.33636822545304" lon="-0.41938299586604655"><ele>184.66666666666669</ele><time>2026-04-29T15:04:12Z</time></trkpt><trkpt lat="43.33630236555648" lon="-0.41947093484282133"><ele>184.33333333333334</ele><time>2026-04-29T15:04:14Z</time></trkpt><trkpt lat="43.33623097871927" lon="-0.4195619841991766"><ele>184.0</ele><time>2026-04-29T15:04:16Z</time></trkpt><trkpt lat="43.3361608802578" lon="-0.4196535225914973"><ele>185.0</ele><time>2026-04-29T15:04:18Z</time></trkpt><trkpt lat="43.33609929352249" lon="-0.4197403310842934"><ele>186.0</ele><time>2026-04-29T15:04:20Z</time></trkpt><trkpt lat="43.33602077407962" lon="-0.4198440962784259"><ele>187.0</ele><time>2026-04-29T15:04:24Z</time></trkpt><trkpt lat="43.33599669809888" lon="-0.4199355930963739"><ele>188.0</ele><time>2026-04-29T15:04:26Z</time></trkpt><trkpt lat="43.33597826296978" lon="-0.42005828543711277"><ele>189.0</ele><time>2026-04-29T15:04:28Z</time></trkpt><trkpt lat="43.33596271447759" lon="-0.4201885471982461"><ele>189.0</ele><time>2026-04-29T15:04:30Z</time></trkpt><trkpt lat="43.3359474683374" lon="-0.420328257064039"><ele>189.0</ele><time>2026-04-29T15:04:32Z</time></trkpt><trkpt lat="43.33593705378172" lon="-0.4204224163923283"><ele>189.0</ele><time>2026-04-29T15:04:33Z</time></trkpt><trkpt lat="43.33591803678323" lon="-0.42051244276476285"><ele>189.0</ele><time>2026-04-29T15:04:34Z</time></trkpt><trkpt lat="43.335892740218654" lon="-0.4206916276345277"><ele>189.0</ele><time>2026-04-29T15:04:36Z</time></trkpt><trkpt lat="43.33588569181315" lon="-0.42078392705961654"><ele>189.0</ele><time>2026-04-29T15:04:37Z</time></trkpt><trkpt lat="43.33587035206307" lon="-0.4208828372472714"><ele>188.57142857142858</ele><time>2026-04-29T15:04:38Z</time></trkpt><trkpt lat="43.335848280262" lon="-0.4209723242314292"><ele>188.14285714285714</ele><time>2026-04-29T15:04:39Z</time></trkpt><trkpt lat="43.33583602525562" lon="-0.4210632191579701"><ele>187.71428571428572</ele><time>2026-04-29T15:04:40Z</time></trkpt><trkpt lat="43.33582099967717" lon="-0.4211608468032536"><ele>187.28571428571428</ele><time>2026-04-29T15:04:41Z</time></trkpt><trkpt lat="43.33580173213831" lon="-0.42125230151185344"><ele>186.85714285714286</ele><time>2026-04-29T15:04:42Z</time></trkpt><trkpt lat="43.33578623999968" lon="-0.421349018449831"><ele>186.42857142857144</ele><time>2026-04-29T15:04:43Z</time></trkpt><trkpt lat="43.335769941942324" lon="-0.4214426404528405"><ele>186.0</ele><time>2026-04-29T15:04:44Z</time></trkpt><trkpt lat="43.33574973813475" lon="-0.42154300062577005"><ele>186.00000000000003</ele><time>2026-04-29T15:04:45Z</time></trkpt><trkpt lat="43.33572453794758" lon="-0.42164217019491124"><ele>186.0</ele><time>2026-04-29T15:04:46Z</time></trkpt><trkpt lat="43.33569684515086" lon="-0.4217308386815848"><ele>186.0</ele><time>2026-04-29T15:04:47Z</time></trkpt><trkpt lat="43.33566039545226" lon="-0.4218182104458341"><ele>186.0</ele><time>2026-04-29T15:04:48Z</time></trkpt><trkpt lat="43.33562361130518" lon="-0.42190901641035006"><ele>186.0</ele><time>2026-04-29T15:04:49Z</time></trkpt><trkpt lat="43.335578546144795" lon="-0.42199231488603295"><ele>186.00000000000003</ele><time>2026-04-29T15:04:50Z</time></trkpt><trkpt lat="43.335533698168746" lon="-0.42207753599062864"><ele>186.0</ele><time>2026-04-29T15:04:51Z</time></trkpt><trkpt lat="43.33548880786941" lon="-0.42216038852529786"><ele>186.16666666666666</ele><time>2026-04-29T15:04:52Z</time></trkpt><trkpt lat="43.3354406685676" lon="-0.4222431242150779"><ele>186.33333333333334</ele><time>2026-04-29T15:04:53Z</time></trkpt><trkpt lat="43.33539557957667" lon="-0.42232665561005833"><ele>186.5</ele><time>2026-04-29T15:04:54Z</time></trkpt><trkpt lat="43.335350196983484" lon="-0.42241107715066445"><ele>186.66666666666669</ele><time>2026-04-29T15:04:55Z</time></trkpt><trkpt lat="43.33530448238823" lon="-0.4224939978321825"><ele>186.83333333333334</ele><time>2026-04-29T15:04:56Z</time></trkpt><trkpt lat="43.335259845461906" lon="-0.4225796194370343"><ele>187.0</ele><time>2026-04-29T15:04:57Z</time></trkpt><trkpt lat="43.33520872486886" lon="-0.42266164979835325"><ele>187.0</ele><time>2026-04-29T15:04:58Z</time></trkpt><trkpt lat="43.33515462945683" lon="-0.42273466108458185"><ele>187.0</ele><time>2026-04-29T15:04:59Z</time></trkpt><trkpt lat="43.33510428993303" lon="-0.4228087146826743"><ele>187.0</ele><time>2026-04-29T15:05:00Z</time></trkpt><trkpt lat="43.33505143013207" lon="-0.42288764228456116"><ele>187.0</ele><time>2026-04-29T15:05:01Z</time></trkpt><trkpt lat="43.33499521890745" lon="-0.42295951585354336"><ele>187.0</ele><time>2026-04-29T15:05:02Z</time></trkpt><trkpt lat="43.33493466350482" lon="-0.42302778584818795"><ele>187.0</ele><time>2026-04-29T15:05:03Z</time></trkpt><trkpt lat="43.33487342945108" lon="-0.42309679425544433"><ele>186.66666666666669</ele><time>2026-04-29T15:05:04Z</time></trkpt><trkpt lat="43.33480987659972" lon="-0.4231529101241226"><ele>186.33333333333334</ele><time>2026-04-29T15:05:05Z</time></trkpt><trkpt lat="43.33474366206055" lon="-0.42320561941484286"><ele>186.0</ele><time>2026-04-29T15:05:06Z</time></trkpt><trkpt lat="43.33468074269015" lon="-0.4232616232028159"><ele>185.66666666666666</ele><time>2026-04-29T15:05:07Z</time></trkpt><trkpt lat="43.33461265702619" lon="-0.4233154297230407"><ele>185.33333333333331</ele><time>2026-04-29T15:05:08Z</time></trkpt><trkpt lat="43.33455050341132" lon="-0.42337028723879133"><ele>185.0</ele><time>2026-04-29T15:05:09Z</time></trkpt><trkpt lat="43.334481620672875" lon="-0.4234218701470761"><ele>184.99999999999997</ele><time>2026-04-29T15:05:10Z</time></trkpt><trkpt lat="43.33441743195065" lon="-0.42347679442386404"><ele>185.0</ele><time>2026-04-29T15:05:11Z</time></trkpt><trkpt lat="43.334353984794" lon="-0.4235279834833926"><ele>185.0</ele><time>2026-04-29T15:05:12Z</time></trkpt><trkpt lat="43.3342947974421" lon="-0.4235770585776021"><ele>185.0</ele><time>2026-04-29T15:05:13Z</time></trkpt><trkpt lat="43.33423411582246" lon="-0.423636684386862"><ele>185.0</ele><time>2026-04-29T15:05:14Z</time></trkpt><trkpt lat="43.33417547124784" lon="-0.42369559415908353"><ele>184.99999999999997</ele><time>2026-04-29T15:05:15Z</time></trkpt><trkpt lat="43.33412079353153" lon="-0.4237491942799526"><ele>185.0</ele><time>2026-04-29T15:05:16Z</time></trkpt><trkpt lat="43.33406550885152" lon="-0.42380242934121737"><ele>185.0</ele><time>2026-04-29T15:05:17Z</time></trkpt><trkpt lat="43.3340130469187" lon="-0.423852033792992"><ele>185.0</ele><time>2026-04-29T15:05:18Z</time></trkpt><trkpt lat="43.33396159196747" lon="-0.42390586282006215"><ele>185.0</ele><time>2026-04-29T15:05:19Z</time></trkpt><trkpt lat="43.333867235422744" lon="-0.4240118794981402"><ele>185.0</ele><time>2026-04-29T15:05:21Z</time></trkpt><trkpt lat="43.333831023934046" lon="-0.4241159605656003"><ele>185.0</ele><time>2026-04-29T15:05:23Z</time></trkpt><trkpt lat="43.33384473109193" lon="-0.42420798038942337"><ele>185.0</ele><time>2026-04-29T15:05:25Z</time></trkpt><trkpt lat="43.33387181125131" lon="-0.4243356712791618"><ele>185.0</ele><time>2026-04-29T15:05:27Z</time></trkpt><trkpt lat="43.33389679846941" lon="-0.4244643904091583"><ele>185.0</ele><time>2026-04-29T15:05:29Z</time></trkpt><trkpt lat="43.333937582398804" lon="-0.4246171671778759"><ele>185.0</ele><time>2026-04-29T15:05:31Z</time></trkpt><trkpt lat="43.333976231390494" lon="-0.424773803499932"><ele>185.0</ele><time>2026-04-29T15:05:33Z</time></trkpt><trkpt lat="43.334013677415406" lon="-0.4249237920735323"><ele>184.8</ele><time>2026-04-29T15:05:35Z</time></trkpt><trkpt lat="43.334056448920784" lon="-0.4250742369427834"><ele>184.6</ele><time>2026-04-29T15:05:37Z</time></trkpt><trkpt lat="43.33409004789349" lon="-0.4252210458409645"><ele>184.39999999999998</ele><time>2026-04-29T15:05:39Z</time></trkpt><trkpt lat="43.33411995297131" lon="-0.4253458859353068"><ele>184.2</ele><time>2026-04-29T15:05:41Z</time></trkpt><trkpt lat="43.334138764787234" lon="-0.4254335652150926"><ele>184.0</ele><time>2026-04-29T15:05:43Z</time></trkpt><trkpt lat="43.33425398760334" lon="-0.4257883990336216"><ele>184.0</ele><time>2026-04-29T15:06:06Z</time></trkpt><trkpt lat="43.33423732901804" lon="-0.4258742809346809"><ele>184.0</ele><time>2026-04-29T15:06:08Z</time></trkpt><trkpt lat="43.334220992393504" lon="-0.4259605194415159"><ele>184.0</ele><time>2026-04-29T15:06:11Z</time></trkpt><trkpt lat="43.33432191928923" lon="-0.42611850920317107"><ele>184.0</ele><time>2026-04-29T15:06:14Z</time></trkpt><trkpt lat="43.334382145409016" lon="-0.4262314288280143"><ele>184.0</ele><time>2026-04-29T15:06:16Z</time></trkpt><trkpt lat="43.334433125480665" lon="-0.4263678621390703"><ele>184.16666666666669</ele><time>2026-04-29T15:06:18Z</time></trkpt><trkpt lat="43.33447676803263" lon="-0.42652962159389146"><ele>184.33333333333334</ele><time>2026-04-29T15:06:20Z</time></trkpt><trkpt lat="43.33450262679598" lon="-0.4266143922499419"><ele>184.5</ele><time>2026-04-29T15:06:21Z</time></trkpt><trkpt lat="43.33452821106308" lon="-0.42670801903688577"><ele>184.66666666666666</ele><time>2026-04-29T15:06:22Z</time></trkpt><trkpt lat="43.334547614566596" lon="-0.42679684304305254"><ele>184.83333333333331</ele><time>2026-04-29T15:06:23Z</time></trkpt><trkpt lat="43.33457106341769" lon="-0.4268844223002058"><ele>185.0</ele><time>2026-04-29T15:06:24Z</time></trkpt><trkpt lat="43.33459228004833" lon="-0.4269771183734529"><ele>185.16666666666666</ele><time>2026-04-29T15:06:25Z</time></trkpt><trkpt lat="43.33461991796727" lon="-0.42716578649049064"><ele>185.33333333333331</ele><time>2026-04-29T15:06:27Z</time></trkpt><trkpt lat="43.33462643110101" lon="-0.42726943484343943"><ele>185.5</ele><time>2026-04-29T15:06:28Z</time></trkpt><trkpt lat="43.334632688230876" lon="-0.4273666046036895"><ele>185.66666666666666</ele><time>2026-04-29T15:06:29Z</time></trkpt><trkpt lat="43.334641323558145" lon="-0.4274631369134724"><ele>185.83333333333334</ele><time>2026-04-29T15:06:30Z</time></trkpt><trkpt lat="43.33464309388026" lon="-0.42756418668750235"><ele>186.0</ele><time>2026-04-29T15:06:31Z</time></trkpt><trkpt lat="43.334645400825195" lon="-0.42766327905653945"><ele>186.00000000000003</ele><time>2026-04-29T15:06:32Z</time></trkpt><trkpt lat="43.33465252801972" lon="-0.4277682891563105"><ele>186.0</ele><time>2026-04-29T15:06:33Z</time></trkpt><trkpt lat="43.33466170418975" lon="-0.42787183595438355"><ele>186.0</ele><time>2026-04-29T15:06:34Z</time></trkpt><trkpt lat="43.33466446180534" lon="-0.4279712606424969"><ele>186.0</ele><time>2026-04-29T15:06:35Z</time></trkpt><trkpt lat="43.334669447038635" lon="-0.4280723863809074"><ele>186.0</ele><time>2026-04-29T15:06:36Z</time></trkpt><trkpt lat="43.33467447279238" lon="-0.4281718076748873"><ele>186.00000000000003</ele><time>2026-04-29T15:06:37Z</time></trkpt><trkpt lat="43.33468099234807" lon="-0.4282705660549798"><ele>186.0</ele><time>2026-04-29T15:06:38Z</time></trkpt><trkpt lat="43.33468632547395" lon="-0.42837050652649644"><ele>185.85714285714286</ele><time>2026-04-29T15:06:39Z</time></trkpt><trkpt lat="43.33469112562715" lon="-0.4284744465382481"><ele>185.71428571428572</ele><time>2026-04-29T15:06:40Z</time></trkpt><trkpt lat="43.33469353493825" lon="-0.4285739477692412"><ele>185.57142857142856</ele><time>2026-04-29T15:06:41Z</time></trkpt><trkpt lat="43.334701265021266" lon="-0.42867879063617126"><ele>185.42857142857144</ele><time>2026-04-29T15:06:42Z</time></trkpt><trkpt lat="43.33470712729792" lon="-0.4287812372629941"><ele>185.28571428571428</ele><time>2026-04-29T15:06:43Z</time></trkpt><trkpt lat="43.33471087807061" lon="-0.4288788203859933"><ele>185.14285714285714</ele><time>2026-04-29T15:06:44Z</time></trkpt><trkpt lat="43.33471656339694" lon="-0.42897954474014754"><ele>185.0</ele><time>2026-04-29T15:06:45Z</time></trkpt><trkpt lat="43.33472675149167" lon="-0.4290786689207214"><ele>185.0</ele><time>2026-04-29T15:06:46Z</time></trkpt><trkpt lat="43.33473260824586" lon="-0.4291806833049409"><ele>185.0</ele><time>2026-04-29T15:06:47Z</time></trkpt><trkpt lat="43.33474219970222" lon="-0.4292797273410975"><ele>185.0</ele><time>2026-04-29T15:06:48Z</time></trkpt><trkpt lat="43.33476075216208" lon="-0.42938166153393453"><ele>185.0</ele><time>2026-04-29T15:06:49Z</time></trkpt><trkpt lat="43.334784750257306" lon="-0.42948037004097706"><ele>185.0</ele><time>2026-04-29T15:06:50Z</time></trkpt><trkpt lat="43.334812483331504" lon="-0.4295832824586902"><ele>185.0</ele><time>2026-04-29T15:06:51Z</time></trkpt><trkpt lat="43.33484038425786" lon="-0.42968343319665603"><ele>184.83333333333331</ele><time>2026-04-29T15:06:52Z</time></trkpt><trkpt lat="43.33486875918429" lon="-0.42978082412202223"><ele>184.66666666666666</ele><time>2026-04-29T15:06:53Z</time></trkpt><trkpt lat="43.334896147324336" lon="-0.42987589042296953"><ele>184.5</ele><time>2026-04-29T15:06:54Z</time></trkpt><trkpt lat="43.334924229882525" lon="-0.42997666336307294"><ele>184.33333333333334</ele><time>2026-04-29T15:06:55Z</time></trkpt><trkpt lat="43.33495394333134" lon="-0.4300773760404788"><ele>184.16666666666669</ele><time>2026-04-29T15:06:56Z</time></trkpt><trkpt lat="43.33498544636389" lon="-0.43017680420557064"><ele>184.0</ele><time>2026-04-29T15:06:57Z</time></trkpt><trkpt lat="43.335014663486774" lon="-0.43027071119087884"><ele>184.0</ele><time>2026-04-29T15:06:58Z</time></trkpt><trkpt lat="43.335044671190396" lon="-0.4303725206210707"><ele>184.0</ele><time>2026-04-29T15:06:59Z</time></trkpt><trkpt lat="43.33507470301164" lon="-0.4304762627950404"><ele>184.0</ele><time>2026-04-29T15:07:00Z</time></trkpt><trkpt lat="43.33510246703771" lon="-0.43057211695120506"><ele>184.0</ele><time>2026-04-29T15:07:01Z</time></trkpt><trkpt lat="43.335134193590804" lon="-0.43067346476985696"><ele>184.0</ele><time>2026-04-29T15:07:02Z</time></trkpt><trkpt lat="43.33517068745801" lon="-0.4307641166129318"><ele>184.0</ele><time>2026-04-29T15:07:03Z</time></trkpt><trkpt lat="43.335212974141534" lon="-0.430850640958563"><ele>183.79999999999998</ele><time>2026-04-29T15:07:04Z</time></trkpt><trkpt lat="43.33526153348518" lon="-0.4309362088330673"><ele>183.6</ele><time>2026-04-29T15:07:05Z</time></trkpt><trkpt lat="43.335299400284754" lon="-0.4310091225172526"><ele>183.4</ele><time>2026-04-29T15:07:06Z</time></trkpt><trkpt lat="43.33537859945153" lon="-0.43108231449959783"><ele>183.2</ele><time>2026-04-29T15:07:08Z</time></trkpt><trkpt lat="43.33548875808912" lon="-0.4311205542619499"><ele>183.0</ele><time>2026-04-29T15:07:10Z</time></trkpt><trkpt lat="43.335553604263126" lon="-0.43124995465701704"><ele>183.0</ele><time>2026-04-29T15:07:12Z</time></trkpt><trkpt lat="43.33553802807426" lon="-0.43142163700728786"><ele>183.0</ele><time>2026-04-29T15:07:14Z</time></trkpt><trkpt lat="43.335541152598026" lon="-0.43151131180764957"><ele>183.0</ele><time>2026-04-29T15:07:15Z</time></trkpt><trkpt lat="43.3355670659604" lon="-0.43159408805793814"><ele>183.0</ele><time>2026-04-29T15:07:16Z</time></trkpt><trkpt lat="43.33560660881873" lon="-0.43167947496830794"><ele>183.0</ele><time>2026-04-29T15:07:17Z</time></trkpt><trkpt lat="43.33565317310445" lon="-0.43175827036705866"><ele>183.0</ele><time>2026-04-29T15:07:18Z</time></trkpt><trkpt lat="43.33570208022602" lon="-0.4318271004696557"><ele>183.0</ele><time>2026-04-29T15:07:19Z</time></trkpt><trkpt lat="43.33574930674144" lon="-0.4319124293375099"><ele>183.0</ele><time>2026-04-29T15:07:20Z</time></trkpt><trkpt lat="43.33578631158221" lon="-0.4320044789231944"><ele>183.0</ele><time>2026-04-29T15:07:21Z</time></trkpt><trkpt lat="43.335820130988985" lon="-0.4320977605003511"><ele>183.0</ele><time>2026-04-29T15:07:22Z</time></trkpt><trkpt lat="43.33584946621765" lon="-0.4321950927906436"><ele>183.0</ele><time>2026-04-29T15:07:23Z</time></trkpt><trkpt lat="43.335869861523875" lon="-0.432297405602098"><ele>183.0</ele><time>2026-04-29T15:07:24Z</time></trkpt><trkpt lat="43.33587648960722" lon="-0.43239922512113405"><ele>183.0</ele><time>2026-04-29T15:07:25Z</time></trkpt><trkpt lat="43.33588350583321" lon="-0.4325102817173132"><ele>183.0</ele><time>2026-04-29T15:07:26Z</time></trkpt><trkpt lat="43.33589146664576" lon="-0.43261561551796707"><ele>183.0</ele><time>2026-04-29T15:07:27Z</time></trkpt><trkpt lat="43.33589589436541" lon="-0.4327215311216548"><ele>183.0</ele><time>2026-04-29T15:07:28Z</time></trkpt><trkpt lat="43.3359049578446" lon="-0.4328333740161281"><ele>183.0</ele><time>2026-04-29T15:07:29Z</time></trkpt><trkpt lat="43.33591211265727" lon="-0.4329371519051914"><ele>183.0</ele><time>2026-04-29T15:07:30Z</time></trkpt><trkpt lat="43.33591633805335" lon="-0.43305160462677933"><ele>182.83333333333334</ele><time>2026-04-29T15:07:31Z</time></trkpt><trkpt lat="43.33592462051468" lon="-0.43316237221351517"><ele>182.66666666666666</ele><time>2026-04-29T15:07:32Z</time></trkpt><trkpt lat="43.33593218751353" lon="-0.4332750592101375"><ele>182.5</ele><time>2026-04-29T15:07:33Z</time></trkpt><trkpt lat="43.33594232643835" lon="-0.4333849599319762"><ele>182.33333333333331</ele><time>2026-04-29T15:07:34Z</time></trkpt><trkpt lat="43.335951149191295" lon="-0.4334972716683057"><ele>182.16666666666666</ele><time>2026-04-29T15:07:35Z</time></trkpt><trkpt lat="43.335962229018016" lon="-0.43360254086689887"><ele>182.0</ele><time>2026-04-29T15:07:36Z</time></trkpt><trkpt lat="43.33597536479913" lon="-0.4337078234054889"><ele>182.0</ele><time>2026-04-29T15:07:37Z</time></trkpt><trkpt lat="43.335992751528934" lon="-0.4338086732696029"><ele>182.0</ele><time>2026-04-29T15:07:38Z</time></trkpt><trkpt lat="43.33601882863845" lon="-0.4338940927551055"><ele>182.0</ele><time>2026-04-29T15:07:39Z</time></trkpt><trkpt lat="43.33604871613552" lon="-0.43397520364414555"><ele>182.0</ele><time>2026-04-29T15:07:40Z</time></trkpt><trkpt lat="43.3360904915313" lon="-0.4341255378584294"><ele>182.0</ele><time>2026-04-29T15:07:42Z</time></trkpt><trkpt lat="43.33612895594206" lon="-0.43424644329539935"><ele>182.0</ele><time>2026-04-29T15:07:44Z</time></trkpt><trkpt lat="43.336157548412274" lon="-0.43434026486671673"><ele>182.0</ele><time>2026-04-29T15:07:47Z</time></trkpt><trkpt lat="43.33622033044232" lon="-0.4344322200820106"><ele>182.0</ele><time>2026-04-29T15:07:50Z</time></trkpt><trkpt lat="43.3362559057252" lon="-0.434511446952229"><ele>182.0</ele><time>2026-04-29T15:07:53Z</time></trkpt><trkpt lat="43.336235347004674" lon="-0.4346000041155937"><ele>182.0</ele><time>2026-04-29T15:07:55Z</time></trkpt><trkpt lat="43.33617351187749" lon="-0.43464440186015085"><ele>182.0</ele><time>2026-04-29T15:07:57Z</time></trkpt><trkpt lat="43.336106147251826" lon="-0.43462499156577644"><ele>182.0</ele><time>2026-04-29T15:07:59Z</time></trkpt><trkpt lat="43.33604217284813" lon="-0.43459350124767615"><ele>182.0</ele><time>2026-04-29T15:08:01Z</time></trkpt><trkpt lat="43.33590494821706" lon="-0.43472575159803073"><ele>181.8</ele><time>2026-04-29T15:08:30Z</time></trkpt><trkpt lat="43.335848815597565" lon="-0.4347803674414525"><ele>181.6</ele><time>2026-04-29T15:08:32Z</time></trkpt><trkpt lat="43.33577520602932" lon="-0.434848658544966"><ele>181.4</ele><time>2026-04-29T15:08:34Z</time></trkpt><trkpt lat="43.33569827130957" lon="-0.43492338911702993"><ele>181.20000000000002</ele><time>2026-04-29T15:08:36Z</time></trkpt><trkpt lat="43.33557087532112" lon="-0.43504632220314826"><ele>181.0</ele><time>2026-04-29T15:08:39Z</time></trkpt><trkpt lat="43.33552702191857" lon="-0.4351382875500886"><ele>181.0</ele><time>2026-04-29T15:08:41Z</time></trkpt><trkpt lat="43.33557828176694" lon="-0.4353094256485636"><ele>181.0</ele><time>2026-04-29T15:08:44Z</time></trkpt><trkpt lat="43.33567281136429" lon="-0.43533959796939187"><ele>181.0</ele><time>2026-04-29T15:08:46Z</time></trkpt><trkpt lat="43.33577051164918" lon="-0.4353732073656422"><ele>181.0</ele><time>2026-04-29T15:08:48Z</time></trkpt><trkpt lat="43.33586848441871" lon="-0.43543706371182334"><ele>181.0</ele><time>2026-04-29T15:08:50Z</time></trkpt><trkpt lat="43.33592017587553" lon="-0.4354882111152526"><ele>181.25</ele><time>2026-04-29T15:08:51Z</time></trkpt><trkpt lat="43.336003836034635" lon="-0.43560430936253136"><ele>181.5</ele><time>2026-04-29T15:08:53Z</time></trkpt><trkpt lat="43.3361040154532" lon="-0.4357045722229246"><ele>181.75</ele><time>2026-04-29T15:08:55Z</time></trkpt><trkpt lat="43.33619991179045" lon="-0.4358187044646084"><ele>182.0</ele><time>2026-04-29T15:08:57Z</time></trkpt><trkpt lat="43.33630100585245" lon="-0.43592905973202023"><ele>182.0</ele><time>2026-04-29T15:08:59Z</time></trkpt><trkpt lat="43.33638448753562" lon="-0.4360615882357541"><ele>182.0</ele><time>2026-04-29T15:09:01Z</time></trkpt><trkpt lat="43.33642218088924" lon="-0.43614525875981075"><ele>182.0</ele><time>2026-04-29T15:09:02Z</time></trkpt><trkpt lat="43.3364475282332" lon="-0.43623475442675563"><ele>182.0</ele><time>2026-04-29T15:09:03Z</time></trkpt><trkpt lat="43.33651008456723" lon="-0.43639253948881784"><ele>182.0</ele><time>2026-04-29T15:09:05Z</time></trkpt><trkpt lat="43.336522958050146" lon="-0.4364953139786584"><ele>182.0</ele><time>2026-04-29T15:09:06Z</time></trkpt><trkpt lat="43.33654150574124" lon="-0.4365946647887787"><ele>182.0</ele><time>2026-04-29T15:09:07Z</time></trkpt><trkpt lat="43.336567066603486" lon="-0.4366942572634928"><ele>182.0</ele><time>2026-04-29T15:09:08Z</time></trkpt><trkpt lat="43.3365857999652" lon="-0.4367849237443845"><ele>182.0</ele><time>2026-04-29T15:09:09Z</time></trkpt><trkpt lat="43.336612441393854" lon="-0.4368758450457241"><ele>182.0</ele><time>2026-04-29T15:09:10Z</time></trkpt><trkpt lat="43.336646761204584" lon="-0.4369635972790959"><ele>182.0</ele><time>2026-04-29T15:09:11Z</time></trkpt><trkpt lat="43.33665580876992" lon="-0.4370599961440929"><ele>182.0</ele><time>2026-04-29T15:09:12Z</time></trkpt><trkpt lat="43.336699563579906" lon="-0.43715197690217644"><ele>182.0</ele><time>2026-04-29T15:09:13Z</time></trkpt><trkpt lat="43.33672933521259" lon="-0.43724318840745385"><ele>182.0</ele><time>2026-04-29T15:09:14Z</time></trkpt><trkpt lat="43.33675916761589" lon="-0.43733407667130353"><ele>182.0</ele><time>2026-04-29T15:09:15Z</time></trkpt><trkpt lat="43.33679518751525" lon="-0.43742030278690097"><ele>182.0</ele><time>2026-04-29T15:09:16Z</time></trkpt><trkpt lat="43.33683749486753" lon="-0.43750000004613393"><ele>182.0</ele><time>2026-04-29T15:09:17Z</time></trkpt><trkpt lat="43.33687599825599" lon="-0.4375808617860936"><ele>182.0</ele><time>2026-04-29T15:09:18Z</time></trkpt><trkpt lat="43.336915472681525" lon="-0.4376633215237145"><ele>182.0</ele><time>2026-04-29T15:09:19Z</time></trkpt><trkpt lat="43.33696017937881" lon="-0.43773845181985815"><ele>182.0</ele><time>2026-04-29T15:09:20Z</time></trkpt><trkpt lat="43.33700220549274" lon="-0.4378126572029164"><ele>182.0</ele><time>2026-04-29T15:09:21Z</time></trkpt><trkpt lat="43.33704201167855" lon="-0.43788850601112"><ele>182.0</ele><time>2026-04-29T15:09:22Z</time></trkpt><trkpt lat="43.337082613392184" lon="-0.43796850670416565"><ele>182.0</ele><time>2026-04-29T15:09:23Z</time></trkpt><trkpt lat="43.3371226034209" lon="-0.4380420714090674"><ele>182.0</ele><time>2026-04-29T15:09:24Z</time></trkpt><trkpt lat="43.33715525382065" lon="-0.4381247079648677"><ele>182.0</ele><time>2026-04-29T15:09:25Z</time></trkpt><trkpt lat="43.33719293066037" lon="-0.43820761930939794"><ele>182.0</ele><time>2026-04-29T15:09:26Z</time></trkpt><trkpt lat="43.337248663484914" lon="-0.43827963972307526"><ele>182.0</ele><time>2026-04-29T15:09:27Z</time></trkpt><trkpt lat="43.33728173524925" lon="-0.4383812926959889"><ele>182.0</ele><time>2026-04-29T15:09:28Z</time></trkpt><trkpt lat="43.33733386754447" lon="-0.4384688559079108"><ele>182.0</ele><time>2026-04-29T15:09:29Z</time></trkpt><trkpt lat="43.337387569774755" lon="-0.4385519041647375"><ele>182.0</ele><time>2026-04-29T15:09:30Z</time></trkpt><trkpt lat="43.33743946059242" lon="-0.43863568210419157"><ele>182.0</ele><time>2026-04-29T15:09:31Z</time></trkpt><trkpt lat="43.33748348378455" lon="-0.4387266866765184"><ele>182.0</ele><time>2026-04-29T15:09:32Z</time></trkpt><trkpt lat="43.33752722331904" lon="-0.4388108375256103"><ele>181.83333333333331</ele><time>2026-04-29T15:09:33Z</time></trkpt><trkpt lat="43.33757562399259" lon="-0.4389072884092791"><ele>181.66666666666666</ele><time>2026-04-29T15:09:34Z</time></trkpt><trkpt lat="43.33761933618078" lon="-0.439008710476424"><ele>181.5</ele><time>2026-04-29T15:09:35Z</time></trkpt><trkpt lat="43.33766823751006" lon="-0.4391066795920354"><ele>181.33333333333334</ele><time>2026-04-29T15:09:36Z</time></trkpt><trkpt lat="43.337715594122656" lon="-0.4392057526081566"><ele>181.16666666666669</ele><time>2026-04-29T15:09:37Z</time></trkpt><trkpt lat="43.33776216430256" lon="-0.4393038086149948"><ele>181.0</ele><time>2026-04-29T15:09:38Z</time></trkpt><trkpt lat="43.33781165524504" lon="-0.4394004992878157"><ele>181.0</ele><time>2026-04-29T15:09:39Z</time></trkpt><trkpt lat="43.33786040608949" lon="-0.43950025149403443"><ele>181.0</ele><time>2026-04-29T15:09:40Z</time></trkpt><trkpt lat="43.33790647321333" lon="-0.4395987880981187"><ele>181.0</ele><time>2026-04-29T15:09:41Z</time></trkpt><trkpt lat="43.33796885287902" lon="-0.4396665732226902"><ele>181.0</ele><time>2026-04-29T15:09:42Z</time></trkpt><trkpt lat="43.338011856201824" lon="-0.4397828638459019"><ele>181.0</ele><time>2026-04-29T15:09:43Z</time></trkpt><trkpt lat="43.33805939898675" lon="-0.4398814266245044"><ele>181.0</ele><time>2026-04-29T15:09:44Z</time></trkpt><trkpt lat="43.33810883022388" lon="-0.4399773987014862"><ele>181.0</ele><time>2026-04-29T15:09:45Z</time></trkpt><trkpt lat="43.33815670956849" lon="-0.44006932959477857"><ele>181.0</ele><time>2026-04-29T15:09:46Z</time></trkpt><trkpt lat="43.33820290781794" lon="-0.4401626373092299"><ele>181.0</ele><time>2026-04-29T15:09:47Z</time></trkpt><trkpt lat="43.33824729910839" lon="-0.44024923225613066"><ele>181.0</ele><time>2026-04-29T15:09:48Z</time></trkpt><trkpt lat="43.33828637094952" lon="-0.4403329181071098"><ele>181.0</ele><time>2026-04-29T15:09:49Z</time></trkpt><trkpt lat="43.33832839386509" lon="-0.44040087929359534"><ele>181.0</ele><time>2026-04-29T15:09:50Z</time></trkpt><trkpt lat="43.33837519158575" lon="-0.4404846437160463"><ele>181.0</ele><time>2026-04-29T15:09:51Z</time></trkpt><trkpt lat="43.3384225362257" lon="-0.44056450925961305"><ele>181.0</ele><time>2026-04-29T15:09:52Z</time></trkpt><trkpt lat="43.33847326275433" lon="-0.4406535031401633"><ele>181.0</ele><time>2026-04-29T15:09:53Z</time></trkpt><trkpt lat="43.33851824087877" lon="-0.44074788844196094"><ele>181.0</ele><time>2026-04-29T15:09:54Z</time></trkpt><trkpt lat="43.33856125083916" lon="-0.4408457679648173"><ele>181.0</ele><time>2026-04-29T15:09:55Z</time></trkpt><trkpt lat="43.33860823935207" lon="-0.44093468456375434"><ele>181.0</ele><time>2026-04-29T15:09:56Z</time></trkpt><trkpt lat="43.33865256979982" lon="-0.44102511557978613"><ele>181.0</ele><time>2026-04-29T15:09:57Z</time></trkpt><trkpt lat="43.33869971333634" lon="-0.441110099587969"><ele>181.0</ele><time>2026-04-29T15:09:58Z</time></trkpt><trkpt lat="43.33874556144615" lon="-0.44120258185357836"><ele>181.0</ele><time>2026-04-29T15:09:59Z</time></trkpt><trkpt lat="43.33879060675121" lon="-0.44129510415079387"><ele>181.0</ele><time>2026-04-29T15:10:00Z</time></trkpt><trkpt lat="43.33883494097383" lon="-0.4413857918742697"><ele>181.0</ele><time>2026-04-29T15:10:01Z</time></trkpt><trkpt lat="43.338885049386626" lon="-0.44146707741765395"><ele>181.0</ele><time>2026-04-29T15:10:02Z</time></trkpt><trkpt lat="43.33893589044954" lon="-0.44155732901676126"><ele>181.0</ele><time>2026-04-29T15:10:03Z</time></trkpt><trkpt lat="43.338983938926326" lon="-0.44164387493749957"><ele>181.0</ele><time>2026-04-29T15:10:04Z</time></trkpt><trkpt lat="43.33903192669303" lon="-0.4417361971868853"><ele>181.0</ele><time>2026-04-29T15:10:05Z</time></trkpt><trkpt lat="43.33908573446179" lon="-0.4418186173083662"><ele>181.0</ele><time>2026-04-29T15:10:06Z</time></trkpt><trkpt lat="43.339140008958054" lon="-0.44190045973749287"><ele>181.0</ele><time>2026-04-29T15:10:07Z</time></trkpt><trkpt lat="43.33919461857535" lon="-0.44199077325921216"><ele>181.0</ele><time>2026-04-29T15:10:08Z</time></trkpt><trkpt lat="43.33925010009059" lon="-0.44206577886417675"><ele>181.0</ele><time>2026-04-29T15:10:09Z</time></trkpt><trkpt lat="43.339305201407754" lon="-0.442147948696322"><ele>181.0</ele><time>2026-04-29T15:10:10Z</time></trkpt><trkpt lat="43.339361970743745" lon="-0.4422297686491011"><ele>181.0</ele><time>2026-04-29T15:10:11Z</time></trkpt><trkpt lat="43.33941396590353" lon="-0.4423114929297534"><ele>181.0</ele><time>2026-04-29T15:10:12Z</time></trkpt><trkpt lat="43.339462631557346" lon="-0.4424038025474322"><ele>181.0</ele><time>2026-04-29T15:10:13Z</time></trkpt><trkpt lat="43.33951172114594" lon="-0.44248395436495613"><ele>181.0</ele><time>2026-04-29T15:10:14Z</time></trkpt><trkpt lat="43.339561283536725" lon="-0.44256780167575727"><ele>181.0</ele><time>2026-04-29T15:10:15Z</time></trkpt><trkpt lat="43.339622487350184" lon="-0.44264927063006465"><ele>181.0</ele><time>2026-04-29T15:10:16Z</time></trkpt><trkpt lat="43.33967497396888" lon="-0.4427315912055991"><ele>181.0</ele><time>2026-04-29T15:10:17Z</time></trkpt><trkpt lat="43.339731505395825" lon="-0.4428061676512679"><ele>181.0</ele><time>2026-04-29T15:10:18Z</time></trkpt><trkpt lat="43.33978884061645" lon="-0.44288650428619836"><ele>181.0</ele><time>2026-04-29T15:10:19Z</time></trkpt><trkpt lat="43.339842763368495" lon="-0.44297232226680633"><ele>181.0</ele><time>2026-04-29T15:10:20Z</time></trkpt><trkpt lat="43.33989820709031" lon="-0.44305536252386035"><ele>180.5</ele><time>2026-04-29T15:10:21Z</time></trkpt><trkpt lat="43.33996287883929" lon="-0.44313595943780254"><ele>180.0</ele><time>2026-04-29T15:10:22Z</time></trkpt><trkpt lat="43.34001995523171" lon="-0.44321549969591206"><ele>179.5</ele><time>2026-04-29T15:10:23Z</time></trkpt><trkpt lat="43.34007460448752" lon="-0.44330082088023787"><ele>179.0</ele><time>2026-04-29T15:10:24Z</time></trkpt><trkpt lat="43.34013209066722" lon="-0.4433823650084835"><ele>178.5</ele><time>2026-04-29T15:10:25Z</time></trkpt><trkpt lat="43.340190503420885" lon="-0.44345990511473804"><ele>178.0</ele><time>2026-04-29T15:10:26Z</time></trkpt><trkpt lat="43.3402471451253" lon="-0.4435389721063401"><ele>178.0</ele><time>2026-04-29T15:10:27Z</time></trkpt><trkpt lat="43.340308724072514" lon="-0.44361398769338595"><ele>178.0</ele><time>2026-04-29T15:10:28Z</time></trkpt><trkpt lat="43.34036600560644" lon="-0.4437007564889143"><ele>178.0</ele><time>2026-04-29T15:10:29Z</time></trkpt><trkpt lat="43.34042054890644" lon="-0.443785717978744"><ele>178.0</ele><time>2026-04-29T15:10:30Z</time></trkpt><trkpt lat="43.340479256758805" lon="-0.44386324212126177"><ele>178.0</ele><time>2026-04-29T15:10:31Z</time></trkpt><trkpt lat="43.3405309428357" lon="-0.44394585477304727"><ele>178.0</ele><time>2026-04-29T15:10:32Z</time></trkpt><trkpt lat="43.34058246719998" lon="-0.444029450419761"><ele>178.0</ele><time>2026-04-29T15:10:33Z</time></trkpt><trkpt lat="43.340630558764296" lon="-0.4441163837918741"><ele>178.0</ele><time>2026-04-29T15:10:34Z</time></trkpt><trkpt lat="43.340672076606715" lon="-0.4441999101565608"><ele>178.0</ele><time>2026-04-29T15:10:35Z</time></trkpt><trkpt lat="43.34072450767907" lon="-0.4442833607189041"><ele>178.0</ele><time>2026-04-29T15:10:36Z</time></trkpt><trkpt lat="43.340770061644996" lon="-0.44437257824367565"><ele>178.0</ele><time>2026-04-29T15:10:37Z</time></trkpt><trkpt lat="43.34081364078251" lon="-0.4444636320124029"><ele>178.0</ele><time>2026-04-29T15:10:38Z</time></trkpt><trkpt lat="43.34086749731185" lon="-0.4445439065705186"><ele>178.0</ele><time>2026-04-29T15:10:39Z</time></trkpt><trkpt lat="43.340904806455775" lon="-0.4446278484545135"><ele>178.0</ele><time>2026-04-29T15:10:40Z</time></trkpt><trkpt lat="43.34094334909561" lon="-0.44472236272718096"><ele>178.0</ele><time>2026-04-29T15:10:41Z</time></trkpt><trkpt lat="43.340988031543894" lon="-0.44481358433558865"><ele>178.0</ele><time>2026-04-29T15:10:42Z</time></trkpt><trkpt lat="43.34103143190144" lon="-0.444907487482915"><ele>178.0</ele><time>2026-04-29T15:10:43Z</time></trkpt><trkpt lat="43.341070696716095" lon="-0.445009598129381"><ele>178.0</ele><time>2026-04-29T15:10:44Z</time></trkpt><trkpt lat="43.34111273244316" lon="-0.4450933706905918"><ele>178.0</ele><time>2026-04-29T15:10:45Z</time></trkpt><trkpt lat="43.341152730237816" lon="-0.44518998592152387"><ele>178.0</ele><time>2026-04-29T15:10:46Z</time></trkpt><trkpt lat="43.341193505739696" lon="-0.4452841966835965"><ele>178.0</ele><time>2026-04-29T15:10:47Z</time></trkpt><trkpt lat="43.34123434754225" lon="-0.4453846864386144"><ele>178.0</ele><time>2026-04-29T15:10:48Z</time></trkpt><trkpt lat="43.34127625404203" lon="-0.4454816971855195"><ele>178.0</ele><time>2026-04-29T15:10:49Z</time></trkpt><trkpt lat="43.34131922639256" lon="-0.44557619164601114"><ele>178.0</ele><time>2026-04-29T15:10:50Z</time></trkpt><trkpt lat="43.34135851442677" lon="-0.44567611467713675"><ele>177.83333333333334</ele><time>2026-04-29T15:10:51Z</time></trkpt><trkpt lat="43.34139951452584" lon="-0.4457871715395606"><ele>177.66666666666669</ele><time>2026-04-29T15:10:52Z</time></trkpt><trkpt lat="43.341438175991385" lon="-0.44587439084937036"><ele>177.5</ele><time>2026-04-29T15:10:53Z</time></trkpt><trkpt lat="43.341477848246114" lon="-0.44596700760791613"><ele>177.33333333333334</ele><time>2026-04-29T15:10:54Z</time></trkpt><trkpt lat="43.34152012096909" lon="-0.4460678047905312"><ele>177.16666666666666</ele><time>2026-04-29T15:10:55Z</time></trkpt><trkpt lat="43.34155617965091" lon="-0.4461744217506816"><ele>177.0</ele><time>2026-04-29T15:10:56Z</time></trkpt><trkpt lat="43.341598131549354" lon="-0.4462685594481827"><ele>177.33333333333334</ele><time>2026-04-29T15:10:57Z</time></trkpt><trkpt lat="43.34164216231561" lon="-0.4463649102232966"><ele>177.66666666666666</ele><time>2026-04-29T15:10:58Z</time></trkpt><trkpt lat="43.34168579260552" lon="-0.4464568852040284"><ele>178.0</ele><time>2026-04-29T15:10:59Z</time></trkpt><trkpt lat="43.34172989514653" lon="-0.4465504648365179"><ele>178.33333333333331</ele><time>2026-04-29T15:11:00Z</time></trkpt><trkpt lat="43.34177595206923" lon="-0.44664096148166876"><ele>178.66666666666666</ele><time>2026-04-29T15:11:01Z</time></trkpt><trkpt lat="43.34181810148215" lon="-0.44674051505257645"><ele>179.0</ele><time>2026-04-29T15:11:02Z</time></trkpt><trkpt lat="43.341850202688825" lon="-0.4468389653660888"><ele>179.0</ele><time>2026-04-29T15:11:03Z</time></trkpt><trkpt lat="43.34189033091621" lon="-0.44693745923302364"><ele>179.0</ele><time>2026-04-29T15:11:04Z</time></trkpt><trkpt lat="43.341934745112184" lon="-0.4470286760117661"><ele>179.0</ele><time>2026-04-29T15:11:05Z</time></trkpt><trkpt lat="43.3419788928873" lon="-0.44712333773367535"><ele>179.0</ele><time>2026-04-29T15:11:06Z</time></trkpt><trkpt lat="43.34201820142781" lon="-0.4472229879477703"><ele>179.0</ele><time>2026-04-29T15:11:07Z</time></trkpt><trkpt lat="43.34206167318494" lon="-0.4473164788659266"><ele>179.0</ele><time>2026-04-29T15:11:08Z</time></trkpt><trkpt lat="43.342105913946966" lon="-0.4474103396238512"><ele>179.0</ele><time>2026-04-29T15:11:09Z</time></trkpt><trkpt lat="43.342147018604344" lon="-0.44750705861742257"><ele>179.0</ele><time>2026-04-29T15:11:10Z</time></trkpt><trkpt lat="43.342187222666894" lon="-0.4476040643402245"><ele>179.0</ele><time>2026-04-29T15:11:11Z</time></trkpt><trkpt lat="43.34223020101901" lon="-0.4477041768667828"><ele>179.0</ele><time>2026-04-29T15:11:12Z</time></trkpt><trkpt lat="43.34227317645507" lon="-0.44780490854140775"><ele>179.0</ele><time>2026-04-29T15:11:13Z</time></trkpt><trkpt lat="43.34231525802321" lon="-0.44789906579207195"><ele>179.0</ele><time>2026-04-29T15:11:14Z</time></trkpt><trkpt lat="43.34236121727565" lon="-0.44799640095356036"><ele>179.16666666666666</ele><time>2026-04-29T15:11:15Z</time></trkpt><trkpt lat="43.34240470475682" lon="-0.44809562410960124"><ele>179.33333333333331</ele><time>2026-04-29T15:11:16Z</time></trkpt><trkpt lat="43.34244673649802" lon="-0.4481957311018778"><ele>179.5</ele><time>2026-04-29T15:11:17Z</time></trkpt><trkpt lat="43.342492258962885" lon="-0.44829374814189876"><ele>179.66666666666666</ele><time>2026-04-29T15:11:18Z</time></trkpt><trkpt lat="43.34253831108988" lon="-0.4483885993168847"><ele>179.83333333333334</ele><time>2026-04-29T15:11:19Z</time></trkpt><trkpt lat="43.34258899287604" lon="-0.44850110952594024"><ele>180.0</ele><time>2026-04-29T15:11:20Z</time></trkpt><trkpt lat="43.34262740556975" lon="-0.44863781205336795"><ele>180.0</ele><time>2026-04-29T15:11:21Z</time></trkpt><trkpt lat="43.342712747015746" lon="-0.4487825433888549"><ele>180.0</ele><time>2026-04-29T15:11:23Z</time></trkpt><trkpt lat="43.342758905943" lon="-0.4488788195072203"><ele>180.0</ele><time>2026-04-29T15:11:24Z</time></trkpt><trkpt lat="43.34280336224179" lon="-0.4489762977774236"><ele>180.0</ele><time>2026-04-29T15:11:25Z</time></trkpt><trkpt lat="43.34285033347645" lon="-0.44907440071419125"><ele>180.0</ele><time>2026-04-29T15:11:26Z</time></trkpt><trkpt lat="43.342900146221766" lon="-0.44916739365191777"><ele>180.33333333333334</ele><time>2026-04-29T15:11:27Z</time></trkpt><trkpt lat="43.34294689612403" lon="-0.4492661551183812"><ele>180.66666666666666</ele><time>2026-04-29T15:11:28Z</time></trkpt><trkpt lat="43.342990919792854" lon="-0.44936269475637763"><ele>181.0</ele><time>2026-04-29T15:11:29Z</time></trkpt><trkpt lat="43.34303648632085" lon="-0.4494572771577582"><ele>181.33333333333331</ele><time>2026-04-29T15:11:30Z</time></trkpt><trkpt lat="43.3430783106971" lon="-0.44956228472674725"><ele>181.66666666666666</ele><time>2026-04-29T15:11:31Z</time></trkpt><trkpt lat="43.34312468710821" lon="-0.4496526607732881"><ele>182.0</ele><time>2026-04-29T15:11:32Z</time></trkpt><trkpt lat="43.34316987678439" lon="-0.44974594698921794"><ele>182.0</ele><time>2026-04-29T15:11:33Z</time></trkpt><trkpt lat="43.34321392548897" lon="-0.44984974880759526"><ele>182.0</ele><time>2026-04-29T15:11:34Z</time></trkpt><trkpt lat="43.34326304934191" lon="-0.449945271931432"><ele>182.0</ele><time>2026-04-29T15:11:35Z</time></trkpt><trkpt lat="43.34330882229007" lon="-0.4500352469083754"><ele>182.0</ele><time>2026-04-29T15:11:36Z</time></trkpt><trkpt lat="43.34335614844382" lon="-0.4501330728643489"><ele>182.0</ele><time>2026-04-29T15:11:37Z</time></trkpt><trkpt lat="43.343393256362816" lon="-0.4502333705735481"><ele>182.0</ele><time>2026-04-29T15:11:38Z</time></trkpt><trkpt lat="43.34343659522507" lon="-0.45034149612278107"><ele>182.0</ele><time>2026-04-29T15:11:39Z</time></trkpt><trkpt lat="43.34348136934654" lon="-0.4504358000950441"><ele>182.0</ele><time>2026-04-29T15:11:40Z</time></trkpt><trkpt lat="43.34352833442091" lon="-0.4505322902173739"><ele>182.0</ele><time>2026-04-29T15:11:41Z</time></trkpt><trkpt lat="43.34357365157182" lon="-0.450628583832343"><ele>182.0</ele><time>2026-04-29T15:11:42Z</time></trkpt><trkpt lat="43.343616591665125" lon="-0.4507339880940766"><ele>182.0</ele><time>2026-04-29T15:11:43Z</time></trkpt><trkpt lat="43.3436587129765" lon="-0.4508312824627523"><ele>182.0</ele><time>2026-04-29T15:11:44Z</time></trkpt><trkpt lat="43.34369964159864" lon="-0.4509328534719537"><ele>181.66666666666666</ele><time>2026-04-29T15:11:45Z</time></trkpt><trkpt lat="43.34374145403236" lon="-0.4510429034052167"><ele>181.33333333333331</ele><time>2026-04-29T15:11:46Z</time></trkpt><trkpt lat="43.34379035198609" lon="-0.45113193852340805"><ele>181.0</ele><time>2026-04-29T15:11:47Z</time></trkpt><trkpt lat="43.34382417392849" lon="-0.4512399976994983"><ele>180.66666666666666</ele><time>2026-04-29T15:11:48Z</time></trkpt><trkpt lat="43.34386276218894" lon="-0.4513421557257274"><ele>180.33333333333334</ele><time>2026-04-29T15:11:49Z</time></trkpt><trkpt lat="43.34390766774667" lon="-0.4514467883468867"><ele>180.0</ele><time>2026-04-29T15:11:50Z</time></trkpt><trkpt lat="43.343953744179004" lon="-0.45153910241170764"><ele>179.5</ele><time>2026-04-29T15:11:51Z</time></trkpt><trkpt lat="43.343998522136566" lon="-0.4516337222763534"><ele>179.0</ele><time>2026-04-29T15:11:52Z</time></trkpt><trkpt lat="43.344038179780156" lon="-0.4517319035800868"><ele>178.5</ele><time>2026-04-29T15:11:53Z</time></trkpt><trkpt lat="43.34408010125861" lon="-0.4518332153535428"><ele>178.0</ele><time>2026-04-29T15:11:54Z</time></trkpt><trkpt lat="43.34412811035904" lon="-0.45192148752529987"><ele>177.5</ele><time>2026-04-29T15:11:55Z</time></trkpt><trkpt lat="43.34416908552323" lon="-0.4520213781847882"><ele>177.0</ele><time>2026-04-29T15:11:56Z</time></trkpt><trkpt lat="43.3442186578582" lon="-0.4521046029025015"><ele>176.83333333333334</ele><time>2026-04-29T15:11:57Z</time></trkpt><trkpt lat="43.344258001844864" lon="-0.4522099024679793"><ele>176.66666666666666</ele><time>2026-04-29T15:11:58Z</time></trkpt><trkpt lat="43.34429809740641" lon="-0.45230630076889855"><ele>176.5</ele><time>2026-04-29T15:11:59Z</time></trkpt><trkpt lat="43.34434148291681" lon="-0.4524031887613457"><ele>176.33333333333331</ele><time>2026-04-29T15:12:00Z</time></trkpt><trkpt lat="43.34438735032852" lon="-0.4524946129552033"><ele>176.16666666666666</ele><time>2026-04-29T15:12:01Z</time></trkpt><trkpt lat="43.34443126138783" lon="-0.45259686224449536"><ele>176.0</ele><time>2026-04-29T15:12:02Z</time></trkpt><trkpt lat="43.34447450877759" lon="-0.45269965580816324"><ele>176.0</ele><time>2026-04-29T15:12:03Z</time></trkpt><trkpt lat="43.34452487991136" lon="-0.452791246657005"><ele>176.0</ele><time>2026-04-29T15:12:04Z</time></trkpt><trkpt lat="43.34457120271469" lon="-0.4528839451915408"><ele>176.0</ele><time>2026-04-29T15:12:05Z</time></trkpt><trkpt lat="43.34462235625075" lon="-0.45299659131482045"><ele>176.0</ele><time>2026-04-29T15:12:06Z</time></trkpt><trkpt lat="43.344674771778884" lon="-0.4531059735517534"><ele>176.0</ele><time>2026-04-29T15:12:07Z</time></trkpt><trkpt lat="43.344717749090684" lon="-0.45323502082269956"><ele>174.83333333333331</ele><time>2026-04-29T15:12:08Z</time></trkpt><trkpt lat="43.34479355272806" lon="-0.45330323987338134"><ele>173.66666666666666</ele><time>2026-04-29T15:12:09Z</time></trkpt><trkpt lat="43.3448612559817" lon="-0.45337466832673096"><ele>172.5</ele><time>2026-04-29T15:12:10Z</time></trkpt><trkpt lat="43.344926102741844" lon="-0.4534470551544156"><ele>171.33333333333334</ele><time>2026-04-29T15:12:11Z</time></trkpt><trkpt lat="43.34498490784785" lon="-0.45352679874560076"><ele>170.16666666666669</ele><time>2026-04-29T15:12:12Z</time></trkpt><trkpt lat="43.34504121425412" lon="-0.45358733906743076"><ele>169.0</ele><time>2026-04-29T15:12:13Z</time></trkpt><trkpt lat="43.34508870974728" lon="-0.453647682040497"><ele>169.0</ele><time>2026-04-29T15:12:14Z</time></trkpt><trkpt lat="43.345152522197864" lon="-0.4537561985596901"><ele>169.0</ele><time>2026-04-29T15:12:16Z</time></trkpt><trkpt lat="43.34534915049033" lon="-0.4542044289483243"><ele>169.0</ele><time>2026-04-29T15:13:23Z</time></trkpt><trkpt lat="43.3454029971928" lon="-0.45434408373143476"><ele>169.0</ele><time>2026-04-29T15:13:25Z</time></trkpt><trkpt lat="43.34543419998756" lon="-0.45441951809133185"><ele>169.0</ele><time>2026-04-29T15:13:26Z</time></trkpt><trkpt lat="43.34546655437061" lon="-0.45449802675832396"><ele>169.0</ele><time>2026-04-29T15:13:27Z</time></trkpt><trkpt lat="43.34551443576958" lon="-0.4545770669135623"><ele>169.0</ele><time>2026-04-29T15:13:28Z</time></trkpt><trkpt lat="43.34554510655211" lon="-0.45466017760661886"><ele>169.0</ele><time>2026-04-29T15:13:29Z</time></trkpt><trkpt lat="43.34559096767559" lon="-0.454745438958605"><ele>168.57142857142858</ele><time>2026-04-29T15:13:30Z</time></trkpt><trkpt lat="43.34561933691431" lon="-0.45483259126454445"><ele>168.14285714285714</ele><time>2026-04-29T15:13:31Z</time></trkpt><trkpt lat="43.345649478516286" lon="-0.45492678296441097"><ele>167.71428571428572</ele><time>2026-04-29T15:13:32Z</time></trkpt><trkpt lat="43.345669601707876" lon="-0.4550298707508141"><ele>167.28571428571428</ele><time>2026-04-29T15:13:33Z</time></trkpt><trkpt lat="43.34568896466916" lon="-0.4551243048086383"><ele>166.85714285714286</ele><time>2026-04-29T15:13:34Z</time></trkpt><trkpt lat="43.345704902200076" lon="-0.4552291676324506"><ele>166.42857142857142</ele><time>2026-04-29T15:13:35Z</time></trkpt><trkpt lat="43.34571392296437" lon="-0.4553275268468753"><ele>166.0</ele><time>2026-04-29T15:13:36Z</time></trkpt><trkpt lat="43.345725713885884" lon="-0.4554205718581693"><ele>166.42857142857142</ele><time>2026-04-29T15:13:37Z</time></trkpt><trkpt lat="43.34573319952903" lon="-0.45552410024003825"><ele>166.85714285714286</ele><time>2026-04-29T15:13:38Z</time></trkpt><trkpt lat="43.345741250417234" lon="-0.45562816642008774"><ele>167.28571428571428</ele><time>2026-04-29T15:13:39Z</time></trkpt><trkpt lat="43.34575597412953" lon="-0.4557277518110973"><ele>167.71428571428572</ele><time>2026-04-29T15:13:40Z</time></trkpt><trkpt lat="43.34577754779393" lon="-0.45582512627578314"><ele>168.14285714285714</ele><time>2026-04-29T15:13:41Z</time></trkpt><trkpt lat="43.34580376792339" lon="-0.4559184199284001"><ele>168.57142857142858</ele><time>2026-04-29T15:13:42Z</time></trkpt><trkpt lat="43.34582679622343" lon="-0.4560080430937103"><ele>169.0</ele><time>2026-04-29T15:13:43Z</time></trkpt><trkpt lat="43.34585501299621" lon="-0.45608695237249064"><ele>169.0</ele><time>2026-04-29T15:13:44Z</time></trkpt><trkpt lat="43.34587951346733" lon="-0.45619594042467815"><ele>169.0</ele><time>2026-04-29T15:13:45Z</time></trkpt><trkpt lat="43.34590364376091" lon="-0.45628780609483427"><ele>169.0</ele><time>2026-04-29T15:13:46Z</time></trkpt><trkpt lat="43.345930640906545" lon="-0.4563907015491534"><ele>169.0</ele><time>2026-04-29T15:13:47Z</time></trkpt><trkpt lat="43.34595642106557" lon="-0.4564894037212413"><ele>169.0</ele><time>2026-04-29T15:13:48Z</time></trkpt><trkpt lat="43.345988259595906" lon="-0.45658763243880185"><ele>169.0</ele><time>2026-04-29T15:13:49Z</time></trkpt><trkpt lat="43.346019617559456" lon="-0.45668510435195075"><ele>169.33333333333334</ele><time>2026-04-29T15:13:50Z</time></trkpt><trkpt lat="43.346050314315804" lon="-0.45678436995261745"><ele>169.66666666666669</ele><time>2026-04-29T15:13:51Z</time></trkpt><trkpt lat="43.34608455538939" lon="-0.4568892623605164"><ele>170.0</ele><time>2026-04-29T15:13:52Z</time></trkpt><trkpt lat="43.346117661985076" lon="-0.45699387897292926"><ele>170.33333333333334</ele><time>2026-04-29T15:13:53Z</time></trkpt><trkpt lat="43.34614886090816" lon="-0.45709161701872014"><ele>170.66666666666666</ele><time>2026-04-29T15:13:54Z</time></trkpt><trkpt lat="43.346187561576976" lon="-0.4571788820595779"><ele>171.0</ele><time>2026-04-29T15:13:55Z</time></trkpt><trkpt lat="43.34622907074228" lon="-0.4572968078950888"><ele>171.16666666666666</ele><time>2026-04-29T15:13:56Z</time></trkpt><trkpt lat="43.34626372673454" lon="-0.45740710040121996"><ele>171.33333333333334</ele><time>2026-04-29T15:13:57Z</time></trkpt><trkpt lat="43.34630159693212" lon="-0.4575117486750693"><ele>171.5</ele><time>2026-04-29T15:13:58Z</time></trkpt><trkpt lat="43.34634286785456" lon="-0.45761925701595524"><ele>171.66666666666669</ele><time>2026-04-29T15:13:59Z</time></trkpt><trkpt lat="43.346376259395136" lon="-0.4577093742825949"><ele>171.83333333333334</ele><time>2026-04-29T15:14:00Z</time></trkpt><trkpt lat="43.34640749778322" lon="-0.45782955999469144"><ele>172.0</ele><time>2026-04-29T15:14:01Z</time></trkpt><trkpt lat="43.346434796390945" lon="-0.45794660697914985"><ele>171.5</ele><time>2026-04-29T15:14:02Z</time></trkpt><trkpt lat="43.346462091359584" lon="-0.4580592073038393"><ele>171.0</ele><time>2026-04-29T15:14:03Z</time></trkpt><trkpt lat="43.34649083336497" lon="-0.4581696860359548"><ele>170.5</ele><time>2026-04-29T15:14:04Z</time></trkpt><trkpt lat="43.34652059769792" lon="-0.458282134279778"><ele>170.0</ele><time>2026-04-29T15:14:05Z</time></trkpt><trkpt lat="43.34654826817406" lon="-0.45839573639869674"><ele>169.5</ele><time>2026-04-29T15:14:06Z</time></trkpt><trkpt lat="43.34657163864639" lon="-0.4585123189568429"><ele>169.0</ele><time>2026-04-29T15:14:07Z</time></trkpt><trkpt lat="43.34659388220246" lon="-0.45862896482405124"><ele>169.0</ele><time>2026-04-29T15:14:08Z</time></trkpt><trkpt lat="43.34661924573339" lon="-0.45874538305311524"><ele>169.0</ele><time>2026-04-29T15:14:09Z</time></trkpt><trkpt lat="43.34664820575595" lon="-0.458860729036071"><ele>169.0</ele><time>2026-04-29T15:14:10Z</time></trkpt><trkpt lat="43.34667547566573" lon="-0.45897433631848816"><ele>169.0</ele><time>2026-04-29T15:14:11Z</time></trkpt><trkpt lat="43.34669848975219" lon="-0.4590884899749528"><ele>169.0</ele><time>2026-04-29T15:14:12Z</time></trkpt><trkpt lat="43.34672566658991" lon="-0.45920262761216335"><ele>169.0</ele><time>2026-04-29T15:14:13Z</time></trkpt><trkpt lat="43.346752195803624" lon="-0.459316169757604"><ele>169.0</ele><time>2026-04-29T15:14:14Z</time></trkpt><trkpt lat="43.346774725463014" lon="-0.4594310840408205"><ele>169.0</ele><time>2026-04-29T15:14:15Z</time></trkpt><trkpt lat="43.34679856548142" lon="-0.45954475312674986"><ele>169.0</ele><time>2026-04-29T15:14:16Z</time></trkpt><trkpt lat="43.34682510188563" lon="-0.45966625411712175"><ele>169.0</ele><time>2026-04-29T15:14:17Z</time></trkpt><trkpt lat="43.34685160290918" lon="-0.4597887446115503"><ele>169.0</ele><time>2026-04-29T15:14:18Z</time></trkpt><trkpt lat="43.34687703156877" lon="-0.45990561457322643"><ele>169.0</ele><time>2026-04-29T15:14:19Z</time></trkpt><trkpt lat="43.346904938200275" lon="-0.46002261598373806"><ele>168.79999999999998</ele><time>2026-04-29T15:14:20Z</time></trkpt><trkpt lat="43.346931955475945" lon="-0.4601396747387578"><ele>168.6</ele><time>2026-04-29T15:14:21Z</time></trkpt><trkpt lat="43.34696372491644" lon="-0.46025743909524053"><ele>168.4</ele><time>2026-04-29T15:14:22Z</time></trkpt><trkpt lat="43.34698988029919" lon="-0.46037669620725274"><ele>168.2</ele><time>2026-04-29T15:14:23Z</time></trkpt><trkpt lat="43.34701721711091" lon="-0.46049881186009795"><ele>168.0</ele><time>2026-04-29T15:14:24Z</time></trkpt><trkpt lat="43.34704551959777" lon="-0.46062013433030913"><ele>167.8</ele><time>2026-04-29T15:14:25Z</time></trkpt><trkpt lat="43.34707421081697" lon="-0.46073760455089113"><ele>167.60000000000002</ele><time>2026-04-29T15:14:26Z</time></trkpt><trkpt lat="43.34709971506305" lon="-0.46085972183445334"><ele>167.39999999999998</ele><time>2026-04-29T15:14:27Z</time></trkpt><trkpt lat="43.34712922534981" lon="-0.4609801307222637"><ele>167.2</ele><time>2026-04-29T15:14:28Z</time></trkpt><trkpt lat="43.34716014286018" lon="-0.4611070936965133"><ele>167.0</ele><time>2026-04-29T15:14:29Z</time></trkpt><trkpt lat="43.34718460118255" lon="-0.46121683327162744"><ele>166.83333333333331</ele><time>2026-04-29T15:14:30Z</time></trkpt><trkpt lat="43.34720851224641" lon="-0.4613262555952418"><ele>166.66666666666666</ele><time>2026-04-29T15:14:31Z</time></trkpt><trkpt lat="43.34724092916022" lon="-0.4614133858041989"><ele>166.5</ele><time>2026-04-29T15:14:32Z</time></trkpt><trkpt lat="43.34726638124474" lon="-0.4615246413460104"><ele>166.33333333333334</ele><time>2026-04-29T15:14:33Z</time></trkpt><trkpt lat="43.347295286734926" lon="-0.4616361138590943"><ele>166.16666666666669</ele><time>2026-04-29T15:14:34Z</time></trkpt><trkpt lat="43.347324528889985" lon="-0.4617507415050441"><ele>166.0</ele><time>2026-04-29T15:14:35Z</time></trkpt><trkpt lat="43.347362032263966" lon="-0.4618593130417347"><ele>166.20000000000002</ele><time>2026-04-29T15:14:36Z</time></trkpt><trkpt lat="43.34740004796495" lon="-0.46196738618286215"><ele>166.4</ele><time>2026-04-29T15:14:37Z</time></trkpt><trkpt lat="43.347423547873014" lon="-0.46205668188046845"><ele>166.6</ele><time>2026-04-29T15:14:38Z</time></trkpt><trkpt lat="43.34746135539538" lon="-0.46219572910710627"><ele>166.8</ele><time>2026-04-29T15:14:39Z</time></trkpt><trkpt lat="43.34749337526768" lon="-0.462316680834456"><ele>167.0</ele><time>2026-04-29T15:14:40Z</time></trkpt><trkpt lat="43.347521574699535" lon="-0.46243839681487325"><ele>167.0</ele><time>2026-04-29T15:14:41Z</time></trkpt><trkpt lat="43.34754574983023" lon="-0.46255899482924856"><ele>167.0</ele><time>2026-04-29T15:14:42Z</time></trkpt><trkpt lat="43.347573012823474" lon="-0.4626757910682514"><ele>167.0</ele><time>2026-04-29T15:14:43Z</time></trkpt><trkpt lat="43.34759370397645" lon="-0.4627963467550356"><ele>167.0</ele><time>2026-04-29T15:14:44Z</time></trkpt><trkpt lat="43.34762092644319" lon="-0.46291721890032567"><ele>167.0</ele><time>2026-04-29T15:14:45Z</time></trkpt><trkpt lat="43.3476472020482" lon="-0.4630288940953149"><ele>167.0</ele><time>2026-04-29T15:14:46Z</time></trkpt><trkpt lat="43.34767191836485" lon="-0.4631455184820603"><ele>166.66666666666666</ele><time>2026-04-29T15:14:47Z</time></trkpt><trkpt lat="43.3477034385366" lon="-0.4632612502746145"><ele>166.33333333333331</ele><time>2026-04-29T15:14:48Z</time></trkpt><trkpt lat="43.347721848570245" lon="-0.46337668686612704"><ele>166.0</ele><time>2026-04-29T15:14:49Z</time></trkpt><trkpt lat="43.34774535876937" lon="-0.4634998452243779"><ele>165.66666666666666</ele><time>2026-04-29T15:14:50Z</time></trkpt><trkpt lat="43.34777587033506" lon="-0.4636039263887693"><ele>165.33333333333334</ele><time>2026-04-29T15:14:51Z</time></trkpt><trkpt lat="43.34781602020832" lon="-0.4637134705937393"><ele>165.0</ele><time>2026-04-29T15:14:52Z</time></trkpt><trkpt lat="43.34785927381637" lon="-0.46381312518075174"><ele>164.8</ele><time>2026-04-29T15:14:53Z</time></trkpt><trkpt lat="43.347898731023335" lon="-0.46391386056929773"><ele>164.6</ele><time>2026-04-29T15:14:54Z</time></trkpt><trkpt lat="43.347940596092165" lon="-0.4640210066704592"><ele>164.39999999999998</ele><time>2026-04-29T15:14:55Z</time></trkpt><trkpt lat="43.348017379899716" lon="-0.46422465348380165"><ele>164.2</ele><time>2026-04-29T15:14:57Z</time></trkpt><trkpt lat="43.34804577353473" lon="-0.4643381911618533"><ele>164.0</ele><time>2026-04-29T15:14:58Z</time></trkpt><trkpt lat="43.34807585559243" lon="-0.4644393599347954"><ele>163.33333333333331</ele><time>2026-04-29T15:14:59Z</time></trkpt><trkpt lat="43.34809552849705" lon="-0.4645496911057502"><ele>162.66666666666666</ele><time>2026-04-29T15:15:00Z</time></trkpt><trkpt lat="43.34811047751387" lon="-0.46464923013280884"><ele>162.0</ele><time>2026-04-29T15:15:01Z</time></trkpt><trkpt lat="43.34812462554125" lon="-0.46475626079363636"><ele>161.33333333333334</ele><time>2026-04-29T15:15:02Z</time></trkpt><trkpt lat="43.34813909566527" lon="-0.46486148993847215"><ele>160.66666666666669</ele><time>2026-04-29T15:15:03Z</time></trkpt><trkpt lat="43.348147434631834" lon="-0.46496562601237545"><ele>160.0</ele><time>2026-04-29T15:15:04Z</time></trkpt><trkpt lat="43.34815659814613" lon="-0.4650753454504656"><ele>159.71428571428572</ele><time>2026-04-29T15:15:05Z</time></trkpt><trkpt lat="43.34817181943983" lon="-0.4651769282745237"><ele>159.42857142857144</ele><time>2026-04-29T15:15:06Z</time></trkpt><trkpt lat="43.348183732410824" lon="-0.4652766379990465"><ele>159.14285714285717</ele><time>2026-04-29T15:15:07Z</time></trkpt><trkpt lat="43.34819800610313" lon="-0.4653748452438803"><ele>158.85714285714286</ele><time>2026-04-29T15:15:08Z</time></trkpt><trkpt lat="43.348215766371005" lon="-0.4654722153604505"><ele>158.57142857142858</ele><time>2026-04-29T15:15:09Z</time></trkpt><trkpt lat="43.348237893339785" lon="-0.46556504280548083"><ele>158.2857142857143</ele><time>2026-04-29T15:15:10Z</time></trkpt><trkpt lat="43.34825844669533" lon="-0.4656567251524136"><ele>158.0</ele><time>2026-04-29T15:15:11Z</time></trkpt><trkpt lat="43.34828209697463" lon="-0.4657508434350471"><ele>158.0</ele><time>2026-04-29T15:15:12Z</time></trkpt><trkpt lat="43.3483049373788" lon="-0.4658422078274202"><ele>158.0</ele><time>2026-04-29T15:15:13Z</time></trkpt><trkpt lat="43.34832653326095" lon="-0.4659374780300516"><ele>158.0</ele><time>2026-04-29T15:15:14Z</time></trkpt><trkpt lat="43.3483473570586" lon="-0.46604302502493633"><ele>158.0</ele><time>2026-04-29T15:15:15Z</time></trkpt><trkpt lat="43.34836404828893" lon="-0.4661604404643734"><ele>158.0</ele><time>2026-04-29T15:15:16Z</time></trkpt><trkpt lat="43.348383541938944" lon="-0.46627825366676645"><ele>158.0</ele><time>2026-04-29T15:15:17Z</time></trkpt><trkpt lat="43.348408970504416" lon="-0.46640102063538075"><ele>157.6</ele><time>2026-04-29T15:15:18Z</time></trkpt><trkpt lat="43.34843262064994" lon="-0.46652816294658084"><ele>157.20000000000002</ele><time>2026-04-29T15:15:19Z</time></trkpt><trkpt lat="43.348464132503715" lon="-0.46666403858212974"><ele>156.8</ele><time>2026-04-29T15:15:20Z</time></trkpt><trkpt lat="43.34848514956302" lon="-0.4668025523308588"><ele>156.4</ele><time>2026-04-29T15:15:21Z</time></trkpt><trkpt lat="43.34851399819475" lon="-0.46694468079292234"><ele>156.0</ele><time>2026-04-29T15:15:22Z</time></trkpt><trkpt lat="43.34853492153443" lon="-0.46708636995503094"><ele>155.0</ele><time>2026-04-29T15:15:23Z</time></trkpt><trkpt lat="43.34856675206243" lon="-0.46722869675948814"><ele>154.0</ele><time>2026-04-29T15:15:24Z</time></trkpt><trkpt lat="43.34856799275848" lon="-0.4673756572545362"><ele>153.0</ele><time>2026-04-29T15:15:25Z</time></trkpt><trkpt lat="43.34856737036549" lon="-0.46750771209245723"><ele>152.0</ele><time>2026-04-29T15:15:26Z</time></trkpt><trkpt lat="43.348563809747844" lon="-0.4676341829340555"><ele>151.0</ele><time>2026-04-29T15:15:27Z</time></trkpt><trkpt lat="43.34855920478405" lon="-0.4677553123099746"><ele>151.0</ele><time>2026-04-29T15:15:28Z</time></trkpt><trkpt lat="43.34855566132174" lon="-0.46786646665205345"><ele>151.0</ele><time>2026-04-29T15:15:29Z</time></trkpt><trkpt lat="43.348551020459496" lon="-0.46797469528181546"><ele>151.0</ele><time>2026-04-29T15:15:30Z</time></trkpt><trkpt lat="43.348543417383084" lon="-0.4680822090280523"><ele>151.0</ele><time>2026-04-29T15:15:31Z</time></trkpt><trkpt lat="43.34852025157214" lon="-0.4681872074745065"><ele>151.0</ele><time>2026-04-29T15:15:32Z</time></trkpt><trkpt lat="43.34847781484495" lon="-0.4682735724073222"><ele>151.0</ele><time>2026-04-29T15:15:33Z</time></trkpt><trkpt lat="43.34843934574734" lon="-0.4683672083472954"><ele>150.0</ele><time>2026-04-29T15:15:34Z</time></trkpt><trkpt lat="43.34840661771138" lon="-0.4684662550677469"><ele>149.0</ele><time>2026-04-29T15:15:35Z</time></trkpt><trkpt lat="43.348375959804855" lon="-0.4685642129998764"><ele>148.0</ele><time>2026-04-29T15:15:36Z</time></trkpt><trkpt lat="43.348318143388305" lon="-0.4687510638701822"><ele>147.0</ele><time>2026-04-29T15:15:38Z</time></trkpt><trkpt lat="43.348312252829764" lon="-0.4688592946125967"><ele>146.0</ele><time>2026-04-29T15:15:39Z</time></trkpt><trkpt lat="43.348344868867905" lon="-0.46896428271153245"><ele>145.83333333333331</ele><time>2026-04-29T15:15:40Z</time></trkpt><trkpt lat="43.34840737888457" lon="-0.46905338835688604"><ele>145.66666666666666</ele><time>2026-04-29T15:15:41Z</time></trkpt><trkpt lat="43.34848109601091" lon="-0.4691194745399411"><ele>145.5</ele><time>2026-04-29T15:15:42Z</time></trkpt><trkpt lat="43.34854914075217" lon="-0.46918198832270297"><ele>145.33333333333334</ele><time>2026-04-29T15:15:43Z</time></trkpt><trkpt lat="43.34862843863288" lon="-0.46924466584386937"><ele>145.16666666666669</ele><time>2026-04-29T15:15:44Z</time></trkpt><trkpt lat="43.34868508894313" lon="-0.46931522548026733"><ele>145.0</ele><time>2026-04-29T15:15:45Z</time></trkpt><trkpt lat="43.34875141725557" lon="-0.4693822448644468"><ele>145.0</ele><time>2026-04-29T15:15:46Z</time></trkpt><trkpt lat="43.3488381334369" lon="-0.4694274784649192"><ele>145.0</ele><time>2026-04-29T15:15:47Z</time></trkpt><trkpt lat="43.348893745142114" lon="-0.46951462019167556"><ele>145.0</ele><time>2026-04-29T15:15:48Z</time></trkpt><trkpt lat="43.34895653620571" lon="-0.46958491699816846"><ele>145.0</ele><time>2026-04-29T15:15:49Z</time></trkpt><trkpt lat="43.34901582641412" lon="-0.4696604649419137"><ele>145.0</ele><time>2026-04-29T15:15:50Z</time></trkpt><trkpt lat="43.34907933166668" lon="-0.46973061415556633"><ele>145.0</ele><time>2026-04-29T15:15:51Z</time></trkpt><trkpt lat="43.34914233468636" lon="-0.46979828084789205"><ele>145.0</ele><time>2026-04-29T15:15:52Z</time></trkpt><trkpt lat="43.3491999754036" lon="-0.46986878799302595"><ele>145.0</ele><time>2026-04-29T15:15:53Z</time></trkpt><trkpt lat="43.34926880392983" lon="-0.4699304368659697"><ele>145.0</ele><time>2026-04-29T15:15:54Z</time></trkpt><trkpt lat="43.349339504199776" lon="-0.46997538161694724"><ele>145.0</ele><time>2026-04-29T15:15:55Z</time></trkpt><trkpt lat="43.34941045586369" lon="-0.470007842596053"><ele>145.0</ele><time>2026-04-29T15:15:56Z</time></trkpt><trkpt lat="43.34948839660965" lon="-0.47004098073800504"><ele>145.0</ele><time>2026-04-29T15:15:57Z</time></trkpt><trkpt lat="43.34955952572132" lon="-0.4700806310174384"><ele>145.0</ele><time>2026-04-29T15:15:58Z</time></trkpt><trkpt lat="43.34962577449374" lon="-0.4701266790731984"><ele>145.0</ele><time>2026-04-29T15:15:59Z</time></trkpt><trkpt lat="43.34969780289023" lon="-0.4701561618559952"><ele>145.0</ele><time>2026-04-29T15:16:00Z</time></trkpt><trkpt lat="43.34976058172576" lon="-0.47020704629791116"><ele>145.0</ele><time>2026-04-29T15:16:01Z</time></trkpt><trkpt lat="43.34980390397664" lon="-0.47027156439578494"><ele>145.0</ele><time>2026-04-29T15:16:02Z</time></trkpt><trkpt lat="43.34985425941369" lon="-0.47033196443279995"><ele>145.0</ele><time>2026-04-29T15:16:03Z</time></trkpt><trkpt lat="43.3499638561944" lon="-0.47046815964788596"><ele>144.8</ele><time>2026-04-29T15:16:06Z</time></trkpt><trkpt lat="43.350033116989366" lon="-0.47047841597094714"><ele>144.6</ele><time>2026-04-29T15:16:08Z</time></trkpt><trkpt lat="43.350089280508556" lon="-0.4703807466713569"><ele>144.4</ele><time>2026-04-29T15:16:10Z</time></trkpt><trkpt lat="43.35015191481099" lon="-0.47026429232130446"><ele>144.2</ele><time>2026-04-29T15:16:12Z</time></trkpt><trkpt lat="43.35022244714677" lon="-0.470144992403809"><ele>144.0</ele><time>2026-04-29T15:16:14Z</time></trkpt><trkpt lat="43.3503016369677" lon="-0.47003532883222676"><ele>144.0</ele><time>2026-04-29T15:16:16Z</time></trkpt><trkpt lat="43.350390004083934" lon="-0.46990948176974434"><ele>144.0</ele><time>2026-04-29T15:16:18Z</time></trkpt><trkpt lat="43.35043886404603" lon="-0.4698544166571028"><ele>144.0</ele><time>2026-04-29T15:16:19Z</time></trkpt><trkpt lat="43.35048991728286" lon="-0.46979564841409605"><ele>144.0</ele><time>2026-04-29T15:16:20Z</time></trkpt><trkpt lat="43.350537466205566" lon="-0.4697310185646798"><ele>144.0</ele><time>2026-04-29T15:16:21Z</time></trkpt><trkpt lat="43.35063620321604" lon="-0.4696357094688401"><ele>144.0</ele><time>2026-04-29T15:16:23Z</time></trkpt><trkpt lat="43.35068917701493" lon="-0.4695761359366638"><ele>144.2857142857143</ele><time>2026-04-29T15:16:24Z</time></trkpt><trkpt lat="43.35074572745533" lon="-0.4695307465044681"><ele>144.57142857142858</ele><time>2026-04-29T15:16:25Z</time></trkpt><trkpt lat="43.35080095269457" lon="-0.4694756933248429"><ele>144.85714285714286</ele><time>2026-04-29T15:16:26Z</time></trkpt><trkpt lat="43.35085929810004" lon="-0.4694234986638256"><ele>145.14285714285717</ele><time>2026-04-29T15:16:27Z</time></trkpt><trkpt lat="43.35091660280738" lon="-0.4693671997565662"><ele>145.42857142857144</ele><time>2026-04-29T15:16:28Z</time></trkpt><trkpt lat="43.35097502692226" lon="-0.4693148896239526"><ele>145.71428571428572</ele><time>2026-04-29T15:16:29Z</time></trkpt><trkpt lat="43.35103274590177" lon="-0.46926437272961685"><ele>146.0</ele><time>2026-04-29T15:16:30Z</time></trkpt><trkpt lat="43.35117059454052" lon="-0.46918032782277325"><ele>146.0</ele><time>2026-04-29T15:16:32Z</time></trkpt><trkpt lat="43.35127848127084" lon="-0.4691034363016864"><ele>146.0</ele><time>2026-04-29T15:16:34Z</time></trkpt><trkpt lat="43.35138418707416" lon="-0.46904827275386723"><ele>146.0</ele><time>2026-04-29T15:16:36Z</time></trkpt><trkpt lat="43.35148883596429" lon="-0.46902870838765875"><ele>146.0</ele><time>2026-04-29T15:16:38Z</time></trkpt><trkpt lat="43.35157969525711" lon="-0.4690079065515723"><ele>146.0</ele><time>2026-04-29T15:16:40Z</time></trkpt><trkpt lat="43.35166443278915" lon="-0.46897535042281757"><ele>147.4</ele><time>2026-04-29T15:16:43Z</time></trkpt><trkpt lat="43.3517276605958" lon="-0.46895698415139586"><ele>148.8</ele><time>2026-04-29T15:16:45Z</time></trkpt><trkpt lat="43.35180897816016" lon="-0.4689167945872966"><ele>150.20000000000002</ele><time>2026-04-29T15:16:48Z</time></trkpt><trkpt lat="43.35189509207159" lon="-0.46891274910761044"><ele>151.6</ele><time>2026-04-29T15:16:51Z</time></trkpt><trkpt lat="43.35194895176134" lon="-0.4688629929389727"><ele>153.0</ele><time>2026-04-29T15:16:54Z</time></trkpt><trkpt lat="43.35341190275643" lon="-0.4694982026775182"><ele>155.4</ele><time>2026-04-29T15:18:16Z</time></trkpt><trkpt lat="43.353519579922036" lon="-0.4694550707211834"><ele>157.8</ele><time>2026-04-29T15:18:18Z</time></trkpt><trkpt lat="43.35361026583954" lon="-0.46940038422612707"><ele>160.2</ele><time>2026-04-29T15:18:20Z</time></trkpt><trkpt lat="43.35370401103316" lon="-0.4693706627488111"><ele>162.6</ele><time>2026-04-29T15:18:22Z</time></trkpt><trkpt lat="43.35382691239164" lon="-0.46932795374853914"><ele>165.0</ele><time>2026-04-29T15:18:24Z</time></trkpt><trkpt lat="43.35388878934931" lon="-0.46930847600608383"><ele>165.4</ele><time>2026-04-29T15:18:25Z</time></trkpt><trkpt lat="43.35400374596157" lon="-0.4692753942201967"><ele>165.8</ele><time>2026-04-29T15:18:27Z</time></trkpt><trkpt lat="43.35406538342104" lon="-0.469256398663434"><ele>166.2</ele><time>2026-04-29T15:18:28Z</time></trkpt><trkpt lat="43.354179118616" lon="-0.4692160725784822"><ele>166.6</ele><time>2026-04-29T15:18:30Z</time></trkpt><trkpt lat="43.35424061233516" lon="-0.4691966470825852"><ele>167.0</ele><time>2026-04-29T15:18:31Z</time></trkpt><trkpt lat="43.354354695413804" lon="-0.4691604046208868"><ele>167.0</ele><time>2026-04-29T15:18:33Z</time></trkpt><trkpt lat="43.354466366104916" lon="-0.4691347375847113"><ele>167.0</ele><time>2026-04-29T15:18:35Z</time></trkpt><trkpt lat="43.35459473679315" lon="-0.4690991767940192"><ele>167.0</ele><time>2026-04-29T15:18:37Z</time></trkpt><trkpt lat="43.3547130667382" lon="-0.4690598947107911"><ele>167.0</ele><time>2026-04-29T15:18:39Z</time></trkpt><trkpt lat="43.3548295541408" lon="-0.469019395615046"><ele>167.0</ele><time>2026-04-29T15:18:41Z</time></trkpt><trkpt lat="43.35489018522175" lon="-0.46899395054538506"><ele>167.0</ele><time>2026-04-29T15:18:42Z</time></trkpt><trkpt lat="43.3549501244664" lon="-0.4689673955051899"><ele>167.0</ele><time>2026-04-29T15:18:43Z</time></trkpt><trkpt lat="43.35500854381492" lon="-0.4689326079485454"><ele>167.0</ele><time>2026-04-29T15:18:44Z</time></trkpt><trkpt lat="43.35512356504487" lon="-0.4688743165433385"><ele>167.0</ele><time>2026-04-29T15:18:46Z</time></trkpt><trkpt lat="43.355226719010915" lon="-0.4688135737866933"><ele>167.0</ele><time>2026-04-29T15:18:48Z</time></trkpt><trkpt lat="43.355370548603396" lon="-0.46871073019706794"><ele>167.0</ele><time>2026-04-29T15:18:51Z</time></trkpt><trkpt lat="43.355434666862024" lon="-0.4686421925785652"><ele>167.0</ele><time>2026-04-29T15:18:53Z</time></trkpt><trkpt lat="43.35553288329877" lon="-0.4687560206883824"><ele>167.0</ele><time>2026-04-29T15:18:56Z</time></trkpt><trkpt lat="43.35555587613364" lon="-0.46890627194756784"><ele>167.0</ele><time>2026-04-29T15:18:58Z</time></trkpt><trkpt lat="43.3555850755938" lon="-0.469065973805847"><ele>167.0</ele><time>2026-04-29T15:19:00Z</time></trkpt><trkpt lat="43.35560124119281" lon="-0.4691562351710712"><ele>167.0</ele><time>2026-04-29T15:19:01Z</time></trkpt><trkpt lat="43.35561340489055" lon="-0.46925057740343973"><ele>167.0</ele><time>2026-04-29T15:19:02Z</time></trkpt><trkpt lat="43.35562825732263" lon="-0.46933615659078876"><ele>167.0</ele><time>2026-04-29T15:19:03Z</time></trkpt><trkpt lat="43.35564421931746" lon="-0.4694225103894541"><ele>167.0</ele><time>2026-04-29T15:19:04Z</time></trkpt><trkpt lat="43.35566928326907" lon="-0.46951887391312636"><ele>167.0</ele><time>2026-04-29T15:19:05Z</time></trkpt><trkpt lat="43.355689153090324" lon="-0.469602848279285"><ele>167.0</ele><time>2026-04-29T15:19:06Z</time></trkpt><trkpt lat="43.35570112713953" lon="-0.46969910361910616"><ele>167.0</ele><time>2026-04-29T15:19:07Z</time></trkpt><trkpt lat="43.355716907309336" lon="-0.469797587358513"><ele>167.0</ele><time>2026-04-29T15:19:08Z</time></trkpt><trkpt lat="43.355735420611815" lon="-0.4698922703745708"><ele>167.0</ele><time>2026-04-29T15:19:09Z</time></trkpt><trkpt lat="43.355762506173434" lon="-0.4699830571963088"><ele>167.0</ele><time>2026-04-29T15:19:10Z</time></trkpt><trkpt lat="43.35578124461229" lon="-0.4700854346238867"><ele>167.0</ele><time>2026-04-29T15:19:11Z</time></trkpt><trkpt lat="43.35580489250609" lon="-0.4701870918525391"><ele>167.0</ele><time>2026-04-29T15:19:12Z</time></trkpt><trkpt lat="43.35583145874626" lon="-0.4702837846691109"><ele>167.0</ele><time>2026-04-29T15:19:13Z</time></trkpt><trkpt lat="43.355858735444116" lon="-0.4703846153618763"><ele>166.66666666666666</ele><time>2026-04-29T15:19:14Z</time></trkpt><trkpt lat="43.3558805962092" lon="-0.47048757475186476"><ele>166.33333333333331</ele><time>2026-04-29T15:19:15Z</time></trkpt><trkpt lat="43.35592053423117" lon="-0.4705793009555827"><ele>166.0</ele><time>2026-04-29T15:19:16Z</time></trkpt><trkpt lat="43.355934299779264" lon="-0.4706824569977656"><ele>165.66666666666666</ele><time>2026-04-29T15:19:17Z</time></trkpt><trkpt lat="43.35595954298441" lon="-0.4707859889854545"><ele>165.33333333333334</ele><time>2026-04-29T15:19:18Z</time></trkpt><trkpt lat="43.355997638030324" lon="-0.47087521314597314"><ele>165.0</ele><time>2026-04-29T15:19:19Z</time></trkpt><trkpt lat="43.35602260485512" lon="-0.4709696197040899"><ele>165.0</ele><time>2026-04-29T15:19:20Z</time></trkpt><trkpt lat="43.35604895825715" lon="-0.47106686169356027"><ele>165.0</ele><time>2026-04-29T15:19:21Z</time></trkpt><trkpt lat="43.35607374812017" lon="-0.47115833403770785"><ele>165.0</ele><time>2026-04-29T15:19:22Z</time></trkpt><trkpt lat="43.35609128560357" lon="-0.47129288125852703"><ele>165.0</ele><time>2026-04-29T15:19:23Z</time></trkpt><trkpt lat="43.35613814555069" lon="-0.47146306311003405"><ele>165.0</ele><time>2026-04-29T15:19:25Z</time></trkpt><trkpt lat="43.35616572408291" lon="-0.47155387388559145"><ele>165.16666666666666</ele><time>2026-04-29T15:19:26Z</time></trkpt><trkpt lat="43.35619675058229" lon="-0.47164738033432807"><ele>165.33333333333334</ele><time>2026-04-29T15:19:27Z</time></trkpt><trkpt lat="43.35623535219782" lon="-0.4717326748648509"><ele>165.5</ele><time>2026-04-29T15:19:28Z</time></trkpt><trkpt lat="43.35627682600294" lon="-0.47182107593269423"><ele>165.66666666666669</ele><time>2026-04-29T15:19:29Z</time></trkpt><trkpt lat="43.35632348296796" lon="-0.47190852060046456"><ele>165.83333333333334</ele><time>2026-04-29T15:19:30Z</time></trkpt><trkpt lat="43.3563662204398" lon="-0.47200216029551"><ele>166.0</ele><time>2026-04-29T15:19:31Z</time></trkpt><trkpt lat="43.3564126356193" lon="-0.4720853491442321"><ele>165.83333333333334</ele><time>2026-04-29T15:19:32Z</time></trkpt><trkpt lat="43.3564548463653" lon="-0.4721727465689573"><ele>165.66666666666669</ele><time>2026-04-29T15:19:33Z</time></trkpt><trkpt lat="43.356491301603825" lon="-0.4722706663580341"><ele>165.5</ele><time>2026-04-29T15:19:34Z</time></trkpt><trkpt lat="43.35652012399911" lon="-0.47237260107227813"><ele>165.33333333333334</ele><time>2026-04-29T15:19:35Z</time></trkpt><trkpt lat="43.356548200168746" lon="-0.47247537841906523"><ele>165.16666666666666</ele><time>2026-04-29T15:19:36Z</time></trkpt><trkpt lat="43.35657605319568" lon="-0.4725723472250424"><ele>165.0</ele><time>2026-04-29T15:19:37Z</time></trkpt><trkpt lat="43.35660543356099" lon="-0.4726708546724439"><ele>165.0</ele><time>2026-04-29T15:19:38Z</time></trkpt><trkpt lat="43.356635290842426" lon="-0.47276840792443203"><ele>165.0</ele><time>2026-04-29T15:19:39Z</time></trkpt><trkpt lat="43.35666582393823" lon="-0.4728675324954691"><ele>165.0</ele><time>2026-04-29T15:19:40Z</time></trkpt><trkpt lat="43.356696235804534" lon="-0.4729629235040033"><ele>165.0</ele><time>2026-04-29T15:19:41Z</time></trkpt><trkpt lat="43.35672635868157" lon="-0.473065717582866"><ele>165.0</ele><time>2026-04-29T15:19:42Z</time></trkpt><trkpt lat="43.35675749043438" lon="-0.4731639153382203"><ele>165.0</ele><time>2026-04-29T15:19:43Z</time></trkpt><trkpt lat="43.356792383120606" lon="-0.4732623079255156"><ele>164.66666666666666</ele><time>2026-04-29T15:19:44Z</time></trkpt><trkpt lat="43.35682429782532" lon="-0.47336614871355187"><ele>164.33333333333334</ele><time>2026-04-29T15:19:45Z</time></trkpt><trkpt lat="43.35685462589069" lon="-0.47346569787392684"><ele>164.0</ele><time>2026-04-29T15:19:46Z</time></trkpt><trkpt lat="43.35688552551856" lon="-0.4735693555217196"><ele>163.66666666666669</ele><time>2026-04-29T15:19:47Z</time></trkpt><trkpt lat="43.35691408588614" lon="-0.47367731125016704"><ele>163.33333333333334</ele><time>2026-04-29T15:19:48Z</time></trkpt><trkpt lat="43.35694526393067" lon="-0.4737767800013795"><ele>163.0</ele><time>2026-04-29T15:19:49Z</time></trkpt><trkpt lat="43.35697314996218" lon="-0.47388206545240635"><ele>163.0</ele><time>2026-04-29T15:19:50Z</time></trkpt><trkpt lat="43.357005208862134" lon="-0.47398304382538214"><ele>163.0</ele><time>2026-04-29T15:19:51Z</time></trkpt><trkpt lat="43.357041427688195" lon="-0.4740762061848766"><ele>163.0</ele><time>2026-04-29T15:19:52Z</time></trkpt><trkpt lat="43.35709426631573" lon="-0.4742175820836418"><ele>163.0</ele><time>2026-04-29T15:19:53Z</time></trkpt><trkpt lat="43.357134623700645" lon="-0.47435338328970716"><ele>163.0</ele><time>2026-04-29T15:19:54Z</time></trkpt><trkpt lat="43.357176900848714" lon="-0.47451205409400893"><ele>163.16666666666669</ele><time>2026-04-29T15:19:56Z</time></trkpt><trkpt lat="43.35720880549174" lon="-0.4746149734453108"><ele>163.33333333333334</ele><time>2026-04-29T15:19:57Z</time></trkpt><trkpt lat="43.357242114116296" lon="-0.4747165727304138"><ele>163.5</ele><time>2026-04-29T15:19:58Z</time></trkpt><trkpt lat="43.357273835307964" lon="-0.47482086062859846"><ele>163.66666666666666</ele><time>2026-04-29T15:19:59Z</time></trkpt><trkpt lat="43.357304996816865" lon="-0.47492287330858646"><ele>163.83333333333331</ele><time>2026-04-29T15:20:00Z</time></trkpt><trkpt lat="43.35733449319659" lon="-0.47502756102010246"><ele>164.0</ele><time>2026-04-29T15:20:01Z</time></trkpt><trkpt lat="43.35737113260868" lon="-0.47512922511695066"><ele>164.0</ele><time>2026-04-29T15:20:02Z</time></trkpt><trkpt lat="43.357410007148275" lon="-0.4752275024851973"><ele>164.0</ele><time>2026-04-29T15:20:03Z</time></trkpt><trkpt lat="43.35745621780653" lon="-0.47531974348226064"><ele>164.0</ele><time>2026-04-29T15:20:04Z</time></trkpt><trkpt lat="43.357513543290466" lon="-0.4753995895889545"><ele>164.0</ele><time>2026-04-29T15:20:05Z</time></trkpt><trkpt lat="43.357576562449225" lon="-0.47545901312879046"><ele>164.0</ele><time>2026-04-29T15:20:06Z</time></trkpt><trkpt lat="43.35764080503219" lon="-0.4755216975485103"><ele>164.0</ele><time>2026-04-29T15:20:07Z</time></trkpt><trkpt lat="43.35770595653793" lon="-0.4755832172841762"><ele>163.83333333333331</ele><time>2026-04-29T15:20:08Z</time></trkpt><trkpt lat="43.357767533169074" lon="-0.4756508129742043"><ele>163.66666666666666</ele><time>2026-04-29T15:20:09Z</time></trkpt><trkpt lat="43.357825296352026" lon="-0.47572155507802166"><ele>163.5</ele><time>2026-04-29T15:20:10Z</time></trkpt><trkpt lat="43.35787603616146" lon="-0.4757851146477335"><ele>163.33333333333334</ele><time>2026-04-29T15:20:11Z</time></trkpt><trkpt lat="43.357932934762346" lon="-0.4758575800920474"><ele>163.16666666666669</ele><time>2026-04-29T15:20:12Z</time></trkpt><trkpt lat="43.35799252435116" lon="-0.47592431508525457"><ele>163.0</ele><time>2026-04-29T15:20:13Z</time></trkpt><trkpt lat="43.3580480595727" lon="-0.47599571464808454"><ele>163.0</ele><time>2026-04-29T15:20:14Z</time></trkpt><trkpt lat="43.35810715109493" lon="-0.47607992245981295"><ele>163.0</ele><time>2026-04-29T15:20:15Z</time></trkpt><trkpt lat="43.35815637748036" lon="-0.47615218331921105"><ele>163.0</ele><time>2026-04-29T15:20:16Z</time></trkpt><trkpt lat="43.3581983425542" lon="-0.4762295564128486"><ele>163.0</ele><time>2026-04-29T15:20:17Z</time></trkpt><trkpt lat="43.35825023027775" lon="-0.4763017809762416"><ele>163.0</ele><time>2026-04-29T15:20:18Z</time></trkpt><trkpt lat="43.35829358273419" lon="-0.47641531502814644"><ele>163.0</ele><time>2026-04-29T15:20:19Z</time></trkpt><trkpt lat="43.35833637290034" lon="-0.47650812383203883"><ele>163.0</ele><time>2026-04-29T15:20:20Z</time></trkpt><trkpt lat="43.3583764582185" lon="-0.4766125060767416"><ele>163.0</ele><time>2026-04-29T15:20:21Z</time></trkpt><trkpt lat="43.35842261339481" lon="-0.47669340382808073"><ele>163.0</ele><time>2026-04-29T15:20:22Z</time></trkpt><trkpt lat="43.35846448910965" lon="-0.47677693473812216"><ele>163.0</ele><time>2026-04-29T15:20:23Z</time></trkpt><trkpt lat="43.358510124652085" lon="-0.47687519649377275"><ele>163.0</ele><time>2026-04-29T15:20:24Z</time></trkpt><trkpt lat="43.358597830009344" lon="-0.4770535266311962"><ele>163.0</ele><time>2026-04-29T15:20:26Z</time></trkpt><trkpt lat="43.35864278796307" lon="-0.47714529211470796"><ele>163.0</ele><time>2026-04-29T15:20:27Z</time></trkpt><trkpt lat="43.35868593987997" lon="-0.4772350442125384"><ele>163.0</ele><time>2026-04-29T15:20:28Z</time></trkpt><trkpt lat="43.35872729516515" lon="-0.4773227780490761"><ele>163.0</ele><time>2026-04-29T15:20:29Z</time></trkpt><trkpt lat="43.35876970707444" lon="-0.47740070655657213"><ele>163.0</ele><time>2026-04-29T15:20:30Z</time></trkpt><trkpt lat="43.358811835655096" lon="-0.47747991206575047"><ele>163.0</ele><time>2026-04-29T15:20:31Z</time></trkpt><trkpt lat="43.358859839152956" lon="-0.47756627036819344"><ele>162.83333333333334</ele><time>2026-04-29T15:20:32Z</time></trkpt><trkpt lat="43.35890565096759" lon="-0.4776428482725099"><ele>162.66666666666669</ele><time>2026-04-29T15:20:33Z</time></trkpt><trkpt lat="43.35895831516883" lon="-0.4777240210484944"><ele>162.5</ele><time>2026-04-29T15:20:34Z</time></trkpt><trkpt lat="43.3590084655231" lon="-0.47779591252911613"><ele>162.33333333333334</ele><time>2026-04-29T15:20:35Z</time></trkpt><trkpt lat="43.359058708731304" lon="-0.47787684639839845"><ele>162.16666666666666</ele><time>2026-04-29T15:20:36Z</time></trkpt><trkpt lat="43.35911231561345" lon="-0.47794309072947905"><ele>162.0</ele><time>2026-04-29T15:20:37Z</time></trkpt><trkpt lat="43.359167268270006" lon="-0.47802344610175135"><ele>162.0</ele><time>2026-04-29T15:20:38Z</time></trkpt><trkpt lat="43.35922173499355" lon="-0.47809638751589584"><ele>162.0</ele><time>2026-04-29T15:20:39Z</time></trkpt><trkpt lat="43.35927657966443" lon="-0.47817196933980505"><ele>162.0</ele><time>2026-04-29T15:20:40Z</time></trkpt><trkpt lat="43.359327456266605" lon="-0.47824718090021034"><ele>162.0</ele><time>2026-04-29T15:20:41Z</time></trkpt><trkpt lat="43.359379378861625" lon="-0.4783274973128757"><ele>162.0</ele><time>2026-04-29T15:20:42Z</time></trkpt><trkpt lat="43.35943248982583" lon="-0.47839697330315784"><ele>162.0</ele><time>2026-04-29T15:20:43Z</time></trkpt><trkpt lat="43.35948362193067" lon="-0.4784795029601602"><ele>162.0</ele><time>2026-04-29T15:20:44Z</time></trkpt><trkpt lat="43.35953782430539" lon="-0.4785514923015227"><ele>162.0</ele><time>2026-04-29T15:20:45Z</time></trkpt><trkpt lat="43.359598687816515" lon="-0.47861966350132285"><ele>162.0</ele><time>2026-04-29T15:20:46Z</time></trkpt><trkpt lat="43.35965245420765" lon="-0.47869965941746745"><ele>162.0</ele><time>2026-04-29T15:20:47Z</time></trkpt><trkpt lat="43.35970757899922" lon="-0.4787764416033199"><ele>162.0</ele><time>2026-04-29T15:20:48Z</time></trkpt><trkpt lat="43.35976250693194" lon="-0.4788509152328597"><ele>162.0</ele><time>2026-04-29T15:20:49Z</time></trkpt><trkpt lat="43.35981458257382" lon="-0.47892939642650345"><ele>162.0</ele><time>2026-04-29T15:20:50Z</time></trkpt><trkpt lat="43.359866156569765" lon="-0.4790080777046016"><ele>162.0</ele><time>2026-04-29T15:20:51Z</time></trkpt><trkpt lat="43.35992705446272" lon="-0.4790665441725893"><ele>162.0</ele><time>2026-04-29T15:20:52Z</time></trkpt><trkpt lat="43.35997157557657" lon="-0.4791459665430922"><ele>162.0</ele><time>2026-04-29T15:20:53Z</time></trkpt><trkpt lat="43.36002394292345" lon="-0.47920546647883605"><ele>162.0</ele><time>2026-04-29T15:20:54Z</time></trkpt><trkpt lat="43.36007365453115" lon="-0.47927431203905063"><ele>162.0</ele><time>2026-04-29T15:20:55Z</time></trkpt><trkpt lat="43.360110124739506" lon="-0.47935649865232377"><ele>162.0</ele><time>2026-04-29T15:20:56Z</time></trkpt><trkpt lat="43.360107291461425" lon="-0.4795179220555718"><ele>162.0</ele><time>2026-04-29T15:20:58Z</time></trkpt><trkpt lat="43.36005621341201" lon="-0.4795722126767926"><ele>162.0</ele><time>2026-04-29T15:20:59Z</time></trkpt><trkpt lat="43.359938919849064" lon="-0.47963314659574086"><ele>162.0</ele><time>2026-04-29T15:21:01Z</time></trkpt><trkpt lat="43.35981499632501" lon="-0.4796667981127689"><ele>162.0</ele><time>2026-04-29T15:21:03Z</time></trkpt><trkpt lat="43.35969227140106" lon="-0.4796822540326036"><ele>162.0</ele><time>2026-04-29T15:21:05Z</time></trkpt><trkpt lat="43.35956653317094" lon="-0.47971249172572056"><ele>161.8</ele><time>2026-04-29T15:21:07Z</time></trkpt><trkpt lat="43.35950240176264" lon="-0.4797307634397767"><ele>161.6</ele><time>2026-04-29T15:21:08Z</time></trkpt><trkpt lat="43.359442982302866" lon="-0.47976698001228996"><ele>161.4</ele><time>2026-04-29T15:21:09Z</time></trkpt><trkpt lat="43.359383341633595" lon="-0.47980369845488774"><ele>161.20000000000002</ele><time>2026-04-29T15:21:10Z</time></trkpt><trkpt lat="43.35927425756145" lon="-0.4798806665422535"><ele>161.0</ele><time>2026-04-29T15:21:12Z</time></trkpt><trkpt lat="43.35917463401605" lon="-0.48000036681759267"><ele>161.0</ele><time>2026-04-29T15:21:15Z</time></trkpt><trkpt lat="43.35921328697945" lon="-0.4801215015095582"><ele>161.0</ele><time>2026-04-29T15:21:18Z</time></trkpt><trkpt lat="43.35928663472952" lon="-0.4801892733310543"><ele>161.0</ele><time>2026-04-29T15:21:20Z</time></trkpt><trkpt lat="43.359361297800675" lon="-0.4802567053287576"><ele>161.0</ele><time>2026-04-29T15:21:22Z</time></trkpt><trkpt lat="43.35941004782321" lon="-0.4803156047391289"><ele>161.0</ele><time>2026-04-29T15:21:23Z</time></trkpt><trkpt lat="43.35950615311516" lon="-0.48039920368858113"><ele>160.83333333333331</ele><time>2026-04-29T15:21:25Z</time></trkpt><trkpt lat="43.359609251706" lon="-0.48048461690888794"><ele>160.66666666666666</ele><time>2026-04-29T15:21:27Z</time></trkpt><trkpt lat="43.35966784254045" lon="-0.48052134809109404"><ele>160.5</ele><time>2026-04-29T15:21:28Z</time></trkpt><trkpt lat="43.35972717746712" lon="-0.48055722803017015"><ele>160.33333333333334</ele><time>2026-04-29T15:21:29Z</time></trkpt><trkpt lat="43.359789574655444" lon="-0.48059387744843574"><ele>160.16666666666669</ele><time>2026-04-29T15:21:30Z</time></trkpt><trkpt lat="43.359851074436015" lon="-0.48062352190387764"><ele>160.0</ele><time>2026-04-29T15:21:31Z</time></trkpt><trkpt lat="43.359913154446275" lon="-0.4806633298427659"><ele>160.0</ele><time>2026-04-29T15:21:32Z</time></trkpt><trkpt lat="43.35997604279916" lon="-0.4806907775975174"><ele>160.0</ele><time>2026-04-29T15:21:33Z</time></trkpt><trkpt lat="43.360042738797034" lon="-0.48072681041597143"><ele>160.0</ele><time>2026-04-29T15:21:34Z</time></trkpt><trkpt lat="43.360107535140564" lon="-0.4807663242012468"><ele>160.0</ele><time>2026-04-29T15:21:35Z</time></trkpt><trkpt lat="43.36017518225292" lon="-0.4808054690747469"><ele>160.0</ele><time>2026-04-29T15:21:36Z</time></trkpt><trkpt lat="43.36024124046325" lon="-0.48084032798827514"><ele>160.0</ele><time>2026-04-29T15:21:37Z</time></trkpt><trkpt lat="43.36031095854271" lon="-0.48088276891562864"><ele>160.0</ele><time>2026-04-29T15:21:38Z</time></trkpt><trkpt lat="43.360377587481096" lon="-0.48092138596743955"><ele>160.0</ele><time>2026-04-29T15:21:39Z</time></trkpt><trkpt lat="43.36044677511092" lon="-0.4809650273756011"><ele>160.0</ele><time>2026-04-29T15:21:40Z</time></trkpt><trkpt lat="43.36051856888362" lon="-0.48100667578600126"><ele>160.0</ele><time>2026-04-29T15:21:41Z</time></trkpt><trkpt lat="43.36059103588456" lon="-0.48104370234428606"><ele>160.0</ele><time>2026-04-29T15:21:42Z</time></trkpt><trkpt lat="43.360666266181184" lon="-0.48108403616084167"><ele>160.0</ele><time>2026-04-29T15:21:43Z</time></trkpt><trkpt lat="43.36073250046042" lon="-0.48111489867006724"><ele>160.0</ele><time>2026-04-29T15:21:44Z</time></trkpt><trkpt lat="43.36080430136756" lon="-0.48115543766225827"><ele>160.0</ele><time>2026-04-29T15:21:45Z</time></trkpt><trkpt lat="43.3608735032593" lon="-0.48119403604745437"><ele>160.0</ele><time>2026-04-29T15:21:46Z</time></trkpt><trkpt lat="43.360944628431135" lon="-0.4812293119029997"><ele>160.0</ele><time>2026-04-29T15:21:47Z</time></trkpt><trkpt lat="43.36102013481046" lon="-0.48126332595734345"><ele>160.0</ele><time>2026-04-29T15:21:48Z</time></trkpt><trkpt lat="43.36109335384758" lon="-0.4813031349094302"><ele>160.0</ele><time>2026-04-29T15:21:49Z</time></trkpt><trkpt lat="43.3611669235887" lon="-0.48134320889444915"><ele>160.0</ele><time>2026-04-29T15:21:50Z</time></trkpt><trkpt lat="43.36124110757167" lon="-0.4813804113122652"><ele>160.0</ele><time>2026-04-29T15:21:51Z</time></trkpt><trkpt lat="43.361313962634725" lon="-0.4814089816061676"><ele>160.0</ele><time>2026-04-29T15:21:52Z</time></trkpt><trkpt lat="43.36138743729732" lon="-0.4814446070794747"><ele>160.0</ele><time>2026-04-29T15:21:53Z</time></trkpt><trkpt lat="43.361463307339186" lon="-0.4814755241353614"><ele>160.0</ele><time>2026-04-29T15:21:54Z</time></trkpt><trkpt lat="43.3615375027749" lon="-0.4815074630689693"><ele>160.0</ele><time>2026-04-29T15:21:55Z</time></trkpt><trkpt lat="43.361613146637715" lon="-0.4815408330837357"><ele>160.0</ele><time>2026-04-29T15:21:56Z</time></trkpt><trkpt lat="43.36168502024319" lon="-0.48157537891046126"><ele>160.16666666666669</ele><time>2026-04-29T15:21:57Z</time></trkpt><trkpt lat="43.361762340799416" lon="-0.4816122841742791"><ele>160.33333333333334</ele><time>2026-04-29T15:21:58Z</time></trkpt><trkpt lat="43.361839012828504" lon="-0.48164454870865425"><ele>160.5</ele><time>2026-04-29T15:21:59Z</time></trkpt><trkpt lat="43.36191762497167" lon="-0.4816771067057847"><ele>160.66666666666666</ele><time>2026-04-29T15:22:00Z</time></trkpt><trkpt lat="43.36199234704725" lon="-0.48170756496989825"><ele>160.83333333333331</ele><time>2026-04-29T15:22:01Z</time></trkpt><trkpt lat="43.36206498500107" lon="-0.4817432839228882"><ele>161.0</ele><time>2026-04-29T15:22:02Z</time></trkpt><trkpt lat="43.36213954949774" lon="-0.48177504758854167"><ele>160.83333333333331</ele><time>2026-04-29T15:22:03Z</time></trkpt><trkpt lat="43.36221146297836" lon="-0.48180286348389484"><ele>160.66666666666666</ele><time>2026-04-29T15:22:04Z</time></trkpt><trkpt lat="43.3622846352509" lon="-0.48182542445134563"><ele>160.5</ele><time>2026-04-29T15:22:05Z</time></trkpt><trkpt lat="43.36235878545218" lon="-0.48185661078693"><ele>160.33333333333334</ele><time>2026-04-29T15:22:06Z</time></trkpt><trkpt lat="43.36243245656372" lon="-0.481883609938348"><ele>160.16666666666669</ele><time>2026-04-29T15:22:07Z</time></trkpt><trkpt lat="43.362502153268665" lon="-0.4819098553498732"><ele>160.0</ele><time>2026-04-29T15:22:08Z</time></trkpt><trkpt lat="43.36257545289341" lon="-0.4819402339217517"><ele>160.0</ele><time>2026-04-29T15:22:09Z</time></trkpt><trkpt lat="43.36265059275366" lon="-0.4819749273345782"><ele>160.0</ele><time>2026-04-29T15:22:10Z</time></trkpt><trkpt lat="43.362716102179306" lon="-0.4819951201197613"><ele>160.0</ele><time>2026-04-29T15:22:11Z</time></trkpt><trkpt lat="43.36279441221016" lon="-0.4820291260950443"><ele>160.0</ele><time>2026-04-29T15:22:12Z</time></trkpt><trkpt lat="43.36286830736792" lon="-0.48205001562196653"><ele>160.0</ele><time>2026-04-29T15:22:13Z</time></trkpt><trkpt lat="43.36293939418175" lon="-0.4820699279161846"><ele>160.0</ele><time>2026-04-29T15:22:14Z</time></trkpt><trkpt lat="43.36301349878297" lon="-0.48210388812135413"><ele>160.16666666666669</ele><time>2026-04-29T15:22:15Z</time></trkpt><trkpt lat="43.3630877519691" lon="-0.4821139862667487"><ele>160.33333333333334</ele><time>2026-04-29T15:22:16Z</time></trkpt><trkpt lat="43.3631643175786" lon="-0.4821294913279497"><ele>160.5</ele><time>2026-04-29T15:22:17Z</time></trkpt><trkpt lat="43.363240448221326" lon="-0.48214043199223566"><ele>160.66666666666666</ele><time>2026-04-29T15:22:18Z</time></trkpt><trkpt lat="43.36331720151286" lon="-0.4821477477214733"><ele>160.83333333333331</ele><time>2026-04-29T15:22:19Z</time></trkpt><trkpt lat="43.36339283946818" lon="-0.48216084583600144"><ele>161.0</ele><time>2026-04-29T15:22:20Z</time></trkpt><trkpt lat="43.363468720835435" lon="-0.48217460194014344"><ele>161.0</ele><time>2026-04-29T15:22:21Z</time></trkpt><trkpt lat="43.363542921592405" lon="-0.48218564761089405"><ele>161.0</ele><time>2026-04-29T15:22:22Z</time></trkpt><trkpt lat="43.36361774678359" lon="-0.4821999854766105"><ele>161.0</ele><time>2026-04-29T15:22:23Z</time></trkpt><trkpt lat="43.36369598287206" lon="-0.4822139939739604"><ele>161.0</ele><time>2026-04-29T15:22:24Z</time></trkpt><trkpt lat="43.363771081943455" lon="-0.4822256104569967"><ele>161.0</ele><time>2026-04-29T15:22:25Z</time></trkpt><trkpt lat="43.36384810728464" lon="-0.4822416133927981"><ele>161.0</ele><time>2026-04-29T15:22:26Z</time></trkpt><trkpt lat="43.363927770849635" lon="-0.482263217651606"><ele>160.66666666666666</ele><time>2026-04-29T15:22:27Z</time></trkpt><trkpt lat="43.364005413231695" lon="-0.48227787055325044"><ele>160.33333333333331</ele><time>2026-04-29T15:22:28Z</time></trkpt><trkpt lat="43.364082577656845" lon="-0.4822891419931763"><ele>160.0</ele><time>2026-04-29T15:22:29Z</time></trkpt><trkpt lat="43.36416135874027" lon="-0.4823107157434693"><ele>159.66666666666666</ele><time>2026-04-29T15:22:30Z</time></trkpt><trkpt lat="43.364239144513846" lon="-0.48232486656750495"><ele>159.33333333333334</ele><time>2026-04-29T15:22:31Z</time></trkpt><trkpt lat="43.36431661147593" lon="-0.48234548935720684"><ele>159.0</ele><time>2026-04-29T15:22:32Z</time></trkpt><trkpt lat="43.36442891233628" lon="-0.482335232970001"><ele>159.0</ele><time>2026-04-29T15:22:33Z</time></trkpt><trkpt lat="43.36450795952599" lon="-0.48234713778071237"><ele>159.0</ele><time>2026-04-29T15:22:34Z</time></trkpt><trkpt lat="43.364588129036925" lon="-0.4823621719940615"><ele>159.0</ele><time>2026-04-29T15:22:35Z</time></trkpt><trkpt lat="43.36466737186951" lon="-0.48238152405712176"><ele>159.0</ele><time>2026-04-29T15:22:36Z</time></trkpt><trkpt lat="43.364746297499956" lon="-0.4823887434691604"><ele>159.0</ele><time>2026-04-29T15:22:37Z</time></trkpt><trkpt lat="43.36482203384928" lon="-0.4824047729658538"><ele>159.0</ele><time>2026-04-29T15:22:38Z</time></trkpt><trkpt lat="43.36490566674863" lon="-0.4824054985127107"><ele>158.66666666666666</ele><time>2026-04-29T15:22:39Z</time></trkpt><trkpt lat="43.36498801888959" lon="-0.48241295841092974"><ele>158.33333333333334</ele><time>2026-04-29T15:22:40Z</time></trkpt><trkpt lat="43.36507587381165" lon="-0.48240516789684407"><ele>158.0</ele><time>2026-04-29T15:22:41Z</time></trkpt><trkpt lat="43.365166082787646" lon="-0.48239394590972506"><ele>157.66666666666669</ele><time>2026-04-29T15:22:42Z</time></trkpt><trkpt lat="43.36524895184748" lon="-0.48236685511320976"><ele>157.33333333333334</ele><time>2026-04-29T15:22:43Z</time></trkpt><trkpt lat="43.365331125690155" lon="-0.48233725693503454"><ele>157.0</ele><time>2026-04-29T15:22:44Z</time></trkpt><trkpt lat="43.36541319655552" lon="-0.48230948975330323"><ele>157.0</ele><time>2026-04-29T15:22:45Z</time></trkpt><trkpt lat="43.36549055009627" lon="-0.482282323898172"><ele>157.0</ele><time>2026-04-29T15:22:46Z</time></trkpt><trkpt lat="43.36556765546432" lon="-0.48225340582251913"><ele>157.0</ele><time>2026-04-29T15:22:47Z</time></trkpt><trkpt lat="43.36563883888593" lon="-0.4822115768148599"><ele>157.0</ele><time>2026-04-29T15:22:48Z</time></trkpt><trkpt lat="43.365712134028634" lon="-0.48218467210958366"><ele>157.0</ele><time>2026-04-29T15:22:49Z</time></trkpt><trkpt lat="43.36577858450247" lon="-0.48215469143484496"><ele>157.0</ele><time>2026-04-29T15:22:50Z</time></trkpt><trkpt lat="43.36584747025491" lon="-0.4821250226974012"><ele>157.2</ele><time>2026-04-29T15:22:51Z</time></trkpt><trkpt lat="43.36595496700484" lon="-0.48208441347142605"><ele>157.39999999999998</ele><time>2026-04-29T15:22:53Z</time></trkpt><trkpt lat="43.366019846093515" lon="-0.48205004508127086"><ele>157.60000000000002</ele><time>2026-04-29T15:22:54Z</time></trkpt><trkpt lat="43.36609216999929" lon="-0.48201133813783764"><ele>157.8</ele><time>2026-04-29T15:22:55Z</time></trkpt><trkpt lat="43.3662050298913" lon="-0.48198189383072704"><ele>158.0</ele><time>2026-04-29T15:22:57Z</time></trkpt><trkpt lat="43.36631936630551" lon="-0.4819308271160138"><ele>158.0</ele><time>2026-04-29T15:22:59Z</time></trkpt><trkpt lat="43.366432422573496" lon="-0.4818861138403171"><ele>158.0</ele><time>2026-04-29T15:23:01Z</time></trkpt><trkpt lat="43.366540658774454" lon="-0.4818523885000935"><ele>158.0</ele><time>2026-04-29T15:23:03Z</time></trkpt><trkpt lat="43.36663694816516" lon="-0.48181993515951776"><ele>158.0</ele><time>2026-04-29T15:23:05Z</time></trkpt><trkpt lat="43.366728688553486" lon="-0.4818013262862169"><ele>158.0</ele><time>2026-04-29T15:23:07Z</time></trkpt><trkpt lat="43.36681028749328" lon="-0.4817789261456906"><ele>158.0</ele><time>2026-04-29T15:23:09Z</time></trkpt><trkpt lat="43.36687948910281" lon="-0.4817546914867572"><ele>158.0</ele><time>2026-04-29T15:23:11Z</time></trkpt><trkpt lat="43.36694241367714" lon="-0.48173937814907314"><ele>158.0</ele><time>2026-04-29T15:23:13Z</time></trkpt><trkpt lat="43.36703135981111" lon="-0.4817207552357343"><ele>158.0</ele><time>2026-04-29T15:23:16Z</time></trkpt><trkpt lat="43.36710947970118" lon="-0.48170348300485216"><ele>158.0</ele><time>2026-04-29T15:23:19Z</time></trkpt><trkpt lat="43.36718671577128" lon="-0.48167697200896264"><ele>158.0</ele><time>2026-04-29T15:23:22Z</time></trkpt><trkpt lat="43.36725813929575" lon="-0.48164689344790895"><ele>158.66666666666666</ele><time>2026-04-29T15:23:25Z</time></trkpt><trkpt lat="43.36733933081765" lon="-0.48163054540621475"><ele>159.33333333333331</ele><time>2026-04-29T15:23:28Z</time></trkpt><trkpt lat="43.36740198935311" lon="-0.48160837854806227"><ele>160.0</ele><time>2026-04-29T15:23:30Z</time></trkpt><trkpt lat="43.36748527725381" lon="-0.4815629540964965"><ele>160.66666666666666</ele><time>2026-04-29T15:23:33Z</time></trkpt><trkpt lat="43.36757758588513" lon="-0.4815238064219213"><ele>161.33333333333334</ele><time>2026-04-29T15:23:36Z</time></trkpt><trkpt lat="43.36764213989888" lon="-0.481498983732398"><ele>162.0</ele><time>2026-04-29T15:23:38Z</time></trkpt><trkpt lat="43.36770295785838" lon="-0.4814614096446696"><ele>162.0</ele><time>2026-04-29T15:23:40Z</time></trkpt><trkpt lat="43.36777743223912" lon="-0.4814265488975478"><ele>162.0</ele><time>2026-04-29T15:23:42Z</time></trkpt><trkpt lat="43.36785410799468" lon="-0.481389760327453"><ele>162.0</ele><time>2026-04-29T15:23:44Z</time></trkpt><trkpt lat="43.36792960531913" lon="-0.4813436310378297"><ele>162.0</ele><time>2026-04-29T15:23:46Z</time></trkpt><trkpt lat="43.36801285889242" lon="-0.4813024954170046"><ele>162.0</ele><time>2026-04-29T15:23:48Z</time></trkpt><trkpt lat="43.368100019951086" lon="-0.48124971965369834"><ele>162.0</ele><time>2026-04-29T15:23:50Z</time></trkpt><trkpt lat="43.3681923940919" lon="-0.4812026408710178"><ele>162.39999999999998</ele><time>2026-04-29T15:23:52Z</time></trkpt><trkpt lat="43.36828291057636" lon="-0.4811451395810411"><ele>162.79999999999998</ele><time>2026-04-29T15:23:54Z</time></trkpt><trkpt lat="43.368377495842815" lon="-0.4811099364686583"><ele>163.2</ele><time>2026-04-29T15:23:56Z</time></trkpt><trkpt lat="43.368477012432685" lon="-0.4810531461985529"><ele>163.6</ele><time>2026-04-29T15:23:58Z</time></trkpt><trkpt lat="43.3685943552487" lon="-0.48098742811166756"><ele>164.0</ele><time>2026-04-29T15:24:00Z</time></trkpt><trkpt lat="43.368717835841586" lon="-0.48093412746735076"><ele>164.0</ele><time>2026-04-29T15:24:02Z</time></trkpt><trkpt lat="43.3687835656688" lon="-0.4809183630744592"><ele>164.0</ele><time>2026-04-29T15:24:03Z</time></trkpt><trkpt lat="43.36885350942178" lon="-0.48089875538937293"><ele>164.0</ele><time>2026-04-29T15:24:04Z</time></trkpt><trkpt lat="43.36893096467963" lon="-0.4808765544316457"><ele>164.0</ele><time>2026-04-29T15:24:05Z</time></trkpt><trkpt lat="43.36901118698976" lon="-0.4808562655439929"><ele>164.0</ele><time>2026-04-29T15:24:06Z</time></trkpt><trkpt lat="43.369094997419104" lon="-0.48084752925737007"><ele>164.0</ele><time>2026-04-29T15:24:07Z</time></trkpt><trkpt lat="43.369176204151834" lon="-0.48084723753018677"><ele>165.0</ele><time>2026-04-29T15:24:08Z</time></trkpt><trkpt lat="43.3692603595798" lon="-0.480854007213387"><ele>166.0</ele><time>2026-04-29T15:24:09Z</time></trkpt><trkpt lat="43.369339390396405" lon="-0.48085738780673565"><ele>167.0</ele><time>2026-04-29T15:24:10Z</time></trkpt><trkpt lat="43.36941826212713" lon="-0.48084931057629077"><ele>168.0</ele><time>2026-04-29T15:24:11Z</time></trkpt><trkpt lat="43.369492851336844" lon="-0.48085530545124433"><ele>169.0</ele><time>2026-04-29T15:24:12Z</time></trkpt><trkpt lat="43.36956767362749" lon="-0.48086370622137664"><ele>170.0</ele><time>2026-04-29T15:24:13Z</time></trkpt><trkpt lat="43.36963662547695" lon="-0.480864819270366"><ele>170.33333333333331</ele><time>2026-04-29T15:24:14Z</time></trkpt><trkpt lat="43.369700915540754" lon="-0.48086370890502134"><ele>170.66666666666666</ele><time>2026-04-29T15:24:15Z</time></trkpt><trkpt lat="43.36983086596199" lon="-0.4808391499071608"><ele>171.0</ele><time>2026-04-29T15:24:17Z</time></trkpt><trkpt lat="43.369898726741866" lon="-0.4807978898491988"><ele>171.33333333333334</ele><time>2026-04-29T15:24:18Z</time></trkpt><trkpt lat="43.369957346241236" lon="-0.48075816799740895"><ele>171.66666666666669</ele><time>2026-04-29T15:24:19Z</time></trkpt><trkpt lat="43.370020546924216" lon="-0.48071222951175013"><ele>172.0</ele><time>2026-04-29T15:24:20Z</time></trkpt><trkpt lat="43.37007426903806" lon="-0.4806643919384467"><ele>172.00000000000003</ele><time>2026-04-29T15:24:21Z</time></trkpt><trkpt lat="43.37013449005733" lon="-0.48059834770810067"><ele>172.0</ele><time>2026-04-29T15:24:22Z</time></trkpt><trkpt lat="43.37019762542807" lon="-0.48053759227677395"><ele>172.0</ele><time>2026-04-29T15:24:23Z</time></trkpt><trkpt lat="43.370249143071" lon="-0.4804708003457609"><ele>172.0</ele><time>2026-04-29T15:24:24Z</time></trkpt><trkpt lat="43.370296769807304" lon="-0.4804002621320527"><ele>172.0</ele><time>2026-04-29T15:24:25Z</time></trkpt><trkpt lat="43.370339945481184" lon="-0.48032508678275526"><ele>172.00000000000003</ele><time>2026-04-29T15:24:26Z</time></trkpt><trkpt lat="43.3703854010991" lon="-0.480256662892551"><ele>172.0</ele><time>2026-04-29T15:24:27Z</time></trkpt><trkpt lat="43.37043317375046" lon="-0.48019475519894506"><ele>171.75</ele><time>2026-04-29T15:24:28Z</time></trkpt><trkpt lat="43.370512130072896" lon="-0.4800652955248084"><ele>171.5</ele><time>2026-04-29T15:24:30Z</time></trkpt><trkpt lat="43.37059749928604" lon="-0.47995865276434535"><ele>171.25</ele><time>2026-04-29T15:24:32Z</time></trkpt><trkpt lat="43.37068890826261" lon="-0.47985753387113816"><ele>171.0</ele><time>2026-04-29T15:24:34Z</time></trkpt><trkpt lat="43.37077532862998" lon="-0.47975126453445344"><ele>171.0</ele><time>2026-04-29T15:24:36Z</time></trkpt><trkpt lat="43.370863507672645" lon="-0.47965713077867916"><ele>171.0</ele><time>2026-04-29T15:24:38Z</time></trkpt><trkpt lat="43.37093515119994" lon="-0.47955493418278555"><ele>171.0</ele><time>2026-04-29T15:24:40Z</time></trkpt><trkpt lat="43.37100789889248" lon="-0.47945164961336273"><ele>171.0</ele><time>2026-04-29T15:24:42Z</time></trkpt><trkpt lat="43.37107744295604" lon="-0.4793497132221324"><ele>171.0</ele><time>2026-04-29T15:24:44Z</time></trkpt><trkpt lat="43.37114314685337" lon="-0.47924945149411957"><ele>171.8</ele><time>2026-04-29T15:24:46Z</time></trkpt><trkpt lat="43.3712067348477" lon="-0.479147171074541"><ele>172.60000000000002</ele><time>2026-04-29T15:24:48Z</time></trkpt><trkpt lat="43.37126931554791" lon="-0.4790442961845694"><ele>173.4</ele><time>2026-04-29T15:24:50Z</time></trkpt><trkpt lat="43.37133200530633" lon="-0.4789454306371368"><ele>174.2</ele><time>2026-04-29T15:24:52Z</time></trkpt><trkpt lat="43.37139821608597" lon="-0.4788411247033554"><ele>175.0</ele><time>2026-04-29T15:24:54Z</time></trkpt><trkpt lat="43.37146287413867" lon="-0.47874792242477454"><ele>176.0</ele><time>2026-04-29T15:24:56Z</time></trkpt><trkpt lat="43.3715206740556" lon="-0.47864725833123367"><ele>177.0</ele><time>2026-04-29T15:24:58Z</time></trkpt><trkpt lat="43.37157999982148" lon="-0.4785632101004361"><ele>178.0</ele><time>2026-04-29T15:25:00Z</time></trkpt><trkpt lat="43.37163356406917" lon="-0.478475796769022"><ele>179.0</ele><time>2026-04-29T15:25:02Z</time></trkpt><trkpt lat="43.37169624594556" lon="-0.4783908709785469"><ele>180.0</ele><time>2026-04-29T15:25:04Z</time></trkpt><trkpt lat="43.371753973289096" lon="-0.4783089880069923"><ele>181.0</ele><time>2026-04-29T15:25:06Z</time></trkpt><trkpt lat="43.37181294764091" lon="-0.47822794033352417"><ele>181.0</ele><time>2026-04-29T15:25:08Z</time></trkpt><trkpt lat="43.371885949486575" lon="-0.478158741210654"><ele>181.0</ele><time>2026-04-29T15:25:10Z</time></trkpt><trkpt lat="43.371953821102416" lon="-0.47807256613681637"><ele>181.0</ele><time>2026-04-29T15:25:12Z</time></trkpt><trkpt lat="43.372024425561825" lon="-0.47800294759255796"><ele>181.0</ele><time>2026-04-29T15:25:14Z</time></trkpt><trkpt lat="43.37209982566194" lon="-0.4779282188951229"><ele>181.0</ele><time>2026-04-29T15:25:16Z</time></trkpt><trkpt lat="43.37216708054131" lon="-0.4778529165739999"><ele>181.0</ele><time>2026-04-29T15:25:18Z</time></trkpt><trkpt lat="43.37223980123338" lon="-0.47779480341820346"><ele>182.66666666666669</ele><time>2026-04-29T15:25:20Z</time></trkpt><trkpt lat="43.37231774232403" lon="-0.4777427442593137"><ele>184.33333333333334</ele><time>2026-04-29T15:25:22Z</time></trkpt><trkpt lat="43.37239056040724" lon="-0.47770584191681176"><ele>186.0</ele><time>2026-04-29T15:25:24Z</time></trkpt><trkpt lat="43.372468598307904" lon="-0.4776649535786506"><ele>187.66666666666666</ele><time>2026-04-29T15:25:26Z</time></trkpt><trkpt lat="43.37254913007872" lon="-0.4776295344173413"><ele>189.33333333333331</ele><time>2026-04-29T15:25:28Z</time></trkpt><trkpt lat="43.37262711968733" lon="-0.47759780178911665"><ele>191.0</ele><time>2026-04-29T15:25:30Z</time></trkpt><trkpt lat="43.37269317948622" lon="-0.4775556899448962"><ele>191.0</ele><time>2026-04-29T15:25:32Z</time></trkpt><trkpt lat="43.372766307984456" lon="-0.4775054327253483"><ele>191.0</ele><time>2026-04-29T15:25:34Z</time></trkpt><trkpt lat="43.37284116901126" lon="-0.4774605368890385"><ele>191.0</ele><time>2026-04-29T15:25:36Z</time></trkpt><trkpt lat="43.37290930766581" lon="-0.47740821362205627"><ele>191.0</ele><time>2026-04-29T15:25:38Z</time></trkpt><trkpt lat="43.372969157993396" lon="-0.47734818069650725"><ele>191.0</ele><time>2026-04-29T15:25:40Z</time></trkpt><trkpt lat="43.373041745537456" lon="-0.47730230617628966"><ele>191.0</ele><time>2026-04-29T15:25:42Z</time></trkpt><trkpt lat="43.373119158559376" lon="-0.4772454834308921"><ele>191.0</ele><time>2026-04-29T15:25:45Z</time></trkpt><trkpt lat="43.373182897165" lon="-0.47721029033793005"><ele>191.0</ele><time>2026-04-29T15:25:47Z</time></trkpt><trkpt lat="43.373241456273355" lon="-0.4771756632952961"><ele>191.0</ele><time>2026-04-29T15:25:50Z</time></trkpt><trkpt lat="43.37330900842303" lon="-0.4771414015748602"><ele>191.0</ele><time>2026-04-29T15:25:54Z</time></trkpt><trkpt lat="43.37336474698361" lon="-0.4770880049518041"><ele>191.0</ele><time>2026-04-29T15:25:58Z</time></trkpt><trkpt lat="43.373430912253234" lon="-0.4770422792053441"><ele>191.0</ele><time>2026-04-29T15:26:03Z</time></trkpt><trkpt lat="43.37350869288203" lon="-0.4769963448766455"><ele>191.0</ele><time>2026-04-29T15:26:07Z</time></trkpt><trkpt lat="43.37356613531885" lon="-0.4769456252109141"><ele>191.2857142857143</ele><time>2026-04-29T15:26:10Z</time></trkpt><trkpt lat="43.373615073950354" lon="-0.4768770897921577"><ele>191.57142857142856</ele><time>2026-04-29T15:26:13Z</time></trkpt><trkpt lat="43.37365884282827" lon="-0.47680001848059417"><ele>191.85714285714286</ele><time>2026-04-29T15:26:16Z</time></trkpt><trkpt lat="43.373688630683205" lon="-0.4767148974842062"><ele>192.14285714285717</ele><time>2026-04-29T15:26:19Z</time></trkpt><trkpt lat="43.37371858923482" lon="-0.4766102147152694"><ele>192.42857142857144</ele><time>2026-04-29T15:26:23Z</time></trkpt><trkpt lat="43.37373487915948" lon="-0.4764993373888321"><ele>192.71428571428572</ele><time>2026-04-29T15:26:27Z</time></trkpt><trkpt lat="43.37374977249884" lon="-0.47641116228827474"><ele>193.0</ele><time>2026-04-29T15:26:30Z</time></trkpt><trkpt lat="43.3737675638773" lon="-0.47629989972614895"><ele>193.99999999999997</ele><time>2026-04-29T15:26:33Z</time></trkpt><trkpt lat="43.37379613765813" lon="-0.4761774725844499"><ele>195.0</ele><time>2026-04-29T15:26:36Z</time></trkpt><trkpt lat="43.37381997144425" lon="-0.4760685387988696"><ele>196.0</ele><time>2026-04-29T15:26:39Z</time></trkpt><trkpt lat="43.37384644988813" lon="-0.47596623401664484"><ele>197.0</ele><time>2026-04-29T15:26:42Z</time></trkpt><trkpt lat="43.373871974716074" lon="-0.4758782768443951"><ele>197.99999999999997</ele><time>2026-04-29T15:26:45Z</time></trkpt><trkpt lat="43.37389985297994" lon="-0.47578085499613654"><ele>199.0</ele><time>2026-04-29T15:26:49Z</time></trkpt><trkpt lat="43.37394108248547" lon="-0.4756940096483811"><ele>198.99999999999997</ele><time>2026-04-29T15:26:54Z</time></trkpt><trkpt lat="43.37397619323358" lon="-0.4756131189751401"><ele>199.0</ele><time>2026-04-29T15:26:58Z</time></trkpt><trkpt lat="43.374018966475475" lon="-0.4755349277252875"><ele>199.0</ele><time>2026-04-29T15:27:02Z</time></trkpt><trkpt lat="43.374045526724174" lon="-0.4754524511137199"><ele>199.0</ele><time>2026-04-29T15:27:05Z</time></trkpt><trkpt lat="43.37409143704431" lon="-0.4753607338448899"><ele>198.99999999999997</ele><time>2026-04-29T15:27:08Z</time></trkpt><trkpt lat="43.37413882648798" lon="-0.47525519032247604"><ele>199.0</ele><time>2026-04-29T15:27:11Z</time></trkpt><trkpt lat="43.37416863338328" lon="-0.47513284250562354"><ele>199.33333333333331</ele><time>2026-04-29T15:27:14Z</time></trkpt><trkpt lat="43.374193471634605" lon="-0.47501910297418637"><ele>199.66666666666666</ele><time>2026-04-29T15:27:17Z</time></trkpt><trkpt lat="43.374211228796135" lon="-0.47489962767129573"><ele>200.0</ele><time>2026-04-29T15:27:20Z</time></trkpt><trkpt lat="43.37422156775313" lon="-0.474810521581341"><ele>200.33333333333331</ele><time>2026-04-29T15:27:22Z</time></trkpt><trkpt lat="43.374218434085044" lon="-0.4747115355471446"><ele>200.66666666666666</ele><time>2026-04-29T15:27:24Z</time></trkpt><trkpt lat="43.374218931408166" lon="-0.4746084300369454"><ele>201.0</ele><time>2026-04-29T15:27:26Z</time></trkpt><trkpt lat="43.374214322084235" lon="-0.4745157263210052"><ele>201.83333333333334</ele><time>2026-04-29T15:27:28Z</time></trkpt><trkpt lat="43.37421810339455" lon="-0.4744147969628141"><ele>202.66666666666669</ele><time>2026-04-29T15:27:30Z</time></trkpt><trkpt lat="43.374220308620934" lon="-0.47432426882058737"><ele>203.5</ele><time>2026-04-29T15:27:32Z</time></trkpt><trkpt lat="43.37422226009776" lon="-0.47419397554930554"><ele>204.33333333333334</ele><time>2026-04-29T15:27:35Z</time></trkpt><trkpt lat="43.3742443289722" lon="-0.47409898581619936"><ele>205.16666666666669</ele><time>2026-04-29T15:27:37Z</time></trkpt><trkpt lat="43.37426578871505" lon="-0.47398212504061715"><ele>206.0</ele><time>2026-04-29T15:27:39Z</time></trkpt><trkpt lat="43.37428858348403" lon="-0.47387921289984286"><ele>206.00000000000003</ele><time>2026-04-29T15:27:41Z</time></trkpt><trkpt lat="43.37430653546667" lon="-0.4737819644513463"><ele>206.0</ele><time>2026-04-29T15:27:43Z</time></trkpt><trkpt lat="43.37432758229998" lon="-0.4736826278255047"><ele>206.0</ele><time>2026-04-29T15:27:45Z</time></trkpt><trkpt lat="43.37436133561403" lon="-0.4735437843236541"><ele>206.0</ele><time>2026-04-29T15:27:48Z</time></trkpt><trkpt lat="43.37438806158682" lon="-0.4734465749258092"><ele>206.00000000000003</ele><time>2026-04-29T15:27:50Z</time></trkpt><trkpt lat="43.374416903344475" lon="-0.4733140544839842"><ele>206.0</ele><time>2026-04-29T15:27:53Z</time></trkpt><trkpt lat="43.374434252742944" lon="-0.47322697213106346"><ele>206.33333333333334</ele><time>2026-04-29T15:27:55Z</time></trkpt><trkpt lat="43.374447426683396" lon="-0.47312061588279836"><ele>206.66666666666669</ele><time>2026-04-29T15:27:57Z</time></trkpt><trkpt lat="43.37446683457918" lon="-0.47300947218292055"><ele>207.0</ele><time>2026-04-29T15:27:59Z</time></trkpt><trkpt lat="43.374470997433576" lon="-0.47290805746070586"><ele>207.33333333333331</ele><time>2026-04-29T15:28:01Z</time></trkpt><trkpt lat="43.37446721007728" lon="-0.4728014281343214"><ele>207.66666666666666</ele><time>2026-04-29T15:28:03Z</time></trkpt><trkpt lat="43.37443969971911" lon="-0.472675647035969"><ele>208.0</ele><time>2026-04-29T15:28:06Z</time></trkpt><trkpt lat="43.37440905002242" lon="-0.4725651680693751"><ele>208.7142857142857</ele><time>2026-04-29T15:28:09Z</time></trkpt><trkpt lat="43.37438764398988" lon="-0.47247963475496174"><ele>209.42857142857144</ele><time>2026-04-29T15:28:12Z</time></trkpt><trkpt lat="43.374335571660886" lon="-0.47240706475683564"><ele>210.14285714285714</ele><time>2026-04-29T15:28:17Z</time></trkpt><trkpt lat="43.37425747699928" lon="-0.4724039425517091"><ele>210.85714285714283</ele><time>2026-04-29T15:28:21Z</time></trkpt><trkpt lat="43.37418452860423" lon="-0.47237691840882606"><ele>211.57142857142856</ele><time>2026-04-29T15:28:25Z</time></trkpt><trkpt lat="43.37412428157544" lon="-0.4723491322949208"><ele>212.28571428571428</ele><time>2026-04-29T15:28:28Z</time></trkpt><trkpt lat="43.374050812144176" lon="-0.4723365141289906"><ele>213.0</ele><time>2026-04-29T15:28:32Z</time></trkpt><trkpt lat="43.37397752800247" lon="-0.47233866616452275"><ele>213.0</ele><time>2026-04-29T15:28:36Z</time></trkpt><trkpt lat="43.373900874304745" lon="-0.4723459476331578"><ele>213.0</ele><time>2026-04-29T15:28:40Z</time></trkpt><trkpt lat="43.373836102837814" lon="-0.47233877354886983"><ele>213.0</ele><time>2026-04-29T15:28:43Z</time></trkpt><trkpt lat="43.373757238833576" lon="-0.47236150318401815"><ele>213.0</ele><time>2026-04-29T15:28:46Z</time></trkpt><trkpt lat="43.373679250779084" lon="-0.4723922866682785"><ele>213.0</ele><time>2026-04-29T15:28:49Z</time></trkpt><trkpt lat="43.37360166971079" lon="-0.4724201156151352"><ele>213.0</ele><time>2026-04-29T15:28:52Z</time></trkpt><trkpt lat="43.373518075942634" lon="-0.4724315558046142"><ele>213.83333333333334</ele><time>2026-04-29T15:28:55Z</time></trkpt><trkpt lat="43.37344094669826" lon="-0.4724429746465582"><ele>214.66666666666669</ele><time>2026-04-29T15:28:58Z</time></trkpt><trkpt lat="43.373361078177" lon="-0.47245074800295267"><ele>215.5</ele><time>2026-04-29T15:29:02Z</time></trkpt><trkpt lat="43.37328392706011" lon="-0.4724493162105858"><ele>216.33333333333334</ele><time>2026-04-29T15:29:06Z</time></trkpt><trkpt lat="43.37320952154442" lon="-0.4724435938631595"><ele>217.16666666666669</ele><time>2026-04-29T15:29:09Z</time></trkpt><trkpt lat="43.3731222026984" lon="-0.47242849972418727"><ele>218.0</ele><time>2026-04-29T15:29:12Z</time></trkpt><trkpt lat="43.373055906932365" lon="-0.47241336538596057"><ele>219.00000000000003</ele><time>2026-04-29T15:29:14Z</time></trkpt><trkpt lat="43.37298526911559" lon="-0.4723836654624482"><ele>220.0</ele><time>2026-04-29T15:29:16Z</time></trkpt><trkpt lat="43.37290258331099" lon="-0.4723614487441725"><ele>221.0</ele><time>2026-04-29T15:29:18Z</time></trkpt><trkpt lat="43.37282407902476" lon="-0.4723315181446494"><ele>222.0</ele><time>2026-04-29T15:29:20Z</time></trkpt><trkpt lat="43.37274986495052" lon="-0.4722864259976843"><ele>223.00000000000003</ele><time>2026-04-29T15:29:22Z</time></trkpt><trkpt lat="43.37267789996471" lon="-0.47222088832956605"><ele>224.0</ele><time>2026-04-29T15:29:24Z</time></trkpt><trkpt lat="43.372628596979446" lon="-0.47212429267530515"><ele>224.0</ele><time>2026-04-29T15:29:26Z</time></trkpt><trkpt lat="43.37260043271567" lon="-0.4720199302357227"><ele>223.99999999999997</ele><time>2026-04-29T15:29:28Z</time></trkpt><trkpt lat="43.372618036915966" lon="-0.4718983720111258"><ele>223.99999999999997</ele><time>2026-04-29T15:29:30Z</time></trkpt><trkpt lat="43.37265173805091" lon="-0.47177929302329963"><ele>224.0</ele><time>2026-04-29T15:29:32Z</time></trkpt><trkpt lat="43.372687215102374" lon="-0.471656782643715"><ele>224.0</ele><time>2026-04-29T15:29:34Z</time></trkpt><trkpt lat="43.372727797927475" lon="-0.4715274419528841"><ele>224.0</ele><time>2026-04-29T15:29:36Z</time></trkpt><trkpt lat="43.372770894797085" lon="-0.4713983779878681"><ele>223.99999999999997</ele><time>2026-04-29T15:29:38Z</time></trkpt><trkpt lat="43.372803289331245" lon="-0.47127857391885924"><ele>223.99999999999997</ele><time>2026-04-29T15:29:40Z</time></trkpt><trkpt lat="43.37281439843937" lon="-0.4711658611118336"><ele>224.0</ele><time>2026-04-29T15:29:42Z</time></trkpt><trkpt lat="43.372797919309306" lon="-0.4710621997871033"><ele>224.0</ele><time>2026-04-29T15:29:44Z</time></trkpt><trkpt lat="43.3727583927198" lon="-0.4709263843712989"><ele>223.2</ele><time>2026-04-29T15:29:46Z</time></trkpt><trkpt lat="43.372704300177716" lon="-0.47085238072513874"><ele>222.39999999999998</ele><time>2026-04-29T15:29:48Z</time></trkpt><trkpt lat="43.37265888374603" lon="-0.47071608361420736"><ele>221.6</ele><time>2026-04-29T15:29:50Z</time></trkpt><trkpt lat="43.37266808612927" lon="-0.47054657200133193"><ele>220.8</ele><time>2026-04-29T15:29:52Z</time></trkpt><trkpt lat="43.37266815787428" lon="-0.47039146387145203"><ele>220.0</ele><time>2026-04-29T15:29:54Z</time></trkpt><trkpt lat="43.372700504000164" lon="-0.4703164173218848"><ele>218.6</ele><time>2026-04-29T15:29:55Z</time></trkpt><trkpt lat="43.37273642227935" lon="-0.4702075576414488"><ele>217.2</ele><time>2026-04-29T15:29:56Z</time></trkpt><trkpt lat="43.37279573913815" lon="-0.47009634574363934"><ele>215.8</ele><time>2026-04-29T15:29:57Z</time></trkpt><trkpt lat="43.37283832356314" lon="-0.46995093666805604"><ele>214.4</ele><time>2026-04-29T15:29:58Z</time></trkpt><trkpt lat="43.37289789171572" lon="-0.4698582481768108"><ele>213.0</ele><time>2026-04-29T15:29:59Z</time></trkpt><trkpt lat="43.3729449654737" lon="-0.46973785032623533"><ele>213.0</ele><time>2026-04-29T15:30:00Z</time></trkpt><trkpt lat="43.37300324897259" lon="-0.4696619046983966"><ele>213.0</ele><time>2026-04-29T15:30:01Z</time></trkpt><trkpt lat="43.3730597175922" lon="-0.46954846168564107"><ele>213.0</ele><time>2026-04-29T15:30:02Z</time></trkpt><trkpt lat="43.37310657019157" lon="-0.46938076488253294"><ele>213.0</ele><time>2026-04-29T15:30:04Z</time></trkpt><trkpt lat="43.37313441595985" lon="-0.46929392122647645"><ele>213.0</ele><time>2026-04-29T15:30:05Z</time></trkpt><trkpt lat="43.37316171946544" lon="-0.4692003386383155"><ele>210.16666666666666</ele><time>2026-04-29T15:30:06Z</time></trkpt><trkpt lat="43.373185298716386" lon="-0.4690988695571716"><ele>207.33333333333331</ele><time>2026-04-29T15:30:07Z</time></trkpt><trkpt lat="43.37320783698545" lon="-0.4690049924592884"><ele>204.5</ele><time>2026-04-29T15:30:08Z</time></trkpt><trkpt lat="43.373232845260915" lon="-0.46890874238125807"><ele>201.66666666666666</ele><time>2026-04-29T15:30:09Z</time></trkpt><trkpt lat="43.37325422239207" lon="-0.46881800666080237"><ele>198.83333333333331</ele><time>2026-04-29T15:30:10Z</time></trkpt><trkpt lat="43.37329136349893" lon="-0.46872248034719644"><ele>196.0</ele><time>2026-04-29T15:30:11Z</time></trkpt><trkpt lat="43.373354168922454" lon="-0.4686192080210515"><ele>195.0</ele><time>2026-04-29T15:30:12Z</time></trkpt><trkpt lat="43.37342372808659" lon="-0.4685457667267987"><ele>194.0</ele><time>2026-04-29T15:30:13Z</time></trkpt><trkpt lat="43.373498106843805" lon="-0.46846613240495366"><ele>193.0</ele><time>2026-04-29T15:30:14Z</time></trkpt><trkpt lat="43.373558940404166" lon="-0.4683699062940817"><ele>192.0</ele><time>2026-04-29T15:30:15Z</time></trkpt><trkpt lat="43.373632749473" lon="-0.4682824436627331"><ele>191.0</ele><time>2026-04-29T15:30:16Z</time></trkpt><trkpt lat="43.37370700204677" lon="-0.46819125861476957"><ele>191.0</ele><time>2026-04-29T15:30:17Z</time></trkpt><trkpt lat="43.37378231885214" lon="-0.46809844878240464"><ele>191.0</ele><time>2026-04-29T15:30:18Z</time></trkpt><trkpt lat="43.37386158635963" lon="-0.4680018939620158"><ele>191.0</ele><time>2026-04-29T15:30:19Z</time></trkpt><trkpt lat="43.37394692416713" lon="-0.46792682841769845"><ele>191.0</ele><time>2026-04-29T15:30:20Z</time></trkpt><trkpt lat="43.3740207189103" lon="-0.4678373439063253"><ele>191.0</ele><time>2026-04-29T15:30:21Z</time></trkpt><trkpt lat="43.374077400226646" lon="-0.46775537728245026"><ele>189.57142857142858</ele><time>2026-04-29T15:30:22Z</time></trkpt><trkpt lat="43.374152405496986" lon="-0.4676857327220987"><ele>188.14285714285714</ele><time>2026-04-29T15:30:23Z</time></trkpt><trkpt lat="43.37420550175031" lon="-0.46762601487453453"><ele>186.71428571428572</ele><time>2026-04-29T15:30:24Z</time></trkpt><trkpt lat="43.374254131333295" lon="-0.46756806951467667"><ele>185.28571428571428</ele><time>2026-04-29T15:30:25Z</time></trkpt><trkpt lat="43.374302352851004" lon="-0.46750569578447093"><ele>183.85714285714283</ele><time>2026-04-29T15:30:26Z</time></trkpt><trkpt lat="43.374357035069224" lon="-0.46744580079370457"><ele>182.42857142857142</ele><time>2026-04-29T15:30:27Z</time></trkpt><trkpt lat="43.3744102820392" lon="-0.4673755617255765"><ele>181.0</ele><time>2026-04-29T15:30:28Z</time></trkpt><trkpt lat="43.3744663744287" lon="-0.46730832590465043"><ele>181.0</ele><time>2026-04-29T15:30:29Z</time></trkpt><trkpt lat="43.37452464847003" lon="-0.467231284164308"><ele>181.0</ele><time>2026-04-29T15:30:30Z</time></trkpt><trkpt lat="43.374571118861944" lon="-0.4671592053635036"><ele>181.0</ele><time>2026-04-29T15:30:31Z</time></trkpt><trkpt lat="43.37462439416608" lon="-0.46707989992727866"><ele>181.0</ele><time>2026-04-29T15:30:32Z</time></trkpt><trkpt lat="43.37467206672047" lon="-0.46700360770124244"><ele>181.0</ele><time>2026-04-29T15:30:33Z</time></trkpt><trkpt lat="43.37471059307086" lon="-0.46690708727792085"><ele>181.0</ele><time>2026-04-29T15:30:34Z</time></trkpt><trkpt lat="43.37475484315994" lon="-0.4668263720650897"><ele>180.5</ele><time>2026-04-29T15:30:35Z</time></trkpt><trkpt lat="43.374799507384154" lon="-0.4667420035345271"><ele>180.0</ele><time>2026-04-29T15:30:36Z</time></trkpt><trkpt lat="43.374841012874484" lon="-0.46665989716585454"><ele>179.5</ele><time>2026-04-29T15:30:37Z</time></trkpt><trkpt lat="43.3748920594457" lon="-0.4665798042109792"><ele>179.0</ele><time>2026-04-29T15:30:38Z</time></trkpt><trkpt lat="43.37493577010324" lon="-0.46650078471772277"><ele>178.5</ele><time>2026-04-29T15:30:39Z</time></trkpt><trkpt lat="43.374979020503616" lon="-0.46641679746071335"><ele>178.0</ele><time>2026-04-29T15:30:40Z</time></trkpt><trkpt lat="43.37501755339325" lon="-0.4663230569035557"><ele>177.85714285714283</ele><time>2026-04-29T15:30:41Z</time></trkpt><trkpt lat="43.3750594582767" lon="-0.46623531301729804"><ele>177.71428571428572</ele><time>2026-04-29T15:30:42Z</time></trkpt><trkpt lat="43.37510314138007" lon="-0.46615135270763364"><ele>177.57142857142856</ele><time>2026-04-29T15:30:43Z</time></trkpt><trkpt lat="43.37514561261457" lon="-0.46606793313793776"><ele>177.42857142857142</ele><time>2026-04-29T15:30:44Z</time></trkpt><trkpt lat="43.375188837225906" lon="-0.4659846323415853"><ele>177.28571428571428</ele><time>2026-04-29T15:30:45Z</time></trkpt><trkpt lat="43.37523344227963" lon="-0.46590431735217175"><ele>177.14285714285714</ele><time>2026-04-29T15:30:46Z</time></trkpt><trkpt lat="43.375274920048376" lon="-0.46582311341840604"><ele>177.0</ele><time>2026-04-29T15:30:47Z</time></trkpt><trkpt lat="43.375310314634305" lon="-0.46573591767025774"><ele>177.0</ele><time>2026-04-29T15:30:48Z</time></trkpt><trkpt lat="43.37534339656743" lon="-0.46565010865044626"><ele>177.0</ele><time>2026-04-29T15:30:49Z</time></trkpt><trkpt lat="43.375379405604846" lon="-0.4655632253509356"><ele>177.0</ele><time>2026-04-29T15:30:50Z</time></trkpt><trkpt lat="43.37541743108122" lon="-0.46549007859915703"><ele>177.0</ele><time>2026-04-29T15:30:51Z</time></trkpt><trkpt lat="43.37545565706425" lon="-0.4653569257908018"><ele>177.0</ele><time>2026-04-29T15:30:53Z</time></trkpt><trkpt lat="43.37538019898621" lon="-0.4652686646369735"><ele>177.0</ele><time>2026-04-29T15:30:55Z</time></trkpt><trkpt lat="43.37526887098734" lon="-0.46527945357211636"><ele>176.6</ele><time>2026-04-29T15:30:57Z</time></trkpt><trkpt lat="43.37515743834222" lon="-0.46524687854394076"><ele>176.2</ele><time>2026-04-29T15:30:59Z</time></trkpt><trkpt lat="43.37509930331463" lon="-0.4652055404331308"><ele>175.8</ele><time>2026-04-29T15:31:00Z</time></trkpt><trkpt lat="43.374981687150935" lon="-0.46516873359688143"><ele>175.4</ele><time>2026-04-29T15:31:02Z</time></trkpt><trkpt lat="43.37486361902753" lon="-0.4651158711558479"><ele>175.0</ele><time>2026-04-29T15:31:04Z</time></trkpt><trkpt lat="43.37479996544679" lon="-0.4650917384059409"><ele>175.0</ele><time>2026-04-29T15:31:05Z</time></trkpt><trkpt lat="43.37473803651803" lon="-0.4650656805420761"><ele>175.0</ele><time>2026-04-29T15:31:06Z</time></trkpt><trkpt lat="43.37467566992378" lon="-0.4650399102105822"><ele>175.0</ele><time>2026-04-29T15:31:07Z</time></trkpt><trkpt lat="43.37461568786042" lon="-0.465012561445382"><ele>175.0</ele><time>2026-04-29T15:31:08Z</time></trkpt><trkpt lat="43.374550794545335" lon="-0.4649893021704898"><ele>175.0</ele><time>2026-04-29T15:31:09Z</time></trkpt><trkpt lat="43.374486174888645" lon="-0.46496131135362434"><ele>175.0</ele><time>2026-04-29T15:31:10Z</time></trkpt><trkpt lat="43.37441905624569" lon="-0.4649282118724608"><ele>175.0</ele><time>2026-04-29T15:31:11Z</time></trkpt><trkpt lat="43.37435142638771" lon="-0.46490854965265266"><ele>175.0</ele><time>2026-04-29T15:31:12Z</time></trkpt><trkpt lat="43.37428347468835" lon="-0.46487943081781036"><ele>175.0</ele><time>2026-04-29T15:31:13Z</time></trkpt><trkpt lat="43.374214463828395" lon="-0.464848419396792"><ele>175.0</ele><time>2026-04-29T15:31:14Z</time></trkpt><trkpt lat="43.374143332827906" lon="-0.46481657430724627"><ele>175.0</ele><time>2026-04-29T15:31:15Z</time></trkpt><trkpt lat="43.37407350213874" lon="-0.46478481158477475"><ele>175.0</ele><time>2026-04-29T15:31:16Z</time></trkpt><trkpt lat="43.374004050948614" lon="-0.4647550928595754"><ele>175.0</ele><time>2026-04-29T15:31:17Z</time></trkpt><trkpt lat="43.373936083758664" lon="-0.4647249097258588"><ele>175.0</ele><time>2026-04-29T15:31:18Z</time></trkpt><trkpt lat="43.37386932195478" lon="-0.4646907827379515"><ele>175.0</ele><time>2026-04-29T15:31:19Z</time></trkpt><trkpt lat="43.37380488930394" lon="-0.46466202870674617"><ele>175.0</ele><time>2026-04-29T15:31:20Z</time></trkpt><trkpt lat="43.373740226366486" lon="-0.4646370794340666"><ele>175.0</ele><time>2026-04-29T15:31:21Z</time></trkpt><trkpt lat="43.37367413442953" lon="-0.4646029391309806"><ele>175.0</ele><time>2026-04-29T15:31:22Z</time></trkpt><trkpt lat="43.373606637751365" lon="-0.46457278758455567"><ele>175.0</ele><time>2026-04-29T15:31:23Z</time></trkpt><trkpt lat="43.37354370484525" lon="-0.4645399699312922"><ele>175.0</ele><time>2026-04-29T15:31:24Z</time></trkpt><trkpt lat="43.37347721488429" lon="-0.4645088001294985"><ele>175.0</ele><time>2026-04-29T15:31:25Z</time></trkpt><trkpt lat="43.3734099024418" lon="-0.46447883832870096"><ele>175.0</ele><time>2026-04-29T15:31:26Z</time></trkpt><trkpt lat="43.37334280123295" lon="-0.4644489942230895"><ele>175.0</ele><time>2026-04-29T15:31:27Z</time></trkpt><trkpt lat="43.373273999205175" lon="-0.46442100003745773"><ele>175.0</ele><time>2026-04-29T15:31:28Z</time></trkpt><trkpt lat="43.373207175247195" lon="-0.46439232500893274"><ele>175.0</ele><time>2026-04-29T15:31:29Z</time></trkpt><trkpt lat="43.37313959742042" lon="-0.4643637400596727"><ele>175.0</ele><time>2026-04-29T15:31:30Z</time></trkpt><trkpt lat="43.3730730533868" lon="-0.4643342500641227"><ele>175.0</ele><time>2026-04-29T15:31:31Z</time></trkpt><trkpt lat="43.37300547299914" lon="-0.46430812977154734"><ele>175.0</ele><time>2026-04-29T15:31:32Z</time></trkpt><trkpt lat="43.372938482107166" lon="-0.46428518825079446"><ele>175.14285714285714</ele><time>2026-04-29T15:31:33Z</time></trkpt><trkpt lat="43.37287440414034" lon="-0.4642651155241849"><ele>175.28571428571428</ele><time>2026-04-29T15:31:34Z</time></trkpt><trkpt lat="43.372803290095916" lon="-0.4642515423896861"><ele>175.42857142857144</ele><time>2026-04-29T15:31:35Z</time></trkpt><trkpt lat="43.372732785218176" lon="-0.4642357269937844"><ele>175.57142857142856</ele><time>2026-04-29T15:31:36Z</time></trkpt><trkpt lat="43.37266395575525" lon="-0.46422257550673895"><ele>175.71428571428572</ele><time>2026-04-29T15:31:37Z</time></trkpt><trkpt lat="43.372596575551604" lon="-0.46420782419142"><ele>175.85714285714286</ele><time>2026-04-29T15:31:38Z</time></trkpt><trkpt lat="43.37253354825189" lon="-0.4641834012562172"><ele>176.0</ele><time>2026-04-29T15:31:39Z</time></trkpt><trkpt lat="43.372474988487575" lon="-0.4641432988855883"><ele>176.0</ele><time>2026-04-29T15:31:40Z</time></trkpt><trkpt lat="43.372419133760864" lon="-0.4640901713217074"><ele>176.0</ele><time>2026-04-29T15:31:41Z</time></trkpt><trkpt lat="43.37237326478687" lon="-0.4640153133289752"><ele>176.0</ele><time>2026-04-29T15:31:42Z</time></trkpt><trkpt lat="43.372349404794015" lon="-0.46392310163796535"><ele>176.0</ele><time>2026-04-29T15:31:43Z</time></trkpt><trkpt lat="43.37233022598399" lon="-0.463832075437218"><ele>176.0</ele><time>2026-04-29T15:31:44Z</time></trkpt><trkpt lat="43.372326674356344" lon="-0.4637344912823251"><ele>176.0</ele><time>2026-04-29T15:31:45Z</time></trkpt><trkpt lat="43.37231552143274" lon="-0.4636344595666323"><ele>176.0</ele><time>2026-04-29T15:31:46Z</time></trkpt><trkpt lat="43.3722884609998" lon="-0.46354490470800813"><ele>176.0</ele><time>2026-04-29T15:31:47Z</time></trkpt><trkpt lat="43.37224734076864" lon="-0.46347046658114294"><ele>176.0</ele><time>2026-04-29T15:31:48Z</time></trkpt><trkpt lat="43.37218474889493" lon="-0.4634003222851794"><ele>176.0</ele><time>2026-04-29T15:31:49Z</time></trkpt><trkpt lat="43.372118451025706" lon="-0.4633552289655151"><ele>176.0</ele><time>2026-04-29T15:31:50Z</time></trkpt><trkpt lat="43.371997173342706" lon="-0.46327899509005555"><ele>176.0</ele><time>2026-04-29T15:31:52Z</time></trkpt><trkpt lat="43.37193665165228" lon="-0.4632412795504211"><ele>176.0</ele><time>2026-04-29T15:31:53Z</time></trkpt><trkpt lat="43.371871545131775" lon="-0.4632140946474486"><ele>176.0</ele><time>2026-04-29T15:31:54Z</time></trkpt><trkpt lat="43.371806885810585" lon="-0.463184775425761"><ele>176.0</ele><time>2026-04-29T15:31:55Z</time></trkpt><trkpt lat="43.37174140770153" lon="-0.4631510191864491"><ele>176.0</ele><time>2026-04-29T15:31:56Z</time></trkpt><trkpt lat="43.37167412670114" lon="-0.4631206924424106"><ele>176.0</ele><time>2026-04-29T15:31:57Z</time></trkpt><trkpt lat="43.37160563945292" lon="-0.4630893596191617"><ele>176.0</ele><time>2026-04-29T15:31:58Z</time></trkpt><trkpt lat="43.37153656340662" lon="-0.4630682970248312"><ele>176.0</ele><time>2026-04-29T15:31:59Z</time></trkpt><trkpt lat="43.3714694069922" lon="-0.463042048639008"><ele>176.0</ele><time>2026-04-29T15:32:00Z</time></trkpt><trkpt lat="43.37140081342496" lon="-0.46301108588968964"><ele>176.14285714285714</ele><time>2026-04-29T15:32:01Z</time></trkpt><trkpt lat="43.371335184569" lon="-0.46298452046464483"><ele>176.28571428571428</ele><time>2026-04-29T15:32:02Z</time></trkpt><trkpt lat="43.37126656894943" lon="-0.4629569170507544"><ele>176.42857142857144</ele><time>2026-04-29T15:32:03Z</time></trkpt><trkpt lat="43.371199767617284" lon="-0.46292874253586563"><ele>176.57142857142856</ele><time>2026-04-29T15:32:04Z</time></trkpt><trkpt lat="43.3711316350227" lon="-0.4629032403706817"><ele>176.7142857142857</ele><time>2026-04-29T15:32:05Z</time></trkpt><trkpt lat="43.371063745356274" lon="-0.46288062612787545"><ele>176.85714285714286</ele><time>2026-04-29T15:32:06Z</time></trkpt><trkpt lat="43.370996068687795" lon="-0.46285295723627995"><ele>177.0</ele><time>2026-04-29T15:32:07Z</time></trkpt><trkpt lat="43.37092722353256" lon="-0.4628262616334765"><ele>176.57142857142858</ele><time>2026-04-29T15:32:08Z</time></trkpt><trkpt lat="43.370858189139334" lon="-0.4628078256963812"><ele>176.14285714285714</ele><time>2026-04-29T15:32:09Z</time></trkpt><trkpt lat="43.37078959417846" lon="-0.4627910618303663"><ele>175.71428571428572</ele><time>2026-04-29T15:32:10Z</time></trkpt><trkpt lat="43.37072052978878" lon="-0.46277614449700427"><ele>175.28571428571428</ele><time>2026-04-29T15:32:11Z</time></trkpt><trkpt lat="43.37065342801964" lon="-0.4627610015326046"><ele>174.85714285714286</ele><time>2026-04-29T15:32:12Z</time></trkpt><trkpt lat="43.37058625092164" lon="-0.46274410676734756"><ele>174.42857142857142</ele><time>2026-04-29T15:32:13Z</time></trkpt><trkpt lat="43.37051787054951" lon="-0.46272348076728054"><ele>174.0</ele><time>2026-04-29T15:32:14Z</time></trkpt><trkpt lat="43.37044794738712" lon="-0.46270718666761573"><ele>174.0</ele><time>2026-04-29T15:32:15Z</time></trkpt><trkpt lat="43.3703784467295" lon="-0.46268682622637813"><ele>174.0</ele><time>2026-04-29T15:32:16Z</time></trkpt><trkpt lat="43.370310372987596" lon="-0.46266436055443777"><ele>174.0</ele><time>2026-04-29T15:32:17Z</time></trkpt><trkpt lat="43.37023883412685" lon="-0.46264326755201873"><ele>174.0</ele><time>2026-04-29T15:32:18Z</time></trkpt><trkpt lat="43.37016847268787" lon="-0.46262204358633285"><ele>174.0</ele><time>2026-04-29T15:32:19Z</time></trkpt><trkpt lat="43.37009621393972" lon="-0.4626020250261891"><ele>174.0</ele><time>2026-04-29T15:32:20Z</time></trkpt><trkpt lat="43.370024500614626" lon="-0.4625878511030418"><ele>174.0</ele><time>2026-04-29T15:32:21Z</time></trkpt><trkpt lat="43.36995209712101" lon="-0.46257774037450705"><ele>174.0</ele><time>2026-04-29T15:32:22Z</time></trkpt><trkpt lat="43.369878859753214" lon="-0.4625714047537895"><ele>174.0</ele><time>2026-04-29T15:32:23Z</time></trkpt><trkpt lat="43.36980605723973" lon="-0.4625808293928227"><ele>174.0</ele><time>2026-04-29T15:32:24Z</time></trkpt><trkpt lat="43.36973530099096" lon="-0.46261044714702737"><ele>174.0</ele><time>2026-04-29T15:32:25Z</time></trkpt><trkpt lat="43.36966771882808" lon="-0.4626409058399281"><ele>174.0</ele><time>2026-04-29T15:32:26Z</time></trkpt><trkpt lat="43.369601507118745" lon="-0.46266890762702256"><ele>174.0</ele><time>2026-04-29T15:32:27Z</time></trkpt><trkpt lat="43.369537991280275" lon="-0.46269252355225354"><ele>174.0</ele><time>2026-04-29T15:32:28Z</time></trkpt><trkpt lat="43.36947342154507" lon="-0.462708190883015"><ele>174.25</ele><time>2026-04-29T15:32:29Z</time></trkpt><trkpt lat="43.36934885794767" lon="-0.4627147429960268"><ele>174.5</ele><time>2026-04-29T15:32:31Z</time></trkpt><trkpt lat="43.36923080051693" lon="-0.4626755115859805"><ele>174.75</ele><time>2026-04-29T15:32:33Z</time></trkpt><trkpt lat="43.369118828094805" lon="-0.4626210976550264"><ele>175.0</ele><time>2026-04-29T15:32:35Z</time></trkpt><trkpt lat="43.36900291422336" lon="-0.462574812316936"><ele>175.0</ele><time>2026-04-29T15:32:37Z</time></trkpt><trkpt lat="43.36889738732552" lon="-0.46252436551477083"><ele>175.0</ele><time>2026-04-29T15:32:39Z</time></trkpt><trkpt lat="43.36878322458022" lon="-0.4624689659914596"><ele>175.0</ele><time>2026-04-29T15:32:41Z</time></trkpt><trkpt lat="43.368674785918316" lon="-0.462426027494911"><ele>175.0</ele><time>2026-04-29T15:32:43Z</time></trkpt><trkpt lat="43.36857091193022" lon="-0.46236368691060103"><ele>175.2</ele><time>2026-04-29T15:32:45Z</time></trkpt><trkpt lat="43.36846094953377" lon="-0.4623188262154628"><ele>175.4</ele><time>2026-04-29T15:32:47Z</time></trkpt><trkpt lat="43.368363520593554" lon="-0.46226152252120184"><ele>175.60000000000002</ele><time>2026-04-29T15:32:49Z</time></trkpt><trkpt lat="43.36826997894275" lon="-0.46218280332658745"><ele>175.8</ele><time>2026-04-29T15:32:51Z</time></trkpt><trkpt lat="43.368166192788706" lon="-0.4621188711534707"><ele>176.0</ele><time>2026-04-29T15:32:53Z</time></trkpt><trkpt lat="43.3680540251064" lon="-0.4620452960382279"><ele>176.4</ele><time>2026-04-29T15:32:55Z</time></trkpt><trkpt lat="43.367997473309224" lon="-0.4620072191363539"><ele>176.8</ele><time>2026-04-29T15:32:56Z</time></trkpt><trkpt lat="43.36788879291298" lon="-0.46192816339057313"><ele>177.20000000000002</ele><time>2026-04-29T15:32:58Z</time></trkpt><trkpt lat="43.36778703152115" lon="-0.46184449709803255"><ele>177.60000000000002</ele><time>2026-04-29T15:33:00Z</time></trkpt><trkpt lat="43.36768686728038" lon="-0.46174933259481354"><ele>178.0</ele><time>2026-04-29T15:33:02Z</time></trkpt><trkpt lat="43.36763996081143" lon="-0.4616848829663897"><ele>178.0</ele><time>2026-04-29T15:33:03Z</time></trkpt><trkpt lat="43.36756094912383" lon="-0.4615464520873829"><ele>178.0</ele><time>2026-04-29T15:33:05Z</time></trkpt><trkpt lat="43.367521087259654" lon="-0.4614742868462899"><ele>178.0</ele><time>2026-04-29T15:33:06Z</time></trkpt><trkpt lat="43.36748895005704" lon="-0.4613946260999219"><ele>178.0</ele><time>2026-04-29T15:33:07Z</time></trkpt><trkpt lat="43.367457832146606" lon="-0.4613120248116469"><ele>178.0</ele><time>2026-04-29T15:33:08Z</time></trkpt><trkpt lat="43.367421951437834" lon="-0.4612361457874684"><ele>178.0</ele><time>2026-04-29T15:33:09Z</time></trkpt><trkpt lat="43.36738129684429" lon="-0.4611652055446026"><ele>178.0</ele><time>2026-04-29T15:33:10Z</time></trkpt><trkpt lat="43.36729444051962" lon="-0.4610313580099517"><ele>178.0</ele><time>2026-04-29T15:33:12Z</time></trkpt><trkpt lat="43.36724499308665" lon="-0.46097323349704555"><ele>178.0</ele><time>2026-04-29T15:33:13Z</time></trkpt><trkpt lat="43.3672028992487" lon="-0.46090713485231727"><ele>178.0</ele><time>2026-04-29T15:33:14Z</time></trkpt><trkpt lat="43.367153283961194" lon="-0.46085016170146215"><ele>178.0</ele><time>2026-04-29T15:33:15Z</time></trkpt><trkpt lat="43.36710610192093" lon="-0.46078857351531466"><ele>178.0</ele><time>2026-04-29T15:33:16Z</time></trkpt><trkpt lat="43.36705717781223" lon="-0.4607229588151276"><ele>177.99999999999997</ele><time>2026-04-29T15:33:17Z</time></trkpt><trkpt lat="43.3670139356183" lon="-0.4606598145370506"><ele>178.0</ele><time>2026-04-29T15:33:18Z</time></trkpt><trkpt lat="43.366961829386305" lon="-0.4605947619717786"><ele>178.0</ele><time>2026-04-29T15:33:19Z</time></trkpt><trkpt lat="43.36692278194737" lon="-0.4605266358111195"><ele>178.0</ele><time>2026-04-29T15:33:20Z</time></trkpt><trkpt lat="43.36687319477637" lon="-0.4604655377314675"><ele>178.0</ele><time>2026-04-29T15:33:21Z</time></trkpt><trkpt lat="43.36682598655571" lon="-0.46039832963381544"><ele>177.99999999999997</ele><time>2026-04-29T15:33:22Z</time></trkpt><trkpt lat="43.366774138028696" lon="-0.46033286406662954"><ele>178.0</ele><time>2026-04-29T15:33:23Z</time></trkpt><trkpt lat="43.36672437530314" lon="-0.46026545342933883"><ele>177.57142857142856</ele><time>2026-04-29T15:33:24Z</time></trkpt><trkpt lat="43.366672925296676" lon="-0.4601991884501997"><ele>177.14285714285714</ele><time>2026-04-29T15:33:25Z</time></trkpt><trkpt lat="43.366622464864896" lon="-0.46013268425225207"><ele>176.71428571428572</ele><time>2026-04-29T15:33:26Z</time></trkpt><trkpt lat="43.366573349889016" lon="-0.4600656217751359"><ele>176.28571428571428</ele><time>2026-04-29T15:33:27Z</time></trkpt><trkpt lat="43.366522206678994" lon="-0.4599994414178119"><ele>175.85714285714286</ele><time>2026-04-29T15:33:28Z</time></trkpt><trkpt lat="43.36647044196453" lon="-0.45993447084641303"><ele>175.42857142857142</ele><time>2026-04-29T15:33:29Z</time></trkpt><trkpt lat="43.366417184937795" lon="-0.45986818508509086"><ele>175.0</ele><time>2026-04-29T15:33:30Z</time></trkpt><trkpt lat="43.36635861111728" lon="-0.45980285310269"><ele>175.0</ele><time>2026-04-29T15:33:31Z</time></trkpt><trkpt lat="43.36630749277859" lon="-0.4597300884882636"><ele>175.0</ele><time>2026-04-29T15:33:32Z</time></trkpt><trkpt lat="43.366257004043554" lon="-0.4596577951423542"><ele>175.0</ele><time>2026-04-29T15:33:33Z</time></trkpt><trkpt lat="43.36620754678658" lon="-0.4595792441978199"><ele>175.0</ele><time>2026-04-29T15:33:34Z</time></trkpt><trkpt lat="43.366163052645554" lon="-0.45950112571104024"><ele>175.0</ele><time>2026-04-29T15:33:35Z</time></trkpt><trkpt lat="43.36612165783011" lon="-0.4594155467942894"><ele>175.0</ele><time>2026-04-29T15:33:36Z</time></trkpt><trkpt lat="43.36609418448838" lon="-0.4593226172990913"><ele>175.0</ele><time>2026-04-29T15:33:37Z</time></trkpt><trkpt lat="43.36605491743031" lon="-0.4592325379390981"><ele>174.71428571428572</ele><time>2026-04-29T15:33:38Z</time></trkpt><trkpt lat="43.36602931728402" lon="-0.45913811720777203"><ele>174.42857142857144</ele><time>2026-04-29T15:33:39Z</time></trkpt><trkpt lat="43.36600581099074" lon="-0.45904252328597894"><ele>174.14285714285714</ele><time>2026-04-29T15:33:40Z</time></trkpt><trkpt lat="43.365983167179785" lon="-0.45894809180189233"><ele>173.85714285714286</ele><time>2026-04-29T15:33:41Z</time></trkpt><trkpt lat="43.3659606590215" lon="-0.45885141264708695"><ele>173.57142857142858</ele><time>2026-04-29T15:33:42Z</time></trkpt><trkpt lat="43.365938452244826" lon="-0.4587560286568135"><ele>173.28571428571428</ele><time>2026-04-29T15:33:43Z</time></trkpt><trkpt lat="43.36591628717273" lon="-0.4586608237958639"><ele>173.0</ele><time>2026-04-29T15:33:44Z</time></trkpt><trkpt lat="43.365894405203605" lon="-0.4585668345797546"><ele>173.0</ele><time>2026-04-29T15:33:45Z</time></trkpt><trkpt lat="43.365873306498145" lon="-0.45847505442631353"><ele>173.0</ele><time>2026-04-29T15:33:46Z</time></trkpt><trkpt lat="43.36585218091317" lon="-0.4583815427981922"><ele>173.0</ele><time>2026-04-29T15:33:47Z</time></trkpt><trkpt lat="43.365831358273816" lon="-0.4582893724856093"><ele>173.0</ele><time>2026-04-29T15:33:48Z</time></trkpt><trkpt lat="43.36582561984403" lon="-0.45819084570421975"><ele>173.0</ele><time>2026-04-29T15:33:49Z</time></trkpt><trkpt lat="43.36580247475708" lon="-0.4581000550540415"><ele>173.0</ele><time>2026-04-29T15:33:50Z</time></trkpt><trkpt lat="43.36577927794597" lon="-0.45800861922762587"><ele>173.0</ele><time>2026-04-29T15:33:51Z</time></trkpt><trkpt lat="43.3657631193984" lon="-0.45791059058281885"><ele>173.14285714285714</ele><time>2026-04-29T15:33:52Z</time></trkpt><trkpt lat="43.365744827595016" lon="-0.45781506885853523"><ele>173.2857142857143</ele><time>2026-04-29T15:33:53Z</time></trkpt><trkpt lat="43.3657321894002" lon="-0.45771744646506246"><ele>173.42857142857144</ele><time>2026-04-29T15:33:54Z</time></trkpt><trkpt lat="43.36571431856929" lon="-0.4576222938689977"><ele>173.57142857142856</ele><time>2026-04-29T15:33:55Z</time></trkpt><trkpt lat="43.36569564401938" lon="-0.4575214313145855"><ele>173.71428571428572</ele><time>2026-04-29T15:33:56Z</time></trkpt><trkpt lat="43.365678898908726" lon="-0.4574265692953367"><ele>173.85714285714286</ele><time>2026-04-29T15:33:57Z</time></trkpt><trkpt lat="43.36565998893518" lon="-0.4573313135839398"><ele>174.0</ele><time>2026-04-29T15:33:58Z</time></trkpt><trkpt lat="43.36564671215301" lon="-0.4572335062394228"><ele>174.0</ele><time>2026-04-29T15:33:59Z</time></trkpt><trkpt lat="43.36562906232211" lon="-0.4571394528624984"><ele>174.0</ele><time>2026-04-29T15:34:00Z</time></trkpt><trkpt lat="43.36560332672195" lon="-0.457046744438156"><ele>174.0</ele><time>2026-04-29T15:34:01Z</time></trkpt><trkpt lat="43.36557771873743" lon="-0.4569515195658791"><ele>174.0</ele><time>2026-04-29T15:34:02Z</time></trkpt><trkpt lat="43.36555105002974" lon="-0.4568550767139059"><ele>174.0</ele><time>2026-04-29T15:34:03Z</time></trkpt><trkpt lat="43.36552306821959" lon="-0.45675877102102996"><ele>174.0</ele><time>2026-04-29T15:34:04Z</time></trkpt><trkpt lat="43.36549091072487" lon="-0.45666713540202103"><ele>174.0</ele><time>2026-04-29T15:34:05Z</time></trkpt><trkpt lat="43.36546708252832" lon="-0.45657631566218426"><ele>174.33333333333334</ele><time>2026-04-29T15:34:06Z</time></trkpt><trkpt lat="43.365426121212366" lon="-0.456508260962497"><ele>174.66666666666666</ele><time>2026-04-29T15:34:07Z</time></trkpt><trkpt lat="43.36541243165511" lon="-0.45642095984334513"><ele>175.0</ele><time>2026-04-29T15:34:08Z</time></trkpt><trkpt lat="43.36535738078096" lon="-0.4563033221051237"><ele>175.33333333333331</ele><time>2026-04-29T15:34:10Z</time></trkpt><trkpt lat="43.36526674281285" lon="-0.4563779889231943"><ele>175.66666666666666</ele><time>2026-04-29T15:34:13Z</time></trkpt><trkpt lat="43.36525036471687" lon="-0.45650601818882613"><ele>176.0</ele><time>2026-04-29T15:34:15Z</time></trkpt><trkpt lat="43.36522367921126" lon="-0.4566378474535285"><ele>176.0</ele><time>2026-04-29T15:34:17Z</time></trkpt><trkpt lat="43.36519348370549" lon="-0.45678632242448175"><ele>176.0</ele><time>2026-04-29T15:34:19Z</time></trkpt><trkpt lat="43.365158005948224" lon="-0.45692990274125145"><ele>176.0</ele><time>2026-04-29T15:34:21Z</time></trkpt><trkpt lat="43.36510235050215" lon="-0.45707499695872195"><ele>176.0</ele><time>2026-04-29T15:34:23Z</time></trkpt><trkpt lat="43.36502524015291" lon="-0.45720283163006864"><ele>175.8</ele><time>2026-04-29T15:34:25Z</time></trkpt><trkpt lat="43.36497555537856" lon="-0.45726205655142144"><ele>175.60000000000002</ele><time>2026-04-29T15:34:26Z</time></trkpt><trkpt lat="43.36487772824695" lon="-0.45735710340913494"><ele>175.4</ele><time>2026-04-29T15:34:28Z</time></trkpt><trkpt lat="43.36477514323429" lon="-0.45744698719224186"><ele>175.2</ele><time>2026-04-29T15:34:30Z</time></trkpt><trkpt lat="43.36466894069902" lon="-0.4575157591443956"><ele>175.0</ele><time>2026-04-29T15:34:32Z</time></trkpt><trkpt lat="43.364569812021166" lon="-0.45758544721784616"><ele>175.0</ele><time>2026-04-29T15:34:34Z</time></trkpt><trkpt lat="43.36446957841353" lon="-0.45766074301956505"><ele>175.0</ele><time>2026-04-29T15:34:36Z</time></trkpt><trkpt lat="43.36436235516521" lon="-0.45773335594520503"><ele>175.0</ele><time>2026-04-29T15:34:38Z</time></trkpt><trkpt lat="43.364250011306716" lon="-0.45781501956939574"><ele>175.0</ele><time>2026-04-29T15:34:40Z</time></trkpt><trkpt lat="43.36414573506614" lon="-0.4578928575635999"><ele>175.0</ele><time>2026-04-29T15:34:42Z</time></trkpt><trkpt lat="43.36408948640697" lon="-0.45793182782939246"><ele>175.0</ele><time>2026-04-29T15:34:43Z</time></trkpt><trkpt lat="43.36403321698541" lon="-0.457971852853978"><ele>175.0</ele><time>2026-04-29T15:34:44Z</time></trkpt><trkpt lat="43.363922355874905" lon="-0.4580544378349801"><ele>175.0</ele><time>2026-04-29T15:34:46Z</time></trkpt><trkpt lat="43.36386518750009" lon="-0.4580962800782958"><ele>175.0</ele><time>2026-04-29T15:34:47Z</time></trkpt><trkpt lat="43.36380443770467" lon="-0.4581373417188875"><ele>175.0</ele><time>2026-04-29T15:34:48Z</time></trkpt><trkpt lat="43.36374634483099" lon="-0.45817689953271334"><ele>175.0</ele><time>2026-04-29T15:34:49Z</time></trkpt><trkpt lat="43.36368653857972" lon="-0.45821840277636855"><ele>175.0</ele><time>2026-04-29T15:34:50Z</time></trkpt><trkpt lat="43.3636252195517" lon="-0.45825917325131327"><ele>175.0</ele><time>2026-04-29T15:34:51Z</time></trkpt><trkpt lat="43.363567431994234" lon="-0.4583058222262907"><ele>175.0</ele><time>2026-04-29T15:34:52Z</time></trkpt><trkpt lat="43.36350606869387" lon="-0.4583488857542157"><ele>175.0</ele><time>2026-04-29T15:34:53Z</time></trkpt><trkpt lat="43.36344397568185" lon="-0.45839666976071036"><ele>175.0</ele><time>2026-04-29T15:34:54Z</time></trkpt><trkpt lat="43.36338083820297" lon="-0.4584407782456505"><ele>175.0</ele><time>2026-04-29T15:34:55Z</time></trkpt><trkpt lat="43.3633161912188" lon="-0.4584847493744314"><ele>175.0</ele><time>2026-04-29T15:34:56Z</time></trkpt><trkpt lat="43.36325286938058" lon="-0.4585332544960389"><ele>175.0</ele><time>2026-04-29T15:34:57Z</time></trkpt><trkpt lat="43.363191065385216" lon="-0.4585766423003963"><ele>175.0</ele><time>2026-04-29T15:34:58Z</time></trkpt><trkpt lat="43.36312552723735" lon="-0.4586250572228779"><ele>175.0</ele><time>2026-04-29T15:34:59Z</time></trkpt><trkpt lat="43.36306248150343" lon="-0.45867318041379634"><ele>175.0</ele><time>2026-04-29T15:35:00Z</time></trkpt><trkpt lat="43.36299798477793" lon="-0.4587188484642267"><ele>175.0</ele><time>2026-04-29T15:35:01Z</time></trkpt><trkpt lat="43.36293425604456" lon="-0.45876425213613764"><ele>175.0</ele><time>2026-04-29T15:35:02Z</time></trkpt><trkpt lat="43.362870776629585" lon="-0.4588070417551701"><ele>175.28571428571428</ele><time>2026-04-29T15:35:03Z</time></trkpt><trkpt lat="43.36281017957484" lon="-0.45885360313899437"><ele>175.57142857142856</ele><time>2026-04-29T15:35:04Z</time></trkpt><trkpt lat="43.36274867399795" lon="-0.45889967025086853"><ele>175.85714285714286</ele><time>2026-04-29T15:35:05Z</time></trkpt><trkpt lat="43.362685480452974" lon="-0.4589428660533619"><ele>176.14285714285714</ele><time>2026-04-29T15:35:06Z</time></trkpt><trkpt lat="43.362624552360494" lon="-0.4589878945991083"><ele>176.42857142857142</ele><time>2026-04-29T15:35:07Z</time></trkpt><trkpt lat="43.362564145350305" lon="-0.45903243302294217"><ele>176.71428571428572</ele><time>2026-04-29T15:35:08Z</time></trkpt><trkpt lat="43.36250377471011" lon="-0.45908056953847004"><ele>177.0</ele><time>2026-04-29T15:35:09Z</time></trkpt><trkpt lat="43.362440820406405" lon="-0.4591218135541746"><ele>177.0</ele><time>2026-04-29T15:35:10Z</time></trkpt><trkpt lat="43.362376967941785" lon="-0.4591667703021265"><ele>177.0</ele><time>2026-04-29T15:35:11Z</time></trkpt><trkpt lat="43.362315904483474" lon="-0.4592143535138433"><ele>177.0</ele><time>2026-04-29T15:35:12Z</time></trkpt><trkpt lat="43.36225400383999" lon="-0.45926111215989546"><ele>177.0</ele><time>2026-04-29T15:35:13Z</time></trkpt><trkpt lat="43.36219350810513" lon="-0.459302724379633"><ele>177.0</ele><time>2026-04-29T15:35:14Z</time></trkpt><trkpt lat="43.36213370236045" lon="-0.4593480039847827"><ele>177.0</ele><time>2026-04-29T15:35:15Z</time></trkpt><trkpt lat="43.36207253781863" lon="-0.4593936066662314"><ele>177.0</ele><time>2026-04-29T15:35:16Z</time></trkpt><trkpt lat="43.362014082697634" lon="-0.4594325414205927"><ele>177.0</ele><time>2026-04-29T15:35:17Z</time></trkpt><trkpt lat="43.36195432237449" lon="-0.4594723504215754"><ele>177.0</ele><time>2026-04-29T15:35:18Z</time></trkpt><trkpt lat="43.36189607109747" lon="-0.45951424051356493"><ele>177.0</ele><time>2026-04-29T15:35:19Z</time></trkpt><trkpt lat="43.361839241357465" lon="-0.45955500207207534"><ele>177.0</ele><time>2026-04-29T15:35:20Z</time></trkpt><trkpt lat="43.36172690667782" lon="-0.4596332501647275"><ele>177.0</ele><time>2026-04-29T15:35:22Z</time></trkpt><trkpt lat="43.36161695088373" lon="-0.45971548168628096"><ele>177.0</ele><time>2026-04-29T15:35:24Z</time></trkpt><trkpt lat="43.36150922371781" lon="-0.45979574204905405"><ele>177.0</ele><time>2026-04-29T15:35:26Z</time></trkpt><trkpt lat="43.3614008918902" lon="-0.45987588400975715"><ele>177.0</ele><time>2026-04-29T15:35:28Z</time></trkpt><trkpt lat="43.361292548365604" lon="-0.4599589775399326"><ele>177.0</ele><time>2026-04-29T15:35:30Z</time></trkpt><trkpt lat="43.361235889093535" lon="-0.46000340011548324"><ele>177.0</ele><time>2026-04-29T15:35:31Z</time></trkpt><trkpt lat="43.36112422265007" lon="-0.46008020513009074"><ele>177.0</ele><time>2026-04-29T15:35:33Z</time></trkpt><trkpt lat="43.36106593666516" lon="-0.4601169824811892"><ele>177.0</ele><time>2026-04-29T15:35:34Z</time></trkpt><trkpt lat="43.36100779527651" lon="-0.46015484439469767"><ele>177.0</ele><time>2026-04-29T15:35:35Z</time></trkpt><trkpt lat="43.36089145072148" lon="-0.46021921083975587"><ele>177.0</ele><time>2026-04-29T15:35:37Z</time></trkpt><trkpt lat="43.36077516612399" lon="-0.4602747555924887"><ele>177.0</ele><time>2026-04-29T15:35:39Z</time></trkpt><trkpt lat="43.36066008244061" lon="-0.4603382189942867"><ele>177.0</ele><time>2026-04-29T15:35:41Z</time></trkpt><trkpt lat="43.3605443104039" lon="-0.4603947634404441"><ele>177.0</ele><time>2026-04-29T15:35:43Z</time></trkpt><trkpt lat="43.36043038874838" lon="-0.4604401226682107"><ele>177.0</ele><time>2026-04-29T15:35:45Z</time></trkpt><trkpt lat="43.36032568030469" lon="-0.46048646637381424"><ele>177.0</ele><time>2026-04-29T15:35:47Z</time></trkpt><trkpt lat="43.36022583772905" lon="-0.4605308922909998"><ele>177.0</ele><time>2026-04-29T15:35:49Z</time></trkpt><trkpt lat="43.36013182505501" lon="-0.46057813155757965"><ele>177.0</ele><time>2026-04-29T15:35:51Z</time></trkpt><trkpt lat="43.36004764784262" lon="-0.4606235882266343"><ele>177.66666666666666</ele><time>2026-04-29T15:35:53Z</time></trkpt><trkpt lat="43.35996338247613" lon="-0.4606615399952484"><ele>178.33333333333334</ele><time>2026-04-29T15:35:55Z</time></trkpt><trkpt lat="43.35988446955569" lon="-0.460706235214331"><ele>179.0</ele><time>2026-04-29T15:35:57Z</time></trkpt><trkpt lat="43.35980752462828" lon="-0.4607544882648255"><ele>179.66666666666669</ele><time>2026-04-29T15:35:59Z</time></trkpt><trkpt lat="43.359733312068734" lon="-0.4607911692282136"><ele>180.33333333333334</ele><time>2026-04-29T15:36:01Z</time></trkpt><trkpt lat="43.359667327635506" lon="-0.46083281495715045"><ele>181.0</ele><time>2026-04-29T15:36:03Z</time></trkpt><trkpt lat="43.35960268269418" lon="-0.4608692772458318"><ele>181.0</ele><time>2026-04-29T15:36:05Z</time></trkpt><trkpt lat="43.359536370703566" lon="-0.4609126950017441"><ele>181.0</ele><time>2026-04-29T15:36:07Z</time></trkpt><trkpt lat="43.35947724412137" lon="-0.46095710288262004"><ele>181.0</ele><time>2026-04-29T15:36:09Z</time></trkpt><trkpt lat="43.35940785463167" lon="-0.4609804446857497"><ele>181.0</ele><time>2026-04-29T15:36:11Z</time></trkpt><trkpt lat="43.35935140875852" lon="-0.4610397064313505"><ele>181.0</ele><time>2026-04-29T15:36:13Z</time></trkpt><trkpt lat="43.359283028538904" lon="-0.4610820737030956"><ele>181.0</ele><time>2026-04-29T15:36:15Z</time></trkpt><trkpt lat="43.35921378080495" lon="-0.46113676103905954"><ele>181.0</ele><time>2026-04-29T15:36:17Z</time></trkpt><trkpt lat="43.35914292797723" lon="-0.46119618897971704"><ele>181.0</ele><time>2026-04-29T15:36:19Z</time></trkpt><trkpt lat="43.35907448562479" lon="-0.4612582790598427"><ele>181.0</ele><time>2026-04-29T15:36:21Z</time></trkpt><trkpt lat="43.35900081927888" lon="-0.46130582311324747"><ele>181.0</ele><time>2026-04-29T15:36:23Z</time></trkpt><trkpt lat="43.3589303789096" lon="-0.46137053232435743"><ele>181.0</ele><time>2026-04-29T15:36:25Z</time></trkpt><trkpt lat="43.3588570233568" lon="-0.4614235793464422"><ele>181.0</ele><time>2026-04-29T15:36:27Z</time></trkpt><trkpt lat="43.358773474066446" lon="-0.4614820675620524"><ele>181.0</ele><time>2026-04-29T15:36:29Z</time></trkpt><trkpt lat="43.35869798904194" lon="-0.4615426663135383"><ele>181.20000000000002</ele><time>2026-04-29T15:36:31Z</time></trkpt><trkpt lat="43.35861234213806" lon="-0.4616119003188367"><ele>181.4</ele><time>2026-04-29T15:36:33Z</time></trkpt><trkpt lat="43.35851818663526" lon="-0.46168269124860983"><ele>181.6</ele><time>2026-04-29T15:36:35Z</time></trkpt><trkpt lat="43.35842280669524" lon="-0.46175932482843624"><ele>181.8</ele><time>2026-04-29T15:36:37Z</time></trkpt><trkpt lat="43.35833062231544" lon="-0.4618519590049158"><ele>182.0</ele><time>2026-04-29T15:36:39Z</time></trkpt><trkpt lat="43.3582284842526" lon="-0.4619590117423458"><ele>182.0</ele><time>2026-04-29T15:36:41Z</time></trkpt><trkpt lat="43.3581389526907" lon="-0.4620846547387533"><ele>182.0</ele><time>2026-04-29T15:36:43Z</time></trkpt><trkpt lat="43.358087141847726" lon="-0.46215964281386773"><ele>182.0</ele><time>2026-04-29T15:36:44Z</time></trkpt><trkpt lat="43.35804713043803" lon="-0.4622408544109683"><ele>182.0</ele><time>2026-04-29T15:36:45Z</time></trkpt><trkpt lat="43.358004863038495" lon="-0.4623133733714376"><ele>182.0</ele><time>2026-04-29T15:36:46Z</time></trkpt><trkpt lat="43.35797067497159" lon="-0.4623995750286822"><ele>182.0</ele><time>2026-04-29T15:36:47Z</time></trkpt><trkpt lat="43.35793463788527" lon="-0.46248476983487663"><ele>181.5</ele><time>2026-04-29T15:36:48Z</time></trkpt><trkpt lat="43.35790462793861" lon="-0.4625790746512994"><ele>181.0</ele><time>2026-04-29T15:36:49Z</time></trkpt><trkpt lat="43.35787594282677" lon="-0.4626826605074714"><ele>180.5</ele><time>2026-04-29T15:36:50Z</time></trkpt><trkpt lat="43.35784479408225" lon="-0.46278124171333734"><ele>180.0</ele><time>2026-04-29T15:36:51Z</time></trkpt><trkpt lat="43.357821273966934" lon="-0.4628826805769796"><ele>179.5</ele><time>2026-04-29T15:36:52Z</time></trkpt><trkpt lat="43.357803888391665" lon="-0.46299020018006865"><ele>179.0</ele><time>2026-04-29T15:36:53Z</time></trkpt><trkpt lat="43.35779039373286" lon="-0.4631012619858807"><ele>178.83333333333331</ele><time>2026-04-29T15:36:54Z</time></trkpt><trkpt lat="43.357770596988715" lon="-0.4632130331809428"><ele>178.66666666666666</ele><time>2026-04-29T15:36:55Z</time></trkpt><trkpt lat="43.35775448453683" lon="-0.4633217579598116"><ele>178.5</ele><time>2026-04-29T15:36:56Z</time></trkpt><trkpt lat="43.35773776553954" lon="-0.4634295337614369"><ele>178.33333333333334</ele><time>2026-04-29T15:36:57Z</time></trkpt><trkpt lat="43.35771965034829" lon="-0.46353913916971967"><ele>178.16666666666669</ele><time>2026-04-29T15:36:58Z</time></trkpt><trkpt lat="43.35769434520936" lon="-0.46365229271514347"><ele>178.0</ele><time>2026-04-29T15:36:59Z</time></trkpt><trkpt lat="43.35767042922264" lon="-0.46376909132985744"><ele>176.8</ele><time>2026-04-29T15:37:00Z</time></trkpt><trkpt lat="43.35763261349723" lon="-0.46389500877216033"><ele>175.60000000000002</ele><time>2026-04-29T15:37:01Z</time></trkpt><trkpt lat="43.35759394483013" lon="-0.46402687246331653"><ele>174.39999999999998</ele><time>2026-04-29T15:37:02Z</time></trkpt><trkpt lat="43.35754565344263" lon="-0.4641543656776972"><ele>173.2</ele><time>2026-04-29T15:37:03Z</time></trkpt><trkpt lat="43.3574964229794" lon="-0.4642979158737684"><ele>172.0</ele><time>2026-04-29T15:37:04Z</time></trkpt><trkpt lat="43.35744646096685" lon="-0.4644373858522778"><ele>172.0</ele><time>2026-04-29T15:37:05Z</time></trkpt><trkpt lat="43.357374271723785" lon="-0.46456999161687107"><ele>172.0</ele><time>2026-04-29T15:37:06Z</time></trkpt><trkpt lat="43.35730279145831" lon="-0.46470306608618916"><ele>172.0</ele><time>2026-04-29T15:37:07Z</time></trkpt><trkpt lat="43.35722972823342" lon="-0.4648234475274088"><ele>172.0</ele><time>2026-04-29T15:37:08Z</time></trkpt><trkpt lat="43.35716200899183" lon="-0.46493851808142406"><ele>171.0</ele><time>2026-04-29T15:37:09Z</time></trkpt><trkpt lat="43.35709377803542" lon="-0.46505256879328316"><ele>170.0</ele><time>2026-04-29T15:37:10Z</time></trkpt><trkpt lat="43.357023262706214" lon="-0.4651640217990072"><ele>169.0</ele><time>2026-04-29T15:37:11Z</time></trkpt><trkpt lat="43.356955166385625" lon="-0.4652696358393732"><ele>168.0</ele><time>2026-04-29T15:37:12Z</time></trkpt><trkpt lat="43.356892550131455" lon="-0.4653697100355901"><ele>167.0</ele><time>2026-04-29T15:37:13Z</time></trkpt><trkpt lat="43.35682349844226" lon="-0.4654687517053643"><ele>167.0</ele><time>2026-04-29T15:37:14Z</time></trkpt><trkpt lat="43.35675834306797" lon="-0.46556969419604843"><ele>167.0</ele><time>2026-04-29T15:37:15Z</time></trkpt><trkpt lat="43.35669917116508" lon="-0.46566867684484997"><ele>167.0</ele><time>2026-04-29T15:37:16Z</time></trkpt><trkpt lat="43.35663878417878" lon="-0.4657621650635029"><ele>167.0</ele><time>2026-04-29T15:37:17Z</time></trkpt><trkpt lat="43.35657709871204" lon="-0.4658549531096717"><ele>167.0</ele><time>2026-04-29T15:37:18Z</time></trkpt><trkpt lat="43.35652078345131" lon="-0.46594315311327805"><ele>167.0</ele><time>2026-04-29T15:37:19Z</time></trkpt><trkpt lat="43.35646297223009" lon="-0.4660298182979985"><ele>167.0</ele><time>2026-04-29T15:37:20Z</time></trkpt><trkpt lat="43.356408308960425" lon="-0.46610987608828114"><ele>167.0</ele><time>2026-04-29T15:37:21Z</time></trkpt><trkpt lat="43.356352043863055" lon="-0.4661883928604358"><ele>167.0</ele><time>2026-04-29T15:37:22Z</time></trkpt><trkpt lat="43.35629566026754" lon="-0.4662595685710653"><ele>167.0</ele><time>2026-04-29T15:37:23Z</time></trkpt><trkpt lat="43.356243234814876" lon="-0.4663376825773231"><ele>167.0</ele><time>2026-04-29T15:37:24Z</time></trkpt><trkpt lat="43.35619659503676" lon="-0.4664184874368916"><ele>166.85714285714286</ele><time>2026-04-29T15:37:25Z</time></trkpt><trkpt lat="43.35614938583285" lon="-0.466498485011104"><ele>166.71428571428572</ele><time>2026-04-29T15:37:26Z</time></trkpt><trkpt lat="43.35609922063442" lon="-0.46657292581333354"><ele>166.57142857142856</ele><time>2026-04-29T15:37:27Z</time></trkpt><trkpt lat="43.35604655886224" lon="-0.46664575717792667"><ele>166.42857142857144</ele><time>2026-04-29T15:37:28Z</time></trkpt><trkpt lat="43.3559941059796" lon="-0.46671611834528376"><ele>166.2857142857143</ele><time>2026-04-29T15:37:29Z</time></trkpt><trkpt lat="43.35594314301925" lon="-0.46678650450405207"><ele>166.14285714285714</ele><time>2026-04-29T15:37:30Z</time></trkpt><trkpt lat="43.355894932919014" lon="-0.46686227200345604"><ele>166.0</ele><time>2026-04-29T15:37:31Z</time></trkpt><trkpt lat="43.355848571076756" lon="-0.46693735965935623"><ele>166.0</ele><time>2026-04-29T15:37:32Z</time></trkpt><trkpt lat="43.3558038991837" lon="-0.46701254186886126"><ele>166.0</ele><time>2026-04-29T15:37:33Z</time></trkpt><trkpt lat="43.355757745324624" lon="-0.46709203682997585"><ele>166.0</ele><time>2026-04-29T15:37:34Z</time></trkpt><trkpt lat="43.35571088867757" lon="-0.467165183039943"><ele>166.0</ele><time>2026-04-29T15:37:35Z</time></trkpt><trkpt lat="43.35566280494945" lon="-0.46724019355880425"><ele>166.0</ele><time>2026-04-29T15:37:36Z</time></trkpt><trkpt lat="43.35561655809093" lon="-0.46731978480285163"><ele>166.0</ele><time>2026-04-29T15:37:37Z</time></trkpt><trkpt lat="43.35557220468783" lon="-0.4673988063638361"><ele>166.0</ele><time>2026-04-29T15:37:38Z</time></trkpt><trkpt lat="43.355525972229366" lon="-0.4674758237050701"><ele>165.85714285714286</ele><time>2026-04-29T15:37:39Z</time></trkpt><trkpt lat="43.35548205700343" lon="-0.46755774137580175"><ele>165.71428571428572</ele><time>2026-04-29T15:37:40Z</time></trkpt><trkpt lat="43.35544558493217" lon="-0.4676463940409677"><ele>165.57142857142858</ele><time>2026-04-29T15:37:41Z</time></trkpt><trkpt lat="43.35542024320982" lon="-0.46774427647578787"><ele>165.42857142857144</ele><time>2026-04-29T15:37:42Z</time></trkpt><trkpt lat="43.355408809020616" lon="-0.4678397462314286"><ele>165.28571428571428</ele><time>2026-04-29T15:37:43Z</time></trkpt><trkpt lat="43.35541008748312" lon="-0.46794182454011535"><ele>165.14285714285717</ele><time>2026-04-29T15:37:44Z</time></trkpt><trkpt lat="43.35542591645288" lon="-0.4680405530791828"><ele>165.0</ele><time>2026-04-29T15:37:45Z</time></trkpt><trkpt lat="43.355458416774646" lon="-0.4681304782382778"><ele>165.14285714285717</ele><time>2026-04-29T15:37:46Z</time></trkpt><trkpt lat="43.35549088936715" lon="-0.4682228858391667"><ele>165.28571428571428</ele><time>2026-04-29T15:37:47Z</time></trkpt><trkpt lat="43.35551449522997" lon="-0.46831539122574867"><ele>165.42857142857144</ele><time>2026-04-29T15:37:48Z</time></trkpt><trkpt lat="43.35553005838781" lon="-0.4684112997436334"><ele>165.57142857142858</ele><time>2026-04-29T15:37:49Z</time></trkpt><trkpt lat="43.35554095554175" lon="-0.468505817736608"><ele>165.71428571428572</ele><time>2026-04-29T15:37:50Z</time></trkpt><trkpt lat="43.35553412120646" lon="-0.46859433294393155"><ele>165.85714285714286</ele><time>2026-04-29T15:37:51Z</time></trkpt><trkpt lat="43.35550100724134" lon="-0.46868342346530606"><ele>166.0</ele><time>2026-04-29T15:37:52Z</time></trkpt><trkpt lat="43.35544754564989" lon="-0.46874790964007423"><ele>166.33333333333334</ele><time>2026-04-29T15:37:53Z</time></trkpt><trkpt lat="43.35538080505041" lon="-0.46879695700554236"><ele>166.66666666666669</ele><time>2026-04-29T15:37:54Z</time></trkpt><trkpt lat="43.355310101641095" lon="-0.468830778032111"><ele>167.0</ele><time>2026-04-29T15:37:55Z</time></trkpt><trkpt lat="43.35524438367038" lon="-0.4688727387784572"><ele>167.33333333333334</ele><time>2026-04-29T15:37:56Z</time></trkpt><trkpt lat="43.355175953122014" lon="-0.46891528514464387"><ele>167.66666666666666</ele><time>2026-04-29T15:37:57Z</time></trkpt><trkpt lat="43.35510581487992" lon="-0.4689541858071384"><ele>168.0</ele><time>2026-04-29T15:37:58Z</time></trkpt><trkpt lat="43.35503030755516" lon="-0.46898701982180685"><ele>168.0</ele><time>2026-04-29T15:37:59Z</time></trkpt><trkpt lat="43.35495538606016" lon="-0.4690300066219998"><ele>168.0</ele><time>2026-04-29T15:38:00Z</time></trkpt><trkpt lat="43.35488044900687" lon="-0.46906113396516114"><ele>168.0</ele><time>2026-04-29T15:38:01Z</time></trkpt><trkpt lat="43.35480495375122" lon="-0.4690850939408691"><ele>168.0</ele><time>2026-04-29T15:38:02Z</time></trkpt><trkpt lat="43.35472695937277" lon="-0.46910552244758885"><ele>168.0</ele><time>2026-04-29T15:38:03Z</time></trkpt><trkpt lat="43.35465323903468" lon="-0.46912804834800753"><ele>168.0</ele><time>2026-04-29T15:38:04Z</time></trkpt><trkpt lat="43.35457810400742" lon="-0.4691569107293161"><ele>167.83333333333334</ele><time>2026-04-29T15:38:05Z</time></trkpt><trkpt lat="43.354503057286685" lon="-0.4691797960105271"><ele>167.66666666666666</ele><time>2026-04-29T15:38:06Z</time></trkpt><trkpt lat="43.35442973272266" lon="-0.46920804176227343"><ele>167.5</ele><time>2026-04-29T15:38:07Z</time></trkpt><trkpt lat="43.35435340336855" lon="-0.4692258950245187"><ele>167.33333333333331</ele><time>2026-04-29T15:38:08Z</time></trkpt><trkpt lat="43.35427812790777" lon="-0.46924317547828837"><ele>167.16666666666666</ele><time>2026-04-29T15:38:09Z</time></trkpt><trkpt lat="43.35420691375309" lon="-0.46926978808941944"><ele>167.0</ele><time>2026-04-29T15:38:10Z</time></trkpt><trkpt lat="43.354130638920736" lon="-0.4692949716204129"><ele>167.0</ele><time>2026-04-29T15:38:11Z</time></trkpt><trkpt lat="43.354054120043266" lon="-0.4693156931577281"><ele>167.0</ele><time>2026-04-29T15:38:12Z</time></trkpt><trkpt lat="43.35398301135401" lon="-0.46933769923000573"><ele>167.0</ele><time>2026-04-29T15:38:13Z</time></trkpt><trkpt lat="43.35390421074088" lon="-0.4693647153050977"><ele>167.0</ele><time>2026-04-29T15:38:14Z</time></trkpt><trkpt lat="43.35383410173322" lon="-0.46937819250605184"><ele>167.0</ele><time>2026-04-29T15:38:15Z</time></trkpt><trkpt lat="43.353757995229294" lon="-0.4693957423796574"><ele>167.0</ele><time>2026-04-29T15:38:16Z</time></trkpt><trkpt lat="43.35368311765085" lon="-0.4694184306760179"><ele>166.83333333333331</ele><time>2026-04-29T15:38:17Z</time></trkpt><trkpt lat="43.35360861853631" lon="-0.4694453641236926"><ele>166.66666666666666</ele><time>2026-04-29T15:38:18Z</time></trkpt><trkpt lat="43.353532064306165" lon="-0.4694700328841807"><ele>166.5</ele><time>2026-04-29T15:38:19Z</time></trkpt><trkpt lat="43.35346137989811" lon="-0.46950524902918633"><ele>166.33333333333334</ele><time>2026-04-29T15:38:20Z</time></trkpt><trkpt lat="43.353393294531855" lon="-0.4695521310940516"><ele>166.16666666666669</ele><time>2026-04-29T15:38:21Z</time></trkpt><trkpt lat="43.353325324789864" lon="-0.469602431117555"><ele>166.0</ele><time>2026-04-29T15:38:22Z</time></trkpt><trkpt lat="43.353258885662676" lon="-0.46965152690859635"><ele>166.0</ele><time>2026-04-29T15:38:23Z</time></trkpt><trkpt lat="43.35319739818567" lon="-0.4697036572498672"><ele>166.0</ele><time>2026-04-29T15:38:24Z</time></trkpt><trkpt lat="43.353135478045004" lon="-0.4697528248271541"><ele>166.0</ele><time>2026-04-29T15:38:25Z</time></trkpt><trkpt lat="43.3530693060455" lon="-0.4697864769618271"><ele>166.0</ele><time>2026-04-29T15:38:26Z</time></trkpt><trkpt lat="43.352996343705165" lon="-0.46981077659482917"><ele>166.0</ele><time>2026-04-29T15:38:27Z</time></trkpt><trkpt lat="43.35292878250554" lon="-0.4698254864851967"><ele>166.0</ele><time>2026-04-29T15:38:28Z</time></trkpt><trkpt lat="43.352852448624404" lon="-0.4698353946056476"><ele>166.0</ele><time>2026-04-29T15:38:29Z</time></trkpt><trkpt lat="43.35277540148707" lon="-0.4698360203011426"><ele>165.42857142857142</ele><time>2026-04-29T15:38:30Z</time></trkpt><trkpt lat="43.352701635432126" lon="-0.4698250543870977"><ele>164.85714285714286</ele><time>2026-04-29T15:38:31Z</time></trkpt><trkpt lat="43.3526290988268" lon="-0.4697984394620076"><ele>164.28571428571428</ele><time>2026-04-29T15:38:32Z</time></trkpt><trkpt lat="43.35256304284907" lon="-0.46975632845249565"><ele>163.71428571428572</ele><time>2026-04-29T15:38:33Z</time></trkpt><trkpt lat="43.352502596119564" lon="-0.4697034646077963"><ele>163.14285714285714</ele><time>2026-04-29T15:38:34Z</time></trkpt><trkpt lat="43.35245071521804" lon="-0.46964317965139163"><ele>162.57142857142858</ele><time>2026-04-29T15:38:35Z</time></trkpt><trkpt lat="43.3524011949231" lon="-0.46957982590869773"><ele>162.0</ele><time>2026-04-29T15:38:36Z</time></trkpt><trkpt lat="43.352359767535155" lon="-0.4695119354477879"><ele>162.0</ele><time>2026-04-29T15:38:37Z</time></trkpt><trkpt lat="43.35229095548624" lon="-0.4693673665383068"><ele>162.0</ele><time>2026-04-29T15:38:39Z</time></trkpt><trkpt lat="43.352229265847235" lon="-0.46924158918243575"><ele>162.0</ele><time>2026-04-29T15:38:41Z</time></trkpt><trkpt lat="43.35215794290124" lon="-0.4691156528659944"><ele>162.0</ele><time>2026-04-29T15:38:43Z</time></trkpt><trkpt lat="43.35207510089777" lon="-0.4689985186354947"><ele>160.5</ele><time>2026-04-29T15:38:45Z</time></trkpt><trkpt lat="43.35196352238595" lon="-0.4689405278024368"><ele>159.0</ele><time>2026-04-29T15:38:47Z</time></trkpt><trkpt lat="43.35189527178754" lon="-0.4689512201134155"><ele>157.5</ele><time>2026-04-29T15:38:48Z</time></trkpt><trkpt lat="43.35182277810777" lon="-0.46897074672651473"><ele>156.0</ele><time>2026-04-29T15:38:49Z</time></trkpt><trkpt lat="43.35175139136264" lon="-0.4689977766477279"><ele>154.5</ele><time>2026-04-29T15:38:50Z</time></trkpt><trkpt lat="43.35167675719759" lon="-0.4690219066990767"><ele>153.0</ele><time>2026-04-29T15:38:51Z</time></trkpt><trkpt lat="43.351597714381235" lon="-0.46904259599785153"><ele>153.0</ele><time>2026-04-29T15:38:52Z</time></trkpt><trkpt lat="43.35152088011556" lon="-0.4690711847884891"><ele>153.0</ele><time>2026-04-29T15:38:53Z</time></trkpt><trkpt lat="43.3514404411377" lon="-0.46909069411173804"><ele>153.0</ele><time>2026-04-29T15:38:54Z</time></trkpt><trkpt lat="43.35135878173063" lon="-0.46911565217244533"><ele>153.0</ele><time>2026-04-29T15:38:55Z</time></trkpt><trkpt lat="43.35128217880591" lon="-0.46915168318195705"><ele>153.0</ele><time>2026-04-29T15:38:56Z</time></trkpt><trkpt lat="43.351211226391364" lon="-0.46920499269558946"><ele>153.0</ele><time>2026-04-29T15:38:57Z</time></trkpt><trkpt lat="43.351139329951536" lon="-0.4692592508602682"><ele>151.83333333333334</ele><time>2026-04-29T15:38:58Z</time></trkpt><trkpt lat="43.3510605906243" lon="-0.4693077607257471"><ele>150.66666666666666</ele><time>2026-04-29T15:38:59Z</time></trkpt><trkpt lat="43.350986642836574" lon="-0.4693601458268256"><ele>149.5</ele><time>2026-04-29T15:39:00Z</time></trkpt><trkpt lat="43.3509212572052" lon="-0.4694281721430879"><ele>148.33333333333331</ele><time>2026-04-29T15:39:01Z</time></trkpt><trkpt lat="43.350856007040996" lon="-0.46948573070365196"><ele>147.16666666666666</ele><time>2026-04-29T15:39:02Z</time></trkpt><trkpt lat="43.35078476027242" lon="-0.46954937178123973"><ele>146.0</ele><time>2026-04-29T15:39:03Z</time></trkpt><trkpt lat="43.35072123898135" lon="-0.46960924689705374"><ele>145.8</ele><time>2026-04-29T15:39:04Z</time></trkpt><trkpt lat="43.35066894973541" lon="-0.469663024328291"><ele>145.6</ele><time>2026-04-29T15:39:05Z</time></trkpt><trkpt lat="43.35057402122653" lon="-0.46977172478809875"><ele>145.4</ele><time>2026-04-29T15:39:07Z</time></trkpt><trkpt lat="43.35046929153434" lon="-0.4698731653696411"><ele>145.2</ele><time>2026-04-29T15:39:09Z</time></trkpt><trkpt lat="43.35042081431905" lon="-0.4699405021647326"><ele>145.0</ele><time>2026-04-29T15:39:10Z</time></trkpt><trkpt lat="43.350373145319196" lon="-0.47000825292636855"><ele>144.8</ele><time>2026-04-29T15:39:11Z</time></trkpt><trkpt lat="43.35032228883714" lon="-0.47007825692412836"><ele>144.6</ele><time>2026-04-29T15:39:12Z</time></trkpt><trkpt lat="43.350272653830956" lon="-0.47013574584435924"><ele>144.4</ele><time>2026-04-29T15:39:13Z</time></trkpt><trkpt lat="43.35022559333203" lon="-0.4702074802325436"><ele>144.2</ele><time>2026-04-29T15:39:14Z</time></trkpt><trkpt lat="43.350138854057946" lon="-0.4703329699810523"><ele>144.0</ele><time>2026-04-29T15:39:16Z</time></trkpt><trkpt lat="43.35007144507539" lon="-0.4704731675215369"><ele>144.0</ele><time>2026-04-29T15:39:18Z</time></trkpt><trkpt lat="43.35001228321344" lon="-0.4705774374752155"><ele>144.0</ele><time>2026-04-29T15:39:20Z</time></trkpt><trkpt lat="43.34988530813112" lon="-0.47046806719212536"><ele>144.0</ele><time>2026-04-29T15:39:21Z</time></trkpt><trkpt lat="43.34979414337404" lon="-0.47034949581116164"><ele>144.0</ele><time>2026-04-29T15:39:23Z</time></trkpt><trkpt lat="43.34972272499231" lon="-0.47022544355989343"><ele>144.2</ele><time>2026-04-29T15:39:25Z</time></trkpt><trkpt lat="43.349621880146806" lon="-0.47016024916053445"><ele>144.4</ele><time>2026-04-29T15:39:27Z</time></trkpt><trkpt lat="43.349496502171775" lon="-0.47008622029206915"><ele>144.6</ele><time>2026-04-29T15:39:29Z</time></trkpt><trkpt lat="43.34938446232771" lon="-0.47002711227086835"><ele>144.8</ele><time>2026-04-29T15:39:31Z</time></trkpt><trkpt lat="43.34932415964461" lon="-0.4699880129068386"><ele>145.0</ele><time>2026-04-29T15:39:32Z</time></trkpt><trkpt lat="43.34926520510648" lon="-0.4699542506322719"><ele>145.0</ele><time>2026-04-29T15:39:33Z</time></trkpt><trkpt lat="43.349151770571424" lon="-0.469878358660378"><ele>145.0</ele><time>2026-04-29T15:39:35Z</time></trkpt><trkpt lat="43.34910212021398" lon="-0.4698205726623501"><ele>145.0</ele><time>2026-04-29T15:39:36Z</time></trkpt><trkpt lat="43.34905011053972" lon="-0.4697595625781291"><ele>145.0</ele><time>2026-04-29T15:39:37Z</time></trkpt><trkpt lat="43.348992186005695" lon="-0.46969967852651373"><ele>145.0</ele><time>2026-04-29T15:39:38Z</time></trkpt><trkpt lat="43.348942146558755" lon="-0.4696387003129728"><ele>145.0</ele><time>2026-04-29T15:39:39Z</time></trkpt><trkpt lat="43.34888745118321" lon="-0.46958314140451773"><ele>145.0</ele><time>2026-04-29T15:39:40Z</time></trkpt><trkpt lat="43.34883955798321" lon="-0.46951696822089417"><ele>145.0</ele><time>2026-04-29T15:39:41Z</time></trkpt><trkpt lat="43.34878992096647" lon="-0.46945131521296474"><ele>145.0</ele><time>2026-04-29T15:39:42Z</time></trkpt><trkpt lat="43.34873648936523" lon="-0.46939685591734304"><ele>145.0</ele><time>2026-04-29T15:39:43Z</time></trkpt><trkpt lat="43.34867984893026" lon="-0.46934338176063567"><ele>145.0</ele><time>2026-04-29T15:39:44Z</time></trkpt><trkpt lat="43.34862282914232" lon="-0.4692852103899543"><ele>145.0</ele><time>2026-04-29T15:39:45Z</time></trkpt><trkpt lat="43.348565332723595" lon="-0.46922814978323457"><ele>145.0</ele><time>2026-04-29T15:39:46Z</time></trkpt><trkpt lat="43.34851121379407" lon="-0.46917930235402583"><ele>145.0</ele><time>2026-04-29T15:39:47Z</time></trkpt><trkpt lat="43.34845500780813" lon="-0.46912829027603575"><ele>145.0</ele><time>2026-04-29T15:39:48Z</time></trkpt><trkpt lat="43.3483998060545" lon="-0.4690792082999903"><ele>145.0</ele><time>2026-04-29T15:39:49Z</time></trkpt><trkpt lat="43.34830641913959" lon="-0.46895918639204864"><ele>145.0</ele><time>2026-04-29T15:39:51Z</time></trkpt><trkpt lat="43.34828201240877" lon="-0.4688785760919747"><ele>145.0</ele><time>2026-04-29T15:39:52Z</time></trkpt><trkpt lat="43.34829156390749" lon="-0.4687069722781852"><ele>145.2</ele><time>2026-04-29T15:39:54Z</time></trkpt><trkpt lat="43.348319627074865" lon="-0.46862589262788973"><ele>145.4</ele><time>2026-04-29T15:39:55Z</time></trkpt><trkpt lat="43.34837740973831" lon="-0.46847606908101797"><ele>145.6</ele><time>2026-04-29T15:39:57Z</time></trkpt><trkpt lat="43.34842737077509" lon="-0.4683363095058042"><ele>145.8</ele><time>2026-04-29T15:39:59Z</time></trkpt><trkpt lat="43.34847623303352" lon="-0.46819389727770816"><ele>146.0</ele><time>2026-04-29T15:40:01Z</time></trkpt><trkpt lat="43.34851300998518" lon="-0.4680672679217353"><ele>147.0</ele><time>2026-04-29T15:40:03Z</time></trkpt><trkpt lat="43.34853649505428" lon="-0.4679367231115745"><ele>148.0</ele><time>2026-04-29T15:40:05Z</time></trkpt><trkpt lat="43.34853823506701" lon="-0.46779080003571577"><ele>149.0</ele><time>2026-04-29T15:40:07Z</time></trkpt><trkpt lat="43.3485347213816" lon="-0.4676401853709242"><ele>150.0</ele><time>2026-04-29T15:40:09Z</time></trkpt><trkpt lat="43.34853775096948" lon="-0.4674857478051419"><ele>151.0</ele><time>2026-04-29T15:40:11Z</time></trkpt><trkpt lat="43.34854048231284" lon="-0.46732648235768703"><ele>151.0</ele><time>2026-04-29T15:40:13Z</time></trkpt><trkpt lat="43.34852423348107" lon="-0.4671728871084366"><ele>151.0</ele><time>2026-04-29T15:40:15Z</time></trkpt><trkpt lat="43.348504258780125" lon="-0.46703813982512127"><ele>151.0</ele><time>2026-04-29T15:40:17Z</time></trkpt><trkpt lat="43.34847878349049" lon="-0.46692233096596814"><ele>151.0</ele><time>2026-04-29T15:40:19Z</time></trkpt><trkpt lat="43.34845226303601" lon="-0.4668112836994542"><ele>151.0</ele><time>2026-04-29T15:40:21Z</time></trkpt><trkpt lat="43.34844100304848" lon="-0.46669872025324266"><ele>151.83333333333334</ele><time>2026-04-29T15:40:23Z</time></trkpt><trkpt lat="43.34841598605197" lon="-0.46660873394627167"><ele>152.66666666666669</ele><time>2026-04-29T15:40:25Z</time></trkpt><trkpt lat="43.34838852114638" lon="-0.4664942799012005"><ele>153.5</ele><time>2026-04-29T15:40:28Z</time></trkpt><trkpt lat="43.348375650324044" lon="-0.466397941409211"><ele>154.33333333333334</ele><time>2026-04-29T15:40:31Z</time></trkpt><trkpt lat="43.3483531240754" lon="-0.4662929854795886"><ele>155.16666666666666</ele><time>2026-04-29T15:40:35Z</time></trkpt><trkpt lat="43.34835351228253" lon="-0.4661853483576164"><ele>156.0</ele><time>2026-04-29T15:40:40Z</time></trkpt><trkpt lat="43.34831442791569" lon="-0.4660929632549679"><ele>156.2857142857143</ele><time>2026-04-29T15:40:45Z</time></trkpt><trkpt lat="43.3482972879227" lon="-0.4660037400234472"><ele>156.57142857142856</ele><time>2026-04-29T15:40:49Z</time></trkpt><trkpt lat="43.34827280648911" lon="-0.46589688810357544"><ele>156.85714285714286</ele><time>2026-04-29T15:40:53Z</time></trkpt><trkpt lat="43.34825055279714" lon="-0.4658027763410657"><ele>157.14285714285717</ele><time>2026-04-29T15:40:56Z</time></trkpt><trkpt lat="43.34822623291256" lon="-0.4657170000358162"><ele>157.42857142857144</ele><time>2026-04-29T15:40:59Z</time></trkpt><trkpt lat="43.3482102614537" lon="-0.46563297539592025"><ele>157.71428571428572</ele><time>2026-04-29T15:41:01Z</time></trkpt><trkpt lat="43.34819026695718" lon="-0.46554474913342825"><ele>158.0</ele><time>2026-04-29T15:41:03Z</time></trkpt><trkpt lat="43.3481743673299" lon="-0.4654427189121805"><ele>158.0</ele><time>2026-04-29T15:41:05Z</time></trkpt><trkpt lat="43.34817272550919" lon="-0.4653084232102486"><ele>158.0</ele><time>2026-04-29T15:41:07Z</time></trkpt><trkpt lat="43.34815230942478" lon="-0.4652033676155719"><ele>158.0</ele><time>2026-04-29T15:41:09Z</time></trkpt><trkpt lat="43.348139306256265" lon="-0.4650872398190005"><ele>158.0</ele><time>2026-04-29T15:41:11Z</time></trkpt><trkpt lat="43.348119964054426" lon="-0.4649660573440198"><ele>158.0</ele><time>2026-04-29T15:41:13Z</time></trkpt><trkpt lat="43.348101264270674" lon="-0.4648406569268385"><ele>158.0</ele><time>2026-04-29T15:41:15Z</time></trkpt><trkpt lat="43.3480948876377" lon="-0.46471788405206643"><ele>158.4</ele><time>2026-04-29T15:41:17Z</time></trkpt><trkpt lat="43.34808245806692" lon="-0.464593642152245"><ele>158.8</ele><time>2026-04-29T15:41:19Z</time></trkpt><trkpt lat="43.348054009092046" lon="-0.464477467621913"><ele>159.2</ele><time>2026-04-29T15:41:21Z</time></trkpt><trkpt lat="43.34801582579659" lon="-0.4643650794365356"><ele>159.6</ele><time>2026-04-29T15:41:23Z</time></trkpt><trkpt lat="43.34798315218718" lon="-0.4642405123893207"><ele>160.0</ele><time>2026-04-29T15:41:25Z</time></trkpt><trkpt lat="43.34794296679155" lon="-0.46412247149302704"><ele>160.8</ele><time>2026-04-29T15:41:27Z</time></trkpt><trkpt lat="43.347899911235" lon="-0.4639978506821573"><ele>161.6</ele><time>2026-04-29T15:41:29Z</time></trkpt><trkpt lat="43.3478559156043" lon="-0.46387762710175107"><ele>162.39999999999998</ele><time>2026-04-29T15:41:31Z</time></trkpt><trkpt lat="43.34780052994914" lon="-0.46375435391222203"><ele>163.2</ele><time>2026-04-29T15:41:33Z</time></trkpt><trkpt lat="43.347749472991374" lon="-0.4636343898585477"><ele>164.0</ele><time>2026-04-29T15:41:35Z</time></trkpt><trkpt lat="43.347704795896" lon="-0.4635157519889196"><ele>164.2</ele><time>2026-04-29T15:41:37Z</time></trkpt><trkpt lat="43.34767720288116" lon="-0.4633810280688039"><ele>164.39999999999998</ele><time>2026-04-29T15:41:39Z</time></trkpt><trkpt lat="43.34764781855835" lon="-0.4632394718098737"><ele>164.6</ele><time>2026-04-29T15:41:41Z</time></trkpt><trkpt lat="43.34761734779582" lon="-0.46310550999345135"><ele>164.8</ele><time>2026-04-29T15:41:43Z</time></trkpt><trkpt lat="43.34759561767935" lon="-0.4629590363273791"><ele>165.0</ele><time>2026-04-29T15:41:45Z</time></trkpt><trkpt lat="43.34756078102719" lon="-0.4628260173537909"><ele>165.4</ele><time>2026-04-29T15:41:47Z</time></trkpt><trkpt lat="43.34753051209797" lon="-0.46268996508396254"><ele>165.8</ele><time>2026-04-29T15:41:49Z</time></trkpt><trkpt lat="43.347510406350445" lon="-0.4625377567414076"><ele>166.2</ele><time>2026-04-29T15:41:51Z</time></trkpt><trkpt lat="43.347481359399936" lon="-0.4623951889781735"><ele>166.6</ele><time>2026-04-29T15:41:53Z</time></trkpt><trkpt lat="43.34744143107171" lon="-0.46225667898092543"><ele>167.0</ele><time>2026-04-29T15:41:55Z</time></trkpt><trkpt lat="43.347412709106" lon="-0.4621206265197632"><ele>167.39999999999998</ele><time>2026-04-29T15:41:57Z</time></trkpt><trkpt lat="43.34736443203953" lon="-0.4619869788806428"><ele>167.79999999999998</ele><time>2026-04-29T15:41:59Z</time></trkpt><trkpt lat="43.34732274729521" lon="-0.4618614833448656"><ele>168.2</ele><time>2026-04-29T15:42:01Z</time></trkpt><trkpt lat="43.347288582422735" lon="-0.46173627717913873"><ele>168.6</ele><time>2026-04-29T15:42:03Z</time></trkpt><trkpt lat="43.347241084984866" lon="-0.4616193748783265"><ele>169.0</ele><time>2026-04-29T15:42:05Z</time></trkpt><trkpt lat="43.347217002005486" lon="-0.4614832694572898"><ele>168.6</ele><time>2026-04-29T15:42:07Z</time></trkpt><trkpt lat="43.34718968221177" lon="-0.4613541344399103"><ele>168.2</ele><time>2026-04-29T15:42:09Z</time></trkpt><trkpt lat="43.347161063803895" lon="-0.4612226601467126"><ele>167.79999999999998</ele><time>2026-04-29T15:42:11Z</time></trkpt><trkpt lat="43.34712113596585" lon="-0.4610962083864278"><ele>167.39999999999998</ele><time>2026-04-29T15:42:13Z</time></trkpt><trkpt lat="43.34709035152585" lon="-0.4609710980946577"><ele>167.0</ele><time>2026-04-29T15:42:15Z</time></trkpt><trkpt lat="43.34706041918326" lon="-0.46083254184122896"><ele>167.0</ele><time>2026-04-29T15:42:17Z</time></trkpt><trkpt lat="43.34702536298658" lon="-0.4606923688710774"><ele>167.0</ele><time>2026-04-29T15:42:19Z</time></trkpt><trkpt lat="43.34699436240607" lon="-0.4605602966764539"><ele>167.0</ele><time>2026-04-29T15:42:21Z</time></trkpt><trkpt lat="43.34696366333146" lon="-0.46042732437985384"><ele>167.0</ele><time>2026-04-29T15:42:23Z</time></trkpt><trkpt lat="43.346926731434934" lon="-0.4603050601342879"><ele>167.0</ele><time>2026-04-29T15:42:25Z</time></trkpt><trkpt lat="43.346887077827674" lon="-0.46017728831390875"><ele>167.2</ele><time>2026-04-29T15:42:27Z</time></trkpt><trkpt lat="43.34687179940681" lon="-0.4600529410144207"><ele>167.39999999999998</ele><time>2026-04-29T15:42:29Z</time></trkpt><trkpt lat="43.34684756135057" lon="-0.4599263635359592"><ele>167.60000000000002</ele><time>2026-04-29T15:42:31Z</time></trkpt><trkpt lat="43.34681311086285" lon="-0.4598008389082497"><ele>167.8</ele><time>2026-04-29T15:42:33Z</time></trkpt><trkpt lat="43.34678705813927" lon="-0.459673965860758"><ele>168.0</ele><time>2026-04-29T15:42:35Z</time></trkpt><trkpt lat="43.34676687240523" lon="-0.45957984586911477"><ele>168.2</ele><time>2026-04-29T15:42:38Z</time></trkpt><trkpt lat="43.346726692863434" lon="-0.45943148546692464"><ele>168.4</ele><time>2026-04-29T15:42:39Z</time></trkpt><trkpt lat="43.34670036960122" lon="-0.45930481634758585"><ele>168.6</ele><time>2026-04-29T15:42:41Z</time></trkpt><trkpt lat="43.346673497090926" lon="-0.4591755039959365"><ele>168.79999999999998</ele><time>2026-04-29T15:42:43Z</time></trkpt><trkpt lat="43.346659971929036" lon="-0.4590418212093087"><ele>169.0</ele><time>2026-04-29T15:42:45Z</time></trkpt><trkpt lat="43.34664333329258" lon="-0.45889586979479774"><ele>169.0</ele><time>2026-04-29T15:42:47Z</time></trkpt><trkpt lat="43.346609925411244" lon="-0.4587915206913537"><ele>169.0</ele><time>2026-04-29T15:42:49Z</time></trkpt><trkpt lat="43.34658824080452" lon="-0.45870191679343597"><ele>169.0</ele><time>2026-04-29T15:42:50Z</time></trkpt><trkpt lat="43.346552520859795" lon="-0.4585756100380449"><ele>169.0</ele><time>2026-04-29T15:42:52Z</time></trkpt><trkpt lat="43.3465154452361" lon="-0.45844974445236625"><ele>169.0</ele><time>2026-04-29T15:42:54Z</time></trkpt><trkpt lat="43.34648630748862" lon="-0.4583118748031234"><ele>169.0</ele><time>2026-04-29T15:42:56Z</time></trkpt><trkpt lat="43.346441936704764" lon="-0.45815924632665406"><ele>169.0</ele><time>2026-04-29T15:42:58Z</time></trkpt><trkpt lat="43.34642213700853" lon="-0.4580754233574317"><ele>169.0</ele><time>2026-04-29T15:42:59Z</time></trkpt><trkpt lat="43.34641259186811" lon="-0.4579881457430413"><ele>169.0</ele><time>2026-04-29T15:43:00Z</time></trkpt><trkpt lat="43.34637028905486" lon="-0.4578412310886524"><ele>169.0</ele><time>2026-04-29T15:43:02Z</time></trkpt><trkpt lat="43.34631546231822" lon="-0.4577016470122686"><ele>169.75</ele><time>2026-04-29T15:43:04Z</time></trkpt><trkpt lat="43.3462731896434" lon="-0.45755738660459333"><ele>170.5</ele><time>2026-04-29T15:43:06Z</time></trkpt><trkpt lat="43.34622972001268" lon="-0.4574157440734695"><ele>171.25</ele><time>2026-04-29T15:43:08Z</time></trkpt><trkpt lat="43.34618374153992" lon="-0.4572730186185509"><ele>172.0</ele><time>2026-04-29T15:43:10Z</time></trkpt><trkpt lat="43.34613687513156" lon="-0.4571342520118824"><ele>171.8</ele><time>2026-04-29T15:43:12Z</time></trkpt><trkpt lat="43.34609131047355" lon="-0.4570051044667542"><ele>171.6</ele><time>2026-04-29T15:43:14Z</time></trkpt><trkpt lat="43.346054815622914" lon="-0.4568716035530888"><ele>171.4</ele><time>2026-04-29T15:43:16Z</time></trkpt><trkpt lat="43.345998557784384" lon="-0.456744768621476"><ele>171.20000000000002</ele><time>2026-04-29T15:43:18Z</time></trkpt><trkpt lat="43.34595335767313" lon="-0.4566119370794526"><ele>171.0</ele><time>2026-04-29T15:43:20Z</time></trkpt><trkpt lat="43.34591499302805" lon="-0.4564756673033248"><ele>171.0</ele><time>2026-04-29T15:43:22Z</time></trkpt><trkpt lat="43.34587362614697" lon="-0.4563404045555402"><ele>171.0</ele><time>2026-04-29T15:43:24Z</time></trkpt><trkpt lat="43.34582763803244" lon="-0.4562047323871871"><ele>171.0</ele><time>2026-04-29T15:43:26Z</time></trkpt><trkpt lat="43.34578409632019" lon="-0.4560607475070973"><ele>171.0</ele><time>2026-04-29T15:43:28Z</time></trkpt><trkpt lat="43.34575571133147" lon="-0.4558985776349834"><ele>170.5</ele><time>2026-04-29T15:43:30Z</time></trkpt><trkpt lat="43.34572065076062" lon="-0.4557507955609012"><ele>170.0</ele><time>2026-04-29T15:43:32Z</time></trkpt><trkpt lat="43.345696711316535" lon="-0.45558851001148215"><ele>169.5</ele><time>2026-04-29T15:43:34Z</time></trkpt><trkpt lat="43.3456760820159" lon="-0.45542175922921213"><ele>169.0</ele><time>2026-04-29T15:43:36Z</time></trkpt><trkpt lat="43.34566649844342" lon="-0.4552451110665639"><ele>169.0</ele><time>2026-04-29T15:43:38Z</time></trkpt><trkpt lat="43.34565633162186" lon="-0.4551586889496559"><ele>169.0</ele><time>2026-04-29T15:43:39Z</time></trkpt><trkpt lat="43.34563868656555" lon="-0.4550689738497832"><ele>169.0</ele><time>2026-04-29T15:43:40Z</time></trkpt><trkpt lat="43.34561846044453" lon="-0.4549787480487216"><ele>169.0</ele><time>2026-04-29T15:43:41Z</time></trkpt><trkpt lat="43.345593899248506" lon="-0.4548947020737474"><ele>169.0</ele><time>2026-04-29T15:43:42Z</time></trkpt><trkpt lat="43.345561110710925" lon="-0.4548140387913762"><ele>169.0</ele><time>2026-04-29T15:43:43Z</time></trkpt><trkpt lat="43.34553686345369" lon="-0.4547281800564941"><ele>169.0</ele><time>2026-04-29T15:43:44Z</time></trkpt><trkpt lat="43.345500581360504" lon="-0.45465059616475567"><ele>169.2</ele><time>2026-04-29T15:43:45Z</time></trkpt><trkpt lat="43.345435967277155" lon="-0.45451190599095664"><ele>169.39999999999998</ele><time>2026-04-29T15:43:47Z</time></trkpt><trkpt lat="43.34537739312398" lon="-0.4543789346300248"><ele>169.6</ele><time>2026-04-29T15:43:49Z</time></trkpt><trkpt lat="43.34533301278017" lon="-0.45424828713495374"><ele>169.8</ele><time>2026-04-29T15:43:51Z</time></trkpt><trkpt lat="43.34528178416706" lon="-0.45413430921598613"><ele>170.0</ele><time>2026-04-29T15:43:53Z</time></trkpt><trkpt lat="43.34523066694371" lon="-0.4540014009514262"><ele>170.0</ele><time>2026-04-29T15:43:55Z</time></trkpt><trkpt lat="43.34515554434311" lon="-0.453874137309402"><ele>170.0</ele><time>2026-04-29T15:43:57Z</time></trkpt><trkpt lat="43.34508434210507" lon="-0.4537387171610456"><ele>170.0</ele><time>2026-04-29T15:43:59Z</time></trkpt><trkpt lat="43.34500706467308" lon="-0.45362960549287284"><ele>170.0</ele><time>2026-04-29T15:44:01Z</time></trkpt><trkpt lat="43.344920042849886" lon="-0.45352298503895666"><ele>169.8</ele><time>2026-04-29T15:44:03Z</time></trkpt><trkpt lat="43.34484589838665" lon="-0.45342840530824924"><ele>169.6</ele><time>2026-04-29T15:44:05Z</time></trkpt><trkpt lat="43.3447719736601" lon="-0.4533277992056642"><ele>169.39999999999998</ele><time>2026-04-29T15:44:07Z</time></trkpt><trkpt lat="43.34469992624632" lon="-0.4532263110541581"><ele>169.2</ele><time>2026-04-29T15:44:09Z</time></trkpt><trkpt lat="43.344634328283796" lon="-0.45311278438243136"><ele>169.0</ele><time>2026-04-29T15:44:11Z</time></trkpt><trkpt lat="43.34456789114505" lon="-0.4530088691445519"><ele>170.39999999999998</ele><time>2026-04-29T15:44:13Z</time></trkpt><trkpt lat="43.344510206536704" lon="-0.45289541281767465"><ele>171.8</ele><time>2026-04-29T15:44:15Z</time></trkpt><trkpt lat="43.34446685817896" lon="-0.4527813612257392"><ele>173.2</ele><time>2026-04-29T15:44:17Z</time></trkpt><trkpt lat="43.344413600566355" lon="-0.45266914482884385"><ele>174.60000000000002</ele><time>2026-04-29T15:44:19Z</time></trkpt><trkpt lat="43.34436864775872" lon="-0.4525646276531328"><ele>176.0</ele><time>2026-04-29T15:44:21Z</time></trkpt><trkpt lat="43.344325293173306" lon="-0.45244844160808995"><ele>176.0</ele><time>2026-04-29T15:44:23Z</time></trkpt><trkpt lat="43.34428062091344" lon="-0.45233273732275425"><ele>176.0</ele><time>2026-04-29T15:44:25Z</time></trkpt><trkpt lat="43.34422994626339" lon="-0.45221200656413696"><ele>176.0</ele><time>2026-04-29T15:44:27Z</time></trkpt><trkpt lat="43.34417111982689" lon="-0.45208363869009666"><ele>176.0</ele><time>2026-04-29T15:44:29Z</time></trkpt><trkpt lat="43.34410418928246" lon="-0.45193858662317876"><ele>176.0</ele><time>2026-04-29T15:44:31Z</time></trkpt><trkpt lat="43.34404139705416" lon="-0.45179933445153386"><ele>176.0</ele><time>2026-04-29T15:44:33Z</time></trkpt><trkpt lat="43.34398068693015" lon="-0.4516569025764458"><ele>176.0</ele><time>2026-04-29T15:44:35Z</time></trkpt><trkpt lat="43.343913053764126" lon="-0.45151540015378777"><ele>176.0</ele><time>2026-04-29T15:44:37Z</time></trkpt><trkpt lat="43.34385337012074" lon="-0.4513914119512232"><ele>176.0</ele><time>2026-04-29T15:44:39Z</time></trkpt><trkpt lat="43.34381345941756" lon="-0.4512511615723601"><ele>176.8</ele><time>2026-04-29T15:44:41Z</time></trkpt><trkpt lat="43.34375466815005" lon="-0.45111552220194673"><ele>177.60000000000002</ele><time>2026-04-29T15:44:43Z</time></trkpt><trkpt lat="43.343692635880764" lon="-0.4509801239854069"><ele>178.4</ele><time>2026-04-29T15:44:45Z</time></trkpt><trkpt lat="43.34362010135509" lon="-0.4508489317511855"><ele>179.2</ele><time>2026-04-29T15:44:47Z</time></trkpt><trkpt lat="43.34359118771416" lon="-0.4507665762027957"><ele>180.0</ele><time>2026-04-29T15:44:48Z</time></trkpt><trkpt lat="43.343522919726844" lon="-0.45063069349043317"><ele>180.0</ele><time>2026-04-29T15:44:50Z</time></trkpt><trkpt lat="43.34348984942688" lon="-0.4505563887064089"><ele>180.0</ele><time>2026-04-29T15:44:51Z</time></trkpt><trkpt lat="43.343425102541524" lon="-0.4504115478857742"><ele>180.0</ele><time>2026-04-29T15:44:53Z</time></trkpt><trkpt lat="43.34340441046452" lon="-0.45032310894742195"><ele>180.0</ele><time>2026-04-29T15:44:54Z</time></trkpt><trkpt lat="43.34335809028843" lon="-0.45026310135414493"><ele>180.0</ele><time>2026-04-29T15:44:55Z</time></trkpt><trkpt lat="43.34332693869681" lon="-0.4501829515782166"><ele>180.0</ele><time>2026-04-29T15:44:56Z</time></trkpt><trkpt lat="43.34329700152413" lon="-0.4501021521407042"><ele>180.28571428571428</ele><time>2026-04-29T15:44:57Z</time></trkpt><trkpt lat="43.34325960551957" lon="-0.4500313715559685"><ele>180.57142857142858</ele><time>2026-04-29T15:44:58Z</time></trkpt><trkpt lat="43.343226862473855" lon="-0.4499521998128869"><ele>180.85714285714286</ele><time>2026-04-29T15:44:59Z</time></trkpt><trkpt lat="43.34319264782539" lon="-0.44987871355116854"><ele>181.14285714285714</ele><time>2026-04-29T15:45:00Z</time></trkpt><trkpt lat="43.34314107726305" lon="-0.4498199319440921"><ele>181.42857142857144</ele><time>2026-04-29T15:45:01Z</time></trkpt><trkpt lat="43.343104474909055" lon="-0.4497417438822954"><ele>181.71428571428572</ele><time>2026-04-29T15:45:02Z</time></trkpt><trkpt lat="43.343073523556384" lon="-0.4496624973959026"><ele>182.0</ele><time>2026-04-29T15:45:03Z</time></trkpt><trkpt lat="43.34301380893171" lon="-0.4495243826555176"><ele>182.0</ele><time>2026-04-29T15:45:05Z</time></trkpt><trkpt lat="43.34297764267365" lon="-0.44943971511751646"><ele>182.0</ele><time>2026-04-29T15:45:06Z</time></trkpt><trkpt lat="43.34294555559778" lon="-0.44936406483674207"><ele>182.0</ele><time>2026-04-29T15:45:07Z</time></trkpt><trkpt lat="43.34290863534238" lon="-0.4492863818613814"><ele>182.0</ele><time>2026-04-29T15:45:08Z</time></trkpt><trkpt lat="43.342873977717154" lon="-0.4492111468575932"><ele>182.0</ele><time>2026-04-29T15:45:09Z</time></trkpt><trkpt lat="43.3428391196473" lon="-0.44913694148880956"><ele>182.0</ele><time>2026-04-29T15:45:10Z</time></trkpt><trkpt lat="43.34277851936887" lon="-0.4489858677231887"><ele>182.0</ele><time>2026-04-29T15:45:12Z</time></trkpt><trkpt lat="43.34274434986291" lon="-0.44891155768443153"><ele>182.0</ele><time>2026-04-29T15:45:13Z</time></trkpt><trkpt lat="43.34270918402566" lon="-0.4488388351743512"><ele>182.0</ele><time>2026-04-29T15:45:14Z</time></trkpt><trkpt lat="43.34264318547153" lon="-0.448691600257719"><ele>182.0</ele><time>2026-04-29T15:45:16Z</time></trkpt><trkpt lat="43.34260944967678" lon="-0.4486182812346813"><ele>182.0</ele><time>2026-04-29T15:45:17Z</time></trkpt><trkpt lat="43.34253787230919" lon="-0.4484730848468013"><ele>182.0</ele><time>2026-04-29T15:45:19Z</time></trkpt><trkpt lat="43.34250472231937" lon="-0.4483986320138912"><ele>181.71428571428572</ele><time>2026-04-29T15:45:20Z</time></trkpt><trkpt lat="43.34247009491498" lon="-0.448320469542238"><ele>181.42857142857144</ele><time>2026-04-29T15:45:21Z</time></trkpt><trkpt lat="43.342432460276314" lon="-0.44824987674689576"><ele>181.14285714285714</ele><time>2026-04-29T15:45:22Z</time></trkpt><trkpt lat="43.3424012958855" lon="-0.44817154532047093"><ele>180.85714285714286</ele><time>2026-04-29T15:45:23Z</time></trkpt><trkpt lat="43.342368351799465" lon="-0.44809364725463513"><ele>180.57142857142858</ele><time>2026-04-29T15:45:24Z</time></trkpt><trkpt lat="43.342335577894765" lon="-0.448019051329646"><ele>180.28571428571428</ele><time>2026-04-29T15:45:25Z</time></trkpt><trkpt lat="43.34230403408269" lon="-0.4479434850432129"><ele>180.0</ele><time>2026-04-29T15:45:26Z</time></trkpt><trkpt lat="43.3422719650009" lon="-0.4478679563094867"><ele>179.85714285714286</ele><time>2026-04-29T15:45:27Z</time></trkpt><trkpt lat="43.34224116388899" lon="-0.4477892580668176"><ele>179.71428571428572</ele><time>2026-04-29T15:45:28Z</time></trkpt><trkpt lat="43.34220891434783" lon="-0.44771448193130775"><ele>179.57142857142858</ele><time>2026-04-29T15:45:29Z</time></trkpt><trkpt lat="43.34213920931763" lon="-0.44756720394255445"><ele>179.42857142857144</ele><time>2026-04-29T15:45:31Z</time></trkpt><trkpt lat="43.342108236692944" lon="-0.4474910044729699"><ele>179.28571428571428</ele><time>2026-04-29T15:45:32Z</time></trkpt><trkpt lat="43.342073145808264" lon="-0.4474176211549318"><ele>179.14285714285717</ele><time>2026-04-29T15:45:33Z</time></trkpt><trkpt lat="43.34204062873032" lon="-0.44734171247898974"><ele>179.0</ele><time>2026-04-29T15:45:34Z</time></trkpt><trkpt lat="43.342006514768194" lon="-0.44726526952880935"><ele>179.0</ele><time>2026-04-29T15:45:35Z</time></trkpt><trkpt lat="43.34193899051139" lon="-0.44711759149069213"><ele>179.0</ele><time>2026-04-29T15:45:37Z</time></trkpt><trkpt lat="43.341905738613455" lon="-0.44703968720677434"><ele>179.0</ele><time>2026-04-29T15:45:38Z</time></trkpt><trkpt lat="43.3418435013534" lon="-0.44688792544626144"><ele>179.0</ele><time>2026-04-29T15:45:40Z</time></trkpt><trkpt lat="43.34181197425534" lon="-0.44681118066869513"><ele>179.0</ele><time>2026-04-29T15:45:41Z</time></trkpt><trkpt lat="43.341778979171266" lon="-0.4467374365286168"><ele>179.0</ele><time>2026-04-29T15:45:42Z</time></trkpt><trkpt lat="43.341744565864175" lon="-0.4466578880880375"><ele>179.00000000000003</ele><time>2026-04-29T15:45:43Z</time></trkpt><trkpt lat="43.341711178869545" lon="-0.44658233144892795"><ele>179.0</ele><time>2026-04-29T15:45:44Z</time></trkpt><trkpt lat="43.34167732768895" lon="-0.44650866289710467"><ele>179.0</ele><time>2026-04-29T15:45:45Z</time></trkpt><trkpt lat="43.34164265815281" lon="-0.44642837652372963"><ele>179.0</ele><time>2026-04-29T15:45:46Z</time></trkpt><trkpt lat="43.34160931124702" lon="-0.4463540676107916"><ele>179.0</ele><time>2026-04-29T15:45:47Z</time></trkpt><trkpt lat="43.34157607345387" lon="-0.4462695086456783"><ele>179.00000000000003</ele><time>2026-04-29T15:45:48Z</time></trkpt><trkpt lat="43.341541088510866" lon="-0.4461861898153325"><ele>179.0</ele><time>2026-04-29T15:45:49Z</time></trkpt><trkpt lat="43.34150507890185" lon="-0.4461061076725851"><ele>179.14285714285717</ele><time>2026-04-29T15:45:50Z</time></trkpt><trkpt lat="43.34146933092327" lon="-0.4460254809180127"><ele>179.28571428571428</ele><time>2026-04-29T15:45:51Z</time></trkpt><trkpt lat="43.34143510651329" lon="-0.44594207796746826"><ele>179.42857142857144</ele><time>2026-04-29T15:45:52Z</time></trkpt><trkpt lat="43.341402955497706" lon="-0.4458639787669628"><ele>179.57142857142858</ele><time>2026-04-29T15:45:53Z</time></trkpt><trkpt lat="43.34137226597094" lon="-0.4457827884043337"><ele>179.71428571428572</ele><time>2026-04-29T15:45:54Z</time></trkpt><trkpt lat="43.34133751915963" lon="-0.4457042363753327"><ele>179.85714285714286</ele><time>2026-04-29T15:45:55Z</time></trkpt><trkpt lat="43.3413048536801" lon="-0.44562292130439535"><ele>180.0</ele><time>2026-04-29T15:45:56Z</time></trkpt><trkpt lat="43.34126952607449" lon="-0.44553989071375"><ele>179.7142857142857</ele><time>2026-04-29T15:45:57Z</time></trkpt><trkpt lat="43.341235934136236" lon="-0.44545673264444113"><ele>179.42857142857144</ele><time>2026-04-29T15:45:58Z</time></trkpt><trkpt lat="43.34120114974835" lon="-0.445378653962687"><ele>179.14285714285714</ele><time>2026-04-29T15:45:59Z</time></trkpt><trkpt lat="43.341166018645424" lon="-0.4453024155378944"><ele>178.85714285714283</ele><time>2026-04-29T15:46:00Z</time></trkpt><trkpt lat="43.34113298294569" lon="-0.44522400245249566"><ele>178.57142857142856</ele><time>2026-04-29T15:46:01Z</time></trkpt><trkpt lat="43.34110078515447" lon="-0.4451437307666445"><ele>178.28571428571428</ele><time>2026-04-29T15:46:02Z</time></trkpt><trkpt lat="43.34106602677959" lon="-0.4450665786674706"><ele>178.0</ele><time>2026-04-29T15:46:03Z</time></trkpt><trkpt lat="43.34103443725992" lon="-0.4449897892619534"><ele>178.0</ele><time>2026-04-29T15:46:04Z</time></trkpt><trkpt lat="43.34099963550623" lon="-0.44491630841931823"><ele>178.0</ele><time>2026-04-29T15:46:05Z</time></trkpt><trkpt lat="43.34096433405874" lon="-0.444843678404357"><ele>178.0</ele><time>2026-04-29T15:46:06Z</time></trkpt><trkpt lat="43.340904730180696" lon="-0.44469531500179194"><ele>178.0</ele><time>2026-04-29T15:46:08Z</time></trkpt><trkpt lat="43.34083394649326" lon="-0.44455149586658016"><ele>178.0</ele><time>2026-04-29T15:46:10Z</time></trkpt><trkpt lat="43.3407964897478" lon="-0.4444772967491738"><ele>178.0</ele><time>2026-04-29T15:46:11Z</time></trkpt><trkpt lat="43.34076177791061" lon="-0.44440355765965356"><ele>178.0</ele><time>2026-04-29T15:46:12Z</time></trkpt><trkpt lat="43.3407242603461" lon="-0.4443318243556575"><ele>178.0</ele><time>2026-04-29T15:46:13Z</time></trkpt><trkpt lat="43.34068424948519" lon="-0.44425690178266564"><ele>178.0</ele><time>2026-04-29T15:46:14Z</time></trkpt><trkpt lat="43.340639800283185" lon="-0.4441866730548791"><ele>178.0</ele><time>2026-04-29T15:46:15Z</time></trkpt><trkpt lat="43.34056478273284" lon="-0.44404876354412015"><ele>178.0</ele><time>2026-04-29T15:46:17Z</time></trkpt><trkpt lat="43.340522620866864" lon="-0.44397520404630747"><ele>178.0</ele><time>2026-04-29T15:46:18Z</time></trkpt><trkpt lat="43.3404420824233" lon="-0.44384690220841866"><ele>178.0</ele><time>2026-04-29T15:46:20Z</time></trkpt><trkpt lat="43.340356795951664" lon="-0.44372586418115856"><ele>178.0</ele><time>2026-04-29T15:46:22Z</time></trkpt><trkpt lat="43.34026609398519" lon="-0.4435995642515322"><ele>178.0</ele><time>2026-04-29T15:46:24Z</time></trkpt><trkpt lat="43.340181809385676" lon="-0.4434929043742954"><ele>178.0</ele><time>2026-04-29T15:46:26Z</time></trkpt><trkpt lat="43.340094833548754" lon="-0.4433826284097288"><ele>178.0</ele><time>2026-04-29T15:46:28Z</time></trkpt><trkpt lat="43.34001475380301" lon="-0.4432738830927443"><ele>178.0</ele><time>2026-04-29T15:46:30Z</time></trkpt><trkpt lat="43.33993770138176" lon="-0.4431551187777947"><ele>178.0</ele><time>2026-04-29T15:46:32Z</time></trkpt><trkpt lat="43.33986492467441" lon="-0.44303375167722037"><ele>178.0</ele><time>2026-04-29T15:46:34Z</time></trkpt><trkpt lat="43.339781930526954" lon="-0.44291662389334263"><ele>178.60000000000002</ele><time>2026-04-29T15:46:36Z</time></trkpt><trkpt lat="43.339703270245664" lon="-0.4428086475044775"><ele>179.20000000000002</ele><time>2026-04-29T15:46:38Z</time></trkpt><trkpt lat="43.339621929797325" lon="-0.4426950112410696"><ele>179.8</ele><time>2026-04-29T15:46:40Z</time></trkpt><trkpt lat="43.33954923856214" lon="-0.44258050105168156"><ele>180.4</ele><time>2026-04-29T15:46:42Z</time></trkpt><trkpt lat="43.33947589053958" lon="-0.44247412156286586"><ele>181.0</ele><time>2026-04-29T15:46:44Z</time></trkpt><trkpt lat="43.33941016109813" lon="-0.44237963758300897"><ele>181.0</ele><time>2026-04-29T15:46:46Z</time></trkpt><trkpt lat="43.33934051412162" lon="-0.4422837990345566"><ele>181.0</ele><time>2026-04-29T15:46:48Z</time></trkpt><trkpt lat="43.339275723496854" lon="-0.4421405088464927"><ele>181.0</ele><time>2026-04-29T15:46:50Z</time></trkpt><trkpt lat="43.3391943839189" lon="-0.4420149557723782"><ele>181.0</ele><time>2026-04-29T15:46:52Z</time></trkpt><trkpt lat="43.33910815287289" lon="-0.44189078432818635"><ele>181.0</ele><time>2026-04-29T15:46:54Z</time></trkpt><trkpt lat="43.33903027228556" lon="-0.44176117614352034"><ele>181.0</ele><time>2026-04-29T15:46:56Z</time></trkpt><trkpt lat="43.33893141274417" lon="-0.44164905784075476"><ele>181.0</ele><time>2026-04-29T15:46:58Z</time></trkpt><trkpt lat="43.33889428922993" lon="-0.4415782884300784"><ele>181.0</ele><time>2026-04-29T15:46:59Z</time></trkpt><trkpt lat="43.33884592790986" lon="-0.4414184641746507"><ele>181.0</ele><time>2026-04-29T15:47:01Z</time></trkpt><trkpt lat="43.33877404085985" lon="-0.4412868309625941"><ele>181.0</ele><time>2026-04-29T15:47:03Z</time></trkpt><trkpt lat="43.338708352358765" lon="-0.4411505871018578"><ele>181.0</ele><time>2026-04-29T15:47:05Z</time></trkpt><trkpt lat="43.33863787244626" lon="-0.44101428550636573"><ele>181.0</ele><time>2026-04-29T15:47:07Z</time></trkpt><trkpt lat="43.33857310494296" lon="-0.4408858564849232"><ele>181.0</ele><time>2026-04-29T15:47:09Z</time></trkpt><trkpt lat="43.33850384238872" lon="-0.44075400431029255"><ele>181.0</ele><time>2026-04-29T15:47:11Z</time></trkpt><trkpt lat="43.338432692373836" lon="-0.44061695896935"><ele>181.0</ele><time>2026-04-29T15:47:13Z</time></trkpt><trkpt lat="43.33834629330536" lon="-0.4405097646567651"><ele>181.0</ele><time>2026-04-29T15:47:15Z</time></trkpt><trkpt lat="43.33829371148476" lon="-0.440375620730998"><ele>181.0</ele><time>2026-04-29T15:47:17Z</time></trkpt><trkpt lat="43.33821400559935" lon="-0.44025499132784573"><ele>181.0</ele><time>2026-04-29T15:47:19Z</time></trkpt><trkpt lat="43.33815584832827" lon="-0.44011366985405453"><ele>181.0</ele><time>2026-04-29T15:47:21Z</time></trkpt><trkpt lat="43.338091425193355" lon="-0.4399756706776345"><ele>181.0</ele><time>2026-04-29T15:47:23Z</time></trkpt><trkpt lat="43.33801821881503" lon="-0.43984760564772"><ele>181.0</ele><time>2026-04-29T15:47:25Z</time></trkpt><trkpt lat="43.33794814238919" lon="-0.4397105774586766"><ele>181.0</ele><time>2026-04-29T15:47:27Z</time></trkpt><trkpt lat="43.337878231875315" lon="-0.43957620088483157"><ele>181.0</ele><time>2026-04-29T15:47:29Z</time></trkpt><trkpt lat="43.337806940418744" lon="-0.43944037019327503"><ele>181.0</ele><time>2026-04-29T15:47:31Z</time></trkpt><trkpt lat="43.337738173497925" lon="-0.4393017309997221"><ele>181.0</ele><time>2026-04-29T15:47:33Z</time></trkpt><trkpt lat="43.33766864242936" lon="-0.43916979604186224"><ele>181.0</ele><time>2026-04-29T15:47:35Z</time></trkpt><trkpt lat="43.33762818200822" lon="-0.4390983319612371"><ele>181.0</ele><time>2026-04-29T15:47:36Z</time></trkpt><trkpt lat="43.337562282472064" lon="-0.4389640380288212"><ele>181.0</ele><time>2026-04-29T15:47:38Z</time></trkpt><trkpt lat="43.33750365952222" lon="-0.4388322063538148"><ele>181.0</ele><time>2026-04-29T15:47:40Z</time></trkpt><trkpt lat="43.3374673035247" lon="-0.43876025658741147"><ele>181.0</ele><time>2026-04-29T15:47:41Z</time></trkpt><trkpt lat="43.337431455667506" lon="-0.4386884999539456"><ele>181.0</ele><time>2026-04-29T15:47:42Z</time></trkpt><trkpt lat="43.33736097389663" lon="-0.43855056035238993"><ele>181.20000000000002</ele><time>2026-04-29T15:47:44Z</time></trkpt><trkpt lat="43.33732503854866" lon="-0.438477922695766"><ele>181.4</ele><time>2026-04-29T15:47:45Z</time></trkpt><trkpt lat="43.337248752974965" lon="-0.43834503667554797"><ele>181.6</ele><time>2026-04-29T15:47:47Z</time></trkpt><trkpt lat="43.33721408720991" lon="-0.43827037882552394"><ele>181.8</ele><time>2026-04-29T15:47:48Z</time></trkpt><trkpt lat="43.33715040257026" lon="-0.438134189325619"><ele>182.0</ele><time>2026-04-29T15:47:50Z</time></trkpt><trkpt lat="43.337083353887365" lon="-0.43799805548147036"><ele>182.0</ele><time>2026-04-29T15:47:52Z</time></trkpt><trkpt lat="43.33700660594408" lon="-0.4378717604766788"><ele>182.0</ele><time>2026-04-29T15:47:54Z</time></trkpt><trkpt lat="43.33694059789243" lon="-0.43775609733257015"><ele>182.0</ele><time>2026-04-29T15:47:56Z</time></trkpt><trkpt lat="43.33689272304325" lon="-0.43769882916089725"><ele>182.0</ele><time>2026-04-29T15:47:58Z</time></trkpt><trkpt lat="43.3368131984336" lon="-0.43776543548281266"><ele>182.0</ele><time>2026-04-29T15:47:59Z</time></trkpt><trkpt lat="43.336748021326066" lon="-0.4378788373331704"><ele>181.6</ele><time>2026-04-29T15:48:01Z</time></trkpt><trkpt lat="43.33666205447331" lon="-0.43798156886111866"><ele>181.2</ele><time>2026-04-29T15:48:03Z</time></trkpt><trkpt lat="43.336583921912194" lon="-0.43808712442716174"><ele>180.8</ele><time>2026-04-29T15:48:05Z</time></trkpt><trkpt lat="43.336535645964936" lon="-0.43814989657061204"><ele>180.4</ele><time>2026-04-29T15:48:06Z</time></trkpt><trkpt lat="43.33648805862023" lon="-0.43820753170261756"><ele>180.0</ele><time>2026-04-29T15:48:07Z</time></trkpt><trkpt lat="43.3363877397974" lon="-0.43828506112611515"><ele>180.25</ele><time>2026-04-29T15:48:09Z</time></trkpt><trkpt lat="43.33630455182414" lon="-0.4384099208054436"><ele>180.5</ele><time>2026-04-29T15:48:11Z</time></trkpt><trkpt lat="43.33622487092517" lon="-0.4383042185211234"><ele>180.75</ele><time>2026-04-29T15:48:12Z</time></trkpt><trkpt lat="43.33614991525696" lon="-0.4381935679495148"><ele>181.0</ele><time>2026-04-29T15:48:14Z</time></trkpt><trkpt lat="43.33610328077246" lon="-0.43804392108497797"><ele>181.0</ele><time>2026-04-29T15:48:16Z</time></trkpt><trkpt lat="43.33605901156317" lon="-0.4379039526950967"><ele>181.0</ele><time>2026-04-29T15:48:18Z</time></trkpt><trkpt lat="43.33598424776634" lon="-0.4377257205711281"><ele>181.0</ele><time>2026-04-29T15:48:21Z</time></trkpt><trkpt lat="43.33593219144268" lon="-0.43759652886740774"><ele>181.0</ele><time>2026-04-29T15:48:23Z</time></trkpt><trkpt lat="43.33587792324776" lon="-0.4374636617005101"><ele>181.0</ele><time>2026-04-29T15:48:25Z</time></trkpt><trkpt lat="43.33582016798981" lon="-0.4373386151165738"><ele>181.0</ele><time>2026-04-29T15:48:27Z</time></trkpt><trkpt lat="43.3357616056752" lon="-0.4372059607257456"><ele>181.0</ele><time>2026-04-29T15:48:29Z</time></trkpt><trkpt lat="43.335706785460296" lon="-0.43706003312505015"><ele>181.0</ele><time>2026-04-29T15:48:31Z</time></trkpt><trkpt lat="43.335651996114215" lon="-0.43692598117682624"><ele>181.20000000000002</ele><time>2026-04-29T15:48:33Z</time></trkpt><trkpt lat="43.33558915784811" lon="-0.43680753933959887"><ele>181.4</ele><time>2026-04-29T15:48:35Z</time></trkpt><trkpt lat="43.33551963189444" lon="-0.4366747710658255"><ele>181.6</ele><time>2026-04-29T15:48:37Z</time></trkpt><trkpt lat="43.3354561165283" lon="-0.43656516211537266"><ele>181.8</ele><time>2026-04-29T15:48:39Z</time></trkpt><trkpt lat="43.335385014461245" lon="-0.43647431945711296"><ele>182.0</ele><time>2026-04-29T15:48:41Z</time></trkpt><trkpt lat="43.335324067103585" lon="-0.43638378285900836"><ele>181.83333333333331</ele><time>2026-04-29T15:48:43Z</time></trkpt><trkpt lat="43.33527197777816" lon="-0.43630926504444395"><ele>181.66666666666666</ele><time>2026-04-29T15:48:45Z</time></trkpt><trkpt lat="43.335204996716456" lon="-0.4362391562381003"><ele>181.5</ele><time>2026-04-29T15:48:48Z</time></trkpt><trkpt lat="43.33513538600352" lon="-0.4362262637289881"><ele>181.33333333333334</ele><time>2026-04-29T15:48:50Z</time></trkpt><trkpt lat="43.33507756428492" lon="-0.4361709241757241"><ele>181.16666666666669</ele><time>2026-04-29T15:48:52Z</time></trkpt><trkpt lat="43.335007102278055" lon="-0.4363062913356672"><ele>181.0</ele><time>2026-04-29T15:48:53Z</time></trkpt><trkpt lat="43.334914502539796" lon="-0.436414968813128"><ele>180.66666666666669</ele><time>2026-04-29T15:48:55Z</time></trkpt><trkpt lat="43.33484620547816" lon="-0.4364702188390876"><ele>180.33333333333334</ele><time>2026-04-29T15:48:56Z</time></trkpt><trkpt lat="43.33478274033408" lon="-0.43650106718102"><ele>180.0</ele><time>2026-04-29T15:48:57Z</time></trkpt><trkpt lat="43.33470940179714" lon="-0.4365593715603494"><ele>179.66666666666666</ele><time>2026-04-29T15:48:58Z</time></trkpt><trkpt lat="43.33462212486779" lon="-0.4366257656416928"><ele>179.33333333333331</ele><time>2026-04-29T15:48:59Z</time></trkpt><trkpt lat="43.33454514161388" lon="-0.4366640347760232"><ele>179.0</ele><time>2026-04-29T15:49:00Z</time></trkpt><trkpt lat="43.33446607075679" lon="-0.43670663634762225"><ele>178.16666666666666</ele><time>2026-04-29T15:49:01Z</time></trkpt><trkpt lat="43.3343915387215" lon="-0.43674164176015223"><ele>177.33333333333331</ele><time>2026-04-29T15:49:02Z</time></trkpt><trkpt lat="43.334321018995375" lon="-0.436766192665791"><ele>176.5</ele><time>2026-04-29T15:49:03Z</time></trkpt><trkpt lat="43.33423949599458" lon="-0.4367974529926041"><ele>175.66666666666666</ele><time>2026-04-29T15:49:04Z</time></trkpt><trkpt lat="43.334160699860455" lon="-0.4368258447690726"><ele>174.83333333333334</ele><time>2026-04-29T15:49:05Z</time></trkpt><trkpt lat="43.3340844337368" lon="-0.4368455650936552"><ele>174.0</ele><time>2026-04-29T15:49:06Z</time></trkpt><trkpt lat="43.3340063486735" lon="-0.43686727219354515"><ele>174.0</ele><time>2026-04-29T15:49:07Z</time></trkpt><trkpt lat="43.33392722363433" lon="-0.4368969868822097"><ele>174.0</ele><time>2026-04-29T15:49:08Z</time></trkpt><trkpt lat="43.333852992633076" lon="-0.43692674442447804"><ele>174.0</ele><time>2026-04-29T15:49:09Z</time></trkpt><trkpt lat="43.333740002084234" lon="-0.43698904021431884"><ele>174.0</ele><time>2026-04-29T15:49:11Z</time></trkpt><trkpt lat="43.33362962707245" lon="-0.43702834785578065"><ele>174.0</ele><time>2026-04-29T15:49:13Z</time></trkpt><trkpt lat="43.333551003096346" lon="-0.43708254322797624"><ele>171.79999999999998</ele><time>2026-04-29T15:49:15Z</time></trkpt><trkpt lat="43.333458742774035" lon="-0.4371390390689777"><ele>169.6</ele><time>2026-04-29T15:49:17Z</time></trkpt><trkpt lat="43.33335853219526" lon="-0.4372055006332426"><ele>167.4</ele><time>2026-04-29T15:49:19Z</time></trkpt><trkpt lat="43.33329682836886" lon="-0.4372384468156559"><ele>165.2</ele><time>2026-04-29T15:49:20Z</time></trkpt><trkpt lat="43.33320372517828" lon="-0.4373100884398903"><ele>163.0</ele><time>2026-04-29T15:49:22Z</time></trkpt><trkpt lat="43.33310802481143" lon="-0.43738815817694554"><ele>162.60000000000002</ele><time>2026-04-29T15:49:24Z</time></trkpt><trkpt lat="43.333028953187664" lon="-0.43744319678247456"><ele>162.20000000000002</ele><time>2026-04-29T15:49:26Z</time></trkpt><trkpt lat="43.332960523256745" lon="-0.4374984720676131"><ele>161.8</ele><time>2026-04-29T15:49:37Z</time></trkpt><trkpt lat="43.33290822425682" lon="-0.4375475054233235"><ele>161.4</ele><time>2026-04-29T15:49:40Z</time></trkpt><trkpt lat="43.33279081854594" lon="-0.4373999861067412"><ele>161.0</ele><time>2026-04-29T15:49:44Z</time></trkpt><trkpt lat="43.33275315039582" lon="-0.43731530317407236"><ele>161.0</ele><time>2026-04-29T15:49:46Z</time></trkpt><trkpt lat="43.33270485990198" lon="-0.43724410096727057"><ele>161.0</ele><time>2026-04-29T15:49:47Z</time></trkpt><trkpt lat="43.33264842173908" lon="-0.4370982390525621"><ele>161.0</ele><time>2026-04-29T15:49:49Z</time></trkpt><trkpt lat="43.332602238647375" lon="-0.43696416555476525"><ele>161.0</ele><time>2026-04-29T15:49:51Z</time></trkpt><trkpt lat="43.33256752709636" lon="-0.4368335170388306"><ele>161.0</ele><time>2026-04-29T15:49:53Z</time></trkpt><trkpt lat="43.33246834586003" lon="-0.4366451120757207"><ele>161.0</ele><time>2026-04-29T15:49:56Z</time></trkpt><trkpt lat="43.33239621261949" lon="-0.43653193011230196"><ele>161.0</ele><time>2026-04-29T15:49:58Z</time></trkpt><trkpt lat="43.33235981194548" lon="-0.4364442330998857"><ele>161.0</ele><time>2026-04-29T15:49:59Z</time></trkpt><trkpt lat="43.332327503876265" lon="-0.43636779217368676"><ele>161.0</ele><time>2026-04-29T15:50:00Z</time></trkpt><trkpt lat="43.332251609025725" lon="-0.43626114936813115"><ele>161.0</ele><time>2026-04-29T15:50:02Z</time></trkpt><trkpt lat="43.332185725803946" lon="-0.43611799189714995"><ele>160.60000000000002</ele><time>2026-04-29T15:50:04Z</time></trkpt><trkpt lat="43.332147014152504" lon="-0.4360473377652345"><ele>160.20000000000002</ele><time>2026-04-29T15:50:05Z</time></trkpt><trkpt lat="43.33205371218101" lon="-0.4359425937062251"><ele>159.8</ele><time>2026-04-29T15:50:07Z</time></trkpt><trkpt lat="43.33198444075702" lon="-0.4358029413511185"><ele>159.4</ele><time>2026-04-29T15:50:09Z</time></trkpt><trkpt lat="43.33192697788904" lon="-0.43575821226115136"><ele>159.0</ele><time>2026-04-29T15:50:10Z</time></trkpt><trkpt lat="43.331825001704445" lon="-0.43566086150784933"><ele>159.0</ele><time>2026-04-29T15:50:12Z</time></trkpt><trkpt lat="43.33175895638597" lon="-0.4356109447363299"><ele>159.0</ele><time>2026-04-29T15:50:13Z</time></trkpt><trkpt lat="43.33164566758589" lon="-0.4356163433150399"><ele>159.0</ele><time>2026-04-29T15:50:15Z</time></trkpt><trkpt lat="43.33157037710437" lon="-0.43562163663622633"><ele>159.0</ele><time>2026-04-29T15:50:16Z</time></trkpt><trkpt lat="43.33150395449323" lon="-0.43561140236445217"><ele>159.0</ele><time>2026-04-29T15:50:17Z</time></trkpt><trkpt lat="43.33143148970592" lon="-0.4356100512510782"><ele>159.0</ele><time>2026-04-29T15:50:18Z</time></trkpt><trkpt lat="43.331362544536816" lon="-0.4356120653612678"><ele>158.5</ele><time>2026-04-29T15:50:19Z</time></trkpt><trkpt lat="43.33129299869495" lon="-0.43562024008474254"><ele>158.0</ele><time>2026-04-29T15:50:20Z</time></trkpt><trkpt lat="43.33122106545049" lon="-0.4356198082856398"><ele>157.5</ele><time>2026-04-29T15:50:21Z</time></trkpt><trkpt lat="43.33109612982427" lon="-0.4356445371021061"><ele>157.0</ele><time>2026-04-29T15:50:23Z</time></trkpt><trkpt lat="43.331030894226416" lon="-0.435659011463388"><ele>156.5</ele><time>2026-04-29T15:50:24Z</time></trkpt><trkpt lat="43.33096740394316" lon="-0.43568047132013354"><ele>156.0</ele><time>2026-04-29T15:50:25Z</time></trkpt><trkpt lat="43.330858649938754" lon="-0.43572684319946986"><ele>156.0</ele><time>2026-04-29T15:50:27Z</time></trkpt><trkpt lat="43.33074801802642" lon="-0.4357669126654461"><ele>156.0</ele><time>2026-04-29T15:50:29Z</time></trkpt><trkpt lat="43.33066761953201" lon="-0.4358106610781631"><ele>156.0</ele><time>2026-04-29T15:50:31Z</time></trkpt><trkpt lat="43.33058523517125" lon="-0.4357970758332619"><ele>156.0</ele><time>2026-04-29T15:50:34Z</time></trkpt><trkpt lat="43.33055693582405" lon="-0.43564358134213943"><ele>156.0</ele><time>2026-04-29T15:50:37Z</time></trkpt><trkpt lat="43.33056716916547" lon="-0.43551009214847775"><ele>155.6</ele><time>2026-04-29T15:50:39Z</time></trkpt><trkpt lat="43.33057264869545" lon="-0.435364604426842"><ele>155.2</ele><time>2026-04-29T15:50:41Z</time></trkpt><trkpt lat="43.330578521880966" lon="-0.43522461592144945"><ele>154.8</ele><time>2026-04-29T15:50:43Z</time></trkpt><trkpt lat="43.33057683124461" lon="-0.4350795868334187"><ele>154.4</ele><time>2026-04-29T15:50:45Z</time></trkpt><trkpt lat="43.33057825297684" lon="-0.4349314358662845"><ele>154.0</ele><time>2026-04-29T15:50:47Z</time></trkpt><trkpt lat="43.3305775947366" lon="-0.4347766358423672"><ele>154.4</ele><time>2026-04-29T15:50:49Z</time></trkpt><trkpt lat="43.330577052814554" lon="-0.4346258048239867"><ele>154.8</ele><time>2026-04-29T15:50:51Z</time></trkpt><trkpt lat="43.3305823260432" lon="-0.4344722592616415"><ele>155.2</ele><time>2026-04-29T15:50:53Z</time></trkpt><trkpt lat="43.33058069837718" lon="-0.43432080821584085"><ele>155.6</ele><time>2026-04-29T15:50:55Z</time></trkpt><trkpt lat="43.33058200482491" lon="-0.43416676120219794"><ele>156.0</ele><time>2026-04-29T15:50:57Z</time></trkpt><trkpt lat="43.33058093743872" lon="-0.43400519029160506"><ele>156.0</ele><time>2026-04-29T15:50:59Z</time></trkpt><trkpt lat="43.330581800552395" lon="-0.4338476546504203"><ele>156.0</ele><time>2026-04-29T15:51:01Z</time></trkpt><trkpt lat="43.33058501577569" lon="-0.43375607190265686"><ele>156.0</ele><time>2026-04-29T15:51:02Z</time></trkpt><trkpt lat="43.33059248455446" lon="-0.4335863155399301"><ele>156.0</ele><time>2026-04-29T15:51:04.001Z</time></trkpt><trkpt lat="43.33058798110768" lon="-0.4334211435470802"><ele>156.0</ele><time>2026-04-29T15:51:06.001Z</time></trkpt><trkpt lat="43.330588184637996" lon="-0.4332547379884314"><ele>155.75</ele><time>2026-04-29T15:51:08.001Z</time></trkpt><trkpt lat="43.33059384802826" lon="-0.4330944161074616"><ele>155.5</ele><time>2026-04-29T15:51:10.001Z</time></trkpt><trkpt lat="43.33060992685283" lon="-0.43292677551924247"><ele>155.25</ele><time>2026-04-29T15:51:12Z</time></trkpt><trkpt lat="43.33063691462207" lon="-0.43276318522713275"><ele>155.0</ele><time>2026-04-29T15:51:14Z</time></trkpt><trkpt lat="43.33067974605188" lon="-0.432605959616063"><ele>156.0</ele><time>2026-04-29T15:51:16Z</time></trkpt><trkpt lat="43.33070791729559" lon="-0.43244362243225176"><ele>157.0</ele><time>2026-04-29T15:51:18Z</time></trkpt><trkpt lat="43.33074500244559" lon="-0.43229250259286395"><ele>158.0</ele><time>2026-04-29T15:51:20Z</time></trkpt><trkpt lat="43.33077857208953" lon="-0.4321394975460999"><ele>159.0</ele><time>2026-04-29T15:51:22Z</time></trkpt><trkpt lat="43.330815427573995" lon="-0.43200183433016826"><ele>159.75</ele><time>2026-04-29T15:51:24Z</time></trkpt><trkpt lat="43.33089706816798" lon="-0.43191400918494954"><ele>160.5</ele><time>2026-04-29T15:51:26Z</time></trkpt><trkpt lat="43.331009257518524" lon="-0.43180096651663213"><ele>161.25</ele><time>2026-04-29T15:51:29Z</time></trkpt><trkpt lat="43.33101214696259" lon="-0.43162337877990364"><ele>162.0</ele><time>2026-04-29T15:51:32Z</time></trkpt><trkpt lat="43.331016355282095" lon="-0.4314748904292321"><ele>162.0</ele><time>2026-04-29T15:51:34Z</time></trkpt><trkpt lat="43.3310063896783" lon="-0.43130968011262644"><ele>162.0</ele><time>2026-04-29T15:51:36Z</time></trkpt><trkpt lat="43.330988846512334" lon="-0.4311439065350292"><ele>162.0</ele><time>2026-04-29T15:51:38Z</time></trkpt><trkpt lat="43.33098106988456" lon="-0.43098284703999556"><ele>162.0</ele><time>2026-04-29T15:51:40Z</time></trkpt><trkpt lat="43.3309553615038" lon="-0.4308272826366982"><ele>162.2</ele><time>2026-04-29T15:51:42Z</time></trkpt><trkpt lat="43.33091880644182" lon="-0.43067722879315207"><ele>162.39999999999998</ele><time>2026-04-29T15:51:44Z</time></trkpt><trkpt lat="43.330877507319755" lon="-0.43051899422308926"><ele>162.60000000000002</ele><time>2026-04-29T15:51:46Z</time></trkpt><trkpt lat="43.33085536264382" lon="-0.4303891558911432"><ele>162.8</ele><time>2026-04-29T15:51:48Z</time></trkpt><trkpt lat="43.33082512128142" lon="-0.4302900502802123"><ele>163.0</ele><time>2026-04-29T15:51:50Z</time></trkpt><trkpt lat="43.33080273151855" lon="-0.430179160925452"><ele>163.60000000000002</ele><time>2026-04-29T15:51:53Z</time></trkpt><trkpt lat="43.330773748399146" lon="-0.43009036120699345"><ele>164.20000000000002</ele><time>2026-04-29T15:51:55Z</time></trkpt><trkpt lat="43.33073758597343" lon="-0.4299670049856937"><ele>164.8</ele><time>2026-04-29T15:51:57Z</time></trkpt><trkpt lat="43.330690043540734" lon="-0.4298988584468357"><ele>165.4</ele><time>2026-04-29T15:51:59Z</time></trkpt><trkpt lat="43.33057645612353" lon="-0.4299109016207158"><ele>166.0</ele><time>2026-04-29T15:52:01Z</time></trkpt><trkpt lat="43.330451624936956" lon="-0.42993646215950454"><ele>164.8</ele><time>2026-04-29T15:52:03Z</time></trkpt><trkpt lat="43.33034222038117" lon="-0.4299667702017509"><ele>163.60000000000002</ele><time>2026-04-29T15:52:05Z</time></trkpt><trkpt lat="43.330277258067" lon="-0.4299758124840251"><ele>162.4</ele><time>2026-04-29T15:52:06Z</time></trkpt><trkpt lat="43.33021753883112" lon="-0.4300084727536445"><ele>161.2</ele><time>2026-04-29T15:52:07Z</time></trkpt><trkpt lat="43.330106167680256" lon="-0.43006453381372184"><ele>160.0</ele><time>2026-04-29T15:52:09Z</time></trkpt><trkpt lat="43.329981083691365" lon="-0.4300846684851484"><ele>160.0</ele><time>2026-04-29T15:52:11Z</time></trkpt><trkpt lat="43.32987350113326" lon="-0.43004532438778337"><ele>160.0</ele><time>2026-04-29T15:52:13Z</time></trkpt><trkpt lat="43.329766236715535" lon="-0.4299978409134393"><ele>160.0</ele><time>2026-04-29T15:52:15Z</time></trkpt><trkpt lat="43.329647708281385" lon="-0.42997103346495164"><ele>160.0</ele><time>2026-04-29T15:52:17Z</time></trkpt><trkpt lat="43.329528995407756" lon="-0.42993924488639956"><ele>159.5</ele><time>2026-04-29T15:52:19Z</time></trkpt><trkpt lat="43.329411600737544" lon="-0.4299020749966722"><ele>159.0</ele><time>2026-04-29T15:52:21Z</time></trkpt><trkpt lat="43.329295957932935" lon="-0.42987625498848353"><ele>158.5</ele><time>2026-04-29T15:52:23Z</time></trkpt><trkpt lat="43.32918482657841" lon="-0.4298480033644333"><ele>158.0</ele><time>2026-04-29T15:52:25Z</time></trkpt><trkpt lat="43.329076607409064" lon="-0.4298199155687952"><ele>158.0</ele><time>2026-04-29T15:52:27Z</time></trkpt><trkpt lat="43.32896663602922" lon="-0.42979495667725653"><ele>158.0</ele><time>2026-04-29T15:52:29Z</time></trkpt><trkpt lat="43.32885713900607" lon="-0.42976304371484736"><ele>158.0</ele><time>2026-04-29T15:52:31Z</time></trkpt><trkpt lat="43.32874978049443" lon="-0.4297357973350101"><ele>158.0</ele><time>2026-04-29T15:52:33Z</time></trkpt><trkpt lat="43.32864520415437" lon="-0.429710982868947"><ele>158.0</ele><time>2026-04-29T15:52:35Z</time></trkpt><trkpt lat="43.32854255748357" lon="-0.429675180515612"><ele>158.0</ele><time>2026-04-29T15:52:37Z</time></trkpt><trkpt lat="43.32843218761714" lon="-0.42964990466055997"><ele>158.0</ele><time>2026-04-29T15:52:39Z</time></trkpt><trkpt lat="43.32832093631508" lon="-0.42962043499960906"><ele>158.0</ele><time>2026-04-29T15:52:41Z</time></trkpt><trkpt lat="43.32821585484378" lon="-0.4295939891726293"><ele>158.0</ele><time>2026-04-29T15:52:43Z</time></trkpt><trkpt lat="43.32812220561362" lon="-0.42958115307883077"><ele>158.0</ele><time>2026-04-29T15:52:45Z</time></trkpt><trkpt lat="43.3280326897811" lon="-0.429561023930412"><ele>158.25</ele><time>2026-04-29T15:52:47Z</time></trkpt><trkpt lat="43.3279323756101" lon="-0.42953406784897175"><ele>158.5</ele><time>2026-04-29T15:52:49Z</time></trkpt><trkpt lat="43.3278217310178" lon="-0.42950428703300103"><ele>158.75</ele><time>2026-04-29T15:52:51Z</time></trkpt><trkpt lat="43.32770676717418" lon="-0.42947299995427984"><ele>159.0</ele><time>2026-04-29T15:52:53Z</time></trkpt><trkpt lat="43.327587140810834" lon="-0.4294404439839024"><ele>159.0</ele><time>2026-04-29T15:52:55Z</time></trkpt><trkpt lat="43.32746472194525" lon="-0.4294080228574297"><ele>159.0</ele><time>2026-04-29T15:52:57Z</time></trkpt><trkpt lat="43.32739957548771" lon="-0.42943475427271455"><ele>159.0</ele><time>2026-04-29T15:52:58Z</time></trkpt><trkpt lat="43.32728093590717" lon="-0.42940705082184366"><ele>159.0</ele><time>2026-04-29T15:53:00Z</time></trkpt><trkpt lat="43.32716438363027" lon="-0.42936656928161415"><ele>159.0</ele><time>2026-04-29T15:53:02Z</time></trkpt><trkpt lat="43.32704639037298" lon="-0.42932555078499707"><ele>158.42857142857142</ele><time>2026-04-29T15:53:04.001Z</time></trkpt><trkpt lat="43.32698638336714" lon="-0.42928192522570785"><ele>157.85714285714286</ele><time>2026-04-29T15:53:05.001Z</time></trkpt><trkpt lat="43.32692415343953" lon="-0.42926532004158696"><ele>157.28571428571428</ele><time>2026-04-29T15:53:06.001Z</time></trkpt><trkpt lat="43.32686184066382" lon="-0.42924839115369445"><ele>156.71428571428572</ele><time>2026-04-29T15:53:07.001Z</time></trkpt><trkpt lat="43.3267983902263" lon="-0.42923115322852373"><ele>156.14285714285714</ele><time>2026-04-29T15:53:08.001Z</time></trkpt><trkpt lat="43.32673428448976" lon="-0.42921373727553014"><ele>155.57142857142858</ele><time>2026-04-29T15:53:09.001Z</time></trkpt><trkpt lat="43.32666694532771" lon="-0.42919544287898886"><ele>155.0</ele><time>2026-04-29T15:53:10.001Z</time></trkpt><trkpt lat="43.326597195689075" lon="-0.429193257322315"><ele>155.0</ele><time>2026-04-29T15:53:11.001Z</time></trkpt><trkpt lat="43.32652675227321" lon="-0.4291770167078824"><ele>155.0</ele><time>2026-04-29T15:53:12.001Z</time></trkpt><trkpt lat="43.32646252096554" lon="-0.4291509399386135"><ele>155.0</ele><time>2026-04-29T15:53:13.001Z</time></trkpt><trkpt lat="43.32639336239773" lon="-0.42914331526399807"><ele>155.0</ele><time>2026-04-29T15:53:14.001Z</time></trkpt><trkpt lat="43.32632827158767" lon="-0.42912500931644365"><ele>155.0</ele><time>2026-04-29T15:53:15.001Z</time></trkpt><trkpt lat="43.32626442793812" lon="-0.4291041997427365"><ele>155.0</ele><time>2026-04-29T15:53:16.001Z</time></trkpt><trkpt lat="43.326200230429535" lon="-0.42908987920486263"><ele>155.0</ele><time>2026-04-29T15:53:17.001Z</time></trkpt><trkpt lat="43.32613789709205" lon="-0.42907298683638323"><ele>154.75</ele><time>2026-04-29T15:53:18Z</time></trkpt><trkpt lat="43.32601612342265" lon="-0.42903655794415113"><ele>154.5</ele><time>2026-04-29T15:53:20Z</time></trkpt><trkpt lat="43.325897851494325" lon="-0.4290100870899267"><ele>154.25</ele><time>2026-04-29T15:53:22Z</time></trkpt><trkpt lat="43.325779987841265" lon="-0.42898027865681687"><ele>154.0</ele><time>2026-04-29T15:53:24Z</time></trkpt><trkpt lat="43.32566788061454" lon="-0.4289595462901675"><ele>154.75</ele><time>2026-04-29T15:53:26Z</time></trkpt><trkpt lat="43.32555653795217" lon="-0.4289272165132408"><ele>155.5</ele><time>2026-04-29T15:53:28Z</time></trkpt><trkpt lat="43.32544646664363" lon="-0.42890139480816336"><ele>156.25</ele><time>2026-04-29T15:53:30Z</time></trkpt><trkpt lat="43.32533740046021" lon="-0.4288781237799897"><ele>157.0</ele><time>2026-04-29T15:53:32Z</time></trkpt><trkpt lat="43.325222995006925" lon="-0.4288466752787788"><ele>157.0</ele><time>2026-04-29T15:53:34Z</time></trkpt><trkpt lat="43.32510080174231" lon="-0.4288143675586016"><ele>157.0</ele><time>2026-04-29T15:53:36Z</time></trkpt><trkpt lat="43.32499023598136" lon="-0.42878644178490466"><ele>157.0</ele><time>2026-04-29T15:53:38Z</time></trkpt><trkpt lat="43.32489154393051" lon="-0.428760054164459"><ele>157.0</ele><time>2026-04-29T15:53:40Z</time></trkpt><trkpt lat="43.32480047271986" lon="-0.4287323060197244"><ele>157.0</ele><time>2026-04-29T15:53:42Z</time></trkpt><trkpt lat="43.3247167418844" lon="-0.4287207384873589"><ele>156.75</ele><time>2026-04-29T15:53:44Z</time></trkpt><trkpt lat="43.32477930539458" lon="-0.42862082723887934"><ele>156.5</ele><time>2026-04-29T15:54:01Z</time></trkpt><trkpt lat="43.324962569807774" lon="-0.42866898024202216"><ele>156.25</ele><time>2026-04-29T15:54:05Z</time></trkpt><trkpt lat="43.325079912956994" lon="-0.4286977282605097"><ele>156.0</ele><time>2026-04-29T15:54:07Z</time></trkpt><trkpt lat="43.32514172370513" lon="-0.42871779546765043"><ele>156.0</ele><time>2026-04-29T15:54:08Z</time></trkpt><trkpt lat="43.32520692960029" lon="-0.42873557989809946"><ele>156.0</ele><time>2026-04-29T15:54:09Z</time></trkpt><trkpt lat="43.32527188096812" lon="-0.42875523382615605"><ele>156.0</ele><time>2026-04-29T15:54:10Z</time></trkpt><trkpt lat="43.32533962070341" lon="-0.42876735186640674"><ele>156.0</ele><time>2026-04-29T15:54:11Z</time></trkpt><trkpt lat="43.325408170388144" lon="-0.42877948645722347"><ele>156.0</ele><time>2026-04-29T15:54:12Z</time></trkpt><trkpt lat="43.3254829909251" lon="-0.42879684986529587"><ele>156.0</ele><time>2026-04-29T15:54:13Z</time></trkpt><trkpt lat="43.32554798854656" lon="-0.4288154121010377"><ele>156.0</ele><time>2026-04-29T15:54:14Z</time></trkpt><trkpt lat="43.32561826485898" lon="-0.4288343869762033"><ele>155.71428571428572</ele><time>2026-04-29T15:54:15Z</time></trkpt><trkpt lat="43.325686917588875" lon="-0.42886314826545074"><ele>155.42857142857142</ele><time>2026-04-29T15:54:16Z</time></trkpt><trkpt lat="43.32575222628566" lon="-0.42887999949706923"><ele>155.14285714285714</ele><time>2026-04-29T15:54:17Z</time></trkpt><trkpt lat="43.32582324331833" lon="-0.4289028048501573"><ele>154.85714285714286</ele><time>2026-04-29T15:54:18Z</time></trkpt><trkpt lat="43.32589446029698" lon="-0.42891801394303847"><ele>154.57142857142856</ele><time>2026-04-29T15:54:19Z</time></trkpt><trkpt lat="43.32596222404292" lon="-0.4289399279285523"><ele>154.28571428571428</ele><time>2026-04-29T15:54:20Z</time></trkpt><trkpt lat="43.32603291455306" lon="-0.4289576090343997"><ele>154.0</ele><time>2026-04-29T15:54:21Z</time></trkpt><trkpt lat="43.32610100120462" lon="-0.42897678131590583"><ele>154.0</ele><time>2026-04-29T15:54:22Z</time></trkpt><trkpt lat="43.32617175668175" lon="-0.4289959962862123"><ele>154.0</ele><time>2026-04-29T15:54:23Z</time></trkpt><trkpt lat="43.32624178631657" lon="-0.42901513834931926"><ele>154.0</ele><time>2026-04-29T15:54:24Z</time></trkpt><trkpt lat="43.32631009450514" lon="-0.42903335991636116"><ele>154.0</ele><time>2026-04-29T15:54:25Z</time></trkpt><trkpt lat="43.326375614731454" lon="-0.42906073837611525"><ele>154.0</ele><time>2026-04-29T15:54:26Z</time></trkpt><trkpt lat="43.326449872627144" lon="-0.42907709298422175"><ele>154.0</ele><time>2026-04-29T15:54:27Z</time></trkpt><trkpt lat="43.32652115859491" lon="-0.42909836420137876"><ele>154.0</ele><time>2026-04-29T15:54:28Z</time></trkpt><trkpt lat="43.326592446064375" lon="-0.4291198653546017"><ele>154.14285714285714</ele><time>2026-04-29T15:54:29Z</time></trkpt><trkpt lat="43.32666789683465" lon="-0.4291366381734931"><ele>154.28571428571428</ele><time>2026-04-29T15:54:30Z</time></trkpt><trkpt lat="43.32674061926089" lon="-0.4291563407936637"><ele>154.42857142857144</ele><time>2026-04-29T15:54:31Z</time></trkpt><trkpt lat="43.326813486202" lon="-0.42917315255181543"><ele>154.57142857142856</ele><time>2026-04-29T15:54:32Z</time></trkpt><trkpt lat="43.32688648969529" lon="-0.4291881566487091"><ele>154.71428571428572</ele><time>2026-04-29T15:54:33Z</time></trkpt><trkpt lat="43.32695569949412" lon="-0.42920842534870757"><ele>154.85714285714286</ele><time>2026-04-29T15:54:34Z</time></trkpt><trkpt lat="43.32702562203778" lon="-0.4292300716364813"><ele>155.0</ele><time>2026-04-29T15:54:35Z</time></trkpt><trkpt lat="43.327095918148046" lon="-0.4292493200870259"><ele>155.0</ele><time>2026-04-29T15:54:36Z</time></trkpt><trkpt lat="43.327167137076394" lon="-0.4292688535677931"><ele>155.0</ele><time>2026-04-29T15:54:37Z</time></trkpt><trkpt lat="43.32723789751368" lon="-0.42928464213510475"><ele>155.0</ele><time>2026-04-29T15:54:38Z</time></trkpt><trkpt lat="43.32730863625029" lon="-0.42930256878292944"><ele>155.0</ele><time>2026-04-29T15:54:39Z</time></trkpt><trkpt lat="43.32737952584403" lon="-0.4293190674206494"><ele>155.0</ele><time>2026-04-29T15:54:40Z</time></trkpt><trkpt lat="43.32745157249273" lon="-0.42934038504500244"><ele>155.0</ele><time>2026-04-29T15:54:41.001Z</time></trkpt><trkpt lat="43.32751929535283" lon="-0.4293542164776523"><ele>155.0</ele><time>2026-04-29T15:54:42.001Z</time></trkpt><trkpt lat="43.32758984121056" lon="-0.4293701436211455"><ele>155.8</ele><time>2026-04-29T15:54:43.001Z</time></trkpt><trkpt lat="43.32765566208365" lon="-0.4293924607646934"><ele>156.6</ele><time>2026-04-29T15:54:44.001Z</time></trkpt><trkpt lat="43.32772607382673" lon="-0.4294077103362324"><ele>157.4</ele><time>2026-04-29T15:54:45.001Z</time></trkpt><trkpt lat="43.32786074092794" lon="-0.4294321094876542"><ele>158.2</ele><time>2026-04-29T15:54:47.001Z</time></trkpt><trkpt lat="43.3279817313774" lon="-0.4294694091167727"><ele>159.0</ele><time>2026-04-29T15:54:49.001Z</time></trkpt><trkpt lat="43.32804825882758" lon="-0.42948625406068863"><ele>158.85714285714286</ele><time>2026-04-29T15:54:50.001Z</time></trkpt><trkpt lat="43.32811303244401" lon="-0.42950422614067496"><ele>158.71428571428572</ele><time>2026-04-29T15:54:51.001Z</time></trkpt><trkpt lat="43.32817889681383" lon="-0.4295184436514343"><ele>158.57142857142858</ele><time>2026-04-29T15:54:52.001Z</time></trkpt><trkpt lat="43.32824496197529" lon="-0.4295372022007951"><ele>158.42857142857144</ele><time>2026-04-29T15:54:53.001Z</time></trkpt><trkpt lat="43.328307569829384" lon="-0.4295551650958919"><ele>158.28571428571428</ele><time>2026-04-29T15:54:54.001Z</time></trkpt><trkpt lat="43.32838497953242" lon="-0.4295787477893967"><ele>158.14285714285717</ele><time>2026-04-29T15:54:55.001Z</time></trkpt><trkpt lat="43.32845428043743" lon="-0.42960146264566357"><ele>158.0</ele><time>2026-04-29T15:54:56.001Z</time></trkpt><trkpt lat="43.32852533720392" lon="-0.4296191417896634"><ele>158.00000000000003</ele><time>2026-04-29T15:54:57.001Z</time></trkpt><trkpt lat="43.3285956710827" lon="-0.4296372491558384"><ele>158.0</ele><time>2026-04-29T15:54:58.001Z</time></trkpt><trkpt lat="43.32866547404399" lon="-0.429658625643096"><ele>158.0</ele><time>2026-04-29T15:54:59.001Z</time></trkpt><trkpt lat="43.3287358320563" lon="-0.429675591428807"><ele>158.0</ele><time>2026-04-29T15:55:00.001Z</time></trkpt><trkpt lat="43.32880675426554" lon="-0.42969379657294804"><ele>158.0</ele><time>2026-04-29T15:55:01.001Z</time></trkpt><trkpt lat="43.328879371372444" lon="-0.42971159316391383"><ele>158.00000000000003</ele><time>2026-04-29T15:55:02.001Z</time></trkpt><trkpt lat="43.328949900132365" lon="-0.4297340981735957"><ele>158.0</ele><time>2026-04-29T15:55:03.001Z</time></trkpt><trkpt lat="43.32902068220926" lon="-0.42975532750299966"><ele>158.00000000000003</ele><time>2026-04-29T15:55:04.001Z</time></trkpt><trkpt lat="43.3290931981446" lon="-0.4297774772472462"><ele>158.0</ele><time>2026-04-29T15:55:05.001Z</time></trkpt><trkpt lat="43.32916339271476" lon="-0.4297965883941627"><ele>158.0</ele><time>2026-04-29T15:55:06.001Z</time></trkpt><trkpt lat="43.32923688714994" lon="-0.429817859557012"><ele>158.0</ele><time>2026-04-29T15:55:07.001Z</time></trkpt><trkpt lat="43.329310569969195" lon="-0.4298344308253442"><ele>158.0</ele><time>2026-04-29T15:55:08.001Z</time></trkpt><trkpt lat="43.32938519429865" lon="-0.4298508970696045"><ele>158.00000000000003</ele><time>2026-04-29T15:55:09.001Z</time></trkpt><trkpt lat="43.329458605137475" lon="-0.4298711846471969"><ele>158.0</ele><time>2026-04-29T15:55:10.001Z</time></trkpt><trkpt lat="43.329528751830246" lon="-0.4298895440839268"><ele>158.00000000000003</ele><time>2026-04-29T15:55:11.001Z</time></trkpt><trkpt lat="43.32959810907517" lon="-0.4299095056595948"><ele>158.0</ele><time>2026-04-29T15:55:12.001Z</time></trkpt><trkpt lat="43.32966794305564" lon="-0.42993375014627067"><ele>158.0</ele><time>2026-04-29T15:55:13.001Z</time></trkpt><trkpt lat="43.32973697763119" lon="-0.4299518466335907"><ele>158.0</ele><time>2026-04-29T15:55:14.001Z</time></trkpt><trkpt lat="43.32980287992634" lon="-0.42997416344154765"><ele>158.0</ele><time>2026-04-29T15:55:15.001Z</time></trkpt><trkpt lat="43.329869510730646" lon="-0.42999583558158977"><ele>158.00000000000003</ele><time>2026-04-29T15:55:16.001Z</time></trkpt><trkpt lat="43.32993115197313" lon="-0.43001893488010584"><ele>158.0</ele><time>2026-04-29T15:55:17.001Z</time></trkpt><trkpt lat="43.32999639226235" lon="-0.4300360075734578"><ele>158.2857142857143</ele><time>2026-04-29T15:55:18.001Z</time></trkpt><trkpt lat="43.3300602638319" lon="-0.43004691335426165"><ele>158.57142857142858</ele><time>2026-04-29T15:55:19.001Z</time></trkpt><trkpt lat="43.33012304183197" lon="-0.4300327156583115"><ele>158.85714285714286</ele><time>2026-04-29T15:55:20.001Z</time></trkpt><trkpt lat="43.330184338570426" lon="-0.4299716384624025"><ele>159.14285714285717</ele><time>2026-04-29T15:55:21.001Z</time></trkpt><trkpt lat="43.33025149597177" lon="-0.42994072382571275"><ele>159.42857142857144</ele><time>2026-04-29T15:55:22.001Z</time></trkpt><trkpt lat="43.33031951978092" lon="-0.42994000375950003"><ele>159.71428571428572</ele><time>2026-04-29T15:55:23.001Z</time></trkpt><trkpt lat="43.33038831280644" lon="-0.42990892923914"><ele>160.0</ele><time>2026-04-29T15:55:24.001Z</time></trkpt><trkpt lat="43.33045687993005" lon="-0.42989167133302486"><ele>161.2</ele><time>2026-04-29T15:55:25.001Z</time></trkpt><trkpt lat="43.33058456590682" lon="-0.42987201237596545"><ele>162.4</ele><time>2026-04-29T15:55:27.001Z</time></trkpt><trkpt lat="43.33069867435565" lon="-0.4298562611328014"><ele>163.60000000000002</ele><time>2026-04-29T15:55:29.001Z</time></trkpt><trkpt lat="43.33077403102998" lon="-0.42994174529773216"><ele>164.8</ele><time>2026-04-29T15:55:31.001Z</time></trkpt><trkpt lat="43.33081910368054" lon="-0.4300105515946036"><ele>166.0</ele><time>2026-04-29T15:55:32.001Z</time></trkpt><trkpt lat="43.33087870054902" lon="-0.43014750218961506"><ele>166.0</ele><time>2026-04-29T15:55:34.001Z</time></trkpt><trkpt lat="43.33091658647523" lon="-0.43028765664037916"><ele>166.0</ele><time>2026-04-29T15:55:36.001Z</time></trkpt><trkpt lat="43.330967881432564" lon="-0.43041130992209914"><ele>166.0</ele><time>2026-04-29T15:55:38.001Z</time></trkpt><trkpt lat="43.331007051895995" lon="-0.4305241874141631"><ele>166.0</ele><time>2026-04-29T15:55:40Z</time></trkpt><trkpt lat="43.331045975584054" lon="-0.43062977621503196"><ele>166.0</ele><time>2026-04-29T15:55:42Z</time></trkpt><trkpt lat="43.33107972910069" lon="-0.43074880298844004"><ele>165.5</ele><time>2026-04-29T15:55:44Z</time></trkpt><trkpt lat="43.33111955512329" lon="-0.4308577434620712"><ele>165.0</ele><time>2026-04-29T15:55:46Z</time></trkpt><trkpt lat="43.33115787635481" lon="-0.4309721873502743"><ele>164.5</ele><time>2026-04-29T15:55:48Z</time></trkpt><trkpt lat="43.33119085361017" lon="-0.4310693642635101"><ele>164.0</ele><time>2026-04-29T15:55:50Z</time></trkpt><trkpt lat="43.33122684780144" lon="-0.4311740351588248"><ele>163.5</ele><time>2026-04-29T15:55:52Z</time></trkpt><trkpt lat="43.331256601555424" lon="-0.4312649457419554"><ele>163.0</ele><time>2026-04-29T15:55:54Z</time></trkpt><trkpt lat="43.331298083022276" lon="-0.43135909016547525"><ele>162.85714285714286</ele><time>2026-04-29T15:55:56Z</time></trkpt><trkpt lat="43.33135247247799" lon="-0.4314349497902369"><ele>162.7142857142857</ele><time>2026-04-29T15:55:58Z</time></trkpt><trkpt lat="43.331417116194295" lon="-0.43148111142846296"><ele>162.57142857142856</ele><time>2026-04-29T15:56:00Z</time></trkpt><trkpt lat="43.33149735132114" lon="-0.4314853448536468"><ele>162.42857142857144</ele><time>2026-04-29T15:56:02Z</time></trkpt><trkpt lat="43.33157473027157" lon="-0.43148817152199315"><ele>162.28571428571428</ele><time>2026-04-29T15:56:04Z</time></trkpt><trkpt lat="43.331634137284894" lon="-0.43145317958085644"><ele>162.14285714285714</ele><time>2026-04-29T15:56:06Z</time></trkpt><trkpt lat="43.33170094809981" lon="-0.4314099570615573"><ele>162.0</ele><time>2026-04-29T15:56:08Z</time></trkpt><trkpt lat="43.3317623453784" lon="-0.4313722083537667"><ele>164.5</ele><time>2026-04-29T15:56:10Z</time></trkpt><trkpt lat="43.33184546646978" lon="-0.43131921582538707"><ele>167.0</ele><time>2026-04-29T15:56:13Z</time></trkpt><trkpt lat="43.33190551233336" lon="-0.4312764529473016"><ele>169.5</ele><time>2026-04-29T15:56:15Z</time></trkpt><trkpt lat="43.33199737344793" lon="-0.43123209113038674"><ele>172.0</ele><time>2026-04-29T15:56:18Z</time></trkpt><trkpt lat="43.3320667224603" lon="-0.4311821835343135"><ele>174.5</ele><time>2026-04-29T15:56:21Z</time></trkpt><trkpt lat="43.332137281269965" lon="-0.43113022869857787"><ele>177.0</ele><time>2026-04-29T15:56:24Z</time></trkpt><trkpt lat="43.33220831491749" lon="-0.431084031482741"><ele>177.83333333333334</ele><time>2026-04-29T15:56:27Z</time></trkpt><trkpt lat="43.33227130870091" lon="-0.4310296369853095"><ele>178.66666666666666</ele><time>2026-04-29T15:56:30Z</time></trkpt><trkpt lat="43.33235028386682" lon="-0.4309457373284293"><ele>179.5</ele><time>2026-04-29T15:56:34Z</time></trkpt><trkpt lat="43.332390745897776" lon="-0.430873454323166"><ele>180.33333333333331</ele><time>2026-04-29T15:56:37Z</time></trkpt><trkpt lat="43.33244787443625" lon="-0.4307758627104549"><ele>181.16666666666666</ele><time>2026-04-29T15:56:40Z</time></trkpt><trkpt lat="43.332522466812" lon="-0.43069763119962784"><ele>182.0</ele><time>2026-04-29T15:56:43Z</time></trkpt><trkpt lat="43.332573098516804" lon="-0.43063344890057853"><ele>182.0</ele><time>2026-04-29T15:56:45Z</time></trkpt><trkpt lat="43.33261429404601" lon="-0.43055244616866206"><ele>182.0</ele><time>2026-04-29T15:56:47.001Z</time></trkpt><trkpt lat="43.332822084987086" lon="-0.43054355919388543"><ele>182.0</ele><time>2026-04-29T15:56:52.001Z</time></trkpt><trkpt lat="43.33290769000181" lon="-0.43047419042596763"><ele>182.0</ele><time>2026-04-29T15:56:54.001Z</time></trkpt><trkpt lat="43.33297715941627" lon="-0.4303642690398687"><ele>182.2</ele><time>2026-04-29T15:56:56.001Z</time></trkpt><trkpt lat="43.33301341227222" lon="-0.43023368136503587"><ele>182.39999999999998</ele><time>2026-04-29T15:56:58.001Z</time></trkpt><trkpt lat="43.333032014953275" lon="-0.43011140920496255"><ele>182.60000000000002</ele><time>2026-04-29T15:57:00.001Z</time></trkpt><trkpt lat="43.33305483924838" lon="-0.42999302859731586"><ele>182.8</ele><time>2026-04-29T15:57:02.001Z</time></trkpt><trkpt lat="43.3330501162504" lon="-0.4298781782639875"><ele>183.0</ele><time>2026-04-29T15:57:04.001Z</time></trkpt><trkpt lat="43.333077772383916" lon="-0.4297442019876129"><ele>183.33333333333334</ele><time>2026-04-29T15:57:06.001Z</time></trkpt><trkpt lat="43.333065980758384" lon="-0.4296364869044704"><ele>183.66666666666666</ele><time>2026-04-29T15:57:08.001Z</time></trkpt><trkpt lat="43.3330651383707" lon="-0.4295179802998407"><ele>184.0</ele><time>2026-04-29T15:57:10.001Z</time></trkpt><trkpt lat="43.333049791484115" lon="-0.42939681112236905"><ele>184.33333333333331</ele><time>2026-04-29T15:57:12.001Z</time></trkpt><trkpt lat="43.33303382519579" lon="-0.4292742377961239"><ele>184.66666666666666</ele><time>2026-04-29T15:57:14.001Z</time></trkpt><trkpt lat="43.333023471402996" lon="-0.4291427383202005"><ele>185.0</ele><time>2026-04-29T15:57:16.001Z</time></trkpt><trkpt lat="43.33303021162023" lon="-0.4289874365760925"><ele>185.0</ele><time>2026-04-29T15:57:18.001Z</time></trkpt><trkpt lat="43.33303588076689" lon="-0.42884461032923543"><ele>185.0</ele><time>2026-04-29T15:57:20.001Z</time></trkpt><trkpt lat="43.33302694718096" lon="-0.42870607741712474"><ele>185.0</ele><time>2026-04-29T15:57:22.001Z</time></trkpt><trkpt lat="43.333020120761624" lon="-0.42856360521937953"><ele>185.0</ele><time>2026-04-29T15:57:24.001Z</time></trkpt><trkpt lat="43.333013806322" lon="-0.4284209557949452"><ele>185.0</ele><time>2026-04-29T15:57:26.001Z</time></trkpt><trkpt lat="43.33298686729091" lon="-0.4282846239201003"><ele>185.2</ele><time>2026-04-29T15:57:28.001Z</time></trkpt><trkpt lat="43.332970256676894" lon="-0.42815080125585947"><ele>185.4</ele><time>2026-04-29T15:57:30Z</time></trkpt><trkpt lat="43.332967614827275" lon="-0.4280103251518106"><ele>185.60000000000002</ele><time>2026-04-29T15:57:32Z</time></trkpt><trkpt lat="43.332946249489545" lon="-0.42788202224484884"><ele>185.8</ele><time>2026-04-29T15:57:34Z</time></trkpt><trkpt lat="43.332931936257154" lon="-0.4277492793491977"><ele>186.0</ele><time>2026-04-29T15:57:36Z</time></trkpt><trkpt lat="43.33292759954141" lon="-0.4276155750822228"><ele>186.0</ele><time>2026-04-29T15:57:38Z</time></trkpt><trkpt lat="43.332905435516466" lon="-0.42748681704898"><ele>186.0</ele><time>2026-04-29T15:57:40Z</time></trkpt><trkpt lat="43.33289983443215" lon="-0.4273582352403795"><ele>186.0</ele><time>2026-04-29T15:57:42Z</time></trkpt><trkpt lat="43.33288168025045" lon="-0.4272241290592276"><ele>186.0</ele><time>2026-04-29T15:57:44Z</time></trkpt><trkpt lat="43.33285648091784" lon="-0.42709394692228797"><ele>186.0</ele><time>2026-04-29T15:57:46Z</time></trkpt><trkpt lat="43.33283031385059" lon="-0.42697041019550225"><ele>186.0</ele><time>2026-04-29T15:57:48Z</time></trkpt><trkpt lat="43.33281049607773" lon="-0.4268415126182141"><ele>186.0</ele><time>2026-04-29T15:57:50Z</time></trkpt><trkpt lat="43.33279492099384" lon="-0.42669825525944327"><ele>186.0</ele><time>2026-04-29T15:57:52Z</time></trkpt><trkpt lat="43.33277566048575" lon="-0.42654375749756007"><ele>186.0</ele><time>2026-04-29T15:57:54Z</time></trkpt><trkpt lat="43.33274712500821" lon="-0.4263809334173546"><ele>186.0</ele><time>2026-04-29T15:57:56Z</time></trkpt><trkpt lat="43.332726049383396" lon="-0.42629716735186113"><ele>186.0</ele><time>2026-04-29T15:57:57Z</time></trkpt><trkpt lat="43.33271412629357" lon="-0.426210593287993"><ele>186.0</ele><time>2026-04-29T15:57:58Z</time></trkpt><trkpt lat="43.33268232568654" lon="-0.4260538709235425"><ele>186.0</ele><time>2026-04-29T15:58:00Z</time></trkpt><trkpt lat="43.33265147312143" lon="-0.4258924819814177"><ele>186.0</ele><time>2026-04-29T15:58:02Z</time></trkpt><trkpt lat="43.332621729678465" lon="-0.42573079367263716"><ele>186.0</ele><time>2026-04-29T15:58:04Z</time></trkpt><trkpt lat="43.33258694884528" lon="-0.42557158154651303"><ele>186.0</ele><time>2026-04-29T15:58:06Z</time></trkpt><trkpt lat="43.33253297529875" lon="-0.42543543319276095"><ele>186.0</ele><time>2026-04-29T15:58:08Z</time></trkpt><trkpt lat="43.33247861746997" lon="-0.42529768513520416"><ele>186.0</ele><time>2026-04-29T15:58:10Z</time></trkpt><trkpt lat="43.332426442179646" lon="-0.42516691178005883"><ele>186.0</ele><time>2026-04-29T15:58:12Z</time></trkpt><trkpt lat="43.33238937340271" lon="-0.4250180158665598"><ele>186.0</ele><time>2026-04-29T15:58:14Z</time></trkpt><trkpt lat="43.332359085869044" lon="-0.4248675487793899"><ele>186.0</ele><time>2026-04-29T15:58:16Z</time></trkpt><trkpt lat="43.33234481657654" lon="-0.42470606194746496"><ele>186.0</ele><time>2026-04-29T15:58:18Z</time></trkpt><trkpt lat="43.3323261764764" lon="-0.4245396259654746"><ele>186.0</ele><time>2026-04-29T15:58:20Z</time></trkpt><trkpt lat="43.3323031033182" lon="-0.42437549814201264"><ele>185.75</ele><time>2026-04-29T15:58:22Z</time></trkpt><trkpt lat="43.33227899294444" lon="-0.42421702727183924"><ele>185.5</ele><time>2026-04-29T15:58:24Z</time></trkpt><trkpt lat="43.33225049064969" lon="-0.4240554038635029"><ele>185.25</ele><time>2026-04-29T15:58:26Z</time></trkpt><trkpt lat="43.33222762954785" lon="-0.4238939411472835"><ele>185.0</ele><time>2026-04-29T15:58:28Z</time></trkpt><trkpt lat="43.332192407137526" lon="-0.4237325125399416"><ele>185.5</ele><time>2026-04-29T15:58:30Z</time></trkpt><trkpt lat="43.332164292934706" lon="-0.4235738954764617"><ele>186.0</ele><time>2026-04-29T15:58:32Z</time></trkpt><trkpt lat="43.33213099901801" lon="-0.42341963435080804"><ele>186.5</ele><time>2026-04-29T15:58:34Z</time></trkpt><trkpt lat="43.332100259398096" lon="-0.4232613935357116"><ele>187.0</ele><time>2026-04-29T15:58:36Z</time></trkpt><trkpt lat="43.332075456112015" lon="-0.42310671860062493"><ele>187.0</ele><time>2026-04-29T15:58:38Z</time></trkpt><trkpt lat="43.332042833892125" lon="-0.4229533301594111"><ele>187.0</ele><time>2026-04-29T15:58:40Z</time></trkpt><trkpt lat="43.33201206587631" lon="-0.4228027157520067"><ele>187.0</ele><time>2026-04-29T15:58:42Z</time></trkpt><trkpt lat="43.33199411861746" lon="-0.4226501909884579"><ele>187.0</ele><time>2026-04-29T15:58:44Z</time></trkpt><trkpt lat="43.331981849269695" lon="-0.4224915324861719"><ele>187.0</ele><time>2026-04-29T15:58:46Z</time></trkpt><trkpt lat="43.33197454313709" lon="-0.42233379560488915"><ele>187.0</ele><time>2026-04-29T15:58:48Z</time></trkpt><trkpt lat="43.33195829732864" lon="-0.42217183331565"><ele>187.0</ele><time>2026-04-29T15:58:50Z</time></trkpt><trkpt lat="43.3319541046718" lon="-0.4220007272503895"><ele>187.0</ele><time>2026-04-29T15:58:52Z</time></trkpt><trkpt lat="43.331954861410104" lon="-0.4219140933137692"><ele>187.0</ele><time>2026-04-29T15:58:53Z</time></trkpt><trkpt lat="43.33194763860269" lon="-0.4217453038489268"><ele>187.0</ele><time>2026-04-29T15:58:55Z</time></trkpt><trkpt lat="43.33194134990051" lon="-0.421658730539875"><ele>187.0</ele><time>2026-04-29T15:58:56Z</time></trkpt><trkpt lat="43.33193101724178" lon="-0.42148852831928085"><ele>187.0</ele><time>2026-04-29T15:58:58Z</time></trkpt><trkpt lat="43.331927799478834" lon="-0.42140111854183004"><ele>187.0</ele><time>2026-04-29T15:58:59Z</time></trkpt><trkpt lat="43.331919027632615" lon="-0.421231400107037"><ele>187.0</ele><time>2026-04-29T15:59:01Z</time></trkpt><trkpt lat="43.33191480668954" lon="-0.421065271425199"><ele>187.0</ele><time>2026-04-29T15:59:03Z</time></trkpt><trkpt lat="43.33190400448897" lon="-0.4209039379463575"><ele>187.0</ele><time>2026-04-29T15:59:05Z</time></trkpt><trkpt lat="43.33187808969596" lon="-0.42074630969942767"><ele>187.0</ele><time>2026-04-29T15:59:07Z</time></trkpt><trkpt lat="43.331876618284156" lon="-0.4205909414776079"><ele>187.0</ele><time>2026-04-29T15:59:09Z</time></trkpt><trkpt lat="43.33186715658765" lon="-0.4204271636312647"><ele>187.25</ele><time>2026-04-29T15:59:11Z</time></trkpt><trkpt lat="43.331857739691046" lon="-0.42026337882096726"><ele>187.5</ele><time>2026-04-29T15:59:13Z</time></trkpt><trkpt lat="43.33184350635699" lon="-0.42009866801725526"><ele>187.75</ele><time>2026-04-29T15:59:15Z</time></trkpt><trkpt lat="43.33183438014171" lon="-0.41994041524803816"><ele>188.0</ele><time>2026-04-29T15:59:17Z</time></trkpt><trkpt lat="43.33183318451507" lon="-0.4197812291459623"><ele>188.25</ele><time>2026-04-29T15:59:19Z</time></trkpt><trkpt lat="43.3318212026324" lon="-0.4196184120130172"><ele>188.5</ele><time>2026-04-29T15:59:21Z</time></trkpt><trkpt lat="43.33184055630134" lon="-0.41946041292538944"><ele>188.75</ele><time>2026-04-29T15:59:23Z</time></trkpt><trkpt lat="43.33185014161853" lon="-0.4192926657516563"><ele>189.0</ele><time>2026-04-29T15:59:25Z</time></trkpt><trkpt lat="43.3318520009137" lon="-0.4191304293987629"><ele>189.0</ele><time>2026-04-29T15:59:27Z</time></trkpt><trkpt lat="43.331855782642684" lon="-0.4189645316767574"><ele>189.0</ele><time>2026-04-29T15:59:29Z</time></trkpt><trkpt lat="43.33184868948784" lon="-0.41880261608181446"><ele>189.0</ele><time>2026-04-29T15:59:31Z</time></trkpt><trkpt lat="43.33186525102225" lon="-0.4186386653611129"><ele>189.0</ele><time>2026-04-29T15:59:33Z</time></trkpt><trkpt lat="43.33187330481091" lon="-0.41848348754016446"><ele>189.0</ele><time>2026-04-29T15:59:35Z</time></trkpt><trkpt lat="43.331869690799735" lon="-0.4183216116547213"><ele>189.0</ele><time>2026-04-29T15:59:37Z</time></trkpt><trkpt lat="43.33187920589084" lon="-0.41823538989178133"><ele>189.0</ele><time>2026-04-29T15:59:38Z</time></trkpt><trkpt lat="43.331884414546174" lon="-0.41807835442738844"><ele>189.0</ele><time>2026-04-29T15:59:40Z</time></trkpt><trkpt lat="43.33188622655769" lon="-0.4179906602170813"><ele>189.0</ele><time>2026-04-29T15:59:41Z</time></trkpt><trkpt lat="43.3318942945025" lon="-0.41782537839673806"><ele>189.0</ele><time>2026-04-29T15:59:43Z</time></trkpt><trkpt lat="43.331905227346404" lon="-0.4176674504775678"><ele>189.0</ele><time>2026-04-29T15:59:45Z</time></trkpt><trkpt lat="43.33191465506425" lon="-0.4175021332213533"><ele>189.0</ele><time>2026-04-29T15:59:47Z</time></trkpt><trkpt lat="43.331915839768335" lon="-0.4173417103838229"><ele>189.0</ele><time>2026-04-29T15:59:49Z</time></trkpt><trkpt lat="43.33191517145768" lon="-0.41717652182067444"><ele>189.25</ele><time>2026-04-29T15:59:51Z</time></trkpt><trkpt lat="43.331910062510666" lon="-0.4170112241337148"><ele>189.5</ele><time>2026-04-29T15:59:53Z</time></trkpt><trkpt lat="43.33189820196913" lon="-0.4168505786775881"><ele>189.75</ele><time>2026-04-29T15:59:55Z</time></trkpt><trkpt lat="43.33188740149124" lon="-0.4166942251952544"><ele>190.0</ele><time>2026-04-29T15:59:57Z</time></trkpt><trkpt lat="43.33187541489731" lon="-0.4165460214725432"><ele>190.0</ele><time>2026-04-29T15:59:59Z</time></trkpt><trkpt lat="43.33186023079884" lon="-0.41640042214678824"><ele>190.0</ele><time>2026-04-29T16:00:01Z</time></trkpt><trkpt lat="43.331854108817076" lon="-0.41625635859741705"><ele>190.0</ele><time>2026-04-29T16:00:03Z</time></trkpt><trkpt lat="43.33184670346724" lon="-0.41612159854165176"><ele>190.0</ele><time>2026-04-29T16:00:05Z</time></trkpt><trkpt lat="43.33183713192282" lon="-0.41596845092516505"><ele>190.0</ele><time>2026-04-29T16:00:07Z</time></trkpt><trkpt lat="43.33182672722765" lon="-0.4158104843182454"><ele>190.0</ele><time>2026-04-29T16:00:09Z</time></trkpt><trkpt lat="43.331812786354035" lon="-0.4156529463164605"><ele>190.0</ele><time>2026-04-29T16:00:11Z</time></trkpt><trkpt lat="43.33179947122752" lon="-0.41549751364080395"><ele>190.0</ele><time>2026-04-29T16:00:13Z</time></trkpt><trkpt lat="43.3317931849365" lon="-0.4153526101926125"><ele>190.0</ele><time>2026-04-29T16:00:15Z</time></trkpt><trkpt lat="43.331784075169665" lon="-0.41519963984206537"><ele>190.0</ele><time>2026-04-29T16:00:17Z</time></trkpt><trkpt lat="43.331777126513785" lon="-0.4150570494929117"><ele>190.2</ele><time>2026-04-29T16:00:19Z</time></trkpt><trkpt lat="43.331781128414406" lon="-0.41496599085203983"><ele>190.4</ele><time>2026-04-29T16:00:20Z</time></trkpt><trkpt lat="43.331763498999834" lon="-0.4148166833905918"><ele>190.60000000000002</ele><time>2026-04-29T16:00:22Z</time></trkpt><trkpt lat="43.331747746945105" lon="-0.41465808192107545"><ele>190.8</ele><time>2026-04-29T16:00:24Z</time></trkpt><trkpt lat="43.33174727090039" lon="-0.4145715113488615"><ele>191.0</ele><time>2026-04-29T16:00:25Z</time></trkpt><trkpt lat="43.33173454168245" lon="-0.4144050125482256"><ele>191.0</ele><time>2026-04-29T16:00:27Z</time></trkpt><trkpt lat="43.331719273627364" lon="-0.4142444410217996"><ele>191.0</ele><time>2026-04-29T16:00:29Z</time></trkpt><trkpt lat="43.33169070770337" lon="-0.41408342766701906"><ele>191.0</ele><time>2026-04-29T16:00:31Z</time></trkpt><trkpt lat="43.33166751093357" lon="-0.4139193076886549"><ele>191.0</ele><time>2026-04-29T16:00:33Z</time></trkpt><trkpt lat="43.331637210919396" lon="-0.41375302745540643"><ele>191.0</ele><time>2026-04-29T16:00:35Z</time></trkpt><trkpt lat="43.33161072642572" lon="-0.41358864120287375"><ele>191.0</ele><time>2026-04-29T16:00:37Z</time></trkpt><trkpt lat="43.33158373573347" lon="-0.41342623252866456"><ele>191.0</ele><time>2026-04-29T16:00:39Z</time></trkpt><trkpt lat="43.331557551471796" lon="-0.4132613696779138"><ele>191.0</ele><time>2026-04-29T16:00:41Z</time></trkpt><trkpt lat="43.33152460077498" lon="-0.41310252252990054"><ele>191.25</ele><time>2026-04-29T16:00:43Z</time></trkpt><trkpt lat="43.33149943270199" lon="-0.41294079555547863"><ele>191.5</ele><time>2026-04-29T16:00:45Z</time></trkpt><trkpt lat="43.33147037131215" lon="-0.41277709370088744"><ele>191.75</ele><time>2026-04-29T16:00:47Z</time></trkpt><trkpt lat="43.33145027518352" lon="-0.41261371183358453"><ele>192.0</ele><time>2026-04-29T16:00:49Z</time></trkpt><trkpt lat="43.33141802539924" lon="-0.41244914424116846"><ele>192.0</ele><time>2026-04-29T16:00:51Z</time></trkpt><trkpt lat="43.331397387100544" lon="-0.412280018267666"><ele>192.0</ele><time>2026-04-29T16:00:53Z</time></trkpt><trkpt lat="43.33138859774118" lon="-0.412189603140271"><ele>192.0</ele><time>2026-04-29T16:00:54Z</time></trkpt><trkpt lat="43.33138204961883" lon="-0.41210090033387414"><ele>192.0</ele><time>2026-04-29T16:00:55Z</time></trkpt><trkpt lat="43.331374777814396" lon="-0.4120074377891049"><ele>192.0</ele><time>2026-04-29T16:00:56Z</time></trkpt><trkpt lat="43.33136623801089" lon="-0.4119170793976558"><ele>192.0</ele><time>2026-04-29T16:00:57Z</time></trkpt><trkpt lat="43.33136404261793" lon="-0.41182339938609175"><ele>191.99999999999997</ele><time>2026-04-29T16:00:58Z</time></trkpt><trkpt lat="43.33136105308904" lon="-0.41172512278924395"><ele>192.0</ele><time>2026-04-29T16:00:59Z</time></trkpt><trkpt lat="43.33134407119633" lon="-0.41163467755921707"><ele>192.0</ele><time>2026-04-29T16:01:00Z</time></trkpt><trkpt lat="43.33134894317705" lon="-0.4115472521551827"><ele>192.0</ele><time>2026-04-29T16:01:01Z</time></trkpt><trkpt lat="43.33134610653025" lon="-0.4114555598508457"><ele>192.0</ele><time>2026-04-29T16:01:02Z</time></trkpt><trkpt lat="43.33134241400761" lon="-0.41136650980386147"><ele>191.99999999999997</ele><time>2026-04-29T16:01:03Z</time></trkpt><trkpt lat="43.33133395178871" lon="-0.4112777858920873"><ele>192.0</ele><time>2026-04-29T16:01:04Z</time></trkpt><trkpt lat="43.331326849304816" lon="-0.4111904889687955"><ele>191.99999999999997</ele><time>2026-04-29T16:01:05Z</time></trkpt><trkpt lat="43.3313218030535" lon="-0.4111024693816314"><ele>192.0</ele><time>2026-04-29T16:01:06Z</time></trkpt><trkpt lat="43.33132235602347" lon="-0.41101182689874577"><ele>192.0</ele><time>2026-04-29T16:01:07Z</time></trkpt><trkpt lat="43.331318319648304" lon="-0.4109247508649077"><ele>192.0</ele><time>2026-04-29T16:01:08Z</time></trkpt><trkpt lat="43.33131610836101" lon="-0.4108376960529399"><ele>192.0</ele><time>2026-04-29T16:01:09Z</time></trkpt><trkpt lat="43.33130726579162" lon="-0.4107519758656726"><ele>191.99999999999997</ele><time>2026-04-29T16:01:10Z</time></trkpt><trkpt lat="43.331293722305475" lon="-0.4106664097974578"><ele>192.0</ele><time>2026-04-29T16:01:11Z</time></trkpt><trkpt lat="43.33126291808466" lon="-0.41050322043950066"><ele>192.0</ele><time>2026-04-29T16:01:13Z</time></trkpt><trkpt lat="43.331254526900835" lon="-0.41033651366097174"><ele>192.0</ele><time>2026-04-29T16:01:15Z</time></trkpt><trkpt lat="43.331244871162816" lon="-0.4101694217707407"><ele>192.0</ele><time>2026-04-29T16:01:17Z</time></trkpt><trkpt lat="43.33124218991997" lon="-0.4100827273883356"><ele>192.0</ele><time>2026-04-29T16:01:18Z</time></trkpt><trkpt lat="43.33123961960513" lon="-0.40999527182696327"><ele>192.0</ele><time>2026-04-29T16:01:19Z</time></trkpt><trkpt lat="43.33123393728371" lon="-0.40990503221559754"><ele>192.0</ele><time>2026-04-29T16:01:20Z</time></trkpt><trkpt lat="43.3312236967778" lon="-0.4097372105146789"><ele>192.0</ele><time>2026-04-29T16:01:22Z</time></trkpt><trkpt lat="43.331235715150875" lon="-0.4095659518970599"><ele>192.0</ele><time>2026-04-29T16:01:24Z</time></trkpt><trkpt lat="43.33124094473564" lon="-0.4093921675998982"><ele>192.0</ele><time>2026-04-29T16:01:26Z</time></trkpt><trkpt lat="43.331237374641496" lon="-0.4093053315796363"><ele>192.0</ele><time>2026-04-29T16:01:27Z</time></trkpt><trkpt lat="43.33122151623568" lon="-0.4091348492108268"><ele>192.0</ele><time>2026-04-29T16:01:29Z</time></trkpt><trkpt lat="43.331218669738085" lon="-0.4090467583341552"><ele>192.0</ele><time>2026-04-29T16:01:30Z</time></trkpt><trkpt lat="43.33121252913401" lon="-0.4089590851809926"><ele>192.0</ele><time>2026-04-29T16:01:31Z</time></trkpt><trkpt lat="43.33120319846121" lon="-0.40878775919033367"><ele>192.0</ele><time>2026-04-29T16:01:33Z</time></trkpt><trkpt lat="43.331198904582514" lon="-0.4086992644211391"><ele>192.0</ele><time>2026-04-29T16:01:34Z</time></trkpt><trkpt lat="43.3311981397846" lon="-0.4086094284710676"><ele>192.0</ele><time>2026-04-29T16:01:35Z</time></trkpt><trkpt lat="43.331190910280576" lon="-0.40852064473811533"><ele>192.0</ele><time>2026-04-29T16:01:36Z</time></trkpt><trkpt lat="43.33118605617626" lon="-0.4084285801441587"><ele>192.16666666666666</ele><time>2026-04-29T16:01:37Z</time></trkpt><trkpt lat="43.331184946396554" lon="-0.4083383507691488"><ele>192.33333333333331</ele><time>2026-04-29T16:01:38Z</time></trkpt><trkpt lat="43.331183259808114" lon="-0.4082473856414248"><ele>192.5</ele><time>2026-04-29T16:01:39Z</time></trkpt><trkpt lat="43.33117861268736" lon="-0.40806951035814537"><ele>192.66666666666666</ele><time>2026-04-29T16:01:41Z</time></trkpt><trkpt lat="43.33117487253286" lon="-0.40797826165105533"><ele>192.83333333333331</ele><time>2026-04-29T16:01:42Z</time></trkpt><trkpt lat="43.3311697379871" lon="-0.40788957210370785"><ele>193.0</ele><time>2026-04-29T16:01:43Z</time></trkpt><trkpt lat="43.331167236028264" lon="-0.4077982244669836"><ele>192.99999999999997</ele><time>2026-04-29T16:01:44Z</time></trkpt><trkpt lat="43.331165454308405" lon="-0.4077097851510614"><ele>193.0</ele><time>2026-04-29T16:01:45Z</time></trkpt><trkpt lat="43.331163175083894" lon="-0.40762278848313016"><ele>193.0</ele><time>2026-04-29T16:01:46Z</time></trkpt><trkpt lat="43.33116065050608" lon="-0.40753368792292205"><ele>193.0</ele><time>2026-04-29T16:01:47Z</time></trkpt><trkpt lat="43.33115213708065" lon="-0.4073644603457734"><ele>192.99999999999997</ele><time>2026-04-29T16:01:49Z</time></trkpt><trkpt lat="43.33115174008328" lon="-0.4072750939771791"><ele>193.0</ele><time>2026-04-29T16:01:50Z</time></trkpt><trkpt lat="43.33114405000241" lon="-0.4071104499951676"><ele>193.0</ele><time>2026-04-29T16:01:52Z</time></trkpt><trkpt lat="43.33113265361504" lon="-0.4069445443281653"><ele>193.0</ele><time>2026-04-29T16:01:54Z</time></trkpt><trkpt lat="43.331117780322586" lon="-0.406778834549601"><ele>193.0</ele><time>2026-04-29T16:01:56Z</time></trkpt><trkpt lat="43.331104076317025" lon="-0.4066166280766875"><ele>193.0</ele><time>2026-04-29T16:01:58Z</time></trkpt><trkpt lat="43.33109744476052" lon="-0.406529551850244"><ele>193.0</ele><time>2026-04-29T16:01:59Z</time></trkpt><trkpt lat="43.33106329433086" lon="-0.40637579024739334"><ele>193.25</ele><time>2026-04-29T16:02:01Z</time></trkpt><trkpt lat="43.3310395225047" lon="-0.4062153650194399"><ele>193.5</ele><time>2026-04-29T16:02:03Z</time></trkpt><trkpt lat="43.33101721043117" lon="-0.4060631453925935"><ele>193.75</ele><time>2026-04-29T16:02:05Z</time></trkpt><trkpt lat="43.33099749594117" lon="-0.4059150256784087"><ele>194.0</ele><time>2026-04-29T16:02:07Z</time></trkpt><trkpt lat="43.33097256294456" lon="-0.40576972463615635"><ele>194.0</ele><time>2026-04-29T16:02:09Z</time></trkpt><trkpt lat="43.33094773342264" lon="-0.40562140704148203"><ele>194.0</ele><time>2026-04-29T16:02:11Z</time></trkpt><trkpt lat="43.33093372928453" lon="-0.40546961022584327"><ele>194.0</ele><time>2026-04-29T16:02:13Z</time></trkpt><trkpt lat="43.33091194593423" lon="-0.4053205110104216"><ele>194.0</ele><time>2026-04-29T16:02:15Z</time></trkpt><trkpt lat="43.330889442123" lon="-0.4051737655536662"><ele>194.0</ele><time>2026-04-29T16:02:17Z</time></trkpt><trkpt lat="43.330863243488345" lon="-0.40502701405549707"><ele>194.0</ele><time>2026-04-29T16:02:19Z</time></trkpt><trkpt lat="43.33084333652194" lon="-0.4048698181600007"><ele>194.0</ele><time>2026-04-29T16:02:21Z</time></trkpt><trkpt lat="43.33082029892992" lon="-0.4047189600780447"><ele>194.0</ele><time>2026-04-29T16:02:23Z</time></trkpt><trkpt lat="43.33080378465746" lon="-0.4045716028676763"><ele>194.0</ele><time>2026-04-29T16:02:25Z</time></trkpt><trkpt lat="43.330781373090694" lon="-0.40443643072225594"><ele>194.0</ele><time>2026-04-29T16:02:27Z</time></trkpt><trkpt lat="43.330761303413006" lon="-0.40430293684055607"><ele>194.0</ele><time>2026-04-29T16:02:29Z</time></trkpt><trkpt lat="43.33074042467856" lon="-0.4041493874696904"><ele>194.0</ele><time>2026-04-29T16:02:31Z</time></trkpt><trkpt lat="43.33071346405898" lon="-0.40399263928200185"><ele>194.0</ele><time>2026-04-29T16:02:33Z</time></trkpt><trkpt lat="43.330694839783895" lon="-0.40384097664206"><ele>194.0</ele><time>2026-04-29T16:02:35Z</time></trkpt><trkpt lat="43.33064860752249" lon="-0.4036860786680336"><ele>194.0</ele><time>2026-04-29T16:02:37Z</time></trkpt><trkpt lat="43.33059790916033" lon="-0.4035190729337472"><ele>194.0</ele><time>2026-04-29T16:02:39Z</time></trkpt><trkpt lat="43.330547237140074" lon="-0.40336646663323905"><ele>194.0</ele><time>2026-04-29T16:02:41Z</time></trkpt><trkpt lat="43.330486910971835" lon="-0.4032181394837399"><ele>194.0</ele><time>2026-04-29T16:02:43Z</time></trkpt><trkpt lat="43.33042842774071" lon="-0.4030718920823221"><ele>194.39999999999998</ele><time>2026-04-29T16:02:45Z</time></trkpt><trkpt lat="43.33037528371305" lon="-0.4029304228942989"><ele>194.8</ele><time>2026-04-29T16:02:47Z</time></trkpt><trkpt lat="43.330313516568935" lon="-0.40278821961214367"><ele>195.2</ele><time>2026-04-29T16:02:49Z</time></trkpt><trkpt lat="43.330254646995606" lon="-0.4026427455984745"><ele>195.60000000000002</ele><time>2026-04-29T16:02:51Z</time></trkpt><trkpt lat="43.330223881792435" lon="-0.40256674279523047"><ele>196.0</ele><time>2026-04-29T16:02:52Z</time></trkpt><trkpt lat="43.33016968733552" lon="-0.40242037077105036"><ele>196.0</ele><time>2026-04-29T16:02:54Z</time></trkpt><trkpt lat="43.33011114096896" lon="-0.4022766617298027"><ele>196.0</ele><time>2026-04-29T16:02:56Z</time></trkpt><trkpt lat="43.3300546068656" lon="-0.4021332636024617"><ele>196.0</ele><time>2026-04-29T16:02:58Z</time></trkpt><trkpt lat="43.329999188805296" lon="-0.4019887170851275"><ele>196.0</ele><time>2026-04-29T16:03:00Z</time></trkpt><trkpt lat="43.32994146375239" lon="-0.40185454053885244"><ele>196.0</ele><time>2026-04-29T16:03:02Z</time></trkpt><trkpt lat="43.32988350174032" lon="-0.4017146922441145"><ele>196.0</ele><time>2026-04-29T16:03:04Z</time></trkpt><trkpt lat="43.32982952712429" lon="-0.4015708768519039"><ele>196.0</ele><time>2026-04-29T16:03:06Z</time></trkpt><trkpt lat="43.329776193190774" lon="-0.4014362511827973"><ele>196.0</ele><time>2026-04-29T16:03:08Z</time></trkpt><trkpt lat="43.32971674019113" lon="-0.4012976161125405"><ele>196.0</ele><time>2026-04-29T16:03:10Z</time></trkpt><trkpt lat="43.32965914047832" lon="-0.4011581666684185"><ele>196.0</ele><time>2026-04-29T16:03:12Z</time></trkpt><trkpt lat="43.32960527674331" lon="-0.40102092377503257"><ele>196.0</ele><time>2026-04-29T16:03:14Z</time></trkpt><trkpt lat="43.32955198118497" lon="-0.4008832309131815"><ele>196.0</ele><time>2026-04-29T16:03:16Z</time></trkpt><trkpt lat="43.32949582729764" lon="-0.40074376252495086"><ele>196.0</ele><time>2026-04-29T16:03:18Z</time></trkpt><trkpt lat="43.32944468420658" lon="-0.400610796487033"><ele>196.0</ele><time>2026-04-29T16:03:20Z</time></trkpt><trkpt lat="43.32937725469768" lon="-0.4004745897053683"><ele>196.0</ele><time>2026-04-29T16:03:22Z</time></trkpt><trkpt lat="43.32935005014272" lon="-0.4003957499488624"><ele>196.0</ele><time>2026-04-29T16:03:23Z</time></trkpt><trkpt lat="43.32930195252193" lon="-0.40024815330460145"><ele>196.0</ele><time>2026-04-29T16:03:25Z</time></trkpt><trkpt lat="43.329250130287164" lon="-0.4001011652037911"><ele>196.25</ele><time>2026-04-29T16:03:27Z</time></trkpt><trkpt lat="43.3291996304298" lon="-0.39994626013632106"><ele>196.5</ele><time>2026-04-29T16:03:29Z</time></trkpt><trkpt lat="43.32914642868015" lon="-0.399794026833575"><ele>196.75</ele><time>2026-04-29T16:03:31Z</time></trkpt><trkpt lat="43.32911381032755" lon="-0.3996313304134964"><ele>197.0</ele><time>2026-04-29T16:03:33Z</time></trkpt><trkpt lat="43.329076069143234" lon="-0.39947827545833237"><ele>197.16666666666669</ele><time>2026-04-29T16:03:35Z</time></trkpt><trkpt lat="43.329039942782245" lon="-0.39932015734851395"><ele>197.33333333333334</ele><time>2026-04-29T16:03:37Z</time></trkpt><trkpt lat="43.329017807059664" lon="-0.39923786254252625"><ele>197.5</ele><time>2026-04-29T16:03:38Z</time></trkpt><trkpt lat="43.32899622109077" lon="-0.39908690700151556"><ele>197.66666666666669</ele><time>2026-04-29T16:03:40Z</time></trkpt><trkpt lat="43.328972210199645" lon="-0.3990051354620418"><ele>197.83333333333334</ele><time>2026-04-29T16:03:41Z</time></trkpt><trkpt lat="43.32895603931811" lon="-0.39891971324721703"><ele>198.0</ele><time>2026-04-29T16:03:42Z</time></trkpt><trkpt lat="43.32894419373398" lon="-0.3988328225204387"><ele>198.0</ele><time>2026-04-29T16:03:43Z</time></trkpt><trkpt lat="43.32891212333435" lon="-0.3986677062603268"><ele>198.0</ele><time>2026-04-29T16:03:45Z</time></trkpt><trkpt lat="43.32887980873787" lon="-0.39850522201555366"><ele>198.0</ele><time>2026-04-29T16:03:47Z</time></trkpt><trkpt lat="43.328840438535934" lon="-0.3983524859950647"><ele>198.0</ele><time>2026-04-29T16:03:49Z</time></trkpt><trkpt lat="43.32880238533245" lon="-0.398193325523324"><ele>198.0</ele><time>2026-04-29T16:03:51Z</time></trkpt><trkpt lat="43.32876521010476" lon="-0.3980345883138298"><ele>198.0</ele><time>2026-04-29T16:03:53Z</time></trkpt><trkpt lat="43.32872982868055" lon="-0.3978744479026369"><ele>198.0</ele><time>2026-04-29T16:03:55Z</time></trkpt><trkpt lat="43.328697321514404" lon="-0.3977180838793766"><ele>198.0</ele><time>2026-04-29T16:03:57Z</time></trkpt><trkpt lat="43.32866446963418" lon="-0.3975828511732509"><ele>198.2</ele><time>2026-04-29T16:03:59Z</time></trkpt><trkpt lat="43.328635724632164" lon="-0.3974521860721618"><ele>198.4</ele><time>2026-04-29T16:04:01Z</time></trkpt><trkpt lat="43.32860241640112" lon="-0.39730905747361156"><ele>198.6</ele><time>2026-04-29T16:04:03Z</time></trkpt><trkpt lat="43.328558172175896" lon="-0.39716151007858885"><ele>198.79999999999998</ele><time>2026-04-29T16:04:05Z</time></trkpt><trkpt lat="43.32852151400779" lon="-0.3970854185314884"><ele>199.0</ele><time>2026-04-29T16:04:06Z</time></trkpt><trkpt lat="43.32850566453223" lon="-0.3969253525342145"><ele>199.0</ele><time>2026-04-29T16:04:08Z</time></trkpt><trkpt lat="43.3284788023607" lon="-0.39676836978454993"><ele>199.0</ele><time>2026-04-29T16:04:10Z</time></trkpt><trkpt lat="43.32843304915949" lon="-0.39662367089915485"><ele>199.0</ele><time>2026-04-29T16:04:12Z</time></trkpt><trkpt lat="43.328395778929746" lon="-0.39647039784229865"><ele>199.0</ele><time>2026-04-29T16:04:14Z</time></trkpt><trkpt lat="43.32834740361471" lon="-0.39631386438723226"><ele>199.0</ele><time>2026-04-29T16:04:16Z</time></trkpt><trkpt lat="43.32832644498335" lon="-0.396164437805309"><ele>199.0</ele><time>2026-04-29T16:04:18Z</time></trkpt><trkpt lat="43.32828460870263" lon="-0.3960148133295735"><ele>199.0</ele><time>2026-04-29T16:04:20Z</time></trkpt><trkpt lat="43.32825026513756" lon="-0.3958595764449783"><ele>199.0</ele><time>2026-04-29T16:04:22Z</time></trkpt><trkpt lat="43.328216160014755" lon="-0.3957175515334093"><ele>199.0</ele><time>2026-04-29T16:04:24Z</time></trkpt><trkpt lat="43.32818000279988" lon="-0.39556462238943807"><ele>199.0</ele><time>2026-04-29T16:04:26Z</time></trkpt><trkpt lat="43.32814244814109" lon="-0.39541653389055165"><ele>199.0</ele><time>2026-04-29T16:04:28Z</time></trkpt><trkpt lat="43.32811126983743" lon="-0.3952675818598669"><ele>199.0</ele><time>2026-04-29T16:04:30Z</time></trkpt><trkpt lat="43.32807422723852" lon="-0.39512115052241675"><ele>199.33333333333331</ele><time>2026-04-29T16:04:32Z</time></trkpt><trkpt lat="43.32803960381569" lon="-0.3949773311891929"><ele>199.66666666666669</ele><time>2026-04-29T16:04:34Z</time></trkpt><trkpt lat="43.32800221509578" lon="-0.39484163030730973"><ele>200.0</ele><time>2026-04-29T16:04:36Z</time></trkpt><trkpt lat="43.32786821287057" lon="-0.39427655148061214"><ele>200.0</ele><time>2026-04-29T16:04:51Z</time></trkpt><trkpt lat="43.32784193800574" lon="-0.3941742544863994"><ele>200.0</ele><time>2026-04-29T16:04:53Z</time></trkpt><trkpt lat="43.32778452184686" lon="-0.3941186474854662"><ele>200.0</ele><time>2026-04-29T16:04:55Z</time></trkpt><trkpt lat="43.327696484832884" lon="-0.39413762656821943"><ele>200.0</ele><time>2026-04-29T16:04:57Z</time></trkpt><trkpt lat="43.327590282159555" lon="-0.39429007757318696"><ele>200.0</ele><time>2026-04-29T16:05:00Z</time></trkpt><trkpt lat="43.32752692738085" lon="-0.3944041522290179"><ele>200.0</ele><time>2026-04-29T16:05:02Z</time></trkpt><trkpt lat="43.3274349250496" lon="-0.39450964915770137"><ele>200.0</ele><time>2026-04-29T16:05:04Z</time></trkpt><trkpt lat="43.327356765155066" lon="-0.39463380285814237"><ele>200.0</ele><time>2026-04-29T16:05:06Z</time></trkpt><trkpt lat="43.32727513200301" lon="-0.39473677121965295"><ele>200.0</ele><time>2026-04-29T16:05:08Z</time></trkpt><trkpt lat="43.32722955976121" lon="-0.394798326963969"><ele>200.0</ele><time>2026-04-29T16:05:09Z</time></trkpt><trkpt lat="43.32714444296947" lon="-0.39491276214459836"><ele>200.5</ele><time>2026-04-29T16:05:11Z</time></trkpt><trkpt lat="43.32706633535343" lon="-0.3950330462823853"><ele>201.0</ele><time>2026-04-29T16:05:13Z</time></trkpt><trkpt lat="43.326977765396926" lon="-0.3951518612899937"><ele>201.5</ele><time>2026-04-29T16:05:15Z</time></trkpt><trkpt lat="43.32688323877665" lon="-0.3952571206064526"><ele>202.0</ele><time>2026-04-29T16:05:17Z</time></trkpt><trkpt lat="43.326788140844116" lon="-0.39535849451106037"><ele>202.0</ele><time>2026-04-29T16:05:19Z</time></trkpt><trkpt lat="43.32674069440319" lon="-0.39542621216056656"><ele>202.0</ele><time>2026-04-29T16:05:20Z</time></trkpt><trkpt lat="43.32668843713556" lon="-0.39547967874415313"><ele>202.0</ele><time>2026-04-29T16:05:21Z</time></trkpt><trkpt lat="43.326635953036394" lon="-0.3955379428287164"><ele>202.0</ele><time>2026-04-29T16:05:22Z</time></trkpt><trkpt lat="43.32657756840741" lon="-0.3955921150037723"><ele>202.0</ele><time>2026-04-29T16:05:23Z</time></trkpt><trkpt lat="43.32652704132569" lon="-0.39565311446301626"><ele>202.0</ele><time>2026-04-29T16:05:24Z</time></trkpt><trkpt lat="43.32647678197693" lon="-0.3957129566576707"><ele>202.0</ele><time>2026-04-29T16:05:25Z</time></trkpt><trkpt lat="43.3264283904281" lon="-0.3957715099930729"><ele>201.66666666666666</ele><time>2026-04-29T16:05:26Z</time></trkpt><trkpt lat="43.32637201065011" lon="-0.39582314181799155"><ele>201.33333333333331</ele><time>2026-04-29T16:05:27Z</time></trkpt><trkpt lat="43.326318362773236" lon="-0.39588037319217806"><ele>201.0</ele><time>2026-04-29T16:05:28Z</time></trkpt><trkpt lat="43.32626671563929" lon="-0.3959434256634864"><ele>200.66666666666669</ele><time>2026-04-29T16:05:29Z</time></trkpt><trkpt lat="43.32621259033499" lon="-0.39599673239666683"><ele>200.33333333333334</ele><time>2026-04-29T16:05:30Z</time></trkpt><trkpt lat="43.32616036574618" lon="-0.39606226603986894"><ele>200.0</ele><time>2026-04-29T16:05:31Z</time></trkpt><trkpt lat="43.32608012338742" lon="-0.3961942253896082"><ele>200.00000000000003</ele><time>2026-04-29T16:05:33Z</time></trkpt><trkpt lat="43.32603886111975" lon="-0.3962675577103274"><ele>200.0</ele><time>2026-04-29T16:05:34Z</time></trkpt><trkpt lat="43.3259913457105" lon="-0.39632809168801897"><ele>200.0</ele><time>2026-04-29T16:05:35Z</time></trkpt><trkpt lat="43.32593283798511" lon="-0.39636896294257096"><ele>200.0</ele><time>2026-04-29T16:05:36Z</time></trkpt><trkpt lat="43.325825052221774" lon="-0.3964389909163277"><ele>200.00000000000003</ele><time>2026-04-29T16:05:38Z</time></trkpt><trkpt lat="43.32576781500762" lon="-0.39650273864247815"><ele>200.0</ele><time>2026-04-29T16:05:39Z</time></trkpt><trkpt lat="43.325716965614994" lon="-0.39655942320433396"><ele>199.85714285714286</ele><time>2026-04-29T16:05:40Z</time></trkpt><trkpt lat="43.32565619852677" lon="-0.396615412841765"><ele>199.71428571428572</ele><time>2026-04-29T16:05:41Z</time></trkpt><trkpt lat="43.325595203885555" lon="-0.39665870864030356"><ele>199.57142857142856</ele><time>2026-04-29T16:05:42Z</time></trkpt><trkpt lat="43.325530587646135" lon="-0.3967036667248207"><ele>199.42857142857144</ele><time>2026-04-29T16:05:43Z</time></trkpt><trkpt lat="43.32547341513424" lon="-0.3967403245434888"><ele>199.28571428571428</ele><time>2026-04-29T16:05:44Z</time></trkpt><trkpt lat="43.32541287480487" lon="-0.3967768323789406"><ele>199.14285714285714</ele><time>2026-04-29T16:05:45Z</time></trkpt><trkpt lat="43.32534150333202" lon="-0.39680836714506207"><ele>199.0</ele><time>2026-04-29T16:05:46Z</time></trkpt><trkpt lat="43.32527390682624" lon="-0.396840620953498"><ele>199.0</ele><time>2026-04-29T16:05:47Z</time></trkpt><trkpt lat="43.325131844336916" lon="-0.3969119507263184"><ele>199.0</ele><time>2026-04-29T16:05:49Z</time></trkpt><trkpt lat="43.32506361543546" lon="-0.39693138839520326"><ele>199.0</ele><time>2026-04-29T16:05:50Z</time></trkpt><trkpt lat="43.324990990988816" lon="-0.39696903756662427"><ele>199.0</ele><time>2026-04-29T16:05:51Z</time></trkpt><trkpt lat="43.324919265772294" lon="-0.3970089394173485"><ele>199.0</ele><time>2026-04-29T16:05:52Z</time></trkpt><trkpt lat="43.32484696561737" lon="-0.39704529065487415"><ele>198.99999999999997</ele><time>2026-04-29T16:05:53Z</time></trkpt><trkpt lat="43.32478334746303" lon="-0.39709550731165544"><ele>199.0</ele><time>2026-04-29T16:05:54Z</time></trkpt><trkpt lat="43.324718599699075" lon="-0.39713089284264097"><ele>199.0</ele><time>2026-04-29T16:05:55Z</time></trkpt><trkpt lat="43.32465418857557" lon="-0.39716728126655904"><ele>199.0</ele><time>2026-04-29T16:05:56Z</time></trkpt><trkpt lat="43.324581202932414" lon="-0.3972172512698069"><ele>199.0</ele><time>2026-04-29T16:05:57Z</time></trkpt><trkpt lat="43.32451479875622" lon="-0.3972604543798978"><ele>198.99999999999997</ele><time>2026-04-29T16:05:58Z</time></trkpt><trkpt lat="43.32445247376972" lon="-0.39730552398345254"><ele>199.0</ele><time>2026-04-29T16:05:59Z</time></trkpt><trkpt lat="43.32438611356124" lon="-0.39735259431616643"><ele>198.99999999999997</ele><time>2026-04-29T16:06:00Z</time></trkpt><trkpt lat="43.32432295063565" lon="-0.39739089905816216"><ele>199.0</ele><time>2026-04-29T16:06:01Z</time></trkpt><trkpt lat="43.32426190267917" lon="-0.3974423194590722"><ele>199.0</ele><time>2026-04-29T16:06:02Z</time></trkpt><trkpt lat="43.324191248117415" lon="-0.3974991290851131"><ele>199.0</ele><time>2026-04-29T16:06:03Z</time></trkpt><trkpt lat="43.32412893803091" lon="-0.3975409731922054"><ele>199.0</ele><time>2026-04-29T16:06:04Z</time></trkpt><trkpt lat="43.324057414172806" lon="-0.39758137521457443"><ele>198.99999999999997</ele><time>2026-04-29T16:06:05Z</time></trkpt><trkpt lat="43.32398831691431" lon="-0.3976355687263816"><ele>199.0</ele><time>2026-04-29T16:06:06Z</time></trkpt><trkpt lat="43.32391833532765" lon="-0.3976937877294125"><ele>198.33333333333331</ele><time>2026-04-29T16:06:07Z</time></trkpt><trkpt lat="43.32385304568697" lon="-0.39774441782005115"><ele>197.66666666666666</ele><time>2026-04-29T16:06:08Z</time></trkpt><trkpt lat="43.32377780524847" lon="-0.39780568986561676"><ele>197.0</ele><time>2026-04-29T16:06:09Z</time></trkpt><trkpt lat="43.32371149816087" lon="-0.39785594965548327"><ele>196.33333333333331</ele><time>2026-04-29T16:06:10Z</time></trkpt><trkpt lat="43.32364648253831" lon="-0.39791783924011426"><ele>195.66666666666666</ele><time>2026-04-29T16:06:11Z</time></trkpt><trkpt lat="43.32358370701977" lon="-0.3979765166623233"><ele>195.0</ele><time>2026-04-29T16:06:12Z</time></trkpt><trkpt lat="43.32352710575335" lon="-0.3980368492748761"><ele>195.0</ele><time>2026-04-29T16:06:13Z</time></trkpt><trkpt lat="43.32346768307581" lon="-0.39809513471274155"><ele>195.0</ele><time>2026-04-29T16:06:14Z</time></trkpt><trkpt lat="43.323410552696245" lon="-0.39815341880149435"><ele>195.0</ele><time>2026-04-29T16:06:15Z</time></trkpt><trkpt lat="43.32335981046107" lon="-0.3982161619736487"><ele>195.0</ele><time>2026-04-29T16:06:16Z</time></trkpt><trkpt lat="43.323314376153476" lon="-0.3982836709436827"><ele>195.0</ele><time>2026-04-29T16:06:17Z</time></trkpt><trkpt lat="43.32327098849561" lon="-0.39835643372265317"><ele>195.0</ele><time>2026-04-29T16:06:18Z</time></trkpt><trkpt lat="43.32323471949491" lon="-0.3984375792218323"><ele>195.0</ele><time>2026-04-29T16:06:19Z</time></trkpt><trkpt lat="43.32321122226223" lon="-0.3985264993239064"><ele>195.0</ele><time>2026-04-29T16:06:20Z</time></trkpt><trkpt lat="43.32319394618735" lon="-0.39861884081026144"><ele>195.0</ele><time>2026-04-29T16:06:21Z</time></trkpt><trkpt lat="43.32317607166" lon="-0.3987027867923399"><ele>195.0</ele><time>2026-04-29T16:06:22Z</time></trkpt><trkpt lat="43.32315357420436" lon="-0.3987898656066271"><ele>195.0</ele><time>2026-04-29T16:06:23Z</time></trkpt><trkpt lat="43.32311154016831" lon="-0.39893954498679673"><ele>195.0</ele><time>2026-04-29T16:06:25Z</time></trkpt><trkpt lat="43.32308461553418" lon="-0.39903259292612075"><ele>195.0</ele><time>2026-04-29T16:06:27Z</time></trkpt><trkpt lat="43.323062264811895" lon="-0.3991221834354946"><ele>195.16666666666666</ele><time>2026-04-29T16:06:32Z</time></trkpt><trkpt lat="43.32304810646138" lon="-0.39922746110351637"><ele>195.33333333333331</ele><time>2026-04-29T16:06:42Z</time></trkpt><trkpt lat="43.32305210854898" lon="-0.39932083646670774"><ele>195.5</ele><time>2026-04-29T16:06:44Z</time></trkpt><trkpt lat="43.3230392654177" lon="-0.399418427165201"><ele>195.66666666666666</ele><time>2026-04-29T16:06:46Z</time></trkpt><trkpt lat="43.322981202334994" lon="-0.3995068047945236"><ele>195.83333333333331</ele><time>2026-04-29T16:06:48Z</time></trkpt><trkpt lat="43.322906643330484" lon="-0.3995978577988434"><ele>196.0</ele><time>2026-04-29T16:06:50Z</time></trkpt><trkpt lat="43.3228040186673" lon="-0.3996382185946338"><ele>196.0</ele><time>2026-04-29T16:06:52Z</time></trkpt><trkpt lat="43.32269878623207" lon="-0.3996503483716222"><ele>196.0</ele><time>2026-04-29T16:06:54Z</time></trkpt><trkpt lat="43.32259140682996" lon="-0.3996677425745831"><ele>196.0</ele><time>2026-04-29T16:06:56Z</time></trkpt><trkpt lat="43.322495661055434" lon="-0.39975205228803273"><ele>196.0</ele><time>2026-04-29T16:06:58Z</time></trkpt><trkpt lat="43.32242948297693" lon="-0.39988746210757137"><ele>196.0</ele><time>2026-04-29T16:07:00Z</time></trkpt><trkpt lat="43.322409525309205" lon="-0.3999731091502551"><ele>196.0</ele><time>2026-04-29T16:07:01Z</time></trkpt><trkpt lat="43.32240520181272" lon="-0.40006580054073526"><ele>196.0</ele><time>2026-04-29T16:07:02Z</time></trkpt><trkpt lat="43.32241854850555" lon="-0.400162573628425"><ele>196.0</ele><time>2026-04-29T16:07:03Z</time></trkpt><trkpt lat="43.32243659528015" lon="-0.40025519070583965"><ele>196.0</ele><time>2026-04-29T16:07:04Z</time></trkpt><trkpt lat="43.32244771380492" lon="-0.40035500358075976"><ele>196.0</ele><time>2026-04-29T16:07:05Z</time></trkpt><trkpt lat="43.32244932688683" lon="-0.40045573957043895"><ele>196.0</ele><time>2026-04-29T16:07:06Z</time></trkpt><trkpt lat="43.32243346472095" lon="-0.4005512025531618"><ele>196.0</ele><time>2026-04-29T16:07:07Z</time></trkpt><trkpt lat="43.322409754140395" lon="-0.4006421311162244"><ele>195.83333333333331</ele><time>2026-04-29T16:07:08Z</time></trkpt><trkpt lat="43.32238190049991" lon="-0.4007243737296437"><ele>195.66666666666666</ele><time>2026-04-29T16:07:09Z</time></trkpt><trkpt lat="43.322354035977426" lon="-0.4008131192603119"><ele>195.5</ele><time>2026-04-29T16:07:10Z</time></trkpt><trkpt lat="43.3223289074901" lon="-0.4009661022265958"><ele>195.33333333333331</ele><time>2026-04-29T16:07:12Z</time></trkpt><trkpt lat="43.32230198690527" lon="-0.40105243252358047"><ele>195.16666666666666</ele><time>2026-04-29T16:07:13Z</time></trkpt><trkpt lat="43.32228756856257" lon="-0.40121076922332277"><ele>195.0</ele><time>2026-04-29T16:07:15Z</time></trkpt><trkpt lat="43.322303806450996" lon="-0.40130840411683755"><ele>194.83333333333334</ele><time>2026-04-29T16:07:16Z</time></trkpt><trkpt lat="43.322287632191944" lon="-0.40139751001046514"><ele>194.66666666666669</ele><time>2026-04-29T16:07:17Z</time></trkpt><trkpt lat="43.32219458711496" lon="-0.4015379528061359"><ele>194.5</ele><time>2026-04-29T16:07:19Z</time></trkpt><trkpt lat="43.322130390715486" lon="-0.40159294473281576"><ele>194.33333333333334</ele><time>2026-04-29T16:07:20Z</time></trkpt><trkpt lat="43.322083541818365" lon="-0.40166310724608034"><ele>194.16666666666669</ele><time>2026-04-29T16:07:21Z</time></trkpt><trkpt lat="43.32205515375503" lon="-0.401753159337945"><ele>194.0</ele><time>2026-04-29T16:07:22Z</time></trkpt><trkpt lat="43.32202106688608" lon="-0.40186222350702566"><ele>194.2</ele><time>2026-04-29T16:07:24Z</time></trkpt><trkpt lat="43.321995251494926" lon="-0.4019684442984015"><ele>194.39999999999998</ele><time>2026-04-29T16:07:28Z</time></trkpt><trkpt lat="43.32196030647549" lon="-0.4020614835697848"><ele>194.6</ele><time>2026-04-29T16:07:30Z</time></trkpt><trkpt lat="43.32192136421679" lon="-0.4021709255073685"><ele>194.8</ele><time>2026-04-29T16:07:32Z</time></trkpt><trkpt lat="43.321883245319675" lon="-0.40229367684806566"><ele>195.0</ele><time>2026-04-29T16:07:34Z</time></trkpt><trkpt lat="43.32184094607507" lon="-0.4024307344209187"><ele>195.0</ele><time>2026-04-29T16:07:36Z</time></trkpt><trkpt lat="43.32179336973663" lon="-0.40257493030867836"><ele>195.0</ele><time>2026-04-29T16:07:38Z</time></trkpt><trkpt lat="43.321744047011464" lon="-0.4027304692745253"><ele>195.0</ele><time>2026-04-29T16:07:40Z</time></trkpt><trkpt lat="43.32170363332508" lon="-0.402856911995395"><ele>195.0</ele><time>2026-04-29T16:07:42Z</time></trkpt><trkpt lat="43.321659919176135" lon="-0.40300158146979326"><ele>195.0</ele><time>2026-04-29T16:07:44Z</time></trkpt><trkpt lat="43.321634733807535" lon="-0.40308146940246165"><ele>195.0</ele><time>2026-04-29T16:07:45Z</time></trkpt><trkpt lat="43.32158636079575" lon="-0.40324627108126065"><ele>195.0</ele><time>2026-04-29T16:07:47Z</time></trkpt><trkpt lat="43.32155018776461" lon="-0.4034147744605459"><ele>195.0</ele><time>2026-04-29T16:07:49Z</time></trkpt><trkpt lat="43.321524876256646" lon="-0.40351092806963995"><ele>195.0</ele><time>2026-04-29T16:07:50Z</time></trkpt><trkpt lat="43.32149036934611" lon="-0.4035896777379025"><ele>195.0</ele><time>2026-04-29T16:07:51Z</time></trkpt><trkpt lat="43.32146804132154" lon="-0.4036835483693131"><ele>195.0</ele><time>2026-04-29T16:07:52Z</time></trkpt><trkpt lat="43.32144056083383" lon="-0.403770298603686"><ele>195.0</ele><time>2026-04-29T16:07:53Z</time></trkpt><trkpt lat="43.321410276340174" lon="-0.40384846246604134"><ele>195.0</ele><time>2026-04-29T16:07:54Z</time></trkpt><trkpt lat="43.32137754844702" lon="-0.40392327319559207"><ele>195.0</ele><time>2026-04-29T16:07:55Z</time></trkpt><trkpt lat="43.32132096636707" lon="-0.40406955923108523"><ele>195.0</ele><time>2026-04-29T16:07:57Z</time></trkpt><trkpt lat="43.32126174912133" lon="-0.404194436649422"><ele>195.0</ele><time>2026-04-29T16:07:59Z</time></trkpt><trkpt lat="43.321210089211" lon="-0.4042608984940398"><ele>195.0</ele><time>2026-04-29T16:08:00Z</time></trkpt><trkpt lat="43.321132800423165" lon="-0.40438392964217834"><ele>195.0</ele><time>2026-04-29T16:08:02Z</time></trkpt><trkpt lat="43.32105555389964" lon="-0.4044992457000014"><ele>195.0</ele><time>2026-04-29T16:08:04Z</time></trkpt><trkpt lat="43.32098108739231" lon="-0.40461013005620855"><ele>195.0</ele><time>2026-04-29T16:08:06Z</time></trkpt><trkpt lat="43.32092038210712" lon="-0.4047370962542089"><ele>194.83333333333334</ele><time>2026-04-29T16:08:37Z</time></trkpt><trkpt lat="43.320841112215476" lon="-0.40481300331581993"><ele>194.66666666666669</ele><time>2026-04-29T16:08:40Z</time></trkpt><trkpt lat="43.320795051016695" lon="-0.4048920139682267"><ele>194.5</ele><time>2026-04-29T16:08:42Z</time></trkpt><trkpt lat="43.3207425823875" lon="-0.40497357783490445"><ele>194.33333333333334</ele><time>2026-04-29T16:08:44Z</time></trkpt><trkpt lat="43.32068277058556" lon="-0.4050688698990749"><ele>194.16666666666669</ele><time>2026-04-29T16:08:46Z</time></trkpt><trkpt lat="43.3206182645626" lon="-0.40515747578857453"><ele>194.0</ele><time>2026-04-29T16:08:48Z</time></trkpt><trkpt lat="43.32056729481881" lon="-0.4052744084986068"><ele>194.2</ele><time>2026-04-29T16:08:50Z</time></trkpt><trkpt lat="43.320521863222424" lon="-0.40534823497405886"><ele>194.39999999999998</ele><time>2026-04-29T16:08:52Z</time></trkpt><trkpt lat="43.320408630420665" lon="-0.4052459350993061"><ele>194.6</ele><time>2026-04-29T16:08:53Z</time></trkpt><trkpt lat="43.32035714694014" lon="-0.4051292128131847"><ele>194.8</ele><time>2026-04-29T16:08:55Z</time></trkpt><trkpt lat="43.32031983693666" lon="-0.4049942140198293"><ele>195.0</ele><time>2026-04-29T16:08:57Z</time></trkpt><trkpt lat="43.32028776691341" lon="-0.4048532786707471"><ele>195.0</ele><time>2026-04-29T16:08:59Z</time></trkpt><trkpt lat="43.32026789351863" lon="-0.4047457327709325"><ele>195.0</ele><time>2026-04-29T16:09:01Z</time></trkpt><trkpt lat="43.320228785714455" lon="-0.40461654492420684"><ele>195.0</ele><time>2026-04-29T16:09:03Z</time></trkpt><trkpt lat="43.32017890754634" lon="-0.4044702267547419"><ele>195.0</ele><time>2026-04-29T16:09:05Z</time></trkpt><trkpt lat="43.32014213753355" lon="-0.404324654645367"><ele>195.0</ele><time>2026-04-29T16:09:07Z</time></trkpt><trkpt lat="43.32012320320649" lon="-0.4042388637759026"><ele>195.5</ele><time>2026-04-29T16:09:08Z</time></trkpt><trkpt lat="43.32008995844979" lon="-0.40407465375140916"><ele>196.0</ele><time>2026-04-29T16:09:10Z</time></trkpt><trkpt lat="43.32003920773524" lon="-0.4039215833385134"><ele>196.5</ele><time>2026-04-29T16:09:12Z</time></trkpt><trkpt lat="43.31999052320576" lon="-0.4037656063789078"><ele>197.0</ele><time>2026-04-29T16:09:14Z</time></trkpt><trkpt lat="43.31993981853336" lon="-0.4036120060945304"><ele>197.2</ele><time>2026-04-29T16:09:16Z</time></trkpt><trkpt lat="43.31991317591143" lon="-0.4035334853754264"><ele>197.39999999999998</ele><time>2026-04-29T16:09:17Z</time></trkpt><trkpt lat="43.31984650834224" lon="-0.403389230657552"><ele>197.60000000000002</ele><time>2026-04-29T16:09:19Z</time></trkpt><trkpt lat="43.31981836655637" lon="-0.40330156977783005"><ele>197.8</ele><time>2026-04-29T16:09:20Z</time></trkpt><trkpt lat="43.319747801348555" lon="-0.4031606006306737"><ele>198.0</ele><time>2026-04-29T16:09:22Z</time></trkpt><trkpt lat="43.31968879207289" lon="-0.4030109425990465"><ele>198.4</ele><time>2026-04-29T16:09:24Z</time></trkpt><trkpt lat="43.319628728598055" lon="-0.40286775923251716"><ele>198.8</ele><time>2026-04-29T16:09:26Z</time></trkpt><trkpt lat="43.31956906323926" lon="-0.402727117213816"><ele>199.2</ele><time>2026-04-29T16:09:28Z</time></trkpt><trkpt lat="43.31951247015597" lon="-0.40257365460503164"><ele>199.6</ele><time>2026-04-29T16:09:30Z</time></trkpt><trkpt lat="43.31948484052245" lon="-0.4024901349014249"><ele>200.0</ele><time>2026-04-29T16:09:31Z</time></trkpt><trkpt lat="43.319460711125366" lon="-0.40240995766308985"><ele>200.0</ele><time>2026-04-29T16:09:32Z</time></trkpt><trkpt lat="43.31943564844356" lon="-0.4023293448140975"><ele>200.0</ele><time>2026-04-29T16:09:33Z</time></trkpt><trkpt lat="43.319381527580816" lon="-0.4021831159635055"><ele>200.0</ele><time>2026-04-29T16:09:35Z</time></trkpt><trkpt lat="43.31933863249248" lon="-0.40203028135815216"><ele>200.0</ele><time>2026-04-29T16:09:37Z</time></trkpt><trkpt lat="43.31927406867569" lon="-0.401896196028871"><ele>200.0</ele><time>2026-04-29T16:09:39Z</time></trkpt><trkpt lat="43.31924284334619" lon="-0.4018203613400342"><ele>199.50000000000003</ele><time>2026-04-29T16:09:40Z</time></trkpt><trkpt lat="43.31917947276887" lon="-0.4016662242153585"><ele>199.0</ele><time>2026-04-29T16:09:42Z</time></trkpt><trkpt lat="43.319147981101914" lon="-0.40158872303990917"><ele>198.5</ele><time>2026-04-29T16:09:43Z</time></trkpt><trkpt lat="43.319116606023165" lon="-0.4015050072731784"><ele>198.0</ele><time>2026-04-29T16:09:44Z</time></trkpt><trkpt lat="43.3190820069486" lon="-0.4014298491022381"><ele>197.50000000000003</ele><time>2026-04-29T16:09:45Z</time></trkpt><trkpt lat="43.319018587147134" lon="-0.40133844143943054"><ele>197.0</ele><time>2026-04-29T16:09:46Z</time></trkpt><trkpt lat="43.318946770703846" lon="-0.4011711675191814"><ele>197.00000000000003</ele><time>2026-04-29T16:09:48Z</time></trkpt><trkpt lat="43.31890764058465" lon="-0.40108483380508764"><ele>197.0</ele><time>2026-04-29T16:09:49Z</time></trkpt><trkpt lat="43.31885138145364" lon="-0.400918942102727"><ele>197.0</ele><time>2026-04-29T16:09:51Z</time></trkpt><trkpt lat="43.318814813455106" lon="-0.4008480989847061"><ele>197.0</ele><time>2026-04-29T16:09:52Z</time></trkpt><trkpt lat="43.31877407477238" lon="-0.40077342501591817"><ele>197.00000000000003</ele><time>2026-04-29T16:09:53Z</time></trkpt><trkpt lat="43.31873345111378" lon="-0.40069834745045274"><ele>197.0</ele><time>2026-04-29T16:09:54Z</time></trkpt><trkpt lat="43.31869637728607" lon="-0.4006183544434906"><ele>196.85714285714286</ele><time>2026-04-29T16:09:55Z</time></trkpt><trkpt lat="43.31865788095109" lon="-0.40053633625754037"><ele>196.71428571428572</ele><time>2026-04-29T16:09:56Z</time></trkpt><trkpt lat="43.318623623354135" lon="-0.40045511119525334"><ele>196.57142857142856</ele><time>2026-04-29T16:09:57Z</time></trkpt><trkpt lat="43.31859086575078" lon="-0.40037354151458343"><ele>196.42857142857144</ele><time>2026-04-29T16:09:58Z</time></trkpt><trkpt lat="43.318560694034886" lon="-0.40028598342071453"><ele>196.28571428571428</ele><time>2026-04-29T16:09:59Z</time></trkpt><trkpt lat="43.31852671722565" lon="-0.4001982643859074"><ele>196.14285714285714</ele><time>2026-04-29T16:10:00Z</time></trkpt><trkpt lat="43.31849681834281" lon="-0.4001095616203971"><ele>196.0</ele><time>2026-04-29T16:10:01Z</time></trkpt><trkpt lat="43.3184759063516" lon="-0.4000130191226345"><ele>195.99999999999997</ele><time>2026-04-29T16:10:02Z</time></trkpt><trkpt lat="43.31845852813794" lon="-0.39992044048667824"><ele>196.0</ele><time>2026-04-29T16:10:03Z</time></trkpt><trkpt lat="43.31844185889287" lon="-0.3998233761422101"><ele>196.0</ele><time>2026-04-29T16:10:04Z</time></trkpt><trkpt lat="43.318424721623714" lon="-0.399619801096359"><ele>196.0</ele><time>2026-04-29T16:10:06Z</time></trkpt><trkpt lat="43.31841702806839" lon="-0.39952178390048226"><ele>195.99999999999997</ele><time>2026-04-29T16:10:07Z</time></trkpt><trkpt lat="43.318417533815364" lon="-0.39943037433886414"><ele>196.0</ele><time>2026-04-29T16:10:08Z</time></trkpt><trkpt lat="43.31841550112233" lon="-0.39932998591420454"><ele>196.0</ele><time>2026-04-29T16:10:09Z</time></trkpt><trkpt lat="43.31841252232697" lon="-0.39923362166123116"><ele>196.0</ele><time>2026-04-29T16:10:10Z</time></trkpt><trkpt lat="43.318407354035166" lon="-0.3991419762354846"><ele>196.0</ele><time>2026-04-29T16:10:11Z</time></trkpt><trkpt lat="43.31840020389371" lon="-0.39905011196027257"><ele>196.0</ele><time>2026-04-29T16:10:12Z</time></trkpt><trkpt lat="43.31839529806538" lon="-0.3989582209186523"><ele>196.0</ele><time>2026-04-29T16:10:13Z</time></trkpt><trkpt lat="43.31839318136383" lon="-0.39886710407516884"><ele>196.0</ele><time>2026-04-29T16:10:14Z</time></trkpt><trkpt lat="43.31839128622436" lon="-0.39877340769051733"><ele>196.0</ele><time>2026-04-29T16:10:15Z</time></trkpt><trkpt lat="43.31837396675441" lon="-0.3986827415395096"><ele>196.0</ele><time>2026-04-29T16:10:16Z</time></trkpt><trkpt lat="43.31837735870402" lon="-0.3985887174226351"><ele>196.0</ele><time>2026-04-29T16:10:17Z</time></trkpt><trkpt lat="43.31837120269505" lon="-0.3984987072772009"><ele>196.0</ele><time>2026-04-29T16:10:18Z</time></trkpt><trkpt lat="43.318364952708244" lon="-0.39840878421720227"><ele>196.0</ele><time>2026-04-29T16:10:19Z</time></trkpt><trkpt lat="43.31836069213838" lon="-0.3983162782473808"><ele>196.0</ele><time>2026-04-29T16:10:20Z</time></trkpt><trkpt lat="43.31835759864658" lon="-0.39822461660207126"><ele>196.0</ele><time>2026-04-29T16:10:21Z</time></trkpt><trkpt lat="43.31835868246662" lon="-0.39813052849191555"><ele>196.0</ele><time>2026-04-29T16:10:22Z</time></trkpt><trkpt lat="43.31835452841884" lon="-0.39803521993135854"><ele>196.20000000000002</ele><time>2026-04-29T16:10:23Z</time></trkpt><trkpt lat="43.31835169128323" lon="-0.3979460155847929"><ele>196.4</ele><time>2026-04-29T16:10:24Z</time></trkpt><trkpt lat="43.31834789333169" lon="-0.39777248273374244"><ele>196.6</ele><time>2026-04-29T16:10:26Z</time></trkpt><trkpt lat="43.31833707685261" lon="-0.39768701354374714"><ele>196.8</ele><time>2026-04-29T16:10:27Z</time></trkpt><trkpt lat="43.31834950705077" lon="-0.39751641733914506"><ele>197.0</ele><time>2026-04-29T16:10:29Z</time></trkpt><trkpt lat="43.318366531666975" lon="-0.3973507517219586"><ele>197.0</ele><time>2026-04-29T16:10:31Z</time></trkpt><trkpt lat="43.318379105705674" lon="-0.39718903524065563"><ele>197.0</ele><time>2026-04-29T16:10:33Z</time></trkpt><trkpt lat="43.318383969578804" lon="-0.3970963446715241"><ele>197.0</ele><time>2026-04-29T16:10:34Z</time></trkpt><trkpt lat="43.318355935568654" lon="-0.3969426528515985"><ele>197.0</ele><time>2026-04-29T16:10:36Z</time></trkpt><trkpt lat="43.318305245967494" lon="-0.39679409990929465"><ele>197.0</ele><time>2026-04-29T16:10:38Z</time></trkpt><trkpt lat="43.31827526336688" lon="-0.3967132223491735"><ele>197.0</ele><time>2026-04-29T16:10:39Z</time></trkpt><trkpt lat="43.318232268620214" lon="-0.3966404584345022"><ele>197.0</ele><time>2026-04-29T16:10:40Z</time></trkpt><trkpt lat="43.31813364744323" lon="-0.3965383297383327"><ele>197.0</ele><time>2026-04-29T16:10:42Z</time></trkpt><trkpt lat="43.31802697351024" lon="-0.39644504767520095"><ele>197.0</ele><time>2026-04-29T16:10:44Z</time></trkpt><trkpt lat="43.317971069918144" lon="-0.3963945846217058"><ele>197.0</ele><time>2026-04-29T16:10:45Z</time></trkpt><trkpt lat="43.31791208200825" lon="-0.396335785105758"><ele>196.85714285714286</ele><time>2026-04-29T16:10:46Z</time></trkpt><trkpt lat="43.31785510332145" lon="-0.396282729429145"><ele>196.71428571428572</ele><time>2026-04-29T16:10:47Z</time></trkpt><trkpt lat="43.317798728009365" lon="-0.39623047158484637"><ele>196.57142857142856</ele><time>2026-04-29T16:10:48Z</time></trkpt><trkpt lat="43.317737887692665" lon="-0.39617032204005215"><ele>196.42857142857144</ele><time>2026-04-29T16:10:49Z</time></trkpt><trkpt lat="43.317682656573574" lon="-0.39611111490505885"><ele>196.28571428571428</ele><time>2026-04-29T16:10:50Z</time></trkpt><trkpt lat="43.31762884698459" lon="-0.39604797697218974"><ele>196.14285714285714</ele><time>2026-04-29T16:10:51Z</time></trkpt><trkpt lat="43.317578579440074" lon="-0.3959769996756217"><ele>196.0</ele><time>2026-04-29T16:10:52Z</time></trkpt><trkpt lat="43.31754147715257" lon="-0.3958979484517367"><ele>196.0</ele><time>2026-04-29T16:10:53Z</time></trkpt><trkpt lat="43.31750211423182" lon="-0.39581763887624777"><ele>196.0</ele><time>2026-04-29T16:10:54Z</time></trkpt><trkpt lat="43.31742671679761" lon="-0.3956785151417591"><ele>196.0</ele><time>2026-04-29T16:10:56Z</time></trkpt><trkpt lat="43.317354321141934" lon="-0.39555013730089295"><ele>196.0</ele><time>2026-04-29T16:10:58Z</time></trkpt><trkpt lat="43.31728733733132" lon="-0.395433555820433"><ele>196.0</ele><time>2026-04-29T16:11:00Z</time></trkpt><trkpt lat="43.31722451693798" lon="-0.39533114949381176"><ele>196.66666666666666</ele><time>2026-04-29T16:11:02Z</time></trkpt><trkpt lat="43.31715718955907" lon="-0.3952526524734416"><ele>197.33333333333331</ele><time>2026-04-29T16:11:04Z</time></trkpt><trkpt lat="43.31708087458993" lon="-0.39524014234109967"><ele>198.0</ele><time>2026-04-29T16:11:06Z</time></trkpt><trkpt lat="43.31699407872522" lon="-0.3952551593516792"><ele>198.66666666666669</ele><time>2026-04-29T16:11:09Z</time></trkpt><trkpt lat="43.316916442158416" lon="-0.3952266311162153"><ele>199.33333333333334</ele><time>2026-04-29T16:11:11Z</time></trkpt><trkpt lat="43.31685319092477" lon="-0.3951227072894901"><ele>200.0</ele><time>2026-04-29T16:11:13Z</time></trkpt><trkpt lat="43.316834641259504" lon="-0.39498198041782884"><ele>200.0</ele><time>2026-04-29T16:11:15Z</time></trkpt><trkpt lat="43.31687232525284" lon="-0.3948448939324098"><ele>200.0</ele><time>2026-04-29T16:11:17Z</time></trkpt><trkpt lat="43.31695419488202" lon="-0.39473916994811387"><ele>200.0</ele><time>2026-04-29T16:11:19Z</time></trkpt><trkpt lat="43.31705748267394" lon="-0.394675486102257"><ele>200.0</ele><time>2026-04-29T16:11:21Z</time></trkpt><trkpt lat="43.317195925544056" lon="-0.3946470735429948"><ele>199.50000000000003</ele><time>2026-04-29T16:11:23Z</time></trkpt><trkpt lat="43.31727606851705" lon="-0.3946340823590538"><ele>199.0</ele><time>2026-04-29T16:11:24Z</time></trkpt><trkpt lat="43.31733337445811" lon="-0.39459705961745084"><ele>198.5</ele><time>2026-04-29T16:11:25Z</time></trkpt><trkpt lat="43.317412284905224" lon="-0.3945653288539671"><ele>198.0</ele><time>2026-04-29T16:11:26Z</time></trkpt><trkpt lat="43.31748133147292" lon="-0.394523329071612"><ele>197.50000000000003</ele><time>2026-04-29T16:11:27Z</time></trkpt><trkpt lat="43.317554470653576" lon="-0.3944833767938443"><ele>197.0</ele><time>2026-04-29T16:11:28Z</time></trkpt><trkpt lat="43.31761998147217" lon="-0.3944410490607228"><ele>197.0</ele><time>2026-04-29T16:11:29Z</time></trkpt><trkpt lat="43.317685866863464" lon="-0.39438932966310153"><ele>197.0</ele><time>2026-04-29T16:11:30Z</time></trkpt><trkpt lat="43.317755144342364" lon="-0.39433927831429616"><ele>197.0</ele><time>2026-04-29T16:11:31Z</time></trkpt><trkpt lat="43.31781894426533" lon="-0.39430089306303234"><ele>197.0</ele><time>2026-04-29T16:11:32Z</time></trkpt><trkpt lat="43.31788201600953" lon="-0.3942619584814782"><ele>197.0</ele><time>2026-04-29T16:11:33Z</time></trkpt><trkpt lat="43.3179545044042" lon="-0.39421718214689017"><ele>197.0</ele><time>2026-04-29T16:11:34Z</time></trkpt><trkpt lat="43.3180167604816" lon="-0.39417086298766746"><ele>197.0</ele><time>2026-04-29T16:11:35Z</time></trkpt><trkpt lat="43.31808888009587" lon="-0.39413646866942"><ele>197.0</ele><time>2026-04-29T16:11:36Z</time></trkpt><trkpt lat="43.31815884697093" lon="-0.39409738375425873"><ele>197.0</ele><time>2026-04-29T16:11:37Z</time></trkpt><trkpt lat="43.318224795960404" lon="-0.3940549504599838"><ele>197.0</ele><time>2026-04-29T16:11:38Z</time></trkpt><trkpt lat="43.31829522021115" lon="-0.3940154679970227"><ele>197.0</ele><time>2026-04-29T16:11:39Z</time></trkpt><trkpt lat="43.31835726736626" lon="-0.3939800809864831"><ele>197.0</ele><time>2026-04-29T16:11:40Z</time></trkpt><trkpt lat="43.31842114585254" lon="-0.39393624440129393"><ele>197.0</ele><time>2026-04-29T16:11:41Z</time></trkpt><trkpt lat="43.318487294496975" lon="-0.3939004476035287"><ele>197.0</ele><time>2026-04-29T16:11:42Z</time></trkpt><trkpt lat="43.3185564414218" lon="-0.393862420103585"><ele>197.16666666666669</ele><time>2026-04-29T16:11:43Z</time></trkpt><trkpt lat="43.31862449529012" lon="-0.3938220971617667"><ele>197.33333333333334</ele><time>2026-04-29T16:11:44Z</time></trkpt><trkpt lat="43.31869202585852" lon="-0.3937847913205885"><ele>197.5</ele><time>2026-04-29T16:11:45Z</time></trkpt><trkpt lat="43.31876000542129" lon="-0.3937477138026309"><ele>197.66666666666669</ele><time>2026-04-29T16:11:46Z</time></trkpt><trkpt lat="43.318828661285075" lon="-0.39370283446226745"><ele>197.83333333333334</ele><time>2026-04-29T16:11:47Z</time></trkpt><trkpt lat="43.318903320524825" lon="-0.3936649756996954"><ele>198.0</ele><time>2026-04-29T16:11:48Z</time></trkpt><trkpt lat="43.31897157792839" lon="-0.39362287250471245"><ele>198.0</ele><time>2026-04-29T16:11:49Z</time></trkpt><trkpt lat="43.319036904722736" lon="-0.3935794779644129"><ele>198.0</ele><time>2026-04-29T16:11:50Z</time></trkpt><trkpt lat="43.319107865565385" lon="-0.3935375660713794"><ele>198.0</ele><time>2026-04-29T16:11:51Z</time></trkpt><trkpt lat="43.319170416192314" lon="-0.39349483723543466"><ele>198.0</ele><time>2026-04-29T16:11:52Z</time></trkpt><trkpt lat="43.319238029650556" lon="-0.39344958061299384"><ele>198.0</ele><time>2026-04-29T16:11:53Z</time></trkpt><trkpt lat="43.31930032602545" lon="-0.3934058631412945"><ele>198.0</ele><time>2026-04-29T16:11:54Z</time></trkpt><trkpt lat="43.31935874857297" lon="-0.39335898819695314"><ele>198.0</ele><time>2026-04-29T16:11:55Z</time></trkpt><trkpt lat="43.31941773122473" lon="-0.39330901869130885"><ele>198.0</ele><time>2026-04-29T16:11:56Z</time></trkpt><trkpt lat="43.31947500457517" lon="-0.3932594159947134"><ele>198.0</ele><time>2026-04-29T16:11:57Z</time></trkpt><trkpt lat="43.31953682307634" lon="-0.39321438740787384"><ele>198.0</ele><time>2026-04-29T16:11:58Z</time></trkpt><trkpt lat="43.31959192571624" lon="-0.3931616873660071"><ele>198.0</ele><time>2026-04-29T16:11:59Z</time></trkpt><trkpt lat="43.31968977767565" lon="-0.3930540946834831"><ele>198.0</ele><time>2026-04-29T16:12:01Z</time></trkpt><trkpt lat="43.319786632862765" lon="-0.39297253411369165"><ele>198.0</ele><time>2026-04-29T16:12:03Z</time></trkpt><trkpt lat="43.31986425644476" lon="-0.3929004895842713"><ele>198.4</ele><time>2026-04-29T16:12:05Z</time></trkpt><trkpt lat="43.31992703655794" lon="-0.3928327421178669"><ele>198.8</ele><time>2026-04-29T16:12:07Z</time></trkpt><trkpt lat="43.319990484013154" lon="-0.3927553986148338"><ele>199.2</ele><time>2026-04-29T16:12:09Z</time></trkpt><trkpt lat="43.32006551974291" lon="-0.39266891716760677"><ele>199.6</ele><time>2026-04-29T16:12:11Z</time></trkpt><trkpt lat="43.32013755603113" lon="-0.39257082651291997"><ele>200.0</ele><time>2026-04-29T16:12:13Z</time></trkpt><trkpt lat="43.32019979737601" lon="-0.39247730448138324"><ele>200.00000000000003</ele><time>2026-04-29T16:12:15Z</time></trkpt><trkpt lat="43.32026046165387" lon="-0.39239407108602387"><ele>200.0</ele><time>2026-04-29T16:12:17Z</time></trkpt><trkpt lat="43.32031597506143" lon="-0.3923074306395546"><ele>200.0</ele><time>2026-04-29T16:12:19Z</time></trkpt><trkpt lat="43.32036274618389" lon="-0.39222622097365933"><ele>200.0</ele><time>2026-04-29T16:12:27Z</time></trkpt><trkpt lat="43.3204128074965" lon="-0.3921422550972029"><ele>200.00000000000003</ele><time>2026-04-29T16:12:30Z</time></trkpt><trkpt lat="43.32045259588296" lon="-0.3920663896012774"><ele>200.0</ele><time>2026-04-29T16:12:32Z</time></trkpt><trkpt lat="43.32048282047405" lon="-0.39195938308248435"><ele>200.0</ele><time>2026-04-29T16:12:34Z</time></trkpt><trkpt lat="43.32049297978501" lon="-0.3918337860000883"><ele>200.0</ele><time>2026-04-29T16:12:36Z</time></trkpt><trkpt lat="43.32053543065973" lon="-0.39170169011697675"><ele>200.0</ele><time>2026-04-29T16:12:38Z</time></trkpt><trkpt lat="43.320619366382886" lon="-0.3915926016968939"><ele>200.0</ele><time>2026-04-29T16:12:40Z</time></trkpt><trkpt lat="43.32073561685984" lon="-0.3915409494039656"><ele>200.0</ele><time>2026-04-29T16:12:42Z</time></trkpt><trkpt lat="43.320858346508324" lon="-0.3915679858222098"><ele>199.83333333333334</ele><time>2026-04-29T16:12:44Z</time></trkpt><trkpt lat="43.32091428998117" lon="-0.3916134814423935"><ele>199.66666666666669</ele><time>2026-04-29T16:12:45Z</time></trkpt><trkpt lat="43.320963084617446" lon="-0.39167113303975576"><ele>199.5</ele><time>2026-04-29T16:12:46Z</time></trkpt><trkpt lat="43.32101093324051" lon="-0.39182256315528113"><ele>199.33333333333331</ele><time>2026-04-29T16:12:48Z</time></trkpt><trkpt lat="43.32102254377276" lon="-0.39190902743224726"><ele>199.16666666666666</ele><time>2026-04-29T16:12:49Z</time></trkpt><trkpt lat="43.32100857878506" lon="-0.3920950933957226"><ele>199.0</ele><time>2026-04-29T16:12:51Z</time></trkpt><trkpt lat="43.3209921854366" lon="-0.3921848468842694"><ele>198.99999999999997</ele><time>2026-04-29T16:12:52Z</time></trkpt><trkpt lat="43.320986103607545" lon="-0.3922815181738136"><ele>199.0</ele><time>2026-04-29T16:12:53Z</time></trkpt><trkpt lat="43.321003861347364" lon="-0.39238477383609544"><ele>199.0</ele><time>2026-04-29T16:12:54Z</time></trkpt><trkpt lat="43.321034891532825" lon="-0.3924765751837849"><ele>199.0</ele><time>2026-04-29T16:12:55Z</time></trkpt><trkpt lat="43.321063715374066" lon="-0.3925660095428423"><ele>199.0</ele><time>2026-04-29T16:12:56Z</time></trkpt><trkpt lat="43.32109445471492" lon="-0.3926504260523115"><ele>198.99999999999997</ele><time>2026-04-29T16:12:57Z</time></trkpt><trkpt lat="43.321125067256446" lon="-0.3927457982094023"><ele>199.0</ele><time>2026-04-29T16:12:58Z</time></trkpt><trkpt lat="43.32115169927355" lon="-0.3928438652617678"><ele>198.99999999999997</ele><time>2026-04-29T16:12:59Z</time></trkpt><trkpt lat="43.32117835073656" lon="-0.39294503328915203"><ele>199.0</ele><time>2026-04-29T16:13:00Z</time></trkpt><trkpt lat="43.32120600700826" lon="-0.39304856430284685"><ele>199.0</ele><time>2026-04-29T16:13:01Z</time></trkpt><trkpt lat="43.3212315144402" lon="-0.39314782543289434"><ele>199.0</ele><time>2026-04-29T16:13:02Z</time></trkpt><trkpt lat="43.32125835950879" lon="-0.39324726101928215"><ele>198.99999999999997</ele><time>2026-04-29T16:13:03Z</time></trkpt><trkpt lat="43.321283212881056" lon="-0.3933572786446351"><ele>199.0</ele><time>2026-04-29T16:13:04Z</time></trkpt><trkpt lat="43.32130765243996" lon="-0.39345620257200115"><ele>198.99999999999997</ele><time>2026-04-29T16:13:05Z</time></trkpt><trkpt lat="43.32133071058946" lon="-0.39355830550424137"><ele>199.0</ele><time>2026-04-29T16:13:06Z</time></trkpt><trkpt lat="43.32136155247495" lon="-0.39365869738835446"><ele>199.0</ele><time>2026-04-29T16:13:07Z</time></trkpt><trkpt lat="43.32139056572657" lon="-0.39375988960434244"><ele>199.0</ele><time>2026-04-29T16:13:08Z</time></trkpt><trkpt lat="43.32141981964153" lon="-0.3938607046444285"><ele>198.99999999999997</ele><time>2026-04-29T16:13:09Z</time></trkpt><trkpt lat="43.321447987237384" lon="-0.39396338916422136"><ele>199.0</ele><time>2026-04-29T16:13:10Z</time></trkpt><trkpt lat="43.32147925602886" lon="-0.39406804171096804"><ele>199.33333333333331</ele><time>2026-04-29T16:13:11Z</time></trkpt><trkpt lat="43.32150700725566" lon="-0.3941702855587818"><ele>199.66666666666666</ele><time>2026-04-29T16:13:12Z</time></trkpt><trkpt lat="43.32153136713657" lon="-0.3942776275807486"><ele>200.0</ele><time>2026-04-29T16:13:13Z</time></trkpt><trkpt lat="43.32155671350129" lon="-0.3943888858926255"><ele>200.33333333333331</ele><time>2026-04-29T16:13:14Z</time></trkpt><trkpt lat="43.32157587292818" lon="-0.394505757202039"><ele>200.66666666666666</ele><time>2026-04-29T16:13:15Z</time></trkpt><trkpt lat="43.32161353157113" lon="-0.3946043502605751"><ele>201.0</ele><time>2026-04-29T16:13:16Z</time></trkpt><trkpt lat="43.32164128756395" lon="-0.394712796242932"><ele>201.0</ele><time>2026-04-29T16:13:17Z</time></trkpt><trkpt lat="43.32167032391754" lon="-0.3948243852656131"><ele>201.0</ele><time>2026-04-29T16:13:18Z</time></trkpt><trkpt lat="43.321697874882496" lon="-0.3949362482001161"><ele>201.0</ele><time>2026-04-29T16:13:19Z</time></trkpt><trkpt lat="43.32171613709036" lon="-0.3950657864415933"><ele>201.0</ele><time>2026-04-29T16:13:20Z</time></trkpt><trkpt lat="43.32174945788439" lon="-0.3951659455373517"><ele>201.0</ele><time>2026-04-29T16:13:21Z</time></trkpt><trkpt lat="43.32178125175176" lon="-0.3952785209812797"><ele>201.0</ele><time>2026-04-29T16:13:22Z</time></trkpt><trkpt lat="43.32183767321888" lon="-0.39551306707907596"><ele>201.0</ele><time>2026-04-29T16:13:24Z</time></trkpt><trkpt lat="43.32187595205986" lon="-0.39562105082025273"><ele>201.0</ele><time>2026-04-29T16:13:25Z</time></trkpt><trkpt lat="43.32190545480707" lon="-0.3957315239573926"><ele>201.0</ele><time>2026-04-29T16:13:26Z</time></trkpt><trkpt lat="43.32193445735162" lon="-0.3958501738559593"><ele>201.0</ele><time>2026-04-29T16:13:27Z</time></trkpt><trkpt lat="43.32196015485919" lon="-0.39596927866657694"><ele>201.0</ele><time>2026-04-29T16:13:28Z</time></trkpt><trkpt lat="43.321994937079594" lon="-0.39607703918812615"><ele>201.0</ele><time>2026-04-29T16:13:29Z</time></trkpt><trkpt lat="43.32202776629418" lon="-0.396185585854365"><ele>201.0</ele><time>2026-04-29T16:13:30Z</time></trkpt><trkpt lat="43.32206051826892" lon="-0.396298708748762"><ele>201.0</ele><time>2026-04-29T16:13:31Z</time></trkpt><trkpt lat="43.32208875098377" lon="-0.39640969712799695"><ele>201.0</ele><time>2026-04-29T16:13:32Z</time></trkpt><trkpt lat="43.32211809289663" lon="-0.39652350555369315"><ele>201.0</ele><time>2026-04-29T16:13:33Z</time></trkpt><trkpt lat="43.322149697657835" lon="-0.3966330563187767"><ele>201.0</ele><time>2026-04-29T16:13:34Z</time></trkpt><trkpt lat="43.322185404241445" lon="-0.39674255164944816"><ele>201.0</ele><time>2026-04-29T16:13:35Z</time></trkpt><trkpt lat="43.32221458218594" lon="-0.3968567438798677"><ele>201.0</ele><time>2026-04-29T16:13:36Z</time></trkpt><trkpt lat="43.32224907805641" lon="-0.3969577459929249"><ele>201.0</ele><time>2026-04-29T16:13:37Z</time></trkpt><trkpt lat="43.322297123203526" lon="-0.3970507410620683"><ele>201.0</ele><time>2026-04-29T16:13:38Z</time></trkpt><trkpt lat="43.32232129662552" lon="-0.397158875317252"><ele>201.0</ele><time>2026-04-29T16:13:39Z</time></trkpt><trkpt lat="43.32233317243147" lon="-0.39727903793974395"><ele>201.0</ele><time>2026-04-29T16:13:40Z</time></trkpt><trkpt lat="43.32235812670835" lon="-0.39737904609051045"><ele>201.0</ele><time>2026-04-29T16:13:41Z</time></trkpt><trkpt lat="43.322380040537425" lon="-0.3974857763996902"><ele>201.0</ele><time>2026-04-29T16:13:42Z</time></trkpt><trkpt lat="43.32240879437223" lon="-0.39756795804954015"><ele>201.0</ele><time>2026-04-29T16:13:43Z</time></trkpt><trkpt lat="43.32242775124676" lon="-0.39766790580695127"><ele>201.0</ele><time>2026-04-29T16:13:44Z</time></trkpt><trkpt lat="43.32244219861127" lon="-0.3977639391882605"><ele>201.0</ele><time>2026-04-29T16:13:45Z</time></trkpt><trkpt lat="43.32245626717776" lon="-0.3978655559002518"><ele>201.0</ele><time>2026-04-29T16:13:46Z</time></trkpt><trkpt lat="43.32247270640076" lon="-0.39796246894258147"><ele>201.0</ele><time>2026-04-29T16:13:47Z</time></trkpt><trkpt lat="43.322515970522026" lon="-0.39814444764092044"><ele>200.83333333333334</ele><time>2026-04-29T16:13:49Z</time></trkpt><trkpt lat="43.32253326560517" lon="-0.3982357468972914"><ele>200.66666666666669</ele><time>2026-04-29T16:13:50Z</time></trkpt><trkpt lat="43.32255142112001" lon="-0.39841487683156535"><ele>200.5</ele><time>2026-04-29T16:13:52Z</time></trkpt><trkpt lat="43.32255760358185" lon="-0.3985434236733889"><ele>200.33333333333334</ele><time>2026-04-29T16:13:54Z</time></trkpt><trkpt lat="43.32256973278809" lon="-0.39864600465054223"><ele>200.16666666666669</ele><time>2026-04-29T16:13:56Z</time></trkpt><trkpt lat="43.322599154203196" lon="-0.3987456992391306"><ele>200.0</ele><time>2026-04-29T16:13:58Z</time></trkpt><trkpt lat="43.32265670546252" lon="-0.39881744491495946"><ele>199.2</ele><time>2026-04-29T16:14:00Z</time></trkpt><trkpt lat="43.32269216182793" lon="-0.39895049114719694"><ele>198.4</ele><time>2026-04-29T16:14:02Z</time></trkpt><trkpt lat="43.32279473875166" lon="-0.39893325929923756"><ele>197.60000000000002</ele><time>2026-04-29T16:14:03Z</time></trkpt><trkpt lat="43.32285317487634" lon="-0.39896906279658284"><ele>196.8</ele><time>2026-04-29T16:14:04Z</time></trkpt><trkpt lat="43.3229560226863" lon="-0.3990476498230133"><ele>196.0</ele><time>2026-04-29T16:14:06Z</time></trkpt><trkpt lat="43.323018502710006" lon="-0.3992013069636925"><ele>196.0</ele><time>2026-04-29T16:14:08Z</time></trkpt><trkpt lat="43.323031354745524" lon="-0.399292329760125"><ele>196.0</ele><time>2026-04-29T16:14:09Z</time></trkpt><trkpt lat="43.32303280068784" lon="-0.39939351858145006"><ele>196.0</ele><time>2026-04-29T16:14:10Z</time></trkpt><trkpt lat="43.323031198160784" lon="-0.3994874255645606"><ele>196.0</ele><time>2026-04-29T16:14:11Z</time></trkpt><trkpt lat="43.32302302944169" lon="-0.3995807268482833"><ele>196.0</ele><time>2026-04-29T16:14:12Z</time></trkpt><trkpt lat="43.32302103064261" lon="-0.3996762085826655"><ele>196.0</ele><time>2026-04-29T16:14:13Z</time></trkpt><trkpt lat="43.323037237399774" lon="-0.39977090667445475"><ele>196.0</ele><time>2026-04-29T16:14:14Z</time></trkpt><trkpt lat="43.32306405607488" lon="-0.399870848954031"><ele>195.49999999999997</ele><time>2026-04-29T16:14:15Z</time></trkpt><trkpt lat="43.32309053460326" lon="-0.39996836533325014"><ele>195.0</ele><time>2026-04-29T16:14:16Z</time></trkpt><trkpt lat="43.32311601452532" lon="-0.4000709151927305"><ele>194.5</ele><time>2026-04-29T16:14:17Z</time></trkpt><trkpt lat="43.32312087819" lon="-0.4001808579935904"><ele>194.0</ele><time>2026-04-29T16:14:18Z</time></trkpt><trkpt lat="43.32312895251029" lon="-0.400285762742723"><ele>193.49999999999997</ele><time>2026-04-29T16:14:19Z</time></trkpt><trkpt lat="43.323149997471496" lon="-0.40040042742297677"><ele>193.0</ele><time>2026-04-29T16:14:20Z</time></trkpt><trkpt lat="43.323167041901584" lon="-0.40051174062212413"><ele>192.99999999999997</ele><time>2026-04-29T16:14:21Z</time></trkpt><trkpt lat="43.323185812058874" lon="-0.40063004790290396"><ele>193.0</ele><time>2026-04-29T16:14:22Z</time></trkpt><trkpt lat="43.32320061120854" lon="-0.40074657849995043"><ele>193.0</ele><time>2026-04-29T16:14:23Z</time></trkpt><trkpt lat="43.32322637888416" lon="-0.40086700372131356"><ele>193.0</ele><time>2026-04-29T16:14:24Z</time></trkpt><trkpt lat="43.323250157531284" lon="-0.40098978140269786"><ele>192.99999999999997</ele><time>2026-04-29T16:14:25Z</time></trkpt><trkpt lat="43.323276340779" lon="-0.4011088243704854"><ele>193.0</ele><time>2026-04-29T16:14:26Z</time></trkpt><trkpt lat="43.32330508863546" lon="-0.4012275189365617"><ele>192.8</ele><time>2026-04-29T16:14:27Z</time></trkpt><trkpt lat="43.32333341213138" lon="-0.4013472058542699"><ele>192.60000000000002</ele><time>2026-04-29T16:14:28Z</time></trkpt><trkpt lat="43.323362465311234" lon="-0.4014647609855046"><ele>192.39999999999998</ele><time>2026-04-29T16:14:29Z</time></trkpt><trkpt lat="43.323391984127475" lon="-0.4015834676699526"><ele>192.2</ele><time>2026-04-29T16:14:30Z</time></trkpt><trkpt lat="43.3234210468025" lon="-0.4016982003915214"><ele>192.0</ele><time>2026-04-29T16:14:31Z</time></trkpt><trkpt lat="43.323450514705804" lon="-0.4018181498496749"><ele>192.0</ele><time>2026-04-29T16:14:32Z</time></trkpt><trkpt lat="43.32348297973427" lon="-0.40193430789513807"><ele>192.0</ele><time>2026-04-29T16:14:33Z</time></trkpt><trkpt lat="43.32351430012361" lon="-0.40205916319450047"><ele>192.0</ele><time>2026-04-29T16:14:34Z</time></trkpt><trkpt lat="43.32354065850105" lon="-0.4021794262976663"><ele>192.0</ele><time>2026-04-29T16:14:35Z</time></trkpt><trkpt lat="43.32357707836126" lon="-0.40229827037356625"><ele>192.0</ele><time>2026-04-29T16:14:36Z</time></trkpt><trkpt lat="43.323609477200804" lon="-0.40241822409318845"><ele>192.0</ele><time>2026-04-29T16:14:37Z</time></trkpt><trkpt lat="43.32363801861415" lon="-0.4025384289488436"><ele>192.0</ele><time>2026-04-29T16:14:38Z</time></trkpt><trkpt lat="43.32366711114583" lon="-0.4026597952033515"><ele>192.0</ele><time>2026-04-29T16:14:39Z</time></trkpt><trkpt lat="43.323697808677366" lon="-0.4027763132745798"><ele>192.0</ele><time>2026-04-29T16:14:40Z</time></trkpt><trkpt lat="43.32373974943658" lon="-0.4028883128932243"><ele>192.0</ele><time>2026-04-29T16:14:41Z</time></trkpt><trkpt lat="43.32377375104214" lon="-0.40300971561555154"><ele>191.6</ele><time>2026-04-29T16:14:42Z</time></trkpt><trkpt lat="43.323803412553985" lon="-0.4031287479746771"><ele>191.2</ele><time>2026-04-29T16:14:43Z</time></trkpt><trkpt lat="43.32384155012782" lon="-0.40324594396439745"><ele>190.8</ele><time>2026-04-29T16:14:44Z</time></trkpt><trkpt lat="43.32387964737777" lon="-0.4033632477933568"><ele>190.4</ele><time>2026-04-29T16:14:45Z</time></trkpt><trkpt lat="43.3239199206632" lon="-0.40348136591080636"><ele>190.0</ele><time>2026-04-29T16:14:46Z</time></trkpt><trkpt lat="43.32396109206402" lon="-0.40359107878973194"><ele>190.0</ele><time>2026-04-29T16:14:47Z</time></trkpt><trkpt lat="43.324001259405584" lon="-0.40370458429846545"><ele>190.0</ele><time>2026-04-29T16:14:48Z</time></trkpt><trkpt lat="43.32403832271699" lon="-0.4038191207775053"><ele>190.0</ele><time>2026-04-29T16:14:49Z</time></trkpt><trkpt lat="43.32408800966708" lon="-0.40391880018111226"><ele>190.0</ele><time>2026-04-29T16:14:50Z</time></trkpt><trkpt lat="43.324128476105805" lon="-0.40403964123644237"><ele>190.0</ele><time>2026-04-29T16:14:51Z</time></trkpt><trkpt lat="43.3241709402734" lon="-0.4041497798885819"><ele>189.8</ele><time>2026-04-29T16:14:52Z</time></trkpt><trkpt lat="43.32421679886249" lon="-0.4042604199511768"><ele>189.6</ele><time>2026-04-29T16:14:53Z</time></trkpt><trkpt lat="43.32426478940433" lon="-0.40436954747385545"><ele>189.39999999999998</ele><time>2026-04-29T16:14:54Z</time></trkpt><trkpt lat="43.32431367168673" lon="-0.4044784324231267"><ele>189.2</ele><time>2026-04-29T16:14:55Z</time></trkpt><trkpt lat="43.32436255300169" lon="-0.4045814578848913"><ele>189.0</ele><time>2026-04-29T16:14:56Z</time></trkpt><trkpt lat="43.32441527147707" lon="-0.40468612922377345"><ele>189.0</ele><time>2026-04-29T16:14:57Z</time></trkpt><trkpt lat="43.32446844878423" lon="-0.4047845421090731"><ele>189.0</ele><time>2026-04-29T16:14:58Z</time></trkpt><trkpt lat="43.32452470243621" lon="-0.40488846532759615"><ele>189.0</ele><time>2026-04-29T16:14:59Z</time></trkpt><trkpt lat="43.32463559862468" lon="-0.4050939625613465"><ele>189.0</ele><time>2026-04-29T16:15:01Z</time></trkpt><trkpt lat="43.324694188267" lon="-0.4051885768687179"><ele>188.83333333333334</ele><time>2026-04-29T16:15:02Z</time></trkpt><trkpt lat="43.32475249968061" lon="-0.40528554395728533"><ele>188.66666666666666</ele><time>2026-04-29T16:15:03Z</time></trkpt><trkpt lat="43.3248098588804" lon="-0.4053847798430806"><ele>188.5</ele><time>2026-04-29T16:15:04Z</time></trkpt><trkpt lat="43.32486725567725" lon="-0.40547913087626747"><ele>188.33333333333331</ele><time>2026-04-29T16:15:05Z</time></trkpt><trkpt lat="43.32492252843719" lon="-0.40557236183365286"><ele>188.16666666666666</ele><time>2026-04-29T16:15:06Z</time></trkpt><trkpt lat="43.324964859197415" lon="-0.40565324878549386"><ele>188.0</ele><time>2026-04-29T16:15:07Z</time></trkpt><trkpt lat="43.32502033876145" lon="-0.40574781606469695"><ele>188.0</ele><time>2026-04-29T16:15:08Z</time></trkpt><trkpt lat="43.32508236446824" lon="-0.40584486998975094"><ele>188.0</ele><time>2026-04-29T16:15:09Z</time></trkpt><trkpt lat="43.325148063587065" lon="-0.4059321011715757"><ele>188.0</ele><time>2026-04-29T16:15:10Z</time></trkpt><trkpt lat="43.32519484765586" lon="-0.40603228775354916"><ele>188.0</ele><time>2026-04-29T16:15:11Z</time></trkpt><trkpt lat="43.325254255933785" lon="-0.40612727095883144"><ele>188.0</ele><time>2026-04-29T16:15:12Z</time></trkpt><trkpt lat="43.32530427390609" lon="-0.4062353422496807"><ele>188.0</ele><time>2026-04-29T16:15:13Z</time></trkpt><trkpt lat="43.3253604219268" lon="-0.4063261834199664"><ele>188.0</ele><time>2026-04-29T16:15:14Z</time></trkpt><trkpt lat="43.32542229735186" lon="-0.4064173378129809"><ele>188.0</ele><time>2026-04-29T16:15:15Z</time></trkpt><trkpt lat="43.32547265206127" lon="-0.4065140900560191"><ele>188.0</ele><time>2026-04-29T16:15:16Z</time></trkpt><trkpt lat="43.32551756437413" lon="-0.40660040973746736"><ele>188.0</ele><time>2026-04-29T16:15:17Z</time></trkpt><trkpt lat="43.325568994811896" lon="-0.40669866489593753"><ele>188.0</ele><time>2026-04-29T16:15:18Z</time></trkpt><trkpt lat="43.32562846139829" lon="-0.40679899973218675"><ele>188.16666666666666</ele><time>2026-04-29T16:15:19Z</time></trkpt><trkpt lat="43.32567802718298" lon="-0.4069034140058396"><ele>188.33333333333331</ele><time>2026-04-29T16:15:20Z</time></trkpt><trkpt lat="43.32572685885274" lon="-0.4069968444115611"><ele>188.5</ele><time>2026-04-29T16:15:21Z</time></trkpt><trkpt lat="43.32577127098806" lon="-0.4070977521234809"><ele>188.66666666666666</ele><time>2026-04-29T16:15:22Z</time></trkpt><trkpt lat="43.32581687808902" lon="-0.4072062213503305"><ele>188.83333333333334</ele><time>2026-04-29T16:15:23Z</time></trkpt><trkpt lat="43.325864940759764" lon="-0.40730288564597805"><ele>189.0</ele><time>2026-04-29T16:15:24Z</time></trkpt><trkpt lat="43.32591831922625" lon="-0.4074002568855489"><ele>188.66666666666666</ele><time>2026-04-29T16:15:25Z</time></trkpt><trkpt lat="43.325957920693206" lon="-0.40750837658817235"><ele>188.33333333333334</ele><time>2026-04-29T16:15:26Z</time></trkpt><trkpt lat="43.32599789357586" lon="-0.4075974126032609"><ele>188.0</ele><time>2026-04-29T16:15:27Z</time></trkpt><trkpt lat="43.32603922476322" lon="-0.4077164432754015"><ele>187.66666666666669</ele><time>2026-04-29T16:15:28Z</time></trkpt><trkpt lat="43.32607921532042" lon="-0.4078345262528092"><ele>187.33333333333334</ele><time>2026-04-29T16:15:29Z</time></trkpt><trkpt lat="43.32611960777735" lon="-0.40792681221773003"><ele>187.0</ele><time>2026-04-29T16:15:30Z</time></trkpt><trkpt lat="43.326160108158874" lon="-0.4080118022265818"><ele>187.0</ele><time>2026-04-29T16:15:31Z</time></trkpt><trkpt lat="43.32618633317457" lon="-0.4081015678003178"><ele>187.0</ele><time>2026-04-29T16:15:32Z</time></trkpt><trkpt lat="43.326214739394686" lon="-0.4081831445085794"><ele>187.0</ele><time>2026-04-29T16:15:33Z</time></trkpt><trkpt lat="43.32627018185823" lon="-0.4083369154306791"><ele>187.0</ele><time>2026-04-29T16:15:35Z</time></trkpt><trkpt lat="43.326286014157745" lon="-0.40844548015838705"><ele>187.0</ele><time>2026-04-29T16:15:36Z</time></trkpt><trkpt lat="43.32636122839796" lon="-0.408565900833032"><ele>186.8</ele><time>2026-04-29T16:15:38Z</time></trkpt><trkpt lat="43.326466237803146" lon="-0.4086566869278725"><ele>186.6</ele><time>2026-04-29T16:15:40Z</time></trkpt><trkpt lat="43.3265808971963" lon="-0.40872442399300163"><ele>186.4</ele><time>2026-04-29T16:15:42Z</time></trkpt><trkpt lat="43.326660536521686" lon="-0.40863027349468417"><ele>186.20000000000002</ele><time>2026-04-29T16:15:43Z</time></trkpt><trkpt lat="43.32670825455963" lon="-0.40855707992601376"><ele>186.0</ele><time>2026-04-29T16:15:44Z</time></trkpt><trkpt lat="43.326727582859455" lon="-0.4084585030694613"><ele>186.00000000000003</ele><time>2026-04-29T16:15:45Z</time></trkpt><trkpt lat="43.326765034457" lon="-0.4083741370949806"><ele>186.0</ele><time>2026-04-29T16:15:46Z</time></trkpt><trkpt lat="43.32678948326615" lon="-0.4082778203109892"><ele>186.0</ele><time>2026-04-29T16:15:47Z</time></trkpt><trkpt lat="43.32682478670971" lon="-0.40819152925247887"><ele>186.0</ele><time>2026-04-29T16:15:48Z</time></trkpt><trkpt lat="43.32686681921582" lon="-0.40811853668611286"><ele>186.0</ele><time>2026-04-29T16:15:49Z</time></trkpt><trkpt lat="43.32691396727165" lon="-0.4080547825644884"><ele>186.00000000000003</ele><time>2026-04-29T16:15:50Z</time></trkpt><trkpt lat="43.32696302014143" lon="-0.4079851646284577"><ele>186.0</ele><time>2026-04-29T16:15:51Z</time></trkpt><trkpt lat="43.32701848036983" lon="-0.40794137513627465"><ele>187.5</ele><time>2026-04-29T16:15:52Z</time></trkpt><trkpt lat="43.32713220299239" lon="-0.4079054476317329"><ele>189.0</ele><time>2026-04-29T16:15:54Z</time></trkpt><trkpt lat="43.327246783965464" lon="-0.4078740251198516"><ele>190.5</ele><time>2026-04-29T16:15:56Z</time></trkpt><trkpt lat="43.327361733749164" lon="-0.4078376480805679"><ele>192.0</ele><time>2026-04-29T16:15:58Z</time></trkpt><trkpt lat="43.32746902534955" lon="-0.4077907396789802"><ele>192.2</ele><time>2026-04-29T16:16:00Z</time></trkpt><trkpt lat="43.327576919082155" lon="-0.4077488727881135"><ele>192.39999999999998</ele><time>2026-04-29T16:16:02Z</time></trkpt><trkpt lat="43.32767000334885" lon="-0.40768315124396703"><ele>192.60000000000002</ele><time>2026-04-29T16:16:04Z</time></trkpt><trkpt lat="43.327745947356526" lon="-0.4076273967560138"><ele>192.8</ele><time>2026-04-29T16:16:06Z</time></trkpt><trkpt lat="43.327819985254784" lon="-0.407549711230347"><ele>193.0</ele><time>2026-04-29T16:16:08Z</time></trkpt><trkpt lat="43.32786008681887" lon="-0.4074627471580757"><ele>193.0</ele><time>2026-04-29T16:16:10Z</time></trkpt><trkpt lat="43.32794262401761" lon="-0.4074157991871249"><ele>193.0</ele><time>2026-04-29T16:16:12Z</time></trkpt><trkpt lat="43.32801040532711" lon="-0.4073556495898772"><ele>193.0</ele><time>2026-04-29T16:16:14Z</time></trkpt><trkpt lat="43.328076868420055" lon="-0.4072800582772254"><ele>193.0</ele><time>2026-04-29T16:16:16Z</time></trkpt><trkpt lat="43.32815349144007" lon="-0.40720311476041343"><ele>193.0</ele><time>2026-04-29T16:16:18Z</time></trkpt><trkpt lat="43.32824615607293" lon="-0.4071067911607315"><ele>193.0</ele><time>2026-04-29T16:16:20Z</time></trkpt><trkpt lat="43.328326846117065" lon="-0.40699862190017644"><ele>193.0</ele><time>2026-04-29T16:16:22Z</time></trkpt><trkpt lat="43.32841211266145" lon="-0.40690109162100624"><ele>193.0</ele><time>2026-04-29T16:16:24Z</time></trkpt><trkpt lat="43.32850369646143" lon="-0.4067991909001125"><ele>193.0</ele><time>2026-04-29T16:16:26Z</time></trkpt><trkpt lat="43.32859378360413" lon="-0.40670177902793786"><ele>193.0</ele><time>2026-04-29T16:16:28Z</time></trkpt><trkpt lat="43.32867707428503" lon="-0.4065982473290097"><ele>193.0</ele><time>2026-04-29T16:16:30Z</time></trkpt><trkpt lat="43.32876268846914" lon="-0.4064983086025719"><ele>193.0</ele><time>2026-04-29T16:16:32Z</time></trkpt><trkpt lat="43.328852381870966" lon="-0.40639781874524517"><ele>193.0</ele><time>2026-04-29T16:16:34Z</time></trkpt><trkpt lat="43.32893998223736" lon="-0.406301298807205"><ele>193.25</ele><time>2026-04-29T16:16:36Z</time></trkpt><trkpt lat="43.329021246476884" lon="-0.4061913121362225"><ele>193.5</ele><time>2026-04-29T16:16:38Z</time></trkpt><trkpt lat="43.32910360034203" lon="-0.40609404274916"><ele>193.75</ele><time>2026-04-29T16:16:40Z</time></trkpt><trkpt lat="43.32919663934218" lon="-0.40601512447260407"><ele>194.0</ele><time>2026-04-29T16:16:42Z</time></trkpt><trkpt lat="43.32931963673593" lon="-0.4059788000801112"><ele>194.0</ele><time>2026-04-29T16:16:45Z</time></trkpt><trkpt lat="43.32939533376988" lon="-0.4061462295430611"><ele>194.0</ele><time>2026-04-29T16:16:49Z</time></trkpt><trkpt lat="43.32939204016475" lon="-0.40628610999855697"><ele>194.0</ele><time>2026-04-29T16:16:51Z</time></trkpt><trkpt lat="43.32940069315548" lon="-0.4064387363540463"><ele>194.0</ele><time>2026-04-29T16:16:53Z</time></trkpt><trkpt lat="43.32940554116452" lon="-0.4066104541106062"><ele>193.83333333333334</ele><time>2026-04-29T16:16:55Z</time></trkpt><trkpt lat="43.329410792365266" lon="-0.4068002178410872"><ele>193.66666666666669</ele><time>2026-04-29T16:16:57Z</time></trkpt><trkpt lat="43.32941445476961" lon="-0.40689090285699286"><ele>193.5</ele><time>2026-04-29T16:16:58Z</time></trkpt><trkpt lat="43.32941596684834" lon="-0.40697873677078805"><ele>193.33333333333331</ele><time>2026-04-29T16:16:59Z</time></trkpt><trkpt lat="43.32941537205507" lon="-0.407072782306458"><ele>193.16666666666666</ele><time>2026-04-29T16:17:00Z</time></trkpt><trkpt lat="43.32941484571614" lon="-0.4071697782726647"><ele>193.0</ele><time>2026-04-29T16:17:01Z</time></trkpt><trkpt lat="43.329413557311184" lon="-0.40726488700186325"><ele>192.85714285714286</ele><time>2026-04-29T16:17:02Z</time></trkpt><trkpt lat="43.32941423258195" lon="-0.40735814885106975"><ele>192.71428571428572</ele><time>2026-04-29T16:17:03Z</time></trkpt><trkpt lat="43.329410497133956" lon="-0.4074518715761292"><ele>192.57142857142856</ele><time>2026-04-29T16:17:04Z</time></trkpt><trkpt lat="43.32940244463801" lon="-0.40754379759054343"><ele>192.42857142857144</ele><time>2026-04-29T16:17:05Z</time></trkpt><trkpt lat="43.329401755488654" lon="-0.4076335373980498"><ele>192.28571428571428</ele><time>2026-04-29T16:17:06Z</time></trkpt><trkpt lat="43.32940079810908" lon="-0.4077359723834772"><ele>192.14285714285714</ele><time>2026-04-29T16:17:07Z</time></trkpt><trkpt lat="43.32939387423467" lon="-0.4078388304782196"><ele>192.0</ele><time>2026-04-29T16:17:08Z</time></trkpt><trkpt lat="43.32938728226994" lon="-0.4079410598521879"><ele>192.0</ele><time>2026-04-29T16:17:09Z</time></trkpt><trkpt lat="43.32938115615086" lon="-0.4080410560016233"><ele>192.0</ele><time>2026-04-29T16:17:10Z</time></trkpt><trkpt lat="43.32937462823678" lon="-0.40813925020791053"><ele>192.0</ele><time>2026-04-29T16:17:11Z</time></trkpt><trkpt lat="43.32936193464814" lon="-0.4083452662761615"><ele>192.0</ele><time>2026-04-29T16:17:13Z</time></trkpt><trkpt lat="43.32935150150113" lon="-0.40845129772621236"><ele>192.0</ele><time>2026-04-29T16:17:14Z</time></trkpt><trkpt lat="43.329348334539866" lon="-0.40855829192925613"><ele>192.0</ele><time>2026-04-29T16:17:15Z</time></trkpt><trkpt lat="43.32934231979927" lon="-0.408668546112167"><ele>192.0</ele><time>2026-04-29T16:17:16Z</time></trkpt><trkpt lat="43.32935238606615" lon="-0.4087826583856931"><ele>192.0</ele><time>2026-04-29T16:17:17Z</time></trkpt><trkpt lat="43.32933041514735" lon="-0.4088859037604"><ele>192.0</ele><time>2026-04-29T16:17:18Z</time></trkpt><trkpt lat="43.329322776983965" lon="-0.4089977027422124"><ele>192.0</ele><time>2026-04-29T16:17:19Z</time></trkpt><trkpt lat="43.32931715356426" lon="-0.4091093405705547"><ele>192.0</ele><time>2026-04-29T16:17:20Z</time></trkpt><trkpt lat="43.32931703143724" lon="-0.40921304882288245"><ele>192.0</ele><time>2026-04-29T16:17:21Z</time></trkpt><trkpt lat="43.32931426893032" lon="-0.409328239812446"><ele>192.0</ele><time>2026-04-29T16:17:22Z</time></trkpt><trkpt lat="43.32930857782332" lon="-0.409437939410021"><ele>192.0</ele><time>2026-04-29T16:17:23Z</time></trkpt><trkpt lat="43.32929988398988" lon="-0.4095487441968702"><ele>192.0</ele><time>2026-04-29T16:17:24Z</time></trkpt><trkpt lat="43.32929117879351" lon="-0.4096554384463346"><ele>192.0</ele><time>2026-04-29T16:17:25Z</time></trkpt><trkpt lat="43.32928649573179" lon="-0.40976550359610675"><ele>192.0</ele><time>2026-04-29T16:17:26Z</time></trkpt><trkpt lat="43.32928176510253" lon="-0.40987903801282555"><ele>191.83333333333334</ele><time>2026-04-29T16:17:27Z</time></trkpt><trkpt lat="43.32928068538819" lon="-0.40998734554944016"><ele>191.66666666666666</ele><time>2026-04-29T16:17:28Z</time></trkpt><trkpt lat="43.3292854195998" lon="-0.4100945282865157"><ele>191.5</ele><time>2026-04-29T16:17:29Z</time></trkpt><trkpt lat="43.329290230122275" lon="-0.4102041252597774"><ele>191.33333333333331</ele><time>2026-04-29T16:17:30Z</time></trkpt><trkpt lat="43.32929298790726" lon="-0.4103098174282984"><ele>191.16666666666666</ele><time>2026-04-29T16:17:31Z</time></trkpt><trkpt lat="43.32930621019276" lon="-0.41041892086890414"><ele>191.0</ele><time>2026-04-29T16:17:32Z</time></trkpt><trkpt lat="43.32932247257373" lon="-0.4105237124760058"><ele>191.0</ele><time>2026-04-29T16:17:33Z</time></trkpt><trkpt lat="43.32934910320703" lon="-0.4106333494648865"><ele>191.0</ele><time>2026-04-29T16:17:34Z</time></trkpt><trkpt lat="43.329401783889566" lon="-0.410841216766445"><ele>191.0</ele><time>2026-04-29T16:17:36Z</time></trkpt><trkpt lat="43.32943533193459" lon="-0.4109474062563039"><ele>191.0</ele><time>2026-04-29T16:17:37Z</time></trkpt><trkpt lat="43.3294685726556" lon="-0.4110554059959425"><ele>191.0</ele><time>2026-04-29T16:17:38Z</time></trkpt><trkpt lat="43.3295023889223" lon="-0.4111654985523637"><ele>191.0</ele><time>2026-04-29T16:17:39Z</time></trkpt><trkpt lat="43.32953671388316" lon="-0.41127097846999977"><ele>191.0</ele><time>2026-04-29T16:17:40Z</time></trkpt><trkpt lat="43.329566049110156" lon="-0.4113799510764494"><ele>191.0</ele><time>2026-04-29T16:17:41Z</time></trkpt><trkpt lat="43.32959650133688" lon="-0.4114892760446269"><ele>191.0</ele><time>2026-04-29T16:17:42Z</time></trkpt><trkpt lat="43.32963441260562" lon="-0.4116008273097355"><ele>191.0</ele><time>2026-04-29T16:17:43Z</time></trkpt><trkpt lat="43.329666693810346" lon="-0.411711114588256"><ele>191.0</ele><time>2026-04-29T16:17:44Z</time></trkpt><trkpt lat="43.329697279729295" lon="-0.41182335809028114"><ele>191.0</ele><time>2026-04-29T16:17:45Z</time></trkpt><trkpt lat="43.32973139243408" lon="-0.41193797403586513"><ele>191.0</ele><time>2026-04-29T16:17:46Z</time></trkpt><trkpt lat="43.329765199118754" lon="-0.4120484469639278"><ele>191.0</ele><time>2026-04-29T16:17:47Z</time></trkpt><trkpt lat="43.329799473680374" lon="-0.4121597141326163"><ele>191.0</ele><time>2026-04-29T16:17:48Z</time></trkpt><trkpt lat="43.32983046663384" lon="-0.41227105649767265"><ele>191.0</ele><time>2026-04-29T16:17:49Z</time></trkpt><trkpt lat="43.329854811530915" lon="-0.4123902137350067"><ele>191.0</ele><time>2026-04-29T16:17:50Z</time></trkpt><trkpt lat="43.32987781488861" lon="-0.4125041249151137"><ele>191.0</ele><time>2026-04-29T16:17:51Z</time></trkpt><trkpt lat="43.32989591342859" lon="-0.41262011614308847"><ele>191.0</ele><time>2026-04-29T16:17:52Z</time></trkpt><trkpt lat="43.3299147688632" lon="-0.4127358225056311"><ele>191.0</ele><time>2026-04-29T16:17:53Z</time></trkpt><trkpt lat="43.329934256928475" lon="-0.41284939755558947"><ele>191.0</ele><time>2026-04-29T16:17:54Z</time></trkpt><trkpt lat="43.32995034357456" lon="-0.412951864577492"><ele>191.0</ele><time>2026-04-29T16:17:55Z</time></trkpt><trkpt lat="43.32996870484656" lon="-0.41307002675522914"><ele>191.0</ele><time>2026-04-29T16:17:56Z</time></trkpt><trkpt lat="43.32998600436417" lon="-0.4131816017844096"><ele>190.5</ele><time>2026-04-29T16:17:57Z</time></trkpt><trkpt lat="43.33001098996452" lon="-0.41327928863956326"><ele>190.0</ele><time>2026-04-29T16:17:58Z</time></trkpt><trkpt lat="43.33003333153621" lon="-0.4133908734701588"><ele>189.5</ele><time>2026-04-29T16:17:59Z</time></trkpt><trkpt lat="43.33004794760269" lon="-0.4135029996206524"><ele>189.0</ele><time>2026-04-29T16:18:00Z</time></trkpt><trkpt lat="43.330055337540465" lon="-0.4136147957733719"><ele>188.5</ele><time>2026-04-29T16:18:01Z</time></trkpt><trkpt lat="43.33005260546367" lon="-0.4137317719428119"><ele>188.0</ele><time>2026-04-29T16:18:02Z</time></trkpt><trkpt lat="43.330041402989245" lon="-0.41384169561000056"><ele>188.0</ele><time>2026-04-29T16:18:03Z</time></trkpt><trkpt lat="43.33003113481537" lon="-0.41395737622766327"><ele>188.0</ele><time>2026-04-29T16:18:04Z</time></trkpt><trkpt lat="43.33001626166474" lon="-0.4140681277437066"><ele>188.0</ele><time>2026-04-29T16:18:05Z</time></trkpt><trkpt lat="43.32999290923489" lon="-0.41417795994529594"><ele>188.0</ele><time>2026-04-29T16:18:06Z</time></trkpt><trkpt lat="43.32997145199713" lon="-0.41428569222703593"><ele>188.0</ele><time>2026-04-29T16:18:07Z</time></trkpt><trkpt lat="43.32994564349902" lon="-0.41442169607918317"><ele>188.0</ele><time>2026-04-29T16:18:08Z</time></trkpt><trkpt lat="43.329908479545004" lon="-0.4145954870330137"><ele>188.14285714285714</ele><time>2026-04-29T16:18:10Z</time></trkpt><trkpt lat="43.32989701689838" lon="-0.41469251089195475"><ele>188.28571428571428</ele><time>2026-04-29T16:18:11Z</time></trkpt><trkpt lat="43.32988209753183" lon="-0.41478703268961997"><ele>188.42857142857144</ele><time>2026-04-29T16:18:12Z</time></trkpt><trkpt lat="43.32986080393425" lon="-0.4148834649955651"><ele>188.57142857142856</ele><time>2026-04-29T16:18:13Z</time></trkpt><trkpt lat="43.32984102525362" lon="-0.4149703481188598"><ele>188.71428571428572</ele><time>2026-04-29T16:18:14Z</time></trkpt><trkpt lat="43.32982070229337" lon="-0.41506420898468793"><ele>188.85714285714286</ele><time>2026-04-29T16:18:15Z</time></trkpt><trkpt lat="43.32980079130297" lon="-0.4151541285846889"><ele>189.0</ele><time>2026-04-29T16:18:16Z</time></trkpt><trkpt lat="43.32977035290163" lon="-0.4153040885778438"><ele>189.0</ele><time>2026-04-29T16:18:18Z</time></trkpt><trkpt lat="43.329752445071634" lon="-0.415409511497277"><ele>189.0</ele><time>2026-04-29T16:18:20Z</time></trkpt><trkpt lat="43.329582603228296" lon="-0.41539015321965983"><ele>189.0</ele><time>2026-04-29T16:18:22Z</time></trkpt><trkpt lat="43.32946048485043" lon="-0.41534947293741126"><ele>189.0</ele><time>2026-04-29T16:18:24Z</time></trkpt><trkpt lat="43.329398691056525" lon="-0.4153241478050479"><ele>189.0</ele><time>2026-04-29T16:18:25Z</time></trkpt><trkpt lat="43.329327506050085" lon="-0.4153139472049553"><ele>188.66666666666666</ele><time>2026-04-29T16:18:26Z</time></trkpt><trkpt lat="43.32924409565009" lon="-0.4152813303912584"><ele>188.33333333333334</ele><time>2026-04-29T16:18:27Z</time></trkpt><trkpt lat="43.32916704919457" lon="-0.4152686236125775"><ele>188.0</ele><time>2026-04-29T16:18:28Z</time></trkpt><trkpt lat="43.329095891772916" lon="-0.4152576184614855"><ele>187.66666666666669</ele><time>2026-04-29T16:18:29Z</time></trkpt><trkpt lat="43.32903105082061" lon="-0.4152465076203547"><ele>187.33333333333334</ele><time>2026-04-29T16:18:30Z</time></trkpt><trkpt lat="43.32899370888593" lon="-0.41508991198406414"><ele>187.0</ele><time>2026-04-29T16:18:31Z</time></trkpt><trkpt lat="43.32894964139183" lon="-0.4150182739036037"><ele>187.0</ele><time>2026-04-29T16:18:32Z</time></trkpt><trkpt lat="43.32883422195174" lon="-0.41500514273483025"><ele>187.0</ele><time>2026-04-29T16:18:34Z</time></trkpt><trkpt lat="43.32871227533748" lon="-0.4149648799431929"><ele>187.0</ele><time>2026-04-29T16:18:36Z</time></trkpt><trkpt lat="43.32865237438838" lon="-0.4149267588237984"><ele>187.0</ele><time>2026-04-29T16:18:37Z</time></trkpt><trkpt lat="43.32857195270826" lon="-0.4148327845940273"><ele>187.0</ele><time>2026-04-29T16:18:39Z</time></trkpt><trkpt lat="43.3286385754048" lon="-0.41483275682642684"><ele>187.0</ele><time>2026-04-29T16:18:44Z</time></trkpt><trkpt lat="43.32869215851841" lon="-0.41490480198492447"><ele>187.0</ele><time>2026-04-29T16:18:46Z</time></trkpt><trkpt lat="43.32875912613103" lon="-0.4149683770693735"><ele>187.0</ele><time>2026-04-29T16:18:48Z</time></trkpt><trkpt lat="43.328866816563725" lon="-0.4149845925437364"><ele>187.0</ele><time>2026-04-29T16:18:50Z</time></trkpt><trkpt lat="43.32896845781445" lon="-0.41502597599943936"><ele>187.0</ele><time>2026-04-29T16:18:52Z</time></trkpt><trkpt lat="43.32902507127001" lon="-0.4151385736453179"><ele>187.0</ele><time>2026-04-29T16:18:54Z</time></trkpt><trkpt lat="43.32899634734104" lon="-0.41529835181236613"><ele>187.0</ele><time>2026-04-29T16:18:56Z</time></trkpt><trkpt lat="43.32889556327602" lon="-0.4153925293987082"><ele>187.0</ele><time>2026-04-29T16:18:58Z</time></trkpt><trkpt lat="43.32878903404983" lon="-0.4154493510314403"><ele>187.0</ele><time>2026-04-29T16:19:00Z</time></trkpt><trkpt lat="43.32869809785376" lon="-0.41553490192729614"><ele>187.0</ele><time>2026-04-29T16:19:02Z</time></trkpt><trkpt lat="43.32863075164496" lon="-0.41566267102286564"><ele>187.0</ele><time>2026-04-29T16:19:04Z</time></trkpt><trkpt lat="43.32857711089221" lon="-0.4157213305772076"><ele>187.0</ele><time>2026-04-29T16:19:06Z</time></trkpt><trkpt lat="43.32842381616801" lon="-0.4155083974327147"><ele>187.0</ele><time>2026-04-29T16:19:08Z</time></trkpt><trkpt lat="43.328359440564185" lon="-0.41541592864328825"><ele>187.0</ele><time>2026-04-29T16:19:10Z</time></trkpt><trkpt lat="43.328263126846785" lon="-0.41537329578371723"><ele>187.0</ele><time>2026-04-29T16:19:12Z</time></trkpt><trkpt lat="43.32815698720539" lon="-0.41538566280036765"><ele>187.0</ele><time>2026-04-29T16:19:14Z</time></trkpt><trkpt lat="43.3280761330247" lon="-0.41536595875912025"><ele>187.0</ele><time>2026-04-29T16:19:17Z</time></trkpt><trkpt lat="43.3280761330247" lon="-0.41536595875912025"><ele>187.0</ele><time>2026-04-29T16:19:17Z</time></trkpt></trkseg></trk></gpx>